ECMWFFLT1_850_thetae_000.txt.gz
Theta_e
311 311 312 313 312 312 311 311 311 312 312 311 312 313 313 312 312 312 312 312 311 313 318 324 327 329 330 331 330 329 329 328 326 325 324 324 325 326 327 327 326 326 323 322 319 318 318 316 315 317 318 320 323 320 314 311 311 315 319 324 327 328 328
312 312 313 312 312 312 312 312 312 311 311 311 312 312 312 313 312 312 312 312 312 313 315 316 320 324 328 331 332 331 330 328 326 326 326 324 324 325 327 327 327 326 325 324 321 320 320 318 315 314 316 322 324 322 318 314 316 322 325 327 329 328 329
312 312 312 312 312 312 311 311 311 311 311 311 311 311 312 312 312 312 312 312 312 312 315 316 317 322 326 329 332 332 331 329 327 326 326 325 325 324 326 326 326 326 325 325 323 322 322 322 319 314 314 321 324 323 321 318 320 325 326 327 328 328 330
312 312 312 312 312 311 311 311 311 311 311 311 311 311 311 312 312 312 312 312 312 312 314 315 316 321 325 327 331 332 332 331 329 327 326 326 325 325 326 326 326 325 325 325 324 322 322 322 322 318 314 320 325 325 323 321 321 325 325 327 329 329 331
310 311 311 311 311 311 311 311 311 311 311 311 311 311 311 311 311 312 312 312 312 312 314 314 314 318 322 325 329 331 332 332 330 329 327 326 326 326 327 327 326 325 325 325 324 323 322 322 323 321 316 319 325 326 325 323 323 324 326 328 330 330 330
307 308 310 310 310 311 311 311 311 311 311 311 311 311 311 311 311 312 312 312 311 311 313 315 315 316 319 323 327 330 332 331 330 329 327 327 327 326 326 328 328 327 325 325 324 323 322 323 324 322 318 319 325 327 326 326 325 326 328 328 329 330 331
307 307 308 308 309 309 310 310 310 311 311 311 311 311 311 311 311 311 312 312 312 311 312 314 316 317 318 322 326 328 329 331 331 330 329 329 328 327 326 328 328 328 326 326 325 323 322 324 325 323 320 320 324 327 327 327 327 327 328 328 328 330 331
307 308 308 308 308 308 309 309 309 310 311 311 311 312 311 311 311 311 312 312 312 311 312 314 315 317 318 321 325 328 328 329 330 330 330 330 328 327 327 327 327 328 328 327 326 324 323 324 326 325 322 322 323 326 328 327 328 328 328 329 329 330 331
308 308 308 308 308 308 308 308 309 309 310 310 311 311 311 312 312 312 312 312 312 312 312 313 314 315 317 320 324 329 329 328 329 329 330 330 329 327 327 327 327 328 328 327 326 325 323 324 326 325 324 323 323 325 328 328 328 328 328 328 329 329 330
306 308 308 308 308 308 308 309 309 309 309 310 311 311 311 311 311 312 312 312 313 313 312 312 313 313 315 318 322 327 329 329 329 330 330 330 330 328 327 327 328 327 327 327 326 325 324 323 325 326 326 325 322 323 326 328 328 328 328 328 328 329 330
304 305 306 307 307 307 307 308 309 309 309 310 310 311 311 311 311 311 312 312 313 314 313 312 312 312 313 314 319 324 328 329 329 330 330 330 330 328 328 328 328 328 327 327 326 325 324 323 324 325 326 327 325 321 320 324 328 328 328 328 327 328 330
301 302 304 305 306 307 307 307 308 308 309 310 310 310 311 311 311 311 311 311 312 313 314 313 312 312 312 312 313 318 323 327 329 329 329 330 329 328 328 328 328 328 328 327 326 325 324 323 323 324 326 327 327 324 319 318 325 327 327 327 326 327 330
300 300 301 303 304 306 306 307 307 308 308 309 310 310 310 310 311 311 311 311 312 312 314 314 313 312 312 311 311 312 317 323 327 328 329 329 329 329 328 328 328 328 328 327 326 325 324 322 322 323 325 327 328 327 323 319 322 325 325 325 325 326 329
299 299 300 301 303 304 306 306 307 307 308 308 309 309 310 310 310 310 310 310 311 312 313 314 314 312 312 311 310 309 312 317 323 327 328 329 328 329 329 329 328 328 328 327 326 325 323 322 322 323 324 326 328 328 326 323 323 323 323 323 325 327 329
299 299 299 301 303 304 305 306 306 307 307 308 308 308 308 309 310 310 310 310 311 312 313 314 314 314 312 311 310 309 309 312 319 325 328 328 329 328 329 328 328 327 327 327 326 325 323 321 323 324 324 325 327 328 327 326 325 324 322 321 324 327 329
298 299 300 302 304 304 305 306 306 306 307 307 307 307 307 308 308 309 310 310 310 311 312 313 314 314 313 312 310 309 307 309 316 323 326 328 329 328 329 329 327 327 327 327 326 325 323 322 323 325 325 325 326 328 328 327 327 326 324 322 322 325 328
298 300 302 303 304 304 305 305 305 306 307 307 307 307 308 307 307 308 309 309 310 310 312 313 313 314 314 313 311 309 307 307 313 321 325 327 328 329 329 329 328 327 328 328 327 325 323 323 323 325 326 326 325 327 328 328 327 327 325 323 322 325 327
301 302 303 304 304 304 304 304 305 305 305 306 307 307 307 307 307 308 308 309 309 309 310 312 313 313 314 314 312 309 308 307 310 318 324 327 328 329 329 328 327 327 328 328 327 325 324 323 324 326 327 327 327 327 328 328 328 327 326 324 323 325 327
302 303 303 303 303 303 304 304 304 304 304 305 306 306 307 307 307 307 308 309 309 309 310 311 312 313 313 314 313 311 309 308 308 316 323 327 328 328 328 328 327 327 328 328 326 325 324 324 325 326 327 328 328 328 328 328 328 327 326 325 324 325 326
302 302 302 302 302 302 303 303 304 304 304 304 305 305 306 307 307 307 308 309 309 309 309 310 312 312 313 314 314 312 311 310 310 315 321 325 327 327 328 327 327 327 327 326 325 324 324 324 325 327 328 328 328 328 328 328 328 327 326 325 325 324 325
302 302 302 302 302 302 303 303 303 304 304 304 304 305 305 306 307 307 307 308 309 309 309 310 311 312 312 313 314 313 311 311 312 315 320 324 326 327 327 327 327 327 325 324 323 323 324 324 325 327 328 328 328 328 328 328 328 328 326 325 326 325 325
301 301 301 301 302 302 302 302 302 302 303 303 303 303 304 305 306 307 307 307 308 309 310 310 311 312 312 313 314 314 312 311 311 315 319 323 325 326 327 326 326 326 324 322 322 323 324 324 326 328 328 328 327 328 328 328 329 328 326 325 325 326 325
300 300 301 301 301 301 301 301 301 300 301 301 302 302 303 304 305 306 307 307 308 309 310 310 310 312 312 312 314 315 314 312 312 313 318 322 325 327 326 326 326 326 324 322 322 323 324 324 326 327 328 327 327 327 328 328 328 328 327 326 326 326 326
300 300 301 301 300 300 300 299 299 299 299 299 300 301 302 303 304 305 307 308 308 309 310 310 310 311 312 312 314 315 315 314 313 314 317 321 324 326 326 326 325 324 323 322 321 323 324 325 326 327 327 327 327 329 329 329 328 327 328 328 328 327 326
300 300 300 300 299 298 298 298 298 298 298 298 299 299 300 302 303 305 306 307 308 308 309 310 310 310 312 313 314 316 317 315 315 316 318 321 323 325 326 326 325 324 323 322 322 323 325 326 326 326 327 326 327 328 329 329 329 329 328 329 329 327 325
300 300 299 298 298 297 297 297 298 298 298 298 298 299 300 302 303 305 307 308 308 308 308 309 309 310 312 313 314 316 317 317 316 317 319 323 324 325 326 326 325 324 323 322 322 324 325 326 326 326 326 326 326 327 328 328 329 329 329 329 329 327 326
299 298 298 297 297 297 297 297 298 298 298 298 298 298 300 303 304 306 308 308 308 308 308 309 309 310 312 314 315 317 318 318 317 318 321 323 325 326 326 325 324 323 322 322 323 325 325 326 326 326 326 325 325 327 328 328 328 329 328 328 329 328 327
298 297 297 297 296 297 297 297 298 298 298 298 298 298 300 303 304 306 308 310 311 311 309 309 309 310 313 315 315 317 318 318 318 319 321 323 325 326 325 323 322 321 321 321 323 325 326 326 326 326 326 326 326 327 328 328 329 329 328 328 328 328 327
297 296 296 296 296 296 297 297 297 297 297 298 299 300 301 303 304 306 308 311 313 312 311 310 310 311 313 315 316 317 318 318 317 319 321 323 325 325 323 321 321 321 321 321 322 325 326 325 324 325 326 326 327 328 329 329 329 329 328 327 326 325 324
296 296 296 296 296 297 296 297 297 297 297 299 300 302 303 305 305 307 309 312 313 312 312 311 311 312 314 315 316 318 318 317 317 318 320 323 325 324 321 319 320 321 320 321 323 324 325 324 324 325 326 327 327 328 328 328 327 327 326 323 321 318 317
296 296 296 296 296 296 296 296 296 296 297 298 300 302 304 305 306 307 310 312 313 313 313 312 311 312 314 315 316 317 317 318 318 318 320 323 324 323 320 319 320 320 320 321 322 323 324 324 325 325 326 326 327 326 326 325 325 324 321 317 314 312 312
296 296 296 296 296 295 295 295 295 296 296 297 299 301 302 304 305 308 310 311 312 313 313 311 310 311 314 316 316 316 317 318 318 319 320 322 323 322 321 320 322 323 323 324 324 324 324 325 325 325 324 324 323 323 323 323 322 321 317 313 310 310 308
296 296 296 296 295 295 295 295 295 296 297 298 300 301 302 303 306 308 310 311 312 312 311 310 310 311 314 316 316 315 316 318 319 319 320 322 323 322 322 323 324 324 323 323 324 325 325 325 325 325 323 323 322 322 322 321 319 317 315 312 309 307 306
296 296 296 296 296 295 295 295 295 296 298 300 301 302 304 305 307 310 311 311 311 311 311 311 311 311 314 316 316 315 315 317 320 320 321 323 324 323 324 324 324 322 321 321 323 323 324 323 324 324 323 323 323 322 320 319 317 315 313 311 308 306 304
295 296 297 297 296 295 295 296 296 297 299 300 301 303 306 308 309 310 310 310 310 311 311 312 312 313 314 316 316 315 315 317 319 320 322 323 324 324 325 323 322 321 321 321 321 320 320 321 321 322 322 322 322 322 320 319 316 313 311 309 307 304 302
295 296 297 297 296 296 296 296 296 297 299 300 300 301 305 308 309 309 309 309 309 311 312 313 313 314 314 316 317 317 316 317 319 320 322 324 323 324 324 322 321 319 319 319 319 318 318 319 320 321 321 321 321 320 319 317 315 312 309 306 304 301 298
294 295 296 297 297 296 296 296 297 296 298 299 299 299 301 303 306 307 307 308 308 309 312 313 314 314 314 315 316 316 316 317 318 319 320 322 323 323 322 320 318 316 317 319 319 317 317 318 321 322 321 320 320 319 318 316 313 311 307 304 301 298 295

ECMWFFLT1_850_thetae_003.txt.gz
Theta_e
303 303 306 310 311 312 312 312 312 312 312 311 311 311 311 311 312 312 313 313 312 314 317 320 324 326 324 320 323 330 330 328 327 326 326 325 325 324 323 322 322 323 323 323 323 323 323 322 318 312 314 318 317 317 320 320 320 316 306 302 304 304 305
304 304 304 307 309 310 311 312 312 312 311 311 311 311 311 311 311 312 312 313 313 313 315 318 321 325 328 328 328 330 330 329 328 327 327 326 325 325 324 323 323 324 324 325 325 324 322 323 322 318 316 316 312 312 317 320 320 318 311 306 307 309 310
305 305 304 305 306 308 309 310 310 311 311 311 311 310 311 311 310 311 312 313 313 312 313 316 320 322 324 327 329 330 330 330 329 328 328 327 326 326 325 324 324 324 326 326 326 325 324 323 324 322 319 315 312 311 314 319 320 318 315 313 313 316 319
305 306 306 305 306 306 307 308 308 309 309 310 310 311 311 311 311 311 311 312 312 313 312 313 317 321 323 324 324 326 328 328 329 329 328 328 328 327 326 324 324 324 325 326 326 326 326 325 324 323 322 317 315 316 313 316 320 319 319 320 321 323 325
305 305 305 306 306 306 307 307 308 308 308 308 308 309 310 310 311 311 311 311 311 312 312 312 312 315 318 321 322 322 323 324 326 329 329 329 329 328 327 326 324 324 324 324 325 325 325 326 325 324 324 321 320 322 318 316 320 320 321 323 325 326 327
303 304 304 305 306 306 307 308 309 308 308 308 308 308 308 309 310 311 311 311 311 311 312 312 312 312 313 316 321 323 321 320 323 327 329 328 327 328 328 327 325 324 325 324 325 325 324 325 327 325 325 323 322 324 322 320 321 322 322 324 325 326 327
303 303 303 304 304 305 306 308 309 309 309 309 309 309 308 308 309 310 311 311 311 311 311 312 312 312 312 313 318 322 321 320 321 324 328 329 327 328 328 326 326 325 325 324 325 325 324 325 326 326 326 325 323 324 324 323 323 322 322 324 325 325 326
303 303 302 302 303 303 304 306 308 309 309 309 309 309 309 309 309 309 310 311 312 311 311 312 312 312 312 312 314 317 320 321 321 322 326 329 329 329 329 326 325 326 326 325 325 325 325 325 326 326 326 326 325 325 325 324 324 322 322 323 325 325 326
303 302 302 302 302 302 303 304 305 307 308 309 309 309 309 309 310 309 309 310 312 312 311 312 312 312 312 312 313 315 317 319 321 321 323 327 330 329 329 327 326 326 326 326 326 326 325 325 325 326 326 326 326 325 325 326 325 324 323 323 324 325 327
303 302 302 301 301 301 302 302 303 304 306 308 308 309 308 309 309 310 310 310 310 311 312 312 312 312 312 312 313 314 316 319 321 321 321 323 327 329 328 328 327 326 326 327 327 326 326 326 326 326 325 326 326 325 325 326 326 325 323 323 324 326 327
302 302 301 301 301 301 301 301 301 302 303 304 306 308 309 309 309 309 310 310 310 311 311 312 312 312 312 312 312 313 314 317 319 322 323 322 325 328 329 328 328 327 326 326 327 327 327 327 327 326 326 326 326 325 325 325 326 326 324 323 324 326 327
302 301 301 300 300 301 301 301 301 301 302 302 304 306 308 308 309 309 309 310 310 310 311 311 312 312 313 312 312 313 313 315 316 319 322 323 324 327 329 329 328 327 327 327 327 327 327 327 327 327 326 326 327 326 326 325 326 327 325 324 324 326 326
301 301 300 300 299 300 300 300 300 301 301 301 303 305 306 308 308 309 309 309 310 310 310 311 311 311 313 313 313 312 313 314 315 316 318 322 326 326 327 328 329 328 327 327 327 327 327 327 327 327 327 326 326 326 326 326 325 326 326 325 324 326 327
300 300 299 299 299 299 299 300 300 301 301 302 303 304 306 307 308 308 308 309 309 309 309 310 311 311 312 313 313 313 313 313 315 316 316 319 324 326 326 327 328 329 328 328 327 328 328 327 327 328 327 327 327 325 325 326 326 327 326 324 325 327 328
299 298 298 298 298 299 299 300 301 301 302 303 304 305 306 306 307 307 308 308 309 309 309 309 310 311 311 312 312 313 313 313 314 316 316 316 319 324 327 327 328 329 329 328 328 328 328 328 327 329 328 327 327 326 324 326 326 326 326 324 324 327 328
297 297 297 297 298 298 299 300 301 302 303 304 304 305 306 306 307 307 307 308 308 309 309 309 309 310 311 312 313 313 313 313 313 314 315 316 317 320 325 328 329 329 329 329 328 328 328 328 328 329 328 327 327 327 325 325 326 326 326 324 323 324 326
295 295 296 298 298 298 299 300 301 302 303 303 304 305 305 306 306 306 307 307 308 308 309 309 309 309 310 312 313 314 314 314 314 314 314 315 317 320 323 326 328 330 329 329 329 328 328 328 328 329 328 327 327 327 325 325 326 327 326 325 323 322 324
295 296 297 298 299 299 300 301 302 302 302 303 303 303 304 305 305 305 306 307 307 308 308 309 309 309 309 310 312 314 314 314 314 314 314 314 315 319 322 323 326 329 329 328 329 329 327 327 328 328 329 328 327 326 325 325 327 328 327 326 325 323 323
295 296 297 298 299 300 301 301 301 301 301 301 301 302 302 304 304 305 305 306 306 306 307 308 309 309 309 309 310 312 313 314 314 315 315 314 313 316 320 322 323 327 329 329 328 329 327 327 327 328 328 328 327 327 326 327 328 328 328 327 326 325 324
296 297 298 299 300 301 301 301 301 301 300 300 300 301 301 302 303 304 304 305 306 306 306 307 308 309 309 309 309 310 311 312 314 315 315 315 313 313 316 321 323 325 328 329 328 328 329 328 327 327 327 328 328 327 327 327 327 328 328 328 326 326 325
297 298 300 300 301 301 301 300 300 300 300 300 300 300 300 300 301 301 302 304 306 306 305 306 307 308 309 309 309 310 311 312 313 314 315 316 315 313 312 317 322 323 326 329 329 328 328 328 327 326 327 328 327 327 327 326 327 328 328 328 327 326 325
297 299 300 300 300 300 300 300 299 299 299 299 299 299 299 299 299 300 301 302 304 305 305 305 306 308 309 309 309 310 311 312 312 313 315 316 317 315 311 311 318 322 324 327 328 328 328 328 328 327 327 327 327 327 326 326 326 328 328 327 327 326 323
299 300 300 300 299 299 299 299 299 299 299 299 299 299 299 298 299 299 300 300 302 303 304 306 307 308 309 309 309 309 311 313 312 312 314 316 317 316 312 308 312 319 322 324 327 328 329 328 328 327 327 327 327 326 326 325 326 327 327 327 327 326 324
300 300 299 299 298 298 298 298 298 298 298 298 298 298 298 298 298 299 299 300 300 301 303 305 306 307 308 308 308 309 311 313 313 312 314 316 316 316 313 308 309 316 321 323 325 327 328 329 328 328 327 326 326 326 325 325 326 326 327 327 327 327 325
300 299 298 298 298 298 298 298 298 298 298 298 298 297 297 297 298 298 298 299 299 300 303 305 306 306 306 307 308 308 310 313 314 313 314 316 316 316 314 310 311 316 320 322 325 326 328 329 328 328 327 326 326 326 326 324 325 326 326 327 327 326 326
299 298 298 298 298 298 298 298 298 298 298 297 297 297 297 297 297 297 297 298 298 299 302 305 306 306 305 305 307 308 309 311 314 315 314 315 316 316 314 312 312 315 319 322 325 326 327 328 328 327 327 327 327 326 326 325 324 325 326 327 327 327 327
298 297 297 298 298 298 298 298 298 298 297 297 296 296 296 296 296 296 297 297 298 298 301 303 305 306 306 305 306 308 309 310 312 315 315 315 315 315 313 312 311 313 319 323 324 326 327 327 327 327 327 327 326 326 325 325 324 325 325 326 326 327 327
298 297 297 297 297 298 298 298 298 297 296 295 295 295 296 296 296 296 297 297 298 298 300 303 305 305 305 305 307 308 309 310 311 314 315 314 314 313 312 313 312 313 319 323 324 325 327 327 326 327 327 326 325 325 325 324 324 325 325 325 326 326 326
297 296 296 297 297 297 298 298 297 296 295 295 295 295 295 295 295 296 297 297 298 298 300 303 304 305 306 307 308 308 309 310 311 313 314 314 314 314 315 315 314 313 316 322 324 325 326 327 326 326 326 325 325 325 324 324 324 324 325 325 325 325 325
296 295 295 296 296 297 297 297 296 295 294 294 294 295 295 295 296 296 297 297 298 299 301 304 304 305 307 308 308 308 309 310 311 313 314 314 315 316 316 316 315 313 312 317 323 325 325 326 326 325 325 324 324 323 324 323 323 324 324 325 324 324 324
295 295 295 295 296 297 296 296 296 296 295 295 295 295 296 296 297 298 298 298 299 300 302 305 306 306 307 308 309 309 309 310 312 313 313 314 315 316 316 316 317 315 313 315 321 324 325 326 326 325 325 323 322 323 324 323 324 324 323 323 323 323 322
295 295 294 295 296 296 296 296 296 296 296 295 295 296 296 297 298 300 300 300 301 302 304 306 307 308 308 309 310 311 310 310 312 313 313 314 315 316 316 317 317 317 315 315 318 321 324 325 325 325 324 323 322 323 323 323 324 324 324 323 323 322 321
296 295 294 295 295 295 296 296 296 296 295 295 295 296 297 297 299 301 302 301 302 304 305 306 308 309 310 311 311 311 310 311 312 313 313 314 315 316 317 317 318 318 318 317 318 320 323 324 324 324 324 323 323 323 323 322 323 324 324 324 323 321 321
295 295 295 295 295 295 296 296 296 295 295 295 295 296 298 298 300 302 303 302 303 306 307 308 309 310 311 312 311 311 310 311 313 313 314 315 316 316 317 317 318 319 319 319 321 322 323 324 324 324 323 322 323 324 323 322 322 322 322 323 322 320 319
296 295 295 295 295 295 296 296 295 295 294 294 295 296 298 299 300 302 304 304 305 307 308 309 310 311 312 312 312 311 312 313 314 314 315 316 317 317 317 317 317 319 320 320 321 322 323 323 323 322 322 322 322 323 323 323 322 321 320 322 321 319 315
295 295 295 295 295 295 295 295 295 294 294 294 294 295 297 300 301 302 303 305 307 309 310 311 311 312 313 313 313 312 313 314 315 315 315 316 317 317 317 317 318 319 319 319 320 321 322 322 322 322 321 322 321 322 322 321 321 320 321 321 320 316 313
295 295 295 295 295 295 294 295 295 294 293 294 294 294 296 298 301 302 303 305 307 309 311 311 311 312 313 313 313 313 313 313 314 316 316 316 316 316 316 316 317 318 318 318 320 322 322 321 321 321 321 321 320 319 318 318 318 319 319 318 317 314 311

ECMWFFLT1_850_thetae_006.txt.gz
Theta_e
305 304 304 305 305 305 306 310 312 313 314 314 314 314 314 314 315 314 313 312 312 313 313 316 320 316 313 321 328 331 332 331 328 327 328 328 329 327 325 324 326 327 328 328 328 327 327 327 327 327 326 327 325 323 323 324 324 323 321 317 315 314 310
305 305 304 304 305 306 306 306 308 309 311 313 314 314 313 314 315 315 315 314 313 312 312 313 317 318 318 320 325 328 330 330 329 328 328 328 329 328 326 325 326 327 327 327 327 327 327 325 326 327 327 326 325 324 324 325 324 324 324 320 318 319 317
305 305 304 303 304 305 305 306 307 308 309 310 311 313 313 313 314 314 315 315 314 313 313 312 313 317 321 322 322 324 326 325 327 329 328 325 326 328 327 326 326 328 328 327 327 327 327 326 326 325 326 326 324 325 325 325 325 325 325 323 321 322 322
305 305 304 304 303 303 303 304 306 307 308 309 310 311 312 312 313 314 314 315 315 314 313 313 312 314 319 323 323 323 324 323 324 326 325 323 324 325 327 326 326 327 328 329 328 328 327 327 326 326 325 325 325 326 326 325 325 325 325 325 324 323 325
305 305 305 304 304 303 303 303 303 304 305 307 309 310 312 312 311 312 313 314 315 315 314 312 312 313 315 319 323 324 324 325 325 325 323 321 321 324 326 325 325 325 327 329 329 328 328 328 327 327 325 325 325 325 325 325 324 324 325 325 324 325 326
305 305 305 304 304 303 303 303 303 303 302 303 305 307 310 311 311 310 311 313 315 315 315 314 312 312 314 315 320 324 324 324 326 327 324 321 321 323 325 326 325 324 325 327 329 329 328 328 328 327 326 324 324 323 323 325 325 324 324 325 325 325 325
305 305 305 304 304 303 303 303 303 303 303 303 302 303 305 307 309 309 310 311 312 313 315 315 314 312 312 313 316 321 324 324 325 326 326 325 325 324 321 322 325 326 325 325 328 329 329 329 328 327 327 325 324 323 323 325 325 323 324 325 325 325 325
304 304 305 304 304 303 303 303 303 303 303 303 303 302 302 303 305 308 309 309 310 311 313 314 315 314 313 312 313 316 320 323 325 325 325 326 327 325 319 318 319 321 323 325 327 328 329 329 329 328 327 326 325 324 323 324 324 323 324 325 325 325 326
304 304 304 304 304 303 303 303 303 303 303 303 303 303 302 302 302 304 307 309 310 310 310 311 314 316 315 314 313 312 314 317 321 323 325 325 325 326 322 320 319 315 316 323 327 328 328 329 329 328 327 326 326 325 324 324 324 323 324 324 323 325 325
304 304 304 304 303 303 303 303 303 303 303 302 302 302 302 302 302 302 304 307 309 310 310 311 313 315 316 316 315 314 312 312 314 317 322 325 325 323 323 322 323 319 315 317 323 326 327 328 328 328 327 327 326 326 324 324 324 324 324 323 322 323 323
304 304 304 304 304 303 303 303 303 302 302 302 301 302 301 302 302 303 303 304 307 309 310 311 312 312 314 316 316 316 315 314 312 313 317 322 324 323 323 323 324 324 321 317 316 320 323 325 327 327 327 327 326 326 325 324 324 324 325 325 323 322 321
304 304 304 303 303 303 302 302 302 302 301 301 301 301 302 303 304 305 305 304 305 307 309 310 311 311 313 315 316 317 317 316 315 313 313 317 322 323 324 324 325 324 325 323 320 320 321 323 326 327 327 328 327 326 326 324 324 325 325 325 324 323 322
304 304 303 303 302 302 302 302 302 302 302 302 301 301 303 304 305 305 305 305 305 306 307 309 310 310 311 313 315 316 317 317 317 316 314 314 319 323 323 324 326 324 324 326 325 326 325 325 327 327 327 328 327 327 327 325 325 325 326 326 325 323 323
304 303 303 302 302 301 300 301 302 303 303 303 302 301 302 303 304 305 305 305 306 306 307 308 309 310 310 312 314 315 315 316 317 318 317 315 316 320 322 323 326 325 324 325 326 327 328 328 328 327 327 328 328 327 327 326 326 325 327 327 326 324 322
303 302 302 301 301 300 300 302 303 304 303 303 303 302 302 303 304 304 304 305 306 306 307 307 308 309 310 311 313 314 315 316 316 317 318 318 317 318 320 322 324 324 324 326 326 326 326 328 328 327 327 327 328 327 327 327 326 326 328 327 326 324 323
302 302 301 300 300 300 301 302 303 303 303 303 303 302 302 303 304 304 304 304 305 306 306 307 308 308 309 310 311 313 314 315 316 316 317 318 318 318 319 320 322 324 325 326 327 326 326 327 328 328 327 326 327 328 327 327 326 325 328 328 325 324 324
302 301 300 300 300 300 301 302 303 303 302 302 303 302 303 303 304 304 304 304 304 305 306 306 307 307 308 309 310 311 313 314 315 316 316 317 318 318 319 319 320 323 324 325 327 327 328 328 329 328 327 326 327 328 328 328 327 326 327 328 324 322 324
301 301 299 299 300 301 301 301 302 303 302 303 303 303 303 303 303 303 304 304 304 305 305 306 306 307 307 308 309 310 311 313 314 315 316 317 317 318 319 319 319 320 321 323 326 327 328 328 328 328 328 326 327 328 328 327 327 326 327 327 324 320 322
300 299 298 298 300 301 301 302 302 303 303 303 303 303 303 303 303 303 303 303 304 304 305 305 306 306 307 307 308 308 310 311 313 314 315 316 317 318 318 319 319 319 319 320 322 326 328 328 328 328 328 328 328 328 328 328 328 326 326 326 324 321 322
298 297 298 299 300 301 302 302 302 303 303 303 303 303 302 302 302 302 303 303 303 303 303 304 305 305 306 306 307 308 308 310 312 314 315 315 316 317 318 318 319 319 318 319 320 323 326 328 328 328 328 328 328 329 328 328 328 327 326 326 324 324 325
297 297 298 300 301 302 302 302 302 302 302 302 302 302 302 302 302 302 302 302 302 303 303 303 304 304 305 306 306 307 308 309 310 313 314 315 316 317 317 318 319 318 317 319 320 321 323 327 328 329 329 329 328 329 329 328 328 328 327 326 324 325 326
297 298 300 301 302 302 301 302 302 302 302 302 302 301 301 301 301 301 302 302 302 302 302 302 303 303 304 305 305 306 307 308 309 311 314 315 316 316 317 317 318 318 317 317 319 320 321 325 329 329 329 329 329 329 329 329 329 329 327 325 324 325 325
299 301 301 301 301 301 301 301 301 301 301 301 301 301 301 301 300 301 301 301 301 301 302 302 302 302 303 304 304 305 306 307 308 309 312 314 315 316 316 317 318 318 316 316 318 319 320 322 326 328 329 329 329 328 329 329 329 329 327 325 325 326 325
301 301 301 301 301 301 301 301 301 301 301 301 301 301 300 300 300 300 300 300 300 301 301 301 301 301 302 302 303 304 305 306 307 308 310 313 315 316 316 317 317 318 317 315 315 318 318 319 322 326 328 329 329 328 328 329 329 329 327 325 325 327 327
301 301 301 301 300 300 300 300 300 300 300 300 300 300 300 300 300 300 300 300 300 300 300 300 300 301 301 301 301 301 302 304 305 307 309 311 313 315 316 317 317 318 318 317 315 316 316 317 319 323 327 328 328 328 327 328 329 329 327 326 327 328 327
301 300 300 300 300 300 299 299 299 299 299 299 299 299 299 299 299 299 299 299 299 299 299 299 299 299 300 300 300 300 300 301 303 305 307 310 313 315 316 316 317 318 318 318 318 317 316 315 316 321 325 327 328 328 327 327 328 328 328 327 327 328 327
300 300 300 300 299 299 298 298 298 298 298 298 298 298 298 298 298 298 298 298 298 298 299 299 298 298 299 299 299 299 299 300 301 302 305 307 311 314 315 316 317 318 318 319 319 318 317 315 315 318 323 326 327 328 327 327 328 327 327 327 327 327 326
300 299 299 299 298 298 298 298 297 297 297 297 297 297 297 297 297 297 297 297 297 297 297 297 298 298 298 298 298 298 299 299 300 301 303 305 308 313 315 316 317 318 319 319 319 318 317 316 316 317 320 324 327 327 327 327 327 327 327 327 327 327 325
299 299 299 298 298 298 297 297 297 296 296 296 296 296 296 296 296 297 296 296 296 296 297 297 297 297 297 297 297 298 298 299 299 300 302 304 306 311 315 316 316 317 318 319 319 318 316 317 317 316 317 322 326 326 326 326 326 326 326 326 327 327 326
299 299 298 298 298 297 297 297 296 296 296 295 296 296 296 296 296 296 296 296 296 296 297 297 297 298 298 298 297 298 298 299 299 300 302 304 305 309 313 316 317 317 318 319 319 319 317 317 317 314 315 321 325 326 325 326 325 326 326 327 326 326 326
298 298 298 298 297 297 297 296 296 296 295 295 295 295 295 295 295 295 295 295 296 296 296 297 298 298 298 299 298 298 299 300 300 301 302 303 305 308 311 315 316 318 318 319 319 318 317 316 315 314 316 321 324 325 325 325 325 325 326 326 326 325 325
298 298 298 298 297 297 296 296 296 295 295 295 295 295 294 294 294 295 295 295 296 296 296 298 298 298 299 300 299 299 299 300 301 302 303 304 306 308 310 313 315 317 318 319 319 318 317 316 316 315 316 320 324 325 326 325 325 325 326 326 325 325 325
298 297 297 297 297 296 296 296 295 295 294 294 294 294 294 294 294 294 295 295 296 296 297 298 299 299 300 300 299 299 300 301 302 303 305 306 307 309 310 312 315 316 317 318 319 319 317 316 314 314 315 319 323 325 325 324 325 325 325 325 324 324 324
298 297 297 297 297 296 296 295 295 294 294 294 294 293 293 293 293 294 295 295 296 297 298 299 300 300 300 300 300 301 302 302 303 305 306 307 308 310 311 313 315 316 316 317 318 319 319 317 314 312 314 319 323 324 324 325 325 325 325 324 324 324 323
298 297 297 297 296 296 296 295 294 294 293 293 293 293 293 293 293 294 295 295 296 297 299 300 300 301 301 301 302 303 304 304 305 306 307 308 309 310 312 314 316 317 316 316 316 319 319 317 314 313 315 319 323 323 324 325 324 324 325 324 324 324 322
298 297 297 296 296 296 295 294 294 293 293 293 292 292 292 292 293 293 294 295 296 297 299 300 301 303 303 303 304 305 306 306 307 307 308 310 311 311 312 313 315 316 316 316 317 318 317 316 316 316 316 320 322 322 323 324 323 323 324 323 322 322 320
297 297 296 296 296 295 294 294 293 293 292 292 292 292 291 292 292 293 294 294 295 297 299 300 302 304 305 306 307 307 307 308 309 309 310 311 312 312 312 313 315 315 316 316 317 316 316 316 317 318 318 320 321 321 322 323 322 322 322 322 321 320 318

ECMWFFLT1_850_thetae_009.txt.gz
Theta_e
310 308 307 307 306 305 304 304 309 314 315 315 314 315 315 315 316 316 316 317 318 318 318 319 321 323 324 323 320 317 316 319 323 327 329 328 328 329 329 328 327 326 327 327 328 328 328 329 330 330 329 328 328 328 327 327 325 324 326 326 325 324 325
308 307 310 309 306 306 305 304 305 308 312 314 314 315 315 315 315 315 316 317 317 318 319 320 320 321 322 322 323 323 321 321 323 324 325 326 327 330 330 328 326 326 326 326 327 328 328 328 329 330 330 329 328 328 327 326 325 325 326 326 324 323 324
307 307 309 308 306 306 306 305 304 306 310 311 310 311 312 313 314 315 316 316 317 317 318 319 319 319 319 318 320 324 323 322 325 326 326 327 329 331 330 328 327 326 326 326 326 328 328 328 329 329 329 329 329 328 327 326 326 326 326 326 325 323 323
306 306 306 307 306 306 306 305 306 307 308 307 306 307 309 310 310 312 313 314 316 317 317 318 318 317 317 315 315 321 324 324 324 326 326 328 331 332 330 328 328 328 327 326 326 327 328 328 329 329 328 328 329 329 328 327 326 326 326 326 326 324 323
306 306 306 306 306 306 306 306 307 308 309 309 308 308 309 309 307 306 307 310 312 315 316 317 318 318 318 318 316 318 322 325 325 324 325 327 330 331 331 329 328 329 328 327 326 327 329 329 329 329 328 327 328 328 327 327 327 327 327 326 326 325 324
306 305 305 306 306 306 307 307 306 307 309 310 309 307 307 306 305 304 304 304 307 311 314 316 317 318 319 319 320 319 320 322 325 325 324 326 328 329 329 329 328 328 329 328 326 326 327 329 330 329 329 328 327 327 326 327 328 327 326 326 326 326 324
305 305 305 305 305 306 307 306 305 305 306 306 306 305 305 304 304 304 304 303 303 305 309 312 313 315 317 318 319 319 319 319 322 325 325 325 327 327 327 328 329 329 328 327 326 325 325 326 327 328 329 329 328 328 326 326 327 327 326 325 326 326 325
305 305 305 305 305 305 305 305 305 305 305 304 305 305 304 304 304 304 304 303 303 302 304 307 310 311 313 316 317 318 319 318 319 322 324 325 325 326 327 327 328 328 327 327 325 323 323 324 325 326 328 329 329 328 327 325 326 326 325 324 325 325 325
306 305 305 305 305 305 305 305 305 304 304 304 304 304 304 304 304 304 303 303 303 302 302 304 308 310 310 312 315 317 318 318 318 319 321 324 325 325 326 326 326 327 326 325 325 323 322 323 325 325 325 328 329 328 328 326 325 326 325 324 324 324 324
306 305 305 305 305 305 305 305 305 305 305 304 304 304 304 304 303 303 302 302 302 302 301 302 305 309 310 311 314 317 317 317 319 319 319 321 323 325 325 325 326 327 326 324 322 321 322 325 326 324 324 326 327 328 328 327 325 325 325 324 324 323 324
306 305 305 305 305 305 305 305 305 305 304 304 303 303 303 303 303 302 303 303 303 302 302 303 305 307 311 313 314 316 318 318 319 320 319 320 321 323 325 326 326 327 327 325 324 322 322 324 324 322 323 325 326 327 328 328 327 325 325 324 323 323 324
306 306 306 305 305 305 305 305 305 304 304 303 303 303 303 303 302 304 305 306 306 306 305 305 307 307 309 312 313 314 315 317 318 319 320 320 320 320 321 324 325 326 327 326 326 326 324 322 319 318 319 322 324 326 327 328 328 327 325 324 324 323 323
306 306 306 306 305 305 305 305 304 304 303 303 303 303 303 303 303 305 307 308 308 308 308 307 307 307 308 311 313 314 314 316 318 318 319 319 320 321 321 321 322 324 325 326 326 327 327 324 320 317 317 317 320 323 325 326 327 327 327 325 324 324 322
306 306 306 305 305 305 304 304 303 303 303 303 303 303 303 303 304 305 306 308 308 308 308 308 308 308 309 310 312 314 314 315 317 318 318 319 319 320 321 322 321 320 322 323 325 326 328 327 325 321 319 317 316 320 323 324 325 326 327 326 325 324 323
306 306 305 305 305 305 304 304 303 303 303 304 305 305 304 304 304 305 305 307 308 308 308 308 308 309 309 310 311 312 313 314 316 317 318 318 319 319 320 321 322 321 320 321 324 325 326 326 325 322 319 315 314 316 319 322 324 326 327 327 327 326 324
306 306 305 305 304 304 304 303 304 304 304 305 306 306 305 305 305 305 306 306 307 307 308 308 308 308 308 309 310 311 311 313 314 315 317 317 318 319 319 319 320 322 322 322 322 322 323 324 325 325 322 318 316 316 316 319 324 326 326 326 327 326 325
306 305 305 305 304 304 303 304 304 305 305 305 306 306 305 305 305 305 305 306 306 306 307 307 307 307 308 308 309 310 310 311 312 314 316 317 318 318 319 319 320 321 322 322 321 319 321 324 325 327 327 325 323 322 318 317 321 324 326 326 327 327 325
306 305 305 304 303 303 303 304 304 305 305 305 306 305 305 305 305 305 305 305 306 306 306 307 307 307 307 307 308 309 310 310 311 312 313 315 317 317 318 319 319 320 320 322 322 320 320 322 324 326 326 326 326 327 324 320 320 323 326 326 327 327 325
306 305 304 303 303 303 303 304 304 304 305 306 305 305 305 305 305 305 305 305 305 306 306 306 307 307 307 307 308 308 309 310 310 311 312 313 315 316 317 318 319 320 320 321 322 322 322 322 323 325 325 326 328 329 328 325 323 326 328 327 327 327 325
306 305 303 303 303 302 303 303 304 304 305 305 305 305 304 305 305 305 305 305 305 305 305 306 306 306 307 307 307 308 308 309 309 310 311 311 313 315 316 317 318 319 320 321 321 322 323 323 323 324 325 326 327 328 329 328 327 327 328 327 327 327 325
305 304 303 303 302 302 303 304 304 305 304 304 304 304 304 304 304 304 304 304 305 305 305 305 305 306 306 307 307 307 308 308 309 309 310 310 311 312 314 316 317 318 319 320 321 321 322 323 323 323 324 326 327 328 328 329 329 328 327 327 327 327 325
304 303 303 303 303 304 304 304 304 304 304 304 304 304 304 304 304 304 304 304 304 304 304 305 305 305 306 306 306 307 307 307 308 308 309 310 310 311 313 315 316 317 318 319 320 321 321 322 323 323 323 325 326 327 328 329 330 329 327 327 327 326 325
304 304 304 304 305 305 304 304 303 303 303 303 303 303 304 304 304 304 304 304 303 304 304 304 304 304 305 305 305 306 306 307 307 308 308 309 310 310 312 314 315 316 317 317 318 320 320 321 323 322 322 323 325 326 326 328 330 330 327 328 327 326 324
305 305 305 305 304 304 304 303 303 303 303 303 303 303 303 303 303 303 303 303 303 303 303 303 303 303 303 303 304 304 304 305 305 306 307 308 309 310 310 312 314 315 316 317 317 318 319 319 321 321 322 322 323 325 326 327 329 330 328 328 328 326 324
305 305 304 304 304 303 303 303 302 302 302 302 302 301 302 302 302 302 302 302 302 302 302 303 302 302 302 302 302 302 303 303 303 304 305 306 307 309 310 310 312 315 316 317 317 317 318 318 319 320 321 321 321 323 325 327 329 330 328 328 328 326 324
304 304 304 304 303 303 302 302 302 301 301 300 300 300 300 300 300 301 301 301 301 301 302 302 302 302 301 301 301 301 301 302 302 302 303 303 305 306 308 309 311 313 315 317 317 318 318 319 319 318 319 320 321 321 321 323 327 328 328 328 328 326 324
304 303 303 303 302 302 302 301 301 300 300 300 299 299 299 299 299 299 299 300 300 300 301 301 301 301 301 300 300 300 300 300 301 301 301 302 303 304 305 307 309 311 313 316 317 318 318 319 319 319 318 318 319 319 318 319 324 327 328 328 328 326 324
303 303 303 302 302 301 301 301 300 300 299 299 298 298 298 298 298 298 298 298 299 299 299 299 299 299 299 299 299 299 300 300 300 300 300 300 301 302 303 304 307 309 312 314 316 317 318 319 319 320 319 317 317 318 317 316 321 325 325 327 329 327 324
303 303 302 302 301 301 301 300 300 299 299 298 298 298 298 298 297 297 297 298 298 298 298 298 298 298 298 298 298 298 298 299 298 299 299 299 300 301 301 302 304 306 309 312 315 317 318 319 319 320 321 319 317 317 316 314 317 320 321 324 328 327 325
303 302 302 301 301 301 300 300 299 299 298 298 298 298 297 297 297 297 297 297 297 297 297 297 297 298 297 297 297 297 297 298 298 298 298 299 299 300 300 301 302 304 306 310 314 316 317 319 319 320 321 321 320 320 318 316 315 316 318 323 327 326 325
302 302 301 301 300 300 300 299 299 298 298 298 298 297 297 297 297 297 297 297 297 296 297 297 297 297 297 296 297 297 297 297 297 298 298 298 299 299 300 300 301 302 304 308 312 316 317 318 319 319 320 321 321 321 321 321 319 316 316 322 327 326 325
302 302 301 301 300 300 299 299 299 298 298 297 297 297 296 296 296 296 296 296 296 295 296 296 296 296 296 296 296 296 297 297 297 297 298 298 299 299 300 300 300 301 303 305 309 314 317 318 319 319 319 320 321 322 322 322 321 318 316 320 326 326 325
302 302 301 301 300 299 299 298 298 298 297 297 296 296 296 295 295 295 295 295 295 295 295 295 295 295 296 295 296 296 296 297 297 297 297 298 298 299 300 301 301 301 302 304 307 312 316 317 318 319 319 320 321 322 322 322 322 320 317 320 323 325 325
301 301 301 300 299 299 298 298 298 297 297 296 296 295 295 295 295 295 295 294 294 294 295 295 295 296 296 296 296 296 296 296 297 297 298 298 299 299 300 301 302 302 303 304 306 311 316 318 318 319 319 320 321 321 322 322 322 321 319 320 323 325 325
301 301 300 300 299 298 298 297 297 297 296 295 295 295 294 294 294 294 294 294 294 294 294 295 295 296 296 296 296 296 296 297 297 298 299 298 299 300 301 302 303 304 304 304 306 311 316 318 318 319 319 320 320 320 321 322 322 321 319 320 322 324 325
300 300 300 299 298 298 297 297 297 296 296 295 294 294 293 293 293 293 293 292 293 293 293 294 295 295 296 296 296 296 297 297 298 299 299 299 299 300 301 302 304 305 307 307 307 310 315 318 319 319 320 320 319 320 320 321 321 320 318 319 322 323 323
299 299 299 299 298 297 297 297 296 296 295 294 293 293 293 292 292 292 292 292 292 292 292 293 294 295 295 295 296 296 297 298 300 300 300 300 300 300 301 303 305 307 309 310 310 311 314 317 318 318 319 320 320 319 320 320 320 320 319 321 322 322 322

ECMWFFLT1_850_thetae_012.txt.gz
Theta_e
314 312 309 309 308 306 306 306 306 306 309 313 314 314 313 312 313 314 314 314 314 315 315 316 318 320 322 325 326 326 324 323 321 319 320 323 328 331 332 333 332 330 329 329 329 328 329 329 330 330 329 329 328 327 327 326 327 326 326 326 326 326 326
314 311 312 313 310 307 306 306 306 306 307 308 308 309 310 310 310 309 310 312 314 316 316 316 318 320 322 323 324 324 325 326 325 323 320 320 322 324 327 332 332 330 329 329 328 327 328 328 328 329 330 330 329 328 328 327 327 327 327 327 325 326 327
314 312 313 314 310 307 308 308 307 306 308 309 307 306 307 308 307 305 305 307 308 311 313 314 315 317 319 321 322 323 324 324 325 326 325 323 323 322 322 326 329 329 328 328 327 327 327 327 327 328 329 330 330 329 329 328 327 327 327 327 325 325 326
312 310 309 310 309 308 308 308 308 308 309 310 308 307 307 307 306 305 305 304 304 305 306 308 311 313 316 317 318 320 321 321 322 324 325 325 325 325 324 325 326 327 327 327 327 327 327 327 327 328 328 328 329 330 329 329 328 328 327 327 325 325 325
311 310 308 308 309 307 307 307 307 309 311 311 311 310 310 310 308 306 305 305 305 304 304 305 306 309 314 317 318 317 317 318 319 321 324 325 325 325 326 326 325 326 327 327 328 329 328 327 327 327 326 326 327 329 329 329 329 328 328 327 326 325 326
312 311 309 308 308 307 306 308 308 307 308 309 310 310 310 308 306 305 305 305 305 305 304 304 304 304 308 313 316 317 317 317 319 320 322 324 326 325 325 326 326 326 326 327 330 330 328 327 326 325 325 325 326 328 328 329 329 328 328 327 326 326 326
312 311 310 308 308 307 307 307 307 307 306 306 307 307 307 306 305 305 305 305 305 304 304 304 304 303 303 305 310 314 316 316 317 318 319 321 323 325 326 326 327 327 326 328 330 330 328 327 327 326 326 326 327 328 327 328 328 328 327 327 327 326 326
312 311 310 309 308 308 307 307 306 306 306 306 306 306 306 305 305 305 304 304 304 304 304 303 302 303 302 303 304 309 312 312 313 315 315 317 319 322 325 326 326 326 327 328 329 330 329 328 327 327 327 327 328 328 327 327 328 329 328 327 327 326 326
312 311 310 309 308 308 307 307 306 306 306 306 306 306 305 305 305 304 304 304 303 303 303 303 302 301 301 302 304 306 308 309 311 313 314 315 316 318 321 323 325 326 327 327 328 329 329 329 328 327 327 327 328 327 327 327 327 327 328 327 327 326 325
312 311 310 309 308 308 308 307 307 306 306 306 306 306 305 305 304 304 303 303 302 302 303 303 303 302 301 301 303 305 307 308 309 312 314 315 315 316 317 319 322 324 325 326 327 328 328 329 329 328 328 328 327 326 325 326 326 326 327 327 327 326 325
311 311 310 309 308 308 308 307 307 307 306 306 306 305 305 305 304 304 303 303 303 304 305 305 305 305 304 303 302 302 306 311 313 314 315 316 315 316 317 318 319 321 322 324 325 326 327 328 328 328 328 328 328 327 325 326 326 325 326 326 326 326 325
311 311 310 309 308 308 308 307 307 307 306 306 306 305 305 304 304 304 303 303 303 305 307 308 308 308 308 308 306 303 303 309 314 315 315 316 317 318 318 318 318 318 319 320 323 325 326 326 327 327 327 327 328 327 326 326 326 325 324 325 325 325 326
310 311 310 309 309 308 308 307 307 306 306 306 306 305 304 304 304 304 304 304 303 304 307 308 309 309 309 309 309 307 304 305 311 315 314 314 316 319 319 319 318 318 318 318 319 322 325 326 326 326 327 327 326 325 325 326 326 325 323 324 325 325 326
310 310 310 309 309 308 307 307 307 306 306 306 305 304 304 304 304 305 305 305 305 304 305 307 308 309 309 309 309 309 308 307 309 313 315 315 316 318 319 320 319 319 319 319 319 319 320 323 325 326 327 327 327 325 325 326 326 326 324 323 324 326 325
310 310 310 309 309 308 307 307 306 306 306 305 305 304 304 304 305 305 305 305 305 305 306 306 307 308 309 309 309 309 310 310 310 311 313 314 316 317 318 319 319 320 320 321 321 320 319 321 323 325 326 327 327 327 326 326 326 326 325 323 322 324 326
311 310 310 309 308 307 307 306 306 305 305 305 304 304 305 305 305 305 305 305 305 306 306 306 307 307 308 308 309 309 309 310 311 310 310 311 313 315 317 318 318 319 320 320 321 321 321 321 321 323 324 325 325 326 327 327 327 325 324 322 320 320 324
311 311 310 309 308 307 306 306 305 305 304 305 305 305 305 306 305 305 305 305 305 306 306 306 307 307 307 307 308 308 308 308 309 310 310 310 310 311 314 316 318 318 319 319 320 321 321 322 322 322 323 323 323 324 326 328 328 326 324 323 320 317 321
312 311 310 309 308 307 306 306 305 304 305 305 305 305 306 306 306 305 305 305 305 306 306 306 306 307 307 307 307 308 308 308 308 309 309 310 311 311 312 313 315 317 318 319 320 320 321 321 322 322 323 323 322 323 325 327 328 328 326 324 323 319 318
312 311 310 309 308 307 306 305 305 305 305 305 305 305 306 306 305 305 305 306 305 305 306 306 306 306 307 307 307 307 308 308 308 308 309 309 310 311 311 311 313 315 317 318 318 319 320 321 321 322 322 322 322 323 325 327 327 328 327 326 324 321 317
312 311 310 309 309 307 306 306 305 305 305 305 306 305 305 305 305 304 305 305 305 305 305 305 306 306 306 306 306 307 307 308 308 308 308 308 309 309 310 311 311 312 314 316 317 317 318 320 321 322 322 322 323 323 325 326 327 327 328 328 326 323 319
312 310 310 309 308 307 306 305 305 305 305 305 305 305 304 304 304 304 305 305 305 305 305 305 305 305 305 306 306 306 306 307 307 308 308 308 309 309 309 310 311 311 312 314 316 317 317 318 320 321 322 321 322 323 324 325 326 327 328 329 328 326 323
311 310 310 309 307 305 305 304 305 305 305 305 304 304 304 304 304 304 304 304 305 305 305 305 305 305 305 305 305 306 306 307 307 307 307 308 308 309 309 309 310 310 310 311 313 316 317 317 318 319 321 322 322 323 323 324 324 326 328 329 329 328 326
310 309 308 307 305 305 305 305 305 305 304 304 304 303 303 303 304 304 304 304 304 304 304 304 304 304 304 304 305 305 305 305 306 306 307 307 307 308 308 308 309 310 310 310 310 313 315 317 317 317 319 321 322 322 323 324 325 325 326 327 328 329 328
309 308 307 306 306 305 305 305 305 304 304 304 303 303 303 303 302 302 302 302 302 303 303 303 303 304 304 304 304 304 304 304 304 305 305 305 306 307 307 308 308 309 309 310 310 310 312 314 316 316 316 318 321 321 321 323 325 325 325 327 328 329 329
309 308 307 306 306 306 305 305 304 304 303 303 303 302 302 302 301 301 300 300 301 301 301 302 302 302 303 303 303 303 303 303 303 303 303 303 304 305 305 306 307 308 308 309 310 310 310 312 314 315 315 315 318 321 321 321 321 323 325 327 327 327 328
308 307 306 306 305 305 305 304 304 303 302 302 302 302 301 301 300 300 299 299 299 299 299 300 300 301 301 302 302 302 302 302 302 302 302 302 302 303 303 304 304 305 306 308 309 310 310 311 313 315 315 314 314 317 320 321 321 320 322 324 326 327 327
306 306 306 305 305 305 304 304 303 302 302 302 301 301 300 300 300 299 299 298 298 298 298 299 299 299 299 300 300 301 301 301 301 301 301 301 301 301 302 302 302 303 304 305 306 308 309 310 312 314 316 316 315 314 316 318 321 321 320 321 323 325 325
305 305 305 305 304 304 304 303 302 302 302 301 301 300 300 300 299 298 298 298 298 298 298 298 298 298 298 298 298 299 299 300 300 300 300 300 300 300 301 301 301 301 302 302 303 305 307 309 311 313 316 317 317 316 315 315 317 320 321 320 321 322 323
305 304 304 304 304 304 303 303 302 302 301 301 300 300 300 299 298 298 298 298 298 298 298 298 297 298 297 298 297 298 298 298 298 299 299 299 299 299 299 300 300 300 301 301 301 302 304 307 309 312 315 317 318 318 317 317 316 317 319 319 320 321 321
304 304 304 304 304 303 303 302 302 301 301 300 300 299 299 299 298 297 297 297 297 297 297 297 297 297 297 297 297 297 297 297 297 297 298 298 298 298 298 299 299 300 300 300 301 301 302 303 307 311 313 315 317 318 318 319 318 317 317 318 318 319 320
303 303 303 304 303 303 302 302 301 301 300 299 299 299 298 298 297 297 297 297 297 296 296 296 296 296 296 296 296 296 296 296 296 296 297 297 297 297 298 298 298 299 299 300 300 300 300 301 303 307 311 313 315 317 318 319 319 319 318 319 319 319 319
302 303 303 303 303 302 302 301 300 300 299 299 298 298 298 297 297 297 296 296 296 296 295 295 295 295 295 295 295 295 295 295 295 295 296 296 296 296 297 297 298 298 299 299 299 300 300 300 301 303 307 311 312 314 317 319 319 319 320 320 322 321 320
302 302 302 302 302 302 301 300 300 299 299 298 298 298 297 297 296 296 296 295 295 295 295 295 295 295 294 294 294 294 294 294 295 295 295 296 296 296 296 297 297 297 298 298 299 299 299 300 300 301 304 307 310 313 315 318 319 319 319 319 321 322 322
302 301 301 301 301 301 300 300 299 299 298 298 298 297 296 296 296 295 295 294 294 294 294 294 294 294 293 293 293 293 293 294 294 295 295 296 296 296 296 296 297 297 297 298 298 299 298 299 300 300 301 305 309 312 315 317 318 319 319 319 320 322 322
301 301 301 301 301 300 300 299 299 298 298 297 297 296 296 295 295 295 294 293 293 293 293 293 293 293 293 293 293 293 293 293 293 294 295 296 296 296 296 296 296 297 297 298 298 298 299 299 299 300 300 303 308 313 315 316 317 318 319 320 321 321 322
301 300 300 300 300 299 299 298 298 298 297 296 296 295 295 295 294 294 293 293 292 292 292 292 293 293 293 293 293 292 293 293 293 294 295 295 295 296 296 296 296 296 297 297 298 298 299 299 299 300 301 302 306 312 315 315 315 316 318 319 321 322 323
299 299 299 299 298 298 298 298 298 297 295 295 294 294 294 294 293 293 293 292 292 292 292 292 292 293 293 293 292 292 292 293 293 294 294 295 295 295 295 296 296 297 297 297 298 299 299 299 300 302 303 303 305 310 315 314 313 314 317 319 321 321 322

ECMWFFLT1_850_thetae_015.txt.gz
Theta_e
314 313 311 309 309 308 308 307 307 306 306 306 305 305 304 303 304 305 306 307 308 309 310 311 312 314 318 320 323 325 325 325 325 323 321 320 321 324 326 328 331 332 332 332 331 330 329 330 330 329 329 329 328 328 327 327 327 326 326 325 325 325 325
312 312 311 310 309 309 308 307 307 307 306 306 306 306 305 305 304 304 304 304 305 305 306 307 308 309 310 313 317 321 323 324 325 325 325 324 323 322 322 323 324 327 330 332 332 331 330 329 329 329 329 329 329 328 328 328 327 326 326 326 326 325 325
313 313 311 310 310 309 308 308 307 307 307 307 306 306 306 306 306 305 305 305 305 304 304 305 305 306 307 309 311 315 318 321 323 323 324 325 325 324 324 323 321 322 325 328 330 331 332 330 330 329 328 328 328 329 329 328 328 327 327 326 326 326 326
313 313 312 311 310 309 308 308 308 307 307 307 306 306 306 306 306 306 306 305 305 305 305 304 304 304 305 306 307 309 312 316 319 320 322 323 325 325 326 326 325 323 324 324 323 326 331 331 330 329 328 328 328 329 330 329 329 328 328 327 327 327 327
313 313 312 311 309 309 309 308 307 307 307 307 307 306 307 307 306 306 306 305 305 305 304 305 304 304 304 304 305 306 308 311 314 317 318 320 322 322 323 325 326 325 325 324 322 324 328 330 329 329 328 328 327 328 329 330 330 329 329 328 328 327 327
313 313 312 310 309 309 309 308 307 308 308 307 306 307 306 307 306 306 305 305 305 305 304 304 304 304 303 303 303 303 305 307 311 314 314 315 317 319 320 322 324 325 325 326 325 325 326 328 328 328 327 327 327 327 327 328 329 329 329 329 328 328 327
313 313 312 310 309 309 309 308 308 308 307 307 306 306 306 306 306 306 305 305 305 304 304 304 303 302 302 302 302 302 303 304 308 312 313 313 315 317 318 319 321 323 325 326 326 326 326 326 327 327 326 328 328 328 328 327 327 327 328 329 328 328 328
313 313 313 312 310 309 309 308 308 308 307 306 306 306 306 306 306 306 305 305 304 304 304 303 302 302 302 302 302 302 302 302 303 308 311 312 313 315 316 317 319 321 323 324 326 326 327 327 327 327 327 329 329 328 327 327 327 327 326 327 328 328 328
312 312 312 312 311 310 309 308 308 308 307 307 306 306 306 306 306 306 305 304 304 304 304 303 303 303 303 303 302 302 301 301 302 304 307 309 311 313 315 316 317 318 319 320 323 324 326 327 328 328 329 329 328 328 328 328 327 327 326 326 327 328 328
310 311 310 311 311 310 310 309 309 308 307 307 306 306 306 306 306 305 305 304 304 304 304 303 303 303 304 304 303 303 302 301 302 303 304 306 309 311 313 315 317 317 316 316 318 320 323 325 326 327 328 329 329 328 328 328 327 327 327 326 327 327 327
310 310 310 310 311 311 310 310 309 309 307 307 307 306 306 306 306 305 304 304 304 304 304 304 303 303 305 306 306 305 305 304 303 302 302 304 307 310 312 315 317 317 315 315 315 316 318 321 323 325 326 328 328 328 328 328 327 327 327 327 326 326 326
310 309 310 310 310 310 310 310 309 309 308 307 307 307 306 306 305 305 304 304 304 304 304 304 303 303 305 307 308 308 308 307 306 304 302 302 305 310 313 314 315 317 317 317 316 316 316 317 319 322 324 326 327 328 328 328 328 328 327 327 327 327 326
310 310 309 309 310 310 310 310 309 308 308 307 307 306 306 305 305 304 304 304 304 304 304 304 304 304 304 305 307 309 309 309 309 307 306 304 304 308 312 314 314 316 318 319 318 317 317 316 316 318 319 322 325 327 328 328 329 328 328 328 327 327 327
310 310 310 309 309 310 310 309 309 309 308 307 307 306 306 305 304 304 303 304 304 304 304 304 304 304 304 304 305 307 308 308 309 308 308 308 306 306 311 314 315 315 317 319 319 319 319 318 318 318 317 318 320 323 325 326 328 328 326 326 327 327 327
310 310 310 310 310 309 309 309 309 308 308 307 306 306 305 304 303 303 303 303 304 303 304 304 304 304 305 305 305 306 307 308 308 308 308 308 308 307 309 311 314 314 316 318 318 318 319 319 320 320 319 319 318 319 320 323 327 328 326 326 326 326 326
310 310 309 309 309 309 309 309 309 308 307 307 306 305 304 303 303 303 303 303 304 304 303 303 304 305 305 305 305 305 306 307 307 308 308 308 308 308 308 308 310 311 313 316 318 318 318 319 319 320 320 321 320 319 319 321 324 326 326 326 327 327 326
309 309 309 309 309 309 309 309 309 308 307 306 305 304 303 303 303 303 303 303 303 303 303 304 305 305 305 305 305 305 306 306 307 307 308 308 308 308 308 308 308 308 309 311 315 317 318 318 319 319 320 320 321 320 320 320 322 323 323 324 326 326 326
310 310 310 310 309 309 309 309 308 308 306 305 304 303 303 303 303 303 304 304 303 303 304 305 305 305 305 305 305 305 305 306 307 307 307 308 308 308 308 308 308 308 308 308 310 313 317 318 318 318 319 320 321 320 320 320 321 322 322 323 324 325 325
310 310 310 310 310 310 309 309 308 306 305 304 303 303 303 303 303 304 304 303 303 303 304 304 305 305 305 305 305 304 305 305 306 306 306 307 307 308 308 308 308 308 308 308 308 309 312 315 317 317 317 319 320 320 320 321 321 322 322 323 323 323 324
310 311 311 311 310 310 309 308 307 305 304 303 303 303 303 303 303 303 303 302 302 303 304 304 304 304 304 305 305 305 305 305 305 305 306 306 307 307 307 308 308 308 308 309 309 308 308 311 314 316 317 317 318 319 320 321 321 321 322 323 323 323 323
312 312 311 311 310 310 309 307 306 304 303 303 303 304 304 303 303 303 302 302 303 304 304 304 304 304 304 305 305 305 305 305 304 305 305 305 306 306 307 307 307 308 308 308 309 309 309 309 310 313 316 317 317 317 318 319 320 322 323 323 323 323 324
312 312 312 311 310 309 308 307 305 303 303 304 304 304 304 304 303 303 303 302 302 302 302 302 302 302 303 304 304 304 304 304 304 304 304 304 305 305 306 306 307 307 307 308 308 309 309 309 309 310 313 315 316 317 317 318 319 320 322 324 324 324 324
313 313 312 311 310 309 307 305 304 303 304 304 304 304 304 304 303 303 302 302 302 302 301 301 300 300 300 301 302 303 303 303 304 304 304 304 304 304 305 305 306 307 307 307 307 308 308 309 309 309 310 312 313 315 316 317 318 318 319 321 323 324 325
313 313 312 311 310 308 306 304 304 304 305 305 305 304 304 303 303 302 302 302 301 301 301 300 299 298 297 298 300 301 302 302 303 303 303 303 303 303 303 304 304 305 306 307 307 307 308 308 309 309 309 309 310 312 314 315 316 317 317 317 319 322 325
313 312 311 310 308 306 305 305 305 305 305 305 304 304 303 302 302 302 301 301 301 300 300 300 298 297 297 297 298 299 299 300 301 301 302 302 302 302 302 302 302 303 304 305 306 306 307 307 308 308 308 309 309 309 311 313 314 315 316 316 317 318 321
311 310 309 308 306 306 305 305 305 305 305 304 303 302 302 302 301 301 301 300 300 300 300 299 297 296 297 297 297 297 297 297 298 298 299 300 300 301 301 301 301 301 301 302 303 303 304 305 306 307 307 308 309 309 310 311 313 314 315 316 316 317 318
310 309 308 306 306 305 305 305 305 305 304 303 303 302 302 301 301 301 301 300 300 299 299 298 297 297 297 297 297 297 297 297 297 297 297 298 298 298 299 299 299 300 300 300 300 301 301 302 303 303 304 306 307 308 309 309 311 313 314 315 315 316 317
308 308 306 305 305 304 304 304 304 304 303 303 302 302 301 301 301 300 300 300 299 299 298 297 297 297 297 297 297 297 297 297 297 297 297 296 297 296 297 297 297 298 298 298 299 299 299 300 300 301 301 302 304 306 308 308 309 311 313 314 315 315 316
307 306 305 304 304 304 304 304 304 303 303 302 301 301 301 300 300 299 299 299 298 298 297 297 297 296 296 296 296 296 296 296 296 296 296 295 295 295 295 296 296 296 296 297 297 298 298 298 299 299 300 300 301 303 305 307 309 311 313 315 315 315 315
305 304 304 304 304 304 304 303 303 303 302 302 301 301 300 299 299 299 298 298 298 297 296 296 296 296 295 295 295 295 295 295 295 295 295 294 294 294 294 295 295 295 295 296 296 297 297 298 298 298 299 299 300 300 302 304 306 310 314 315 316 316 316
304 303 303 303 303 303 303 303 303 302 301 301 300 299 299 299 298 298 297 297 297 296 296 295 295 295 294 294 294 294 294 294 294 294 294 294 294 294 294 294 294 295 295 295 296 296 297 297 297 298 298 299 299 299 301 302 303 306 312 315 316 317 317
303 302 302 302 302 302 301 301 301 300 300 299 299 299 299 298 297 296 296 296 295 295 295 295 294 294 293 293 294 294 294 294 293 293 293 293 293 293 293 293 293 294 294 295 295 295 296 296 297 297 298 298 299 299 300 300 301 303 307 311 314 317 318
302 302 302 301 300 300 300 300 300 299 299 298 298 298 297 295 294 294 294 295 295 295 294 294 294 293 293 293 293 293 293 293 292 292 292 293 293 293 293 293 293 293 294 294 295 295 296 296 296 297 298 298 299 299 299 300 300 301 303 307 311 315 317
301 301 300 300 299 299 300 299 299 299 298 298 296 295 293 292 292 292 292 293 294 294 294 294 293 293 293 292 292 292 292 292 292 292 292 292 292 292 292 293 293 293 293 294 294 295 296 296 296 296 297 297 297 298 298 299 300 300 301 304 308 312 315
300 300 299 299 299 299 299 298 298 298 298 297 295 292 291 291 292 292 292 292 293 294 294 293 293 292 292 292 292 292 292 291 291 291 291 291 292 292 292 292 292 293 293 293 294 295 295 296 296 296 296 297 297 297 298 298 299 300 301 302 306 310 314
300 299 299 298 298 298 298 298 298 298 297 296 294 293 292 293 293 292 292 292 293 294 294 293 293 292 291 291 292 292 291 291 291 291 290 291 291 292 292 292 292 293 293 293 294 294 295 295 296 296 296 297 297 297 298 298 299 299 300 301 303 307 313
299 298 298 298 298 298 298 298 298 297 297 296 295 295 294 294 293 292 291 292 293 294 293 292 292 292 291 291 292 292 291 291 291 291 290 291 291 292 292 292 293 293 293 293 293 294 295 295 295 295 296 296 297 297 298 298 299 299 299 300 302 306 311

ECMWFFLT1_850_thetae_018.txt.gz
Theta_e
310 310 309 309 309 308 308 308 308 308 307 306 306 305 305 304 304 304 305 306 307 307 307 308 310 311 314 318 321 323 324 324 324 324 324 325 324 323 323 323 324 326 327 328 329 330 330 330 330 329 329 329 328 328 328 327 327 327 326 325 325 326 325
310 310 310 310 309 309 309 309 308 308 308 307 307 306 306 306 306 305 305 305 304 305 305 305 305 306 307 310 314 317 320 322 322 323 323 324 324 324 324 324 323 324 324 324 325 326 328 329 331 330 330 329 328 328 328 328 328 327 327 326 326 327 326
311 311 311 310 310 309 309 309 309 308 308 308 307 307 306 306 306 306 306 305 305 305 304 304 304 304 304 305 306 308 312 316 319 321 322 322 323 323 324 324 324 324 324 324 324 324 324 326 328 329 329 330 329 329 329 328 329 328 328 328 327 327 327
311 311 311 311 311 310 309 309 309 308 308 307 307 307 307 306 306 306 306 306 305 305 305 305 305 304 304 304 304 304 305 308 311 316 319 321 322 322 323 323 323 324 324 324 325 324 324 325 326 326 326 327 328 329 329 329 328 328 328 328 328 328 328
311 312 312 311 311 310 309 309 309 308 308 308 307 307 307 306 306 306 306 306 305 305 305 305 305 305 305 304 304 303 304 304 305 307 311 315 318 320 320 321 321 322 322 323 324 324 325 325 326 326 325 324 326 327 328 329 328 328 328 329 329 328 328
312 312 312 312 312 311 310 309 309 308 308 308 307 307 307 306 306 306 306 306 306 305 305 304 305 305 304 304 303 303 303 303 303 304 305 309 313 316 318 318 318 319 319 320 322 323 324 324 326 327 327 326 326 325 326 328 328 328 328 328 329 329 329
313 313 312 312 312 311 310 310 309 309 308 308 307 307 307 306 306 306 306 306 305 305 305 304 304 304 304 304 303 302 302 302 302 303 303 304 307 311 315 317 317 317 317 318 320 321 322 323 324 326 327 328 328 326 325 326 326 327 327 327 328 328 329
313 312 312 313 312 312 311 310 309 309 308 308 307 307 307 306 306 306 306 306 305 305 304 304 304 305 305 304 304 303 302 302 302 302 302 302 303 305 309 313 315 315 316 317 318 319 320 321 322 323 324 326 327 328 327 326 326 326 326 326 326 326 328
313 313 313 313 313 312 311 311 310 309 309 308 308 307 306 306 306 306 306 306 305 304 304 304 304 304 304 304 304 303 303 302 302 302 302 301 301 302 304 306 310 312 313 316 317 318 318 319 320 320 321 322 324 326 327 327 327 326 325 326 326 326 327
313 313 313 313 313 313 312 311 310 309 309 308 308 307 306 306 306 306 306 305 305 304 304 304 304 304 304 304 304 303 303 303 303 303 303 302 302 302 302 302 305 307 310 312 314 315 317 317 317 318 318 318 320 323 325 326 328 328 327 327 328 328 327
313 313 312 312 313 312 312 311 310 309 309 308 308 306 306 306 306 306 306 305 304 304 303 304 304 304 303 303 303 303 303 303 303 303 303 303 303 303 302 302 302 304 307 310 312 314 316 317 317 317 317 317 318 320 322 324 326 326 326 327 327 327 328
313 312 312 311 311 311 311 311 310 309 309 309 308 307 306 306 306 306 305 304 303 303 303 303 303 303 303 303 303 303 302 302 303 303 304 304 304 304 304 304 303 302 304 309 312 314 316 317 317 317 317 318 318 318 319 321 322 322 324 327 328 327 328
313 311 310 310 310 310 310 310 310 310 309 309 308 307 306 306 306 305 304 303 303 303 303 303 303 303 302 302 302 303 303 303 303 303 304 304 305 305 306 306 305 304 304 307 311 313 314 316 317 318 318 318 319 319 318 320 320 318 319 323 325 326 327
312 311 310 310 309 310 310 310 310 310 310 309 308 307 306 306 306 305 303 303 303 303 303 303 303 302 302 302 303 304 304 304 304 303 304 305 305 306 307 307 307 306 306 307 309 311 313 315 316 317 317 318 318 319 319 320 320 318 316 317 318 320 323
312 311 310 310 310 310 310 310 310 310 309 309 307 307 307 306 305 304 303 303 303 303 302 302 302 301 301 302 303 304 305 304 304 304 304 304 305 306 307 307 307 307 307 307 307 309 311 313 316 317 317 318 318 318 319 320 321 320 318 315 315 316 316
313 311 310 310 310 310 310 310 310 310 309 308 308 307 307 305 304 303 303 303 303 302 302 301 301 301 301 302 303 304 304 304 304 304 304 304 305 306 307 307 307 307 307 307 307 307 308 309 312 315 316 317 317 317 318 319 321 322 320 316 315 316 315
313 312 311 310 310 310 311 311 310 310 310 309 308 307 306 304 303 303 303 303 303 302 302 301 301 301 302 303 303 304 304 304 304 304 304 304 304 305 306 306 307 307 307 307 307 307 307 307 308 310 313 315 317 317 317 317 319 321 322 320 318 317 316
312 312 310 310 311 310 311 311 311 310 310 309 308 306 304 303 302 303 303 303 303 302 301 301 301 301 302 302 303 303 303 303 303 303 304 304 304 304 305 305 306 307 307 307 307 307 308 308 307 307 309 312 314 316 316 316 317 319 321 322 322 320 319
312 312 310 310 311 311 311 311 311 310 310 309 308 305 303 303 303 303 303 303 302 302 301 301 301 301 302 302 302 302 303 303 303 303 303 303 304 304 304 305 305 306 306 307 307 307 307 308 308 308 308 309 310 312 314 315 316 317 318 319 320 321 322
313 312 311 311 311 311 311 311 311 310 309 308 305 303 303 303 303 303 303 302 302 301 301 301 301 301 301 302 302 301 301 301 301 302 303 303 304 304 304 304 304 305 305 306 306 307 307 307 308 308 308 308 308 309 311 313 314 315 316 317 318 319 321
314 313 313 313 312 311 311 311 310 310 308 305 303 303 303 304 304 304 303 302 301 301 301 301 301 301 301 301 301 300 300 299 298 298 299 301 302 303 304 304 304 304 304 305 305 306 307 307 307 308 308 308 308 309 309 311 312 313 314 315 317 318 319
316 315 315 314 312 312 311 311 310 309 306 304 303 303 304 304 304 303 303 302 302 301 301 301 301 300 300 300 300 299 299 298 297 297 297 298 299 301 302 303 303 304 303 304 304 305 306 306 306 307 307 308 308 309 309 309 310 312 313 313 315 316 317
317 316 315 313 312 312 312 311 309 307 304 304 304 304 305 304 304 303 303 302 302 301 301 301 301 300 300 300 300 299 298 297 297 298 298 298 298 299 300 301 302 303 303 303 303 303 304 305 306 306 307 307 307 308 309 309 309 310 311 312 313 315 315
318 316 314 313 313 312 311 310 308 305 304 304 304 305 305 305 304 303 303 302 301 301 301 301 300 300 300 300 299 298 297 297 298 298 298 298 298 298 298 299 300 301 301 302 303 303 303 304 305 306 306 307 307 307 308 308 308 309 309 310 311 312 313
318 315 314 313 313 312 310 309 306 304 304 305 305 305 305 305 304 303 302 301 301 301 301 300 300 300 299 299 298 297 297 297 298 298 297 297 298 298 298 298 298 299 299 300 301 301 302 302 303 303 304 306 306 307 307 307 308 308 308 309 309 310 311
316 315 314 313 313 311 309 306 305 304 305 305 305 305 305 304 303 302 301 301 301 301 300 300 299 299 298 298 297 297 297 297 298 297 297 297 297 297 297 297 298 298 298 298 299 299 300 300 301 301 302 303 304 306 306 307 307 307 307 308 308 309 310
315 315 314 313 311 309 306 305 305 305 306 305 305 305 304 303 302 301 301 301 300 300 299 299 298 298 297 296 296 296 296 297 297 297 297 297 297 297 297 296 297 297 297 297 298 298 298 298 299 300 300 301 302 303 304 305 306 307 307 307 308 308 308
315 314 313 311 309 307 305 305 305 305 305 305 304 303 302 302 301 301 300 300 299 299 298 297 297 296 296 296 296 296 296 296 297 297 297 296 296 296 296 296 296 296 296 296 296 296 297 297 297 298 299 299 300 301 302 303 304 305 306 306 307 307 308
314 312 310 308 307 306 305 305 305 304 304 304 303 303 302 301 300 300 299 299 298 297 296 295 295 296 296 296 296 296 296 296 296 296 296 296 295 295 295 295 295 295 294 295 295 295 295 296 296 297 297 298 299 300 301 301 301 302 303 304 305 306 307
311 310 308 306 306 305 304 304 304 304 304 303 302 301 300 299 298 298 298 297 296 295 294 295 295 296 296 296 296 295 295 295 295 295 295 295 295 295 294 294 294 294 294 294 294 294 294 295 295 295 296 297 298 298 300 300 300 300 301 302 303 304 305
308 307 306 305 304 304 304 304 303 303 302 301 299 298 298 297 297 296 295 294 293 293 293 294 294 295 295 295 295 295 294 294 294 294 294 294 294 294 294 294 293 293 293 294 294 294 294 294 294 294 295 295 296 297 298 298 299 299 300 300 301 302 302
307 306 305 303 303 303 303 302 301 299 298 297 297 297 297 297 295 294 292 292 292 292 292 293 294 295 295 295 295 294 294 293 293 293 293 293 293 293 293 293 293 293 293 294 294 295 294 294 293 293 293 294 294 295 296 296 297 298 298 299 300 301 301
306 304 303 303 302 301 299 298 297 297 296 297 297 297 296 295 293 292 291 291 292 291 291 292 294 294 294 294 294 294 293 292 292 292 292 292 292 292 293 293 293 293 294 294 294 294 294 293 293 293 293 293 294 294 295 296 296 297 297 298 298 299 301
304 303 301 300 299 298 297 297 297 297 297 297 297 296 295 294 292 291 291 292 292 291 291 292 293 294 294 294 294 293 292 292 291 291 291 291 291 291 291 292 293 294 294 294 294 294 294 293 293 293 293 293 293 294 294 295 296 296 296 297 297 298 299
301 300 299 298 298 298 298 297 297 297 297 297 296 295 294 292 291 291 292 292 292 291 291 292 293 293 294 294 294 293 292 292 291 291 290 290 290 290 290 291 292 293 294 294 294 294 294 294 293 293 293 293 293 293 294 295 296 296 296 296 296 297 297
299 298 298 298 298 298 298 297 297 297 296 296 295 294 292 291 291 292 293 293 292 291 291 292 293 293 293 294 293 293 292 292 292 291 290 290 290 290 290 291 292 293 293 293 293 293 293 293 293 293 293 293 293 293 294 295 296 296 296 296 296 296 297
298 298 299 299 299 299 298 297 297 297 296 296 295 293 291 291 292 293 293 293 292 291 291 292 293 293 293 293 293 292 292 292 292 291 290 290 290 290 290 291 292 292 292 292 293 293 293 292 292 293 293 293 293 294 294 295 296 296 296 296 296 296 297

ECMWFFLT1_850_thetae_024.txt.gz
Theta_e
308 309 308 308 308 308 307 307 306 306 306 306 305 305 304 304 304 304 304 305 306 306 307 308 309 309 309 309 309 310 311 313 315 317 318 320 321 322 323 324 324 324 324 325 325 326 327 327 328 328 328 329 328 328 327 327 327 327 328 328 328 328 327
309 309 309 308 308 308 307 307 307 306 306 306 305 305 305 305 304 304 304 304 304 304 304 304 304 304 304 305 305 305 306 307 308 311 313 315 316 317 319 320 321 322 322 323 323 324 325 325 326 326 326 327 327 328 328 328 328 328 328 328 328 328 328
309 309 309 309 309 308 308 307 307 307 307 306 306 305 305 305 305 305 305 304 304 304 304 304 304 304 304 304 304 304 304 304 304 305 307 310 311 313 315 316 316 316 318 319 319 321 323 323 323 323 324 324 324 325 325 326 327 327 327 328 328 328 328
309 309 309 309 309 309 309 308 307 307 307 307 306 306 305 305 305 305 305 305 304 304 304 304 304 304 304 304 304 304 303 303 303 303 303 304 306 308 310 312 313 314 315 315 315 317 318 320 321 321 322 322 322 321 321 321 322 323 324 325 326 328 328
310 309 309 309 310 309 309 309 308 308 307 307 307 306 306 305 305 305 305 305 305 305 304 304 305 305 305 305 305 305 304 303 303 302 302 302 303 304 305 306 309 312 314 315 315 315 316 317 317 318 318 318 318 318 318 319 319 319 320 321 322 323 325
310 310 310 310 310 310 310 310 309 308 308 307 307 307 306 306 306 305 305 305 305 305 305 304 304 304 305 305 304 305 305 304 304 303 303 302 302 302 302 303 304 306 310 312 314 315 315 316 316 315 315 315 315 314 315 317 318 318 318 319 320 320 321
311 310 310 310 310 310 310 310 310 309 308 308 307 307 307 306 306 306 306 306 305 305 305 304 304 304 304 304 304 304 304 304 304 304 303 303 303 302 302 302 302 302 304 306 309 311 313 314 314 315 314 314 313 312 312 313 314 316 316 317 318 319 320
311 311 311 311 310 311 310 310 310 310 309 309 308 308 307 307 307 306 306 306 306 305 305 304 304 304 304 304 304 304 304 304 304 303 303 303 303 303 303 303 302 302 302 303 304 306 308 311 312 313 314 314 313 312 311 310 310 311 312 314 317 318 320
312 312 312 311 311 311 311 311 310 310 310 310 309 308 308 308 307 307 306 306 306 306 306 305 304 304 304 304 304 304 304 303 303 303 303 303 303 303 303 303 303 303 303 303 303 303 304 306 310 312 313 313 314 314 313 312 310 309 308 310 313 315 317
312 311 311 312 311 311 311 311 311 311 311 310 310 309 309 308 308 307 307 306 306 306 306 305 304 304 304 304 304 304 304 303 302 302 302 302 302 302 302 302 303 304 304 304 304 304 303 304 307 310 312 313 313 314 314 314 313 311 309 308 309 311 312
311 311 311 311 312 311 311 311 311 311 311 311 310 310 309 308 308 307 307 306 306 306 306 306 304 304 304 304 304 304 304 303 302 302 302 302 302 302 302 302 302 302 303 304 305 305 305 305 305 308 311 312 313 313 313 314 313 311 310 311 310 310 310
311 311 312 312 312 312 311 311 310 310 311 311 310 310 309 309 308 308 307 307 307 306 306 306 305 304 303 303 304 304 303 303 302 302 302 301 301 301 301 301 301 301 302 303 304 305 306 306 305 306 308 310 312 312 313 313 313 311 311 312 312 311 311
313 312 312 313 313 313 311 311 310 310 311 311 311 310 310 309 309 308 308 307 307 307 307 306 305 304 303 304 304 303 303 303 302 302 301 301 301 301 300 300 300 301 301 301 302 303 305 306 306 306 306 307 308 310 311 312 312 312 310 312 313 312 311
317 315 315 315 315 314 313 312 310 310 311 311 311 311 311 310 309 308 308 308 307 307 307 306 305 303 303 303 303 303 303 302 302 301 301 301 301 300 300 300 300 300 300 300 301 301 302 304 305 306 306 306 306 307 309 309 310 311 309 309 311 312 312
320 319 318 317 317 316 314 313 312 311 312 312 312 312 312 311 310 309 309 308 308 307 307 306 304 303 303 303 303 303 302 302 301 301 300 300 300 300 300 300 300 299 299 299 299 300 300 301 303 304 305 306 306 306 306 307 308 309 307 306 309 310 311
321 321 320 320 319 317 316 314 313 312 312 313 313 313 313 312 311 309 309 309 308 307 307 306 304 303 303 303 303 302 302 301 300 300 299 299 299 299 299 299 299 299 299 299 298 298 299 299 301 302 303 304 305 306 306 306 307 307 307 306 306 308 310
321 322 321 321 320 319 318 317 315 315 314 314 314 314 314 313 311 310 310 310 308 307 307 305 303 302 303 303 303 302 301 300 300 299 299 299 299 299 299 299 298 298 298 298 298 297 297 297 299 300 301 302 303 305 306 306 306 307 307 306 305 307 308
321 322 322 322 321 321 320 319 318 318 317 316 315 315 314 313 311 311 311 310 308 307 306 303 302 303 302 302 302 301 301 300 299 299 299 299 299 298 298 298 298 298 297 297 297 297 297 297 297 298 300 301 302 303 304 305 306 306 307 307 306 305 306
321 321 321 322 322 322 322 321 321 320 319 318 316 315 314 313 311 311 311 310 308 306 304 302 302 302 302 301 301 300 300 300 299 299 299 299 298 298 298 298 298 298 297 296 296 296 297 298 298 297 298 299 301 302 303 303 304 305 306 306 306 306 306
322 321 321 322 322 322 322 322 322 321 320 319 317 315 314 312 312 312 311 309 307 305 303 302 302 302 302 302 301 301 300 299 299 299 299 299 299 298 298 298 298 297 296 296 295 296 297 298 299 299 298 298 299 300 301 302 303 303 304 305 305 306 306
323 322 322 322 322 323 322 321 322 322 321 320 317 315 313 313 312 311 310 309 306 303 302 303 303 303 302 302 302 301 300 300 299 299 299 299 299 298 298 298 297 296 295 295 295 296 298 299 299 299 299 299 299 298 299 300 301 302 302 303 304 305 306
324 323 323 322 322 323 321 320 320 320 320 319 317 315 313 313 312 311 310 307 304 302 303 303 303 303 303 303 302 301 301 300 300 299 299 299 299 298 298 297 295 295 294 295 296 297 298 299 299 299 299 299 299 299 299 299 299 300 301 302 302 303 304
322 322 322 322 323 323 321 319 319 318 318 318 316 314 313 312 311 310 308 304 303 303 303 303 304 304 303 303 302 302 301 300 300 300 300 299 298 297 295 294 294 294 295 295 296 297 298 299 299 299 299 299 299 299 298 298 299 299 299 300 301 301 302
319 320 320 321 322 323 322 321 319 318 317 316 315 314 313 312 311 308 305 303 303 303 303 304 304 304 303 303 302 301 301 300 300 299 299 297 295 294 293 294 294 294 295 296 296 297 298 299 299 300 299 300 299 298 298 298 298 298 298 299 299 300 300
314 317 319 321 322 323 322 320 319 318 317 315 314 313 312 311 308 305 303 303 303 304 304 304 304 303 303 302 302 301 300 300 299 297 295 294 293 293 293 294 294 295 295 296 297 297 298 298 299 299 300 300 300 299 298 298 297 297 298 298 298 299 299
309 312 316 319 322 322 321 319 318 317 316 314 313 312 310 308 306 304 304 304 304 304 305 304 304 303 302 302 301 301 299 297 295 293 292 292 293 293 294 294 294 295 295 296 296 297 298 298 298 299 299 299 300 300 299 298 297 297 297 297 297 298 299
307 309 312 317 320 321 319 318 317 316 314 313 312 311 308 306 305 304 304 305 305 305 304 304 303 302 302 301 300 299 296 294 292 292 292 293 293 294 294 294 295 295 295 296 296 297 297 297 298 298 299 299 299 299 299 299 298 297 297 297 297 297 298
306 308 311 315 319 319 318 317 316 314 313 313 311 309 306 304 304 305 305 305 305 304 303 303 301 301 300 299 297 295 293 292 292 292 293 294 294 294 295 295 295 295 296 296 296 296 297 297 297 298 298 298 299 299 299 298 298 298 297 297 297 297 297
306 308 311 315 318 318 317 316 315 313 313 311 309 306 304 304 305 306 305 305 304 302 301 300 299 298 296 295 293 292 292 292 293 294 294 294 295 295 295 295 295 296 296 296 296 296 296 296 296 297 297 297 298 298 298 298 297 297 297 297 296 297 296
306 308 312 315 317 317 317 316 314 312 311 309 306 305 305 305 305 305 304 303 302 301 299 297 296 294 293 292 292 292 293 293 294 294 294 295 295 295 295 296 295 296 296 296 296 296 296 295 295 295 296 296 296 297 297 297 297 297 296 296 296 296 296
306 309 313 315 316 317 316 314 313 311 309 306 305 305 306 305 304 303 302 301 299 297 295 293 292 292 292 292 292 293 293 293 294 294 294 295 295 295 295 295 295 295 295 295 295 294 294 294 294 294 294 294 295 296 296 295 296 296 296 296 295 295 295
308 310 313 315 315 315 314 313 312 310 307 306 305 305 304 303 302 301 299 297 295 293 292 292 292 292 292 292 292 292 293 293 293 294 294 294 295 295 295 295 294 294 294 294 293 293 293 293 293 293 293 292 293 294 294 294 294 294 294 294 294 295 295
310 312 314 314 314 314 311 309 307 306 304 304 304 303 301 300 298 297 295 293 292 291 292 292 292 292 292 292 292 292 293 293 293 294 294 294 294 294 293 293 293 293 293 293 293 293 292 292 292 292 291 290 291 292 292 291 291 292 292 293 293 294 294
312 312 313 313 313 312 309 306 304 303 303 302 301 299 297 295 294 293 292 291 291 291 292 292 292 291 291 291 292 292 293 293 293 293 293 293 292 292 292 292 292 293 293 293 292 292 292 292 291 290 290 290 290 290 290 290 290 290 290 291 291 292 293
312 311 311 311 309 308 306 304 303 302 300 298 296 295 294 292 292 291 291 291 291 291 291 291 291 291 291 291 292 292 292 293 292 292 292 292 292 292 292 292 292 292 292 292 292 291 291 291 290 290 290 290 290 290 289 289 289 289 289 289 290 290 291
310 309 309 307 306 304 302 301 299 297 296 295 293 293 292 291 291 291 291 291 291 291 291 291 291 291 291 291 291 292 292 292 292 292 292 292 292 292 292 292 292 292 292 292 291 291 291 291 290 290 290 290 290 290 290 289 289 289 289 289 289 289 290
308 307 305 304 303 300 298 298 297 295 295 294 293 292 291 291 291 292 292 292 292 292 291 291 291 290 290 291 291 291 292 292 292 292 292 292 292 291 291 291 292 292 291 291 291 291 291 291 291 291 291 291 291 291 290 289 289 289 289 289 289 289 290

ECMWFFLT1_850_thetae_027.txt.gz
Theta_e
308 308 308 308 308 307 307 307 306 306 306 305 305 304 304 304 304 305 305 305 305 305 306 307 307 307 306 306 306 307 309 311 314 317 319 321 322 323 324 324 324 325 325 326 326 327 328 328 327 328 328 328 328 328 328 328 328 328 327 327 327 327 327
308 308 308 308 308 308 307 307 306 306 306 305 305 305 305 304 304 304 304 304 304 303 304 304 304 304 304 304 304 304 304 305 306 307 309 312 314 317 319 320 322 323 323 324 324 325 326 326 326 326 326 326 327 327 327 327 328 328 327 327 327 327 327
309 309 309 308 308 308 308 307 307 306 306 305 305 305 305 305 305 305 304 304 304 304 304 304 304 304 304 304 304 304 304 304 304 303 304 305 306 308 310 312 314 316 318 319 320 321 322 324 324 324 324 323 324 325 326 326 327 327 328 328 328 327 328
309 309 309 309 309 309 308 308 307 307 306 306 305 305 305 305 305 305 304 305 304 304 304 304 304 305 305 305 305 305 305 304 304 304 303 303 303 303 304 305 306 308 310 312 314 315 316 318 320 321 321 321 320 320 320 322 323 324 325 326 327 327 327
309 309 309 309 309 309 309 308 308 307 307 306 306 306 305 305 305 305 305 305 305 304 304 304 305 305 305 305 305 305 305 305 305 304 304 303 303 302 302 302 303 304 305 307 310 311 313 315 316 317 318 318 317 316 314 313 314 316 318 320 322 323 322
309 309 309 309 310 310 309 309 308 308 307 307 307 306 306 306 306 305 305 305 305 305 305 305 305 305 305 305 305 305 305 305 305 304 304 303 303 303 303 302 302 302 303 304 306 308 312 314 315 316 317 317 316 316 313 309 308 307 308 312 316 319 320
309 309 310 310 310 310 310 310 309 309 308 308 307 307 307 306 306 306 306 305 306 305 305 305 305 305 305 305 305 305 305 305 304 304 304 303 303 303 303 303 302 302 302 302 303 304 307 310 313 315 315 315 315 315 313 311 309 308 308 309 309 313 317
309 310 310 310 310 311 310 310 310 309 309 308 308 308 307 307 307 306 306 306 306 306 305 305 305 304 304 304 305 305 305 305 304 304 304 303 303 303 302 303 303 303 303 303 302 302 303 304 308 311 312 314 315 315 315 313 312 312 311 309 306 306 310
310 310 310 311 311 311 311 311 311 311 310 309 309 309 308 308 307 307 307 306 306 306 306 306 305 305 304 304 304 304 304 304 304 304 303 303 303 302 302 302 302 303 303 303 303 303 303 302 304 306 309 312 313 314 315 315 315 315 313 311 310 309 309
310 310 311 311 311 311 311 311 311 311 311 311 310 309 309 309 308 307 307 307 307 307 306 306 306 305 304 304 304 304 304 304 304 303 303 303 302 302 302 302 302 302 302 302 302 303 303 303 304 304 306 309 311 312 313 314 315 316 315 314 313 312 312
310 310 311 311 312 312 312 312 312 312 312 312 311 311 310 309 308 308 308 307 307 306 306 306 306 306 305 304 304 304 304 304 304 303 303 302 302 302 302 301 301 301 301 301 302 302 303 303 304 304 305 307 309 310 312 313 313 314 314 314 314 315 316
309 310 311 311 312 312 312 312 312 312 312 312 312 312 311 310 309 309 308 308 307 307 306 306 306 306 305 304 303 303 304 304 303 303 303 302 302 301 301 301 300 300 300 300 300 300 301 302 303 304 305 306 307 308 309 311 312 311 311 313 314 314 314
309 310 310 311 311 311 312 313 313 313 313 313 313 313 313 312 311 310 309 308 308 307 307 306 306 306 306 304 303 303 303 303 303 303 303 302 302 301 300 300 300 300 299 299 299 299 299 300 300 302 303 305 306 308 308 309 310 309 309 310 309 309 310
310 310 310 311 312 312 312 313 314 314 314 313 313 313 313 313 313 312 310 309 308 308 308 307 307 306 306 304 303 303 303 304 303 303 303 302 302 301 300 300 300 300 299 299 299 299 298 298 298 299 300 302 304 307 308 309 309 309 308 308 308 308 308
312 311 311 312 314 315 315 314 315 316 316 315 314 314 314 314 314 313 312 311 309 309 308 308 307 307 306 305 303 303 303 303 303 303 303 302 302 301 301 300 300 299 299 299 299 298 298 298 297 297 298 299 301 303 305 307 308 308 308 308 308 308 308
315 315 314 314 316 317 318 318 317 317 318 317 316 315 315 315 314 314 313 312 311 310 309 309 308 307 306 305 303 302 303 303 303 303 302 302 301 301 301 300 300 299 299 299 298 298 298 297 297 297 297 297 298 299 300 303 305 306 306 306 307 307 308
319 319 319 318 318 318 319 320 320 319 319 319 318 317 316 316 315 314 314 313 312 311 310 310 309 308 306 305 303 302 303 303 302 302 301 301 301 300 300 300 299 299 298 298 298 298 297 297 296 296 296 297 298 298 298 298 300 302 302 303 304 305 306
321 321 321 320 320 320 320 321 321 321 320 320 320 319 318 316 316 315 314 314 313 311 311 310 310 308 307 305 303 302 302 303 302 302 301 301 300 300 300 299 299 299 298 298 298 297 296 296 295 296 296 297 298 298 299 298 299 300 301 301 301 301 303
322 322 322 322 322 321 321 321 321 322 321 320 320 320 319 318 316 315 315 314 313 312 311 311 310 308 306 305 303 302 302 302 302 302 302 301 301 300 300 299 299 299 298 298 296 295 295 295 295 295 296 297 298 299 299 299 299 300 300 300 299 299 300
323 323 323 323 323 322 322 322 322 322 322 320 318 318 318 318 318 316 315 315 314 312 312 311 310 308 306 304 303 302 302 302 302 302 302 302 301 301 300 300 299 299 297 296 295 294 294 294 295 296 296 297 298 299 300 300 299 300 300 300 300 300 299
321 322 323 323 324 323 323 323 323 323 322 321 319 317 317 317 318 317 316 315 313 312 312 311 310 308 305 303 302 302 303 303 303 302 302 302 301 301 301 300 299 297 295 294 294 294 294 294 295 296 296 297 298 298 299 300 300 300 300 300 300 300 300
313 316 319 321 322 323 323 323 323 323 323 322 320 318 316 317 318 318 317 315 313 312 312 311 309 307 304 303 303 303 303 303 303 302 302 302 301 301 300 299 297 295 294 293 293 294 294 294 295 296 296 297 298 298 298 299 299 300 300 300 300 300 301
305 308 311 315 318 320 321 321 322 322 322 322 321 319 317 316 317 317 317 315 313 312 311 310 309 306 303 303 303 304 304 303 303 302 302 301 301 300 299 296 294 293 293 293 293 294 294 294 295 295 296 296 297 297 298 298 298 299 299 300 300 300 301
304 304 305 309 313 317 319 320 321 321 321 322 321 319 317 316 316 316 315 314 313 312 311 310 307 305 303 303 304 304 304 303 302 302 301 301 300 298 296 293 293 293 293 293 294 294 294 295 295 295 295 296 296 297 297 297 298 298 298 299 299 300 300
304 304 304 304 306 310 314 318 320 320 321 321 320 319 317 316 316 315 314 313 312 311 310 308 305 303 303 303 304 304 303 303 302 301 300 299 297 294 293 292 293 293 294 294 294 295 295 295 295 295 295 296 296 296 297 297 297 297 297 298 298 299 299
303 304 304 303 304 305 308 313 317 319 320 320 320 318 316 315 315 314 313 312 310 309 307 306 304 303 304 304 304 304 303 302 301 300 298 295 293 293 293 293 294 294 294 295 295 295 295 295 296 296 296 296 296 296 296 297 297 297 297 297 297 298 298
302 303 303 303 303 303 305 308 313 317 319 319 319 318 316 315 314 313 312 311 309 307 305 304 303 304 305 304 304 303 302 301 299 296 294 293 293 293 294 294 294 295 295 295 295 296 296 296 296 296 296 296 296 296 296 297 297 297 297 297 297 297 297
302 302 303 303 303 303 304 306 310 315 318 318 318 317 316 315 313 312 311 309 307 305 304 304 304 305 304 304 303 301 300 297 295 293 293 293 293 294 294 294 295 295 295 296 296 296 296 296 296 296 296 296 296 296 296 296 296 296 296 296 296 297 297
303 302 303 303 303 303 304 305 309 315 317 317 316 316 314 313 312 311 309 307 305 304 303 304 304 304 303 302 300 298 295 293 293 293 293 293 294 294 294 295 295 295 296 296 296 296 296 296 296 296 296 296 296 296 295 295 296 296 296 296 296 296 296
304 303 303 303 303 303 304 307 311 316 318 317 315 314 313 312 311 309 307 304 304 303 303 303 303 302 301 299 296 294 293 293 293 293 293 294 294 295 295 295 296 296 296 296 296 295 295 295 295 295 295 295 295 295 295 295 295 295 295 295 295 296 296
305 305 304 304 303 304 306 309 313 316 316 315 314 313 312 310 308 306 304 304 304 303 302 302 300 299 296 294 293 292 292 293 293 293 294 294 295 295 295 295 296 296 295 295 295 294 294 294 294 294 293 293 293 293 293 293 293 293 294 294 295 295 295
306 306 306 305 305 305 306 310 314 315 314 313 313 311 309 307 305 304 303 303 302 302 300 298 296 294 293 292 292 292 293 293 293 293 294 294 294 294 295 295 295 295 295 295 294 294 294 293 293 293 292 292 292 292 292 292 292 292 292 292 293 293 293
306 306 306 306 306 307 309 311 314 314 311 309 309 307 305 304 303 302 301 300 299 297 295 293 292 292 292 292 292 292 292 293 293 293 293 294 294 293 294 293 293 294 294 294 294 294 293 293 293 292 292 291 291 291 291 291 291 291 291 291 291 291 292
306 306 307 308 308 309 311 312 313 311 309 307 305 303 302 302 302 300 298 296 294 293 292 292 292 292 292 292 291 292 292 292 292 293 293 293 293 293 293 293 293 293 294 294 294 293 293 293 292 292 292 291 292 292 291 291 290 290 290 290 290 291 291
306 307 308 309 310 311 311 311 310 309 306 305 304 303 303 302 301 298 295 293 292 292 292 292 292 291 291 291 291 291 291 292 292 293 293 293 292 292 292 292 292 293 293 293 293 293 292 292 292 292 292 292 292 292 291 290 290 289 289 290 290 290 290
307 308 309 310 310 310 309 308 307 306 305 303 303 301 299 297 296 294 293 292 292 292 291 291 291 291 291 291 291 291 292 293 293 293 293 293 292 292 292 292 292 292 292 292 292 292 292 292 291 292 292 292 292 292 291 291 290 290 290 290 290 290 290
308 309 309 309 309 307 306 304 302 301 300 299 297 296 294 293 293 293 292 292 292 291 291 291 291 290 290 291 292 292 293 293 293 293 293 293 293 292 292 292 292 292 292 292 292 291 291 292 292 292 292 292 292 292 292 292 292 291 291 291 290 291 291

ECMWFFLT1_850_thetae_030.txt.gz
Theta_e
315 311 308 307 308 307 307 307 307 306 306 306 306 306 305 305 305 305 306 306 307 307 306 305 305 305 305 306 307 308 311 315 319 321 322 323 324 324 324 324 326 326 327 327 328 327 328 328 328 328 329 329 329 329 328 328 329 330 329 329 329 329 330
313 310 309 308 308 307 307 307 306 306 306 306 306 306 306 305 305 305 304 304 304 306 306 305 304 305 304 305 305 304 305 306 308 311 314 317 319 320 321 322 323 324 325 325 326 326 326 326 327 327 327 328 328 328 328 328 328 328 328 328 328 328 329
311 310 311 309 307 308 307 307 307 307 306 306 306 305 305 306 305 305 305 305 305 305 306 305 305 306 305 305 305 305 305 305 304 304 305 308 309 310 313 318 320 321 322 323 322 322 323 324 324 325 325 325 325 325 326 327 327 327 326 327 327 327 327
309 309 310 309 308 308 308 307 308 308 308 307 306 306 306 305 305 305 305 305 305 305 305 305 305 306 306 306 306 306 306 305 305 305 304 304 304 303 305 310 315 316 316 319 320 320 321 321 322 322 322 321 321 320 320 320 321 323 323 324 325 326 327
309 309 309 309 308 308 309 309 309 310 309 308 307 306 306 305 306 305 305 305 305 305 305 305 305 306 305 306 306 306 306 306 305 305 305 305 304 304 304 304 306 307 308 311 314 314 316 318 319 319 319 319 319 319 318 315 312 312 314 317 321 323 324
309 308 309 311 310 310 312 310 310 311 310 309 307 306 306 306 306 305 305 305 305 305 305 305 305 305 305 305 306 305 305 305 305 305 305 304 304 304 304 304 305 306 305 305 305 306 309 312 315 318 318 318 318 319 319 316 312 311 309 310 314 318 321
309 308 310 312 311 312 314 312 310 312 312 310 308 308 307 306 306 306 306 306 306 305 305 305 305 305 305 305 305 305 305 305 305 305 304 304 304 303 304 304 304 306 305 304 304 305 308 311 314 317 317 317 318 318 318 317 317 317 315 314 315 316 319
309 308 309 312 312 311 313 312 311 312 313 312 311 309 307 307 306 307 306 306 306 306 306 306 305 305 305 305 305 304 305 305 305 304 304 304 303 303 303 303 304 305 304 304 305 307 309 310 310 313 314 316 317 317 318 318 317 318 318 318 318 317 317
309 309 309 310 310 310 311 311 311 312 313 313 312 310 307 307 307 307 307 307 307 307 306 306 306 306 305 304 304 304 304 304 304 304 304 304 304 303 303 302 304 306 303 303 305 306 306 306 306 309 312 314 316 316 316 317 317 318 318 319 319 318 318
308 308 309 309 309 310 311 311 312 312 312 313 313 310 309 308 307 307 307 307 307 307 307 307 307 307 306 305 305 304 304 304 304 304 304 304 303 303 303 302 303 304 303 302 304 304 303 303 305 308 310 312 313 314 315 315 316 317 318 318 318 318 318
309 309 309 309 309 310 311 311 312 312 312 312 312 311 310 309 308 308 308 308 308 307 307 307 307 307 307 306 305 304 304 304 304 304 304 304 303 303 303 302 302 303 302 301 302 302 301 302 305 308 310 311 312 312 314 315 315 315 316 316 316 317 319
309 309 309 309 310 310 311 311 312 312 312 312 312 312 312 312 311 310 309 308 308 308 308 307 307 307 307 306 306 305 304 303 304 304 304 303 303 303 303 302 302 302 301 301 302 301 301 301 303 306 308 310 311 311 312 312 313 314 314 315 315 316 317
310 309 309 310 310 310 311 312 312 312 312 312 312 312 312 313 313 312 311 310 309 309 308 308 308 307 307 307 307 306 305 303 304 305 304 304 303 303 303 302 302 302 300 301 302 301 301 301 301 302 304 308 309 310 311 311 312 313 313 313 314 314 314
309 309 310 309 309 310 310 310 311 312 313 313 313 313 313 313 313 313 313 313 312 310 309 309 308 308 308 307 307 307 305 304 304 305 304 304 303 303 302 302 303 302 301 300 300 301 302 302 301 302 305 307 308 309 310 311 311 312 312 312 313 313 313
310 310 310 310 309 309 310 309 310 311 312 314 314 314 314 313 313 314 314 314 313 312 311 310 309 309 309 308 308 307 306 304 304 304 303 304 304 303 302 301 302 302 300 300 300 301 302 301 301 302 304 305 307 308 309 309 310 311 311 311 312 312 312
315 314 313 312 311 311 310 310 310 310 311 314 316 316 315 315 314 314 314 314 314 314 313 312 311 310 309 309 309 308 307 306 304 303 303 303 303 303 302 301 301 301 301 300 300 300 301 301 300 300 300 302 304 304 305 306 306 308 309 309 310 310 311
319 319 318 318 317 315 314 313 313 312 311 312 315 317 318 317 316 315 315 315 315 314 314 313 312 311 310 310 309 308 308 307 305 303 303 303 303 303 302 302 302 302 301 300 300 300 300 300 299 298 298 300 302 303 304 304 305 306 308 308 308 309 309
321 322 322 323 322 320 320 319 318 318 316 315 316 317 319 319 318 316 315 315 315 315 314 314 314 312 311 310 310 309 308 307 305 304 303 303 303 303 303 303 302 302 301 301 300 299 298 297 296 296 297 299 301 303 304 304 304 305 306 307 308 308 308
322 322 322 323 323 323 323 322 322 321 321 320 319 319 319 319 318 317 317 316 316 316 315 315 314 313 312 311 310 310 309 308 306 304 303 303 303 303 303 303 303 303 302 301 300 298 296 295 295 295 295 296 298 300 300 300 302 303 304 305 306 307 307
321 322 323 322 322 322 322 323 323 323 321 321 321 321 320 319 319 319 318 317 317 316 316 315 314 314 313 312 311 310 309 308 306 305 303 303 303 303 303 303 303 303 302 301 300 297 295 294 294 295 295 296 297 298 299 300 302 303 303 304 305 306 306
312 315 318 320 321 321 321 321 323 323 322 321 322 323 322 320 320 319 318 318 317 316 315 315 314 314 313 311 311 310 310 308 306 304 303 303 303 303 303 303 303 303 302 301 299 297 295 294 294 294 295 295 296 298 300 302 303 304 303 303 304 305 306
306 307 308 310 314 318 321 322 322 322 322 322 322 322 322 321 320 319 318 317 316 315 315 314 314 313 312 311 311 310 310 308 305 304 303 303 303 303 303 303 303 302 302 300 298 296 295 295 294 294 295 295 295 296 299 301 303 303 304 304 304 305 305
305 305 305 305 305 309 315 320 322 322 321 321 321 322 322 321 320 319 318 316 315 314 314 314 313 313 312 311 310 310 309 307 305 303 303 303 303 303 303 303 302 301 300 299 298 296 295 295 295 295 295 295 295 295 296 298 300 302 303 304 304 304 305
302 303 303 304 304 304 307 313 318 321 321 320 320 321 321 320 319 317 316 316 315 315 315 314 314 313 312 310 309 308 307 305 304 303 303 303 303 303 303 302 301 299 297 297 296 296 295 295 295 295 295 295 295 295 295 296 297 298 300 302 303 303 304
303 303 302 302 303 304 303 305 310 315 318 318 319 319 320 320 319 317 316 315 315 315 315 314 313 313 311 310 309 307 305 304 304 304 304 304 303 303 302 300 298 296 295 295 295 294 295 295 295 295 296 296 296 296 296 296 296 296 297 299 301 302 303
303 303 303 302 301 302 303 304 304 307 314 317 318 319 319 319 318 316 316 315 315 315 314 314 313 312 310 309 308 305 304 304 304 304 304 303 303 302 299 296 294 294 294 294 294 294 295 295 296 296 296 296 297 297 297 296 296 296 296 297 297 298 300
302 301 301 302 302 302 304 305 304 305 312 316 317 318 319 318 316 316 315 315 315 314 314 313 312 311 310 308 306 304 304 304 304 304 303 303 301 298 296 294 293 293 294 294 295 295 295 296 296 296 296 296 297 298 297 297 297 297 297 297 297 296 297
301 301 301 301 301 302 303 305 305 306 312 315 316 317 318 317 317 317 315 314 314 314 312 311 310 309 307 306 305 304 304 304 303 303 302 300 297 295 293 293 294 294 294 295 295 295 296 296 296 296 296 296 296 296 297 297 298 298 298 298 298 298 297
304 304 303 303 302 302 303 305 306 308 312 314 314 315 316 317 317 317 315 314 313 312 311 310 308 307 305 305 304 304 304 302 301 299 297 295 293 293 293 294 294 294 295 295 296 296 296 296 296 296 296 295 296 296 296 296 297 297 297 298 298 298 298
307 307 306 306 306 305 305 306 307 309 313 314 313 314 316 316 316 315 314 313 312 311 309 308 307 305 304 304 303 302 300 298 296 295 294 293 293 294 294 294 295 295 296 296 296 296 296 296 295 295 295 295 295 295 295 295 296 296 296 296 296 296 296
308 308 308 308 309 308 308 309 309 311 313 312 312 314 315 315 314 313 312 311 310 309 308 306 305 304 303 303 302 299 296 294 294 293 294 294 294 294 295 295 295 295 296 296 296 296 295 295 294 294 294 294 294 294 294 295 295 295 295 295 294 295 295
307 307 308 309 310 310 310 310 311 311 311 311 313 315 316 314 311 310 309 309 308 306 305 304 303 303 302 301 299 295 293 293 293 294 294 295 295 295 295 295 295 295 295 295 295 295 295 294 293 293 293 293 293 293 293 294 294 294 294 294 294 294 294
306 306 307 308 309 310 310 310 310 310 310 312 314 314 313 311 309 307 307 306 305 303 302 301 300 299 298 296 294 293 293 293 293 294 294 295 295 295 295 295 296 295 295 294 294 294 294 293 292 292 292 292 292 292 292 293 293 293 293 293 293 293 294
306 307 308 308 309 309 309 308 309 309 310 312 313 310 308 307 307 306 304 302 301 299 298 297 295 294 294 293 293 293 293 293 294 294 295 295 295 295 295 296 295 295 294 294 294 293 293 292 292 292 291 291 292 292 292 292 292 291 291 292 292 292 292
307 307 308 309 309 309 308 307 308 309 310 310 309 307 305 305 304 303 302 300 298 296 294 294 294 293 293 293 293 293 293 294 294 295 295 294 294 294 294 295 295 294 294 293 293 292 292 292 292 291 291 292 292 292 291 291 290 290 290 291 291 291 292
307 308 308 309 308 308 307 308 308 309 308 307 305 304 304 303 303 302 301 300 298 296 294 294 293 293 293 293 293 294 294 294 295 295 294 294 294 294 294 294 294 293 293 293 292 292 292 292 292 292 292 292 292 292 291 291 290 290 290 291 291 291 292
307 308 308 307 307 307 308 308 308 307 306 304 303 303 303 301 301 300 299 298 297 296 294 293 293 293 293 293 293 294 294 294 294 294 294 294 294 294 294 294 294 294 293 293 293 293 292 292 292 292 292 292 292 292 291 291 291 291 291 291 291 292 292

ECMWFFLT1_850_thetae_033.txt.gz
Theta_e
321 320 319 320 318 314 310 311 313 313 314 315 315 316 316 315 313 313 314 315 315 314 314 314 313 313 313 309 306 309 312 314 319 320 323 324 324 325 325 325 326 326 326 327 328 327 326 327 328 328 327 325 324 325 326 326 327 327 328 329 330 329 329
320 319 319 318 316 312 309 312 316 316 314 313 312 313 314 312 311 310 310 312 313 313 313 311 309 307 307 306 305 305 305 306 308 310 316 319 319 320 322 322 322 324 324 324 325 325 325 326 327 327 328 327 324 320 322 324 324 326 327 329 329 329 329
318 318 318 318 317 314 313 313 316 316 315 312 309 309 311 311 310 310 308 307 309 311 311 310 309 307 306 306 306 306 306 306 304 305 307 310 310 310 313 319 320 321 323 322 322 323 323 324 325 325 325 326 325 322 323 324 322 322 324 325 326 326 327
318 318 319 318 318 317 317 316 317 318 317 313 309 308 309 308 307 308 307 306 307 308 311 313 312 310 308 307 307 306 306 306 306 306 305 306 308 307 307 314 318 318 319 320 321 321 321 322 322 323 322 322 322 321 321 321 319 319 321 323 324 324 325
316 317 320 319 318 319 318 318 318 318 318 314 311 310 308 307 307 306 306 307 306 306 308 311 312 311 310 308 307 306 307 306 306 306 305 305 309 310 307 307 313 316 317 317 317 318 318 319 319 319 319 318 319 319 319 317 314 313 313 315 318 321 322
314 314 319 319 318 319 318 318 318 318 319 317 315 314 309 307 308 307 308 308 306 306 306 306 308 308 309 309 306 306 307 306 306 306 305 304 305 309 310 310 312 314 315 312 311 314 315 315 316 318 318 318 318 318 318 317 315 313 312 312 313 314 315
313 311 316 318 317 318 319 319 317 318 319 317 317 317 312 310 312 310 309 309 306 306 306 306 306 305 308 311 308 306 306 306 306 306 305 305 304 304 307 311 312 311 311 311 311 314 316 316 316 317 317 317 317 317 318 318 317 317 317 317 316 316 314
317 313 315 318 317 317 318 319 318 317 318 317 317 318 313 311 314 311 308 308 306 306 307 306 307 306 307 310 308 305 306 306 306 306 305 305 304 304 303 306 313 312 308 309 313 314 314 315 314 313 313 315 317 317 318 318 318 318 318 318 318 318 317
319 317 316 318 318 316 317 319 318 317 318 318 318 318 314 311 312 310 309 309 307 307 307 306 308 308 306 309 308 306 306 306 306 306 306 306 304 305 303 304 312 312 304 305 310 310 309 309 311 312 313 314 315 316 317 317 316 317 318 318 319 319 319
320 320 318 318 319 318 317 318 318 317 317 317 318 318 314 310 311 310 309 310 308 308 308 307 309 308 307 309 308 307 307 306 306 306 306 306 305 305 304 303 308 309 304 304 306 305 304 304 307 312 313 313 313 314 315 316 316 317 318 318 318 318 318
318 320 319 319 320 320 317 317 317 317 317 317 318 317 314 311 311 310 310 310 308 309 308 308 309 308 308 311 309 308 308 306 307 307 305 306 305 305 305 304 306 306 303 303 303 303 303 303 305 309 312 313 313 313 314 314 314 313 315 317 317 317 318
315 318 320 320 321 321 320 318 318 318 317 317 318 317 314 312 312 311 311 311 309 310 309 309 309 308 310 312 310 309 309 307 309 309 306 305 305 305 305 304 305 306 303 303 304 303 302 302 304 306 308 310 311 312 313 314 313 310 310 313 315 316 316
315 316 319 320 321 321 321 319 318 319 319 318 318 318 315 314 314 312 312 312 311 311 310 309 310 309 310 311 310 311 311 309 311 311 309 307 305 305 306 306 306 306 304 304 305 304 304 304 303 303 305 307 309 311 312 313 314 312 310 311 312 312 313
318 317 319 320 321 321 321 321 320 319 319 319 319 318 316 315 316 316 315 315 313 312 311 311 311 310 311 311 311 312 312 309 310 313 311 308 306 306 305 306 307 306 304 304 304 304 306 306 304 304 305 307 308 310 311 312 313 313 312 312 313 312 313
321 320 320 320 321 321 321 321 320 319 319 320 319 319 317 317 318 318 318 318 317 316 314 313 313 311 312 313 312 311 311 309 310 312 311 309 308 308 305 305 307 306 304 304 304 304 306 305 305 306 306 306 306 307 308 310 310 311 311 311 312 312 312
321 322 321 321 321 321 321 321 320 320 320 320 320 319 319 318 318 319 318 318 318 317 316 315 315 313 313 313 312 311 310 309 310 311 310 309 310 310 307 305 306 306 305 304 304 304 305 305 305 305 305 304 304 304 305 306 307 308 309 310 310 311 311
321 323 322 321 321 320 320 322 321 321 320 320 320 320 320 319 319 319 319 319 319 318 318 317 316 315 314 313 313 312 311 310 310 310 309 309 310 309 307 305 306 306 306 305 304 304 305 305 304 302 302 303 304 305 305 306 307 308 309 310 310 310 310
320 322 322 321 320 319 321 323 323 322 322 321 321 320 320 320 319 319 319 319 319 319 318 318 317 316 315 314 314 313 313 312 310 310 310 310 309 308 306 305 305 306 305 304 304 304 304 303 301 300 300 301 303 304 304 305 305 306 307 307 307 308 309
321 322 322 321 321 320 321 322 323 323 323 322 322 322 321 321 320 320 320 320 320 320 319 318 318 317 316 315 314 314 313 312 311 311 310 309 308 307 306 305 304 304 304 304 304 303 303 301 300 299 299 299 300 301 302 302 303 304 306 306 306 307 308
324 324 323 322 322 322 323 322 323 323 324 323 323 323 322 322 322 321 321 321 320 320 319 319 318 317 317 316 315 314 313 312 312 311 310 309 308 307 306 305 304 303 303 303 303 303 302 300 299 298 298 298 298 299 301 302 303 305 306 307 307 307 308
320 320 321 321 321 321 321 322 323 322 322 323 324 323 323 322 322 322 321 321 321 320 320 319 318 318 317 316 316 315 314 312 312 311 310 309 308 307 305 304 303 303 303 303 303 303 302 300 298 297 297 296 296 297 298 299 302 305 306 307 307 308 308
314 314 315 317 318 318 317 320 322 322 323 323 323 323 323 322 322 321 321 321 320 320 320 320 319 318 317 316 315 314 313 312 311 310 310 309 308 307 305 304 303 303 303 303 303 303 302 301 299 298 297 296 295 295 296 296 299 303 305 306 306 307 307
312 313 314 316 317 319 318 319 320 320 321 323 324 323 323 322 321 321 321 320 320 320 320 319 319 318 317 316 315 314 313 312 311 310 309 308 307 306 305 304 303 303 303 303 304 304 303 302 300 299 297 296 295 295 295 296 297 299 301 304 305 305 306
312 313 313 314 314 316 317 319 319 317 315 316 320 323 323 322 321 321 320 320 320 320 319 318 318 317 316 316 315 313 312 311 311 310 309 308 307 305 304 304 303 303 303 303 302 302 301 301 300 299 297 296 296 296 296 296 296 296 298 299 300 302 303
311 311 312 313 313 314 315 317 318 318 316 314 315 318 319 320 320 320 320 320 320 319 318 318 317 316 316 316 314 312 311 311 311 309 308 307 306 305 304 303 303 303 302 301 300 299 298 298 298 297 297 297 296 296 296 296 296 297 296 297 298 299 301
310 310 310 311 312 313 314 314 316 317 318 318 317 316 316 317 319 319 319 319 319 319 318 317 316 316 316 315 314 313 312 310 309 308 307 306 305 304 304 303 303 301 300 298 297 297 297 297 297 297 297 297 297 297 297 297 297 297 297 297 297 297 298
310 310 310 310 311 312 313 314 315 315 316 317 318 317 316 315 316 318 318 318 318 318 318 316 315 315 315 315 315 313 310 309 309 308 307 305 305 304 304 303 301 299 297 296 295 296 296 297 297 297 297 297 297 297 298 297 297 297 297 297 298 298 298
310 310 310 311 311 311 312 313 314 315 316 316 316 317 316 313 314 317 318 317 317 317 317 316 315 315 315 315 314 311 309 309 308 307 306 305 304 304 302 300 298 297 296 295 295 296 296 296 296 296 296 296 296 297 297 297 297 298 298 298 299 299 299
310 310 311 311 311 311 312 313 314 315 315 315 315 316 315 313 313 316 317 317 316 316 316 315 315 315 314 313 311 309 308 308 307 306 305 304 303 301 299 297 297 296 295 295 296 295 296 296 296 296 296 296 296 296 297 297 297 297 297 298 298 298 299
310 311 311 311 311 311 312 313 314 314 315 315 315 315 315 314 315 316 317 316 316 316 315 314 314 313 312 310 309 308 307 307 306 304 303 302 300 300 298 297 296 296 296 296 296 296 296 296 296 296 296 296 296 296 296 296 296 297 297 297 297 297 297
310 311 311 311 311 312 312 313 314 314 314 314 314 314 314 315 315 316 315 315 315 315 314 312 311 310 309 308 308 307 306 305 303 300 300 300 299 300 299 298 297 296 296 297 297 297 297 296 296 296 295 295 295 295 296 296 296 296 296 296 296 296 296
310 311 311 311 311 311 312 313 313 313 313 313 314 313 313 313 314 314 314 313 313 312 311 310 309 308 307 307 307 306 305 301 299 298 299 299 299 299 299 298 298 297 297 298 297 297 296 296 295 295 295 294 294 295 295 295 295 295 295 295 295 296 296
311 311 311 311 311 311 311 312 312 313 313 312 312 313 312 311 312 312 312 311 310 308 307 307 307 306 307 306 305 303 300 296 295 296 298 298 297 297 297 298 298 298 298 298 297 297 296 296 295 294 294 293 293 294 294 294 294 294 294 294 294 294 294
310 311 311 311 311 311 311 311 311 312 312 311 310 311 311 310 310 310 309 307 306 305 305 306 306 305 304 303 300 298 295 294 294 295 295 295 296 296 297 298 299 299 298 298 297 296 295 295 294 294 293 293 293 293 293 293 292 292 292 292 292 292 292
309 310 310 310 310 310 310 311 311 311 310 310 310 310 310 309 309 308 306 304 304 304 304 303 302 300 299 298 296 295 294 294 294 294 295 295 296 296 297 297 298 297 297 296 295 295 294 293 293 293 293 293 293 293 292 292 291 291 291 291 291 291 292
308 309 309 308 309 309 310 311 310 310 309 309 309 308 308 308 308 306 304 303 303 302 301 299 298 297 296 296 295 294 294 294 294 295 295 295 295 295 296 296 296 296 295 294 294 294 293 293 293 293 293 293 292 292 292 291 291 291 291 291 291 291 291
307 308 308 308 309 310 310 309 309 309 308 308 307 307 307 306 305 304 303 302 301 300 298 297 296 295 295 294 294 294 294 294 294 294 295 295 295 295 295 295 295 295 294 294 294 294 294 294 293 293 293 292 292 291 291 291 291 291 291 290 291 291 291

ECMWFFLT1_850_thetae_036.txt.gz
Theta_e
322 321 317 315 312 308 308 311 311 311 313 313 314 315 312 309 310 313 315 314 314 314 312 309 308 308 308 306 308 317 319 319 323 325 323 324 324 323 323 323 323 323 325 325 326 326 325 325 326 326 326 325 325 325 324 324 325 325 326 326 327 327 327
320 317 313 311 309 307 309 314 315 310 309 310 310 312 310 307 308 310 313 314 315 314 311 307 306 306 306 304 305 308 307 308 317 320 318 321 323 322 320 320 321 321 322 323 323 324 325 325 325 326 326 326 326 325 323 321 321 322 322 324 325 327 327
318 315 314 310 308 309 308 310 312 310 308 308 307 309 309 307 307 307 309 311 312 314 312 308 306 306 306 306 306 306 306 306 307 308 309 312 316 317 316 318 320 320 321 323 323 322 322 322 323 324 324 324 324 324 322 321 321 319 317 318 320 322 324
316 315 315 310 308 309 308 310 314 314 311 308 307 308 307 307 307 306 307 307 308 311 312 312 310 308 306 307 307 306 307 307 306 306 306 306 307 309 312 316 317 318 319 321 321 321 320 320 321 321 320 319 318 319 320 320 320 319 317 317 317 317 319
314 315 314 309 309 310 310 314 318 317 313 309 308 308 307 307 307 306 306 307 306 307 308 311 312 309 306 306 307 307 307 306 307 306 306 306 306 306 310 313 315 316 316 316 316 316 315 314 315 316 317 317 318 318 317 315 314 313 313 314 314 314 314
315 315 313 309 311 311 311 316 319 318 316 312 309 308 308 307 307 307 307 306 307 306 306 307 308 309 311 309 306 306 307 306 307 306 306 306 305 306 308 310 312 313 311 309 311 313 313 312 314 317 318 319 317 315 314 314 315 314 314 315 315 313 311
317 316 314 310 310 312 313 316 318 319 319 316 313 310 308 308 308 308 308 307 307 307 307 307 306 309 314 312 307 306 306 306 306 306 306 305 304 305 306 308 310 307 305 307 311 315 316 313 313 314 313 313 313 313 316 317 318 318 318 318 318 316 315
316 316 317 313 311 314 316 316 317 319 319 318 316 312 309 308 308 308 308 308 308 307 307 308 307 307 310 310 307 307 306 306 306 306 306 305 305 304 304 309 310 304 303 307 309 311 311 309 310 310 308 307 309 312 315 318 318 317 318 319 318 317 318
315 314 318 318 314 315 319 318 316 317 319 319 317 314 310 309 308 309 309 308 308 308 308 308 308 308 307 308 308 307 307 307 306 306 306 306 305 304 304 307 307 303 303 305 304 304 304 305 309 312 311 310 308 308 309 312 316 318 318 318 317 318 319
317 314 316 319 317 316 318 320 317 316 317 318 317 314 311 309 309 309 309 309 309 308 308 308 308 308 308 308 308 308 308 308 307 306 306 306 306 306 305 304 304 303 303 304 303 303 303 302 305 309 312 313 312 311 309 308 309 313 316 318 317 317 317
321 318 316 318 319 318 318 319 319 317 316 318 317 314 311 310 310 310 309 309 309 308 309 309 308 308 308 308 309 309 308 308 308 307 307 306 306 306 306 305 305 304 304 304 304 304 303 303 303 304 307 310 312 313 313 311 307 306 309 312 314 316 317
322 321 320 318 319 319 319 318 319 318 317 317 318 316 314 311 310 311 310 310 310 309 309 308 309 309 309 309 309 309 309 309 308 308 308 307 306 306 306 306 305 305 305 305 305 304 304 303 303 303 303 304 306 308 310 311 310 307 306 306 308 310 313
322 323 322 321 320 320 321 320 319 319 318 318 318 318 317 315 314 312 312 311 311 311 310 310 310 309 309 309 309 309 309 309 309 310 309 309 308 307 306 306 306 306 305 305 305 304 305 305 304 304 304 304 305 306 308 310 311 310 308 308 307 306 306
324 324 322 321 321 321 321 321 320 319 319 318 319 319 319 319 317 315 314 314 314 313 313 312 312 311 310 310 310 310 310 310 310 310 310 310 309 308 307 307 307 307 306 305 305 305 307 306 304 305 307 306 305 306 307 309 310 309 307 307 307 305 304
324 323 321 320 320 320 320 320 320 320 319 319 319 319 319 320 320 319 318 318 317 316 316 315 315 314 313 312 311 312 312 311 311 311 312 311 310 309 308 307 308 308 306 305 305 305 306 306 304 306 306 305 304 304 304 304 305 304 303 303 303 303 304
321 321 320 319 320 320 320 320 320 319 319 319 319 319 319 320 320 319 319 319 319 319 319 318 317 317 316 314 314 313 313 312 311 311 312 312 310 311 310 308 308 307 306 306 305 305 305 305 305 305 304 303 302 303 303 303 303 303 303 303 303 303 304
318 318 319 319 320 319 319 320 320 319 320 320 319 318 318 319 320 319 320 320 320 320 320 319 319 318 317 316 316 315 315 314 313 312 312 312 311 312 312 310 308 307 307 307 306 305 305 305 305 304 304 303 302 302 303 304 304 304 305 303 302 302 302
317 318 318 319 318 318 319 320 319 318 317 318 319 319 318 318 319 320 320 319 320 320 320 320 319 319 318 318 317 316 316 315 314 313 313 312 312 312 312 310 309 308 307 307 305 304 304 304 304 304 304 303 302 302 302 303 303 302 302 302 301 301 301
318 318 318 317 317 318 319 319 318 319 318 317 318 318 318 318 318 319 320 319 319 320 320 320 320 319 318 318 318 317 316 316 315 314 313 313 312 312 311 310 309 308 307 306 305 304 304 304 304 303 303 302 301 300 300 300 300 300 301 301 301 301 301
321 320 319 318 319 320 321 320 320 320 320 320 320 319 318 318 319 320 321 319 319 319 320 320 320 319 318 318 318 317 317 316 315 314 314 313 313 312 311 310 309 308 307 306 305 304 304 304 304 303 302 300 299 299 299 298 298 298 299 299 300 302 303
315 316 317 318 319 321 322 322 321 319 319 321 321 320 320 320 320 320 319 318 319 319 320 320 320 319 319 318 318 318 317 316 316 315 314 313 312 311 310 310 309 308 307 306 305 305 304 304 303 303 302 300 299 299 298 298 297 297 297 299 300 302 303
312 311 311 313 315 316 316 317 318 318 319 321 322 323 322 321 322 321 319 319 320 320 319 320 320 319 319 319 318 318 317 317 316 315 314 313 312 311 310 310 309 308 307 306 305 304 304 303 303 303 302 300 299 299 298 298 297 297 297 298 298 300 302
313 312 312 313 315 315 314 315 317 317 318 320 322 323 323 322 322 322 321 321 321 320 319 319 319 319 319 319 319 318 318 317 316 315 314 313 312 311 310 309 309 308 307 307 306 304 304 303 303 302 301 300 300 299 299 298 298 297 296 296 297 298 299
312 313 313 314 314 315 315 316 317 317 318 318 319 319 321 322 323 323 323 322 321 320 320 319 319 319 320 319 319 318 317 317 316 315 314 312 312 310 309 309 308 307 307 306 305 304 303 303 302 302 301 301 300 299 299 298 298 297 297 297 297 297 297
311 311 312 312 313 313 314 314 315 316 317 318 318 317 318 320 320 321 322 321 321 320 320 320 320 320 320 319 318 318 317 317 316 315 313 312 311 309 308 308 307 306 306 305 304 303 302 302 302 301 301 300 299 298 298 297 297 297 297 297 297 297 297
310 310 310 310 311 311 312 313 313 314 315 316 317 317 317 318 318 317 316 316 318 319 318 317 319 320 320 319 318 317 317 316 315 315 313 312 310 309 309 308 307 306 305 304 303 302 300 300 299 299 298 298 297 297 297 297 297 297 297 297 298 298 298
309 310 310 310 310 310 311 311 312 313 314 314 315 316 317 317 317 315 314 314 317 317 316 316 317 318 320 320 318 317 316 316 315 314 313 311 310 310 310 309 307 306 305 304 303 301 299 298 297 297 297 297 297 296 296 296 296 297 297 297 298 298 298
310 310 310 310 310 310 310 310 311 311 313 314 315 315 316 316 317 317 316 316 316 316 316 317 317 317 318 319 318 317 316 316 315 314 313 311 310 310 310 308 306 305 305 304 302 300 298 297 296 296 296 296 296 296 296 296 296 297 297 297 298 298 298
310 310 310 310 310 310 310 310 311 312 313 314 314 315 315 316 317 317 317 316 315 316 317 317 317 317 317 317 316 315 315 315 314 313 312 310 310 310 309 307 306 305 304 302 300 298 297 297 297 297 297 297 297 297 297 296 296 296 297 297 297 297 297
309 309 310 310 311 311 311 311 311 312 313 313 314 315 315 315 316 316 316 314 314 315 316 317 317 317 316 316 315 314 314 313 313 312 311 310 310 308 306 304 303 302 301 300 299 298 297 297 298 297 297 297 297 297 296 296 296 296 296 296 296 296 296
309 309 310 310 311 311 311 311 311 312 312 313 314 314 314 314 315 315 315 314 314 315 316 317 316 316 315 315 314 313 312 311 310 310 309 308 307 305 303 302 301 300 299 299 298 298 298 298 298 298 298 297 297 296 296 295 295 295 295 295 296 296 296
309 310 310 310 310 310 310 310 311 311 312 313 313 313 313 313 313 314 314 314 314 315 316 316 316 316 315 315 313 311 310 309 308 308 307 305 304 303 302 300 299 299 298 298 298 298 299 298 298 298 297 297 297 296 295 295 294 294 294 294 294 295 295
310 310 310 311 311 311 311 311 311 311 312 312 313 313 313 313 313 313 313 313 314 314 315 315 314 314 314 313 312 311 309 308 307 307 306 304 303 301 299 298 297 297 298 298 299 299 299 298 298 298 297 297 296 295 294 294 294 293 293 293 293 293 294
309 310 310 311 311 310 311 311 311 311 312 312 312 312 313 313 313 313 313 313 313 312 312 312 312 312 312 311 309 309 307 307 306 305 303 300 298 297 296 296 298 298 299 299 299 299 298 298 297 297 296 295 294 294 294 293 293 293 293 293 293 293 293
309 309 309 309 309 309 309 309 310 311 312 312 312 312 312 312 312 312 312 312 310 309 309 310 310 310 309 308 307 306 306 304 302 300 297 296 295 295 295 297 298 298 298 298 298 297 297 296 296 295 294 293 293 293 293 293 293 292 292 292 292 291 291
308 308 308 308 308 309 308 309 309 310 311 312 312 312 311 310 310 310 310 309 308 308 308 307 307 306 305 305 305 303 302 299 297 296 295 295 295 295 295 296 296 297 297 296 296 296 295 295 294 294 293 293 293 293 292 292 292 292 292 291 291 291 291
307 307 308 308 308 308 309 309 310 310 311 311 312 311 310 309 309 308 308 307 306 305 305 304 304 303 303 302 300 298 297 295 295 295 295 294 294 295 295 295 295 295 295 295 294 294 294 294 294 293 293 293 292 292 292 292 292 292 292 292 291 291 291

ECMWFFLT1_850_thetae_039.txt.gz
Theta_e
311 312 314 313 310 308 308 309 308 309 309 308 307 306 308 316 318 314 312 313 315 316 314 312 311 312 318 320 317 320 323 322 323 324 324 324 323 323 322 322 323 323 325 326 326 326 326 326 326 326 326 326 324 324 324 324 325 326 326 326 326 326 326
314 310 310 310 308 308 308 308 308 308 308 307 307 306 306 311 314 313 313 312 309 308 307 307 306 305 309 311 312 317 318 318 322 323 321 322 322 322 321 320 321 323 323 323 323 324 325 325 325 324 324 324 324 324 324 324 325 325 326 325 326 326 326
313 309 308 308 307 308 308 308 308 307 307 307 307 306 306 309 312 313 314 311 308 306 306 307 307 306 306 306 307 310 311 314 320 319 317 321 321 320 319 317 318 322 324 324 322 321 322 323 323 323 322 321 320 320 321 322 322 322 322 322 323 324 325
310 308 308 308 307 308 307 308 307 307 307 307 307 306 306 307 309 311 310 309 308 307 307 307 306 307 307 307 307 306 306 309 311 309 311 317 318 318 317 316 317 320 322 322 320 320 321 320 321 321 320 318 317 318 319 319 318 318 318 317 317 319 321
309 309 308 309 308 308 308 308 307 307 307 307 307 307 307 307 307 307 307 307 307 308 308 307 306 306 306 306 307 307 307 306 306 306 307 310 311 313 315 316 317 319 320 320 319 319 319 316 314 314 316 315 314 317 318 317 316 316 317 316 315 315 315
309 309 309 309 309 309 309 309 308 308 308 307 308 307 307 307 307 307 307 307 307 307 307 307 307 307 306 306 306 307 307 306 306 306 306 306 306 308 310 311 312 315 317 316 313 312 312 310 307 308 312 314 312 311 314 316 317 318 318 318 317 317 316
308 310 310 309 309 309 309 310 309 309 309 308 308 308 308 308 307 307 307 307 307 307 307 307 307 307 306 306 306 306 306 306 306 306 305 305 305 305 306 306 306 307 309 308 307 307 308 306 305 306 308 309 308 308 312 317 317 317 318 318 318 318 318
309 310 311 310 309 310 310 310 310 311 310 309 309 308 308 308 308 308 308 308 308 307 307 307 307 307 307 307 307 306 306 306 306 306 305 305 304 304 304 305 304 303 304 305 305 305 304 304 304 304 304 305 306 307 312 317 317 317 318 318 318 319 318
311 310 313 312 311 312 313 312 312 313 312 311 311 310 309 309 308 308 308 308 308 308 308 307 308 308 308 308 308 307 307 306 306 306 306 305 305 304 304 304 304 303 303 303 303 303 302 303 303 303 304 305 305 305 308 313 316 316 317 317 318 318 318
313 311 314 314 314 316 318 316 315 316 315 314 312 312 311 310 309 309 308 308 308 308 308 308 308 308 308 308 308 308 308 307 307 306 306 306 305 305 304 304 304 304 303 303 303 303 303 303 303 303 304 305 304 304 304 306 309 312 313 314 315 317 317
316 314 315 317 316 318 320 319 318 317 317 316 314 312 312 311 311 310 310 309 309 309 309 309 308 308 308 309 309 309 308 308 308 307 307 306 306 306 305 305 305 304 304 304 304 303 303 303 303 303 304 304 304 304 304 304 305 307 308 308 309 313 315
319 316 316 318 318 318 319 320 319 318 317 317 316 314 313 312 312 312 311 311 311 310 310 310 309 309 309 309 309 309 309 309 309 308 308 307 307 307 306 306 306 306 306 306 305 304 304 304 304 304 303 304 304 304 305 305 304 305 305 305 305 307 310
320 318 316 318 319 318 319 319 319 319 318 317 317 316 315 315 314 314 314 314 313 312 312 312 312 311 310 309 309 309 309 310 309 309 309 309 308 308 308 307 307 307 306 306 306 306 306 305 305 305 305 304 304 304 304 304 304 304 304 304 303 303 304
322 321 318 319 319 319 319 320 319 319 318 318 318 317 318 318 317 317 317 316 316 315 314 314 314 314 313 311 311 310 310 310 311 310 309 310 309 309 308 308 308 307 306 306 306 306 307 306 306 306 306 305 304 304 304 304 304 304 305 304 304 304 304
322 322 320 321 321 321 321 321 321 320 320 319 319 319 319 319 319 318 319 319 318 317 317 316 316 317 316 315 314 312 312 311 312 311 311 310 311 310 309 309 308 308 307 306 306 306 306 306 306 306 305 305 305 304 304 304 304 305 306 306 306 305 305
323 323 322 321 321 321 320 320 319 318 319 319 319 319 319 319 319 319 319 319 319 319 318 318 318 318 318 318 316 315 314 313 313 312 312 311 312 311 310 310 309 309 308 307 306 306 305 305 305 305 305 305 305 304 304 304 305 305 305 306 307 306 306
322 323 321 318 318 320 319 318 317 317 317 318 318 319 319 319 319 319 319 320 320 320 319 319 319 319 319 319 318 317 316 315 314 314 313 312 312 312 311 311 311 310 309 308 307 307 306 305 305 304 304 304 305 304 304 304 304 303 303 304 305 305 305
319 321 321 318 317 319 319 318 318 318 317 318 318 317 318 319 319 319 319 319 319 320 320 320 320 320 320 319 319 318 318 316 315 315 314 313 313 312 312 312 312 311 309 309 308 307 306 305 305 304 304 304 304 304 304 303 303 303 303 303 304 305 304
318 320 322 320 318 318 319 319 319 318 318 318 318 318 318 318 319 319 319 319 319 319 320 320 320 320 320 319 319 319 318 317 316 316 316 315 313 313 313 312 312 311 310 309 308 307 306 306 305 305 304 304 304 304 304 304 303 303 303 303 303 305 304
320 321 321 320 318 317 318 318 318 318 317 317 318 318 317 317 318 318 318 318 318 319 319 319 320 320 319 319 319 319 318 318 317 316 316 315 314 313 313 312 312 311 310 310 309 309 308 307 306 305 305 304 303 303 303 303 303 303 302 302 302 302 303
317 318 318 319 319 319 319 319 319 319 319 319 319 319 318 318 318 319 319 318 318 318 319 319 319 319 319 319 318 318 318 318 317 317 316 316 315 314 313 313 312 312 311 310 310 309 308 308 307 306 305 304 303 303 303 303 304 303 302 301 301 300 300
313 312 312 314 316 317 318 317 318 318 318 318 318 319 319 318 318 318 318 318 317 318 319 319 320 319 319 319 319 318 318 318 317 317 317 316 315 314 314 313 312 312 312 311 310 310 309 307 307 305 304 303 303 303 304 304 303 302 301 300 300 299 298
312 310 310 311 313 315 316 315 315 315 315 315 316 317 317 317 316 316 317 318 318 319 319 320 320 319 318 319 319 318 318 318 318 317 316 316 315 315 314 313 313 313 312 311 311 310 310 308 306 305 304 303 303 303 303 303 301 300 299 298 298 298 298
311 311 312 313 313 313 314 314 314 315 314 315 316 317 316 315 314 315 316 317 319 321 321 321 320 320 320 320 319 319 318 318 318 317 316 316 315 315 314 313 313 313 312 311 310 310 309 308 306 305 304 303 302 302 301 301 300 299 298 298 297 297 297
310 311 311 311 312 312 313 313 313 314 314 314 316 318 317 316 315 314 314 315 317 319 320 320 320 321 320 320 319 319 319 318 318 317 316 316 316 315 314 313 313 313 312 311 309 308 309 309 308 306 305 303 301 300 299 298 298 298 297 297 297 297 297
310 310 310 310 310 310 311 311 312 312 313 313 314 315 316 317 316 316 315 314 315 316 316 315 315 317 319 320 320 319 319 318 318 317 316 316 315 314 314 313 313 313 311 310 308 307 308 310 309 307 305 302 299 298 297 297 297 297 297 296 296 296 297
308 309 309 309 309 309 310 310 310 311 311 312 312 313 314 316 317 317 316 316 315 314 312 311 311 313 316 319 319 320 319 318 318 316 315 315 314 314 313 313 313 311 309 308 307 306 307 309 308 305 302 299 298 297 297 297 297 297 297 296 296 296 297
308 308 308 308 309 309 308 308 308 309 310 310 311 312 313 315 316 316 317 316 316 314 313 312 311 311 313 316 318 319 319 317 316 315 315 314 313 313 312 312 311 309 308 308 307 307 308 310 307 302 299 298 297 297 298 297 297 297 297 296 296 296 296
309 309 309 309 309 309 309 308 308 308 309 309 310 311 312 313 314 316 316 316 315 315 315 314 313 312 313 315 316 317 318 317 315 315 314 313 313 312 311 310 309 308 308 307 308 309 310 309 304 300 298 298 298 298 298 298 297 297 297 296 296 295 295
308 308 308 309 309 310 310 310 310 309 309 309 309 310 311 312 313 314 315 315 315 316 316 315 314 314 315 316 316 316 316 316 315 314 313 313 312 310 309 308 308 307 307 307 307 308 307 304 300 298 298 298 298 298 298 298 297 297 297 296 296 295 295
308 308 309 309 309 310 310 310 311 311 311 310 310 310 310 311 312 313 314 315 315 315 315 315 314 314 315 316 315 315 315 314 314 313 312 312 310 309 308 308 308 307 306 305 305 304 302 299 298 298 298 299 299 298 298 298 297 297 296 295 295 294 294
307 307 307 307 308 308 309 309 309 309 309 309 309 310 310 311 312 312 313 313 313 314 314 314 314 314 314 314 314 314 314 314 313 312 312 311 309 309 309 308 307 305 304 303 301 300 298 298 298 298 299 298 298 298 298 297 296 295 295 294 294 293 294
307 308 308 308 308 309 309 309 309 310 309 308 308 310 311 311 312 312 312 312 313 313 313 313 313 313 313 313 313 313 313 312 312 311 310 309 308 308 308 307 305 303 301 299 298 297 298 298 299 299 298 298 298 297 296 295 294 294 294 293 293 293 293
308 309 309 309 310 310 310 310 310 309 310 309 309 310 311 311 312 312 312 312 312 313 313 313 313 312 312 312 312 312 311 311 311 310 309 308 308 307 306 304 301 299 298 297 297 297 298 298 298 298 297 296 296 295 294 294 293 293 293 293 293 292 292
308 308 308 308 309 309 309 308 307 307 307 309 310 310 311 311 311 311 312 312 312 312 312 311 311 310 310 309 309 309 309 309 309 308 307 306 305 303 301 299 297 296 296 296 296 297 297 296 296 295 295 294 294 294 293 293 293 293 292 292 292 292 292
307 307 307 307 307 308 308 308 308 307 308 308 309 309 310 311 311 311 312 311 310 310 309 308 308 308 307 306 307 307 307 307 307 306 305 303 300 298 297 296 296 296 295 295 295 295 295 295 294 294 294 294 293 293 293 292 292 292 292 292 291 291 291
307 307 307 307 307 308 308 308 308 308 309 309 309 309 309 310 310 311 311 310 309 308 307 306 305 305 305 305 305 305 304 304 303 302 300 298 297 296 296 295 295 294 294 294 294 294 294 294 294 294 294 293 293 292 291 291 291 291 291 291 291 291 291

ECMWFFLT1_850_thetae_045.txt.gz
Theta_e
315 312 309 308 308 308 308 310 313 317 319 320 320 319 318 318 319 317 316 316 317 318 317 316 315 314 318 323 323 323 325 324 324 324 324 325 326 326 327 327 327 327 326 326 327 326 325 325 325 324 324 324 323 324 324 323 323 324 326 326 326 326 326
315 310 307 307 307 307 307 307 309 312 313 314 315 315 315 317 317 314 313 314 314 313 310 308 308 309 315 320 318 319 321 320 322 324 323 324 325 325 326 326 326 326 326 326 327 327 326 325 324 324 324 324 324 325 325 324 324 324 325 324 324 326 327
313 309 307 307 307 306 307 306 307 307 307 308 308 309 312 314 313 310 310 311 310 308 306 305 305 307 310 312 310 311 314 312 316 320 320 321 322 322 323 323 323 324 325 325 325 325 325 325 324 323 322 321 322 322 321 321 321 321 322 320 319 322 323
309 308 308 308 307 307 306 306 306 306 306 306 306 308 310 310 309 307 307 307 307 306 306 306 306 306 306 307 306 308 308 307 309 311 311 315 319 319 318 318 318 320 321 322 322 322 323 323 323 323 321 319 319 319 317 317 317 317 318 318 318 318 318
309 308 308 308 308 307 306 306 306 306 306 307 306 307 308 307 306 306 306 307 306 306 307 306 306 307 306 306 306 306 307 306 306 306 308 311 314 314 313 311 312 314 316 317 317 316 315 316 318 319 319 319 319 317 316 316 316 317 318 318 318 318 318
309 308 308 308 307 306 306 306 306 306 306 306 306 306 307 306 306 307 307 307 307 306 307 307 306 307 306 306 306 306 306 306 306 306 307 308 309 309 309 309 309 310 311 312 311 308 307 308 309 309 311 314 316 315 315 316 316 317 317 317 317 317 317
308 308 309 308 308 307 306 306 306 306 306 306 306 306 306 306 306 307 307 306 306 306 306 306 306 306 306 306 306 306 306 305 305 305 305 305 306 306 307 306 306 306 307 308 306 304 303 304 305 304 306 309 311 313 315 315 315 316 316 316 316 316 317
308 308 308 308 308 307 306 307 306 306 306 306 306 306 306 306 306 306 307 306 306 306 306 306 306 306 306 306 305 305 305 305 305 304 304 304 304 304 304 304 303 303 304 304 303 303 302 303 303 304 304 306 308 313 315 314 315 315 315 315 315 315 316
309 308 308 308 307 307 307 307 307 307 307 307 307 307 307 307 307 307 307 307 307 307 307 307 307 307 307 307 306 306 306 305 305 304 304 303 303 303 303 303 303 302 302 302 302 302 302 302 303 303 304 305 307 312 314 313 312 313 314 315 315 315 314
312 308 308 308 308 308 307 307 307 307 307 307 307 307 307 307 307 307 308 308 308 308 308 308 308 308 308 307 307 307 307 306 306 306 305 305 304 304 303 303 303 303 303 303 303 303 303 303 303 302 303 303 305 309 312 311 310 309 309 312 314 314 313
316 313 310 308 308 308 307 307 308 307 307 308 308 307 308 308 307 308 308 308 308 308 308 308 308 308 308 308 308 308 308 307 307 307 306 306 305 305 304 304 304 304 303 303 303 303 303 303 303 303 303 303 304 305 307 308 308 306 305 306 308 309 309
319 319 315 309 307 308 309 309 310 311 311 310 310 309 309 308 308 308 308 308 308 309 309 309 309 309 308 308 308 308 308 308 308 308 307 307 306 306 305 305 305 305 304 304 304 304 304 304 304 305 305 305 305 305 305 305 306 305 304 305 305 305 305
321 321 318 313 310 310 310 312 312 314 315 314 313 312 312 311 311 310 310 310 310 310 310 311 311 310 310 310 309 309 309 308 308 308 308 308 307 306 306 306 306 306 305 305 305 305 305 305 305 305 305 306 306 306 306 306 306 305 305 305 305 305 305
321 321 319 316 314 313 313 315 315 316 317 316 316 315 314 314 314 314 314 314 314 313 313 312 312 312 312 312 313 313 312 311 310 309 309 308 308 308 307 307 306 306 306 306 305 305 305 305 305 305 305 305 306 306 306 307 307 307 307 306 306 306 307
321 320 319 318 317 316 316 317 318 318 318 317 317 317 317 316 317 317 317 317 317 317 316 316 315 315 315 315 315 315 316 316 314 313 311 310 309 309 309 309 308 307 307 306 306 306 305 305 305 305 305 305 305 306 307 307 308 309 309 308 308 308 309
320 320 319 319 319 318 317 318 319 319 319 318 318 318 317 317 317 317 317 317 318 318 318 318 318 318 318 318 317 317 318 317 317 316 314 313 312 311 311 310 310 309 308 308 307 307 307 306 306 306 305 306 306 307 307 308 308 309 309 310 309 310 310
320 319 319 319 318 319 319 319 319 319 318 318 318 317 316 317 318 318 317 317 318 318 318 318 318 319 318 319 319 319 319 319 318 318 317 316 315 315 314 314 313 312 310 309 309 309 308 308 308 308 309 309 310 310 310 310 309 309 309 309 310 310 310
319 319 319 318 318 319 320 319 318 318 318 317 316 315 316 317 318 318 317 317 318 318 318 318 319 319 319 319 319 319 319 319 319 319 318 318 317 316 316 316 315 315 314 312 311 309 310 311 312 312 313 313 313 313 313 312 312 311 310 310 310 310 310
320 320 319 319 319 319 318 319 319 319 318 316 314 314 316 318 318 318 318 318 318 318 319 319 320 320 320 319 319 319 319 319 319 319 319 319 318 317 317 316 316 316 316 315 313 311 311 313 314 314 314 314 314 314 314 313 312 312 311 311 311 310 310
320 320 320 320 320 318 317 318 318 318 318 316 315 315 317 318 319 318 317 317 318 318 319 319 320 320 320 320 320 320 320 320 320 319 319 319 318 318 317 316 316 316 316 316 315 314 313 313 314 314 314 314 314 313 313 313 311 311 311 311 311 310 309
319 320 320 320 319 318 317 317 317 317 318 317 317 317 317 318 319 318 317 317 317 318 319 319 319 319 319 320 319 319 319 319 320 320 320 319 319 318 318 317 316 316 316 316 316 315 314 313 313 313 313 313 313 313 312 312 311 310 310 310 310 310 309
318 318 317 317 317 317 317 317 317 317 318 318 317 317 317 317 318 317 317 317 318 319 319 319 319 318 318 319 319 318 318 318 319 319 319 319 319 318 318 317 316 316 316 316 315 315 313 312 312 312 312 312 312 311 311 311 311 311 310 309 309 309 309
315 315 314 315 316 318 318 319 319 318 318 318 317 316 316 317 316 316 316 318 319 319 319 319 320 320 320 319 319 319 318 319 319 319 319 319 319 319 318 318 317 316 316 316 315 314 313 312 312 311 311 311 310 310 310 311 311 311 310 309 309 308 308
313 312 313 314 314 315 316 317 317 316 316 316 316 316 317 317 317 318 318 319 319 318 318 318 319 320 320 319 319 319 319 319 320 320 319 319 319 319 318 318 317 316 316 315 315 314 313 313 312 311 311 311 310 310 311 311 311 311 310 309 308 307 305
311 310 311 312 312 312 313 314 314 313 313 314 314 315 315 315 316 317 318 319 318 318 317 316 316 316 316 316 317 319 319 319 320 320 320 320 319 319 318 318 318 317 316 315 314 313 313 312 312 311 311 311 311 311 311 311 311 311 310 308 306 304 303
309 309 310 311 311 311 311 311 311 311 311 311 311 312 312 312 313 313 314 316 316 317 316 316 316 315 314 314 315 315 316 317 318 319 319 319 319 318 318 318 318 317 315 314 313 312 312 312 311 311 311 311 311 310 310 310 310 311 309 307 304 302 302
309 309 309 309 309 309 309 309 309 309 309 309 310 310 310 310 310 311 312 313 314 314 315 317 317 315 314 314 314 314 314 314 315 315 316 318 318 318 317 317 317 316 315 313 312 312 311 311 311 311 311 310 309 309 309 309 310 309 307 304 302 301 300
308 308 308 308 308 308 308 308 308 308 308 308 307 307 307 307 307 308 308 309 311 312 314 315 316 315 315 314 314 314 313 313 313 313 314 316 317 317 316 316 316 315 313 312 312 311 311 311 311 311 310 309 309 308 309 308 307 305 303 301 300 299 299
307 307 307 307 307 307 307 306 306 306 306 305 305 304 304 304 304 304 305 305 306 309 311 313 314 314 314 314 314 314 313 312 312 313 313 315 315 315 315 315 314 313 312 312 311 311 311 311 311 310 309 308 308 308 308 307 305 302 300 299 299 298 297
307 307 307 308 308 308 307 307 306 306 305 305 305 305 305 304 304 304 304 304 304 305 308 310 311 312 313 313 313 313 312 311 311 311 311 312 313 313 314 314 312 311 311 311 310 310 310 310 309 308 308 308 308 307 306 304 301 299 298 298 297 297 296
307 307 307 307 308 307 307 308 307 307 307 308 308 308 308 307 307 306 305 305 304 304 306 309 310 311 311 312 312 312 312 311 310 310 309 310 312 312 312 312 311 311 311 311 310 310 309 309 308 308 308 307 306 305 304 301 299 298 297 296 296 295 295
306 306 307 307 307 307 307 307 307 307 307 307 307 307 307 307 307 306 305 303 302 304 307 309 310 311 311 312 312 312 311 311 310 310 309 309 310 310 310 311 311 311 310 310 310 309 309 308 308 307 307 306 305 303 301 299 297 296 295 295 295 295 295
305 305 305 305 305 305 305 306 306 306 307 307 307 308 307 307 307 307 305 304 303 304 307 309 310 310 311 311 311 311 311 310 309 309 309 308 308 308 309 309 309 309 309 308 308 308 307 307 307 306 305 303 301 299 297 296 295 295 295 295 295 295 295
305 304 304 304 304 305 305 306 307 307 308 308 308 309 309 308 308 307 305 305 305 306 308 309 310 310 310 311 311 310 310 309 308 308 308 308 308 308 308 308 308 308 307 307 307 307 306 306 305 303 301 298 296 295 295 294 294 294 294 294 294 294 294
306 305 304 304 305 307 307 307 307 307 307 307 307 307 306 306 306 305 304 305 307 308 309 309 309 310 310 310 311 310 309 308 308 307 307 307 307 307 308 307 307 306 306 306 306 306 305 304 302 299 296 295 295 294 294 294 294 294 294 294 294 294 293
305 305 304 304 306 307 307 306 305 305 305 305 305 304 304 304 304 304 305 306 307 308 308 309 309 309 310 310 310 309 308 307 307 307 307 307 306 306 306 306 306 305 306 305 304 303 300 298 296 295 294 294 294 294 294 294 294 294 294 293 293 293 293
304 304 304 305 305 305 305 304 304 304 304 304 304 304 305 305 305 305 305 305 307 307 308 308 309 309 309 308 307 307 306 306 305 305 305 305 304 305 305 305 304 304 303 301 299 297 295 294 294 294 294 294 294 294 294 294 293 293 293 293 292 292 292

ECMWFFLT1_850_thetae_048.txt.gz
Theta_e
315 314 314 314 313 311 309 308 309 312 315 316 316 317 316 316 316 314 314 315 315 315 313 313 314 314 317 321 322 322 323 323 323 323 323 325 326 326 326 326 326 326 326 326 326 325 325 324 324 324 325 325 324 324 323 323 324 324 324 324 325 325 325
316 316 314 311 308 308 307 307 308 310 312 313 314 315 314 314 314 312 312 313 311 310 307 307 308 311 317 321 319 319 320 320 322 323 322 323 324 325 325 325 324 324 325 325 325 325 325 324 323 323 324 325 325 324 324 324 324 324 324 324 323 323 323
316 316 314 309 307 307 306 307 307 307 308 308 309 311 312 313 311 309 309 309 307 306 306 306 306 309 314 317 314 314 314 313 318 320 320 321 321 321 322 321 321 322 323 323 324 323 324 324 321 320 321 322 322 320 320 321 321 321 322 321 320 320 320
317 315 312 308 307 307 306 306 306 306 306 306 306 308 310 310 307 306 306 306 306 306 306 306 306 306 308 308 307 308 307 307 311 313 315 318 319 318 317 316 317 319 319 319 320 320 321 322 321 319 318 318 318 318 317 317 317 318 319 318 318 318 317
318 315 311 308 307 307 306 306 306 306 306 306 306 307 307 307 306 306 306 306 306 306 306 306 306 306 306 306 306 306 306 305 307 308 310 313 314 313 312 310 311 313 315 315 313 312 313 318 320 319 317 316 317 317 316 316 316 317 317 317 317 317 317
320 318 312 308 307 306 306 306 306 306 306 306 306 306 306 306 306 306 306 306 306 306 306 306 305 306 305 306 305 305 305 305 305 306 307 307 308 308 307 306 307 309 310 309 307 305 306 309 312 315 315 315 315 315 315 315 315 315 315 316 316 316 316
321 319 313 308 307 307 306 306 306 306 306 306 306 306 306 306 306 306 306 306 306 306 306 305 305 305 305 305 305 305 304 304 304 304 305 305 305 305 304 304 304 305 305 304 303 303 304 304 305 307 311 314 314 314 315 314 314 314 313 313 313 315 316
322 320 314 308 307 307 306 306 306 306 306 306 306 306 306 306 306 306 306 306 306 306 306 306 306 306 305 305 305 305 305 304 304 303 303 303 303 303 303 302 303 303 303 303 302 302 303 303 303 304 307 311 313 313 314 313 313 312 311 310 310 313 315
322 321 314 308 307 307 306 306 306 306 306 306 306 306 306 306 306 307 306 306 307 306 307 307 307 307 306 306 306 305 305 305 305 304 304 303 303 303 303 302 302 302 302 302 302 302 302 302 303 303 306 309 311 312 311 310 310 310 309 308 309 310 310
322 320 313 308 307 307 306 306 306 306 307 306 306 307 307 307 307 307 307 307 307 307 307 307 307 307 307 307 307 307 306 306 306 306 305 305 304 304 304 303 303 303 303 304 303 303 302 302 303 303 304 307 310 312 309 306 305 306 306 307 307 307 307
322 318 312 308 307 307 306 306 306 306 307 307 307 307 307 307 307 307 307 308 307 308 308 308 307 308 307 308 308 307 308 307 307 307 306 306 306 306 306 305 305 305 305 305 305 304 304 304 304 304 304 305 308 310 309 306 304 304 304 305 305 305 305
320 316 312 308 307 307 307 307 307 307 307 307 307 307 307 307 307 308 308 308 308 308 308 308 308 308 308 308 308 308 308 308 308 307 307 306 306 306 306 306 306 306 306 306 306 306 306 306 306 306 306 305 306 307 307 306 305 304 304 305 305 305 305
317 314 315 312 309 307 307 307 307 307 307 308 308 308 309 309 310 310 311 310 311 311 311 311 311 311 311 310 309 309 309 309 308 308 307 307 307 306 306 306 306 306 306 306 306 306 306 306 307 307 307 307 307 307 307 307 306 305 305 306 306 307 307
315 315 320 319 313 309 307 307 308 309 310 309 311 312 313 314 314 314 315 315 315 316 316 316 315 314 314 314 313 313 312 311 310 310 309 308 308 307 307 307 306 306 306 306 306 306 306 306 306 306 307 307 308 308 309 309 308 307 307 308 308 308 309
315 316 320 321 316 311 308 309 311 312 313 312 313 315 315 317 317 317 317 317 317 317 317 318 317 317 317 317 317 316 316 316 315 314 312 311 310 309 309 309 308 308 307 306 306 306 306 306 306 306 307 307 308 309 310 311 312 311 310 310 310 310 310
316 317 319 321 318 314 312 312 313 315 316 316 316 317 318 318 318 317 317 317 317 317 317 318 318 318 318 318 318 318 318 318 318 317 316 314 313 312 312 311 311 311 310 309 308 308 307 307 307 307 308 309 311 312 313 313 313 313 313 312 312 312 311
318 317 318 319 319 317 316 315 315 316 317 318 318 318 317 317 315 315 316 317 317 317 317 317 318 318 318 318 318 318 318 318 318 318 318 317 316 315 315 315 314 314 313 312 311 310 309 309 309 310 311 313 314 314 314 314 313 313 312 311 311 311 312
317 318 318 318 318 318 318 317 317 317 318 319 318 315 315 316 315 314 314 316 317 317 317 317 317 318 318 319 319 318 318 318 318 319 319 318 318 317 317 316 316 316 315 315 313 312 310 310 312 313 314 314 314 314 314 314 313 313 312 311 310 310 311
317 319 318 318 319 318 318 318 318 319 319 318 316 314 315 317 316 315 314 316 317 318 317 317 317 317 318 318 318 318 318 318 318 319 319 319 318 318 318 317 316 316 316 316 315 314 312 312 313 314 314 314 314 314 314 314 313 313 312 311 311 310 310
318 320 319 318 319 318 318 318 319 319 319 319 317 316 317 318 316 314 314 315 316 317 317 317 317 317 316 317 318 317 318 317 318 319 319 319 319 318 318 317 317 317 317 316 316 315 314 313 313 313 313 313 314 314 314 314 313 313 312 312 311 311 310
320 320 319 319 319 319 319 319 319 319 319 319 319 318 318 317 316 315 316 316 316 317 317 317 317 317 317 317 317 316 316 317 318 318 318 318 319 319 319 318 318 317 317 316 316 315 315 313 313 312 312 312 313 313 313 313 313 313 312 312 311 311 310
321 320 319 319 319 319 320 319 319 319 319 319 318 318 318 318 317 317 317 317 316 316 317 317 317 317 317 318 318 317 318 318 319 318 318 318 318 318 318 319 318 318 317 316 316 315 315 315 314 313 312 312 312 312 312 312 313 313 312 312 311 311 310
321 320 320 319 319 319 318 317 317 317 317 317 317 317 317 317 317 316 316 316 316 316 317 317 318 318 318 318 319 319 319 319 319 319 319 318 318 318 318 319 319 318 318 317 316 316 315 315 314 313 313 312 311 311 311 312 312 311 311 311 311 310 309
319 319 318 317 316 316 316 317 317 316 316 316 317 316 316 316 315 315 315 315 316 317 317 317 317 317 316 315 316 317 319 319 319 319 319 319 319 318 319 319 319 319 318 317 316 316 315 314 313 313 312 312 311 311 311 311 311 310 311 310 310 309 309
314 314 314 313 313 313 313 314 315 315 315 315 315 315 314 314 314 314 314 314 315 316 317 317 316 315 314 314 314 315 315 316 316 317 317 318 319 319 319 319 319 318 318 318 317 316 314 314 313 313 312 311 311 311 311 310 310 310 310 310 309 308 308
310 310 310 311 311 311 311 312 313 313 312 312 312 312 312 312 312 312 312 312 312 313 315 316 317 317 316 315 313 313 313 313 313 313 313 314 316 318 319 319 318 318 318 318 317 316 314 314 313 313 312 311 310 310 310 310 310 309 309 309 308 307 307
309 309 309 310 310 310 310 310 310 310 310 311 310 310 310 310 310 310 310 310 310 311 313 315 317 318 317 315 314 313 312 312 312 311 311 311 312 313 315 316 317 317 317 317 317 316 314 313 313 312 311 311 310 310 310 310 309 309 309 308 307 306 306
309 309 309 309 309 309 309 309 309 309 308 308 308 308 308 307 307 307 307 307 307 307 308 310 313 315 316 315 314 313 312 312 311 310 310 310 310 311 312 314 315 315 316 316 316 314 313 311 311 311 310 310 309 309 309 309 309 309 308 307 306 305 305
308 308 308 308 308 308 307 307 307 307 307 306 306 306 306 306 306 306 306 305 304 303 304 304 307 311 313 312 312 312 311 310 310 310 309 309 310 311 313 314 314 315 315 314 313 312 311 311 310 310 310 309 309 309 309 308 308 308 307 306 305 304 302
307 307 307 307 308 308 308 307 307 307 307 307 307 307 308 308 308 307 307 306 305 303 302 302 304 307 309 310 311 310 310 310 310 310 309 309 309 309 311 312 312 312 312 312 311 311 310 310 309 309 309 309 309 308 308 308 308 307 306 305 304 302 300
307 307 307 308 308 308 308 308 307 307 307 308 308 308 308 308 308 307 306 306 305 303 302 301 303 305 308 309 310 310 310 311 310 310 309 308 308 308 309 309 310 311 311 310 309 309 309 309 309 309 309 308 307 307 307 306 305 304 304 302 301 299 297
307 307 307 307 307 307 307 307 307 307 307 307 307 307 307 307 307 307 306 306 305 303 302 302 304 306 308 309 310 310 310 310 310 309 308 308 308 308 308 308 308 309 309 309 309 309 309 309 308 308 307 307 306 306 306 305 304 303 301 299 297 296 295
306 306 306 306 306 306 306 305 305 305 305 306 306 307 307 307 307 307 306 306 304 303 302 303 305 307 308 309 310 310 310 310 309 308 307 308 308 308 308 308 307 308 308 308 308 308 307 307 307 306 306 306 305 305 304 304 303 301 298 296 295 295 295
305 305 305 305 305 304 304 304 304 304 305 306 306 307 307 307 307 306 305 305 304 303 303 305 306 308 308 309 310 310 309 309 308 308 307 307 307 307 307 307 306 307 307 307 307 307 306 306 306 305 305 305 305 304 302 300 298 296 295 295 294 295 295
304 304 304 304 304 304 304 303 303 304 305 306 306 306 305 305 305 304 303 303 303 303 303 304 306 307 308 308 309 309 309 308 308 307 307 306 306 306 306 306 306 306 306 306 306 306 305 305 305 305 304 304 302 300 298 296 295 294 294 294 294 294 294
305 305 305 305 305 305 304 303 303 304 305 305 305 303 302 301 302 302 303 303 303 303 303 302 303 305 307 308 309 308 308 307 307 306 305 305 305 305 306 305 305 305 305 305 304 304 304 304 304 302 300 299 297 295 294 294 294 294 294 294 294 294 294
304 305 305 305 304 304 303 303 303 303 303 303 302 301 300 300 301 302 303 304 304 304 303 302 301 303 304 306 308 308 307 306 305 304 303 303 304 304 304 303 303 303 303 304 303 303 302 300 298 297 295 294 294 294 294 294 294 294 294 294 294 293 293

ECMWFFLT1_850_thetae_051.txt.gz
Theta_e
317 316 317 316 313 313 313 311 311 311 311 312 312 312 313 313 312 312 313 313 313 311 310 311 311 313 319 321 320 321 322 322 323 324 324 325 326 326 326 325 325 325 325 326 326 326 327 326 324 324 325 325 325 324 324 324 324 324 324 324 324 324 324
315 315 316 314 310 309 310 310 310 309 310 310 311 311 311 311 310 310 309 309 308 307 306 307 308 313 320 320 318 318 317 318 320 321 322 323 324 325 324 323 323 323 324 325 324 325 326 325 323 323 323 324 324 324 324 324 324 324 324 324 323 322 322
313 313 313 311 308 308 308 309 309 308 308 308 309 310 308 307 307 307 307 306 306 306 306 307 308 313 317 316 313 311 309 312 317 318 319 320 321 321 320 320 320 321 322 323 323 324 325 324 323 321 320 321 321 321 321 321 321 321 322 321 320 319 319
314 314 314 311 308 307 307 307 307 307 307 307 308 307 306 306 306 306 306 306 306 306 306 306 307 309 309 308 307 306 306 308 311 314 317 318 318 317 316 316 316 318 319 320 321 323 324 323 322 320 318 318 318 317 317 318 318 318 318 318 318 317 317
315 317 317 314 308 307 306 306 306 306 307 308 306 306 306 306 306 306 306 306 306 306 306 306 306 306 306 306 305 306 306 307 308 311 313 314 313 313 312 311 311 313 315 315 315 319 322 322 320 319 316 315 315 315 315 316 316 317 317 317 317 317 317
317 318 319 315 308 306 306 306 306 306 307 308 306 306 306 306 306 306 306 306 306 306 305 305 305 305 305 305 305 305 305 305 306 307 308 308 308 308 307 306 307 309 310 308 307 310 318 321 320 317 316 315 314 313 313 314 314 315 316 316 316 316 317
320 320 320 316 308 306 306 306 306 306 307 307 306 306 306 306 306 306 306 306 306 305 305 305 305 305 305 305 305 304 304 304 304 304 304 304 304 304 303 303 304 305 305 304 303 304 310 316 319 318 316 316 314 313 312 312 312 311 312 313 314 315 316
322 321 321 317 309 306 306 306 306 306 306 307 306 306 306 306 306 306 306 306 306 306 306 306 306 305 305 305 305 305 304 304 303 303 303 303 303 303 303 302 303 303 302 302 302 303 304 308 312 315 316 315 314 313 312 311 311 309 308 307 309 312 313
322 321 321 317 309 306 306 306 306 306 306 306 306 306 306 306 306 306 306 307 307 307 307 307 307 306 306 306 305 305 305 305 305 304 304 304 303 303 303 303 303 303 303 302 302 302 303 303 305 310 314 314 313 313 312 310 309 308 306 305 306 308 309
322 321 321 318 310 306 306 306 306 306 306 306 306 306 306 306 306 307 307 307 307 307 307 307 307 307 307 307 306 306 306 306 305 305 305 305 305 305 304 304 304 304 304 303 303 303 303 303 304 307 311 312 312 312 312 310 308 306 306 305 305 306 306
322 322 322 320 312 307 306 306 306 306 306 306 306 307 307 307 307 307 307 307 307 307 307 308 307 307 307 307 307 307 307 306 306 306 306 306 306 306 306 306 306 306 305 304 304 305 304 304 304 305 308 311 311 311 311 310 307 305 304 305 305 305 306
322 322 323 319 312 307 306 306 306 306 307 307 307 307 307 307 307 307 308 308 308 309 309 309 310 310 309 309 308 308 308 308 307 307 306 306 306 306 306 306 306 306 306 306 306 306 305 305 305 305 306 309 310 309 309 309 307 305 305 306 306 307 308
323 323 322 318 312 308 306 306 307 307 307 307 307 307 307 308 309 310 311 312 312 313 313 313 313 313 313 312 312 311 311 311 310 309 309 308 307 306 306 306 306 306 306 306 306 306 306 306 306 306 306 307 308 308 307 307 307 306 307 308 308 309 310
323 323 321 316 311 308 306 307 307 307 307 307 308 309 310 312 313 314 315 316 316 317 317 316 316 316 316 316 315 315 314 313 313 313 312 311 309 308 308 307 307 307 306 306 306 306 306 306 306 306 306 307 308 309 310 310 310 310 311 311 311 311 311
323 323 320 316 315 311 307 307 307 307 308 309 310 312 314 316 316 317 317 317 317 317 317 318 318 318 317 318 317 317 317 316 315 314 314 313 312 311 310 310 310 310 309 308 307 307 307 307 307 306 307 309 311 313 313 314 313 312 312 311 311 311 311
323 323 319 317 319 317 310 307 307 308 310 312 314 315 317 317 317 317 317 317 317 317 317 318 318 318 318 318 318 318 318 318 317 316 315 314 314 313 312 312 313 313 313 311 310 309 308 308 308 308 309 311 313 314 314 314 314 313 312 311 311 311 310
322 322 319 317 320 319 313 308 309 310 313 315 316 317 318 318 317 316 315 315 315 315 316 317 317 317 318 318 318 318 318 318 318 318 317 316 315 314 314 313 314 314 315 314 313 311 309 309 310 311 312 313 314 314 314 314 314 313 313 313 313 312 312
321 320 318 318 320 319 314 311 311 313 315 317 317 318 318 317 315 313 312 313 314 314 315 315 315 316 317 318 318 318 318 319 318 318 318 318 317 316 315 315 314 314 315 315 315 313 311 310 311 313 314 314 314 314 314 314 314 314 313 313 313 313 312
320 320 318 317 318 319 316 314 314 314 316 317 318 318 318 317 314 312 314 315 314 314 314 315 315 315 316 317 317 317 317 317 318 318 318 317 317 317 317 316 316 315 314 315 315 314 313 311 311 312 313 313 314 314 314 314 314 314 313 313 313 313 312
321 320 318 317 317 318 318 317 317 316 317 318 318 319 319 317 314 314 317 317 315 314 315 315 316 316 316 317 317 317 317 316 317 317 317 317 317 317 317 317 317 316 316 315 314 314 314 313 313 312 312 312 312 313 313 313 313 313 313 313 313 312 312
320 318 317 317 317 317 318 318 318 317 318 319 319 319 319 318 316 316 318 317 316 316 316 316 316 316 316 317 317 317 317 316 316 316 316 316 317 317 317 317 318 318 317 316 315 315 315 315 314 314 313 312 312 312 312 312 313 313 313 312 312 312 312
319 318 318 318 318 317 318 318 319 318 318 319 319 319 319 319 318 318 318 318 317 317 317 317 316 316 316 317 317 317 317 317 317 317 317 318 318 318 318 318 318 318 318 317 317 316 315 315 315 315 314 313 313 312 312 312 312 312 312 312 312 312 311
319 319 319 320 319 318 318 319 319 318 319 319 319 319 319 318 318 318 318 317 316 316 316 316 316 316 316 316 316 317 317 317 317 318 318 318 318 318 319 318 318 318 318 318 318 317 316 315 315 315 315 314 312 312 312 313 312 311 311 311 311 311 311
320 320 320 320 320 319 319 319 318 318 318 318 318 318 318 317 317 316 316 315 315 315 316 317 317 316 315 315 315 314 314 314 314 315 316 317 317 318 318 318 318 318 318 318 318 317 316 316 315 314 314 313 312 312 312 312 312 311 311 310 310 310 310
320 321 320 319 318 319 318 318 317 317 317 317 317 316 316 316 315 314 314 314 314 314 316 317 317 316 316 315 314 313 313 312 312 312 313 314 314 315 316 318 319 319 319 319 318 317 315 315 315 314 314 313 312 312 312 311 311 310 310 310 310 310 309
319 319 317 315 315 315 315 315 315 316 316 315 314 314 314 313 312 312 312 311 311 311 312 314 315 316 316 316 315 315 314 312 311 310 310 311 311 311 312 313 316 318 319 319 319 318 316 315 315 314 313 312 311 311 311 310 310 309 309 309 309 309 309
314 314 313 312 312 312 313 313 313 313 313 312 312 311 311 310 310 310 309 309 309 308 309 309 311 313 315 316 316 315 314 313 312 310 309 309 309 310 310 310 312 314 315 317 317 317 317 317 316 314 312 311 311 311 310 309 309 309 309 308 308 308 308
311 310 311 311 311 311 310 311 311 310 310 310 309 309 309 308 308 307 306 305 305 304 304 304 305 306 309 312 314 314 313 312 310 309 308 308 309 309 309 310 311 313 314 315 316 316 316 316 315 312 311 310 310 309 309 308 308 308 308 308 308 308 307
309 309 309 309 309 309 309 309 309 308 308 307 307 307 306 306 305 304 304 303 303 302 302 302 301 302 303 305 309 310 310 309 308 307 307 308 308 308 308 310 311 313 313 314 314 315 314 313 311 310 309 309 309 308 308 308 308 308 307 308 307 306 305
308 308 308 308 308 308 308 308 307 307 306 306 306 306 306 306 306 306 305 305 305 304 303 303 302 301 301 302 304 305 306 306 307 308 308 308 307 307 307 308 309 310 310 311 311 311 311 310 309 308 308 308 308 308 308 308 307 307 307 307 306 305 304
307 308 308 308 308 308 308 308 307 307 306 306 306 306 307 307 307 307 306 306 305 304 304 303 302 302 301 302 303 304 306 307 308 308 308 307 307 306 306 307 306 306 307 308 309 309 308 307 307 307 307 307 307 307 307 307 307 306 306 305 304 303 301
306 307 307 307 307 307 307 307 307 307 307 307 307 307 307 306 306 306 306 305 305 304 304 303 302 302 301 302 304 305 307 308 308 308 307 306 306 306 307 307 307 307 307 307 307 307 307 307 307 307 307 307 306 306 306 306 305 305 304 303 301 299 297
305 305 305 305 305 305 306 306 306 306 306 306 305 305 305 305 305 306 305 305 305 304 304 303 302 302 303 303 304 306 308 309 308 307 306 306 306 307 307 307 307 307 306 306 306 307 306 306 307 307 306 306 306 305 305 304 304 303 301 299 297 295 295
306 305 305 305 305 305 305 305 305 305 305 304 304 305 305 305 305 305 304 304 303 303 303 303 302 303 304 305 305 306 308 309 308 307 306 306 306 306 306 306 306 306 305 305 305 305 305 305 306 306 305 305 305 305 304 303 301 299 297 295 295 294 294
305 305 304 304 305 305 304 304 304 304 304 304 305 305 305 304 303 302 301 301 302 302 303 302 302 302 303 304 306 307 307 307 307 307 306 306 305 305 304 305 305 305 305 305 305 305 304 304 304 304 305 304 304 303 302 299 296 295 294 294 294 294 294
304 304 304 304 304 305 305 305 305 304 304 304 305 305 304 302 301 301 300 300 301 302 302 303 303 302 301 302 304 306 306 307 307 306 306 305 304 303 303 303 304 304 304 304 304 304 303 303 303 304 303 302 300 299 297 295 294 294 294 294 294 294 294
304 304 304 304 305 305 306 305 305 303 303 304 304 303 302 301 301 302 302 301 301 301 302 303 304 304 302 301 301 302 304 306 306 306 305 304 303 302 302 303 303 303 303 302 302 302 302 302 302 300 299 297 295 294 294 293 294 294 294 294 294 294 294

ECMWFFLT1_850_thetae_054.txt.gz
Theta_e
318 312 309 309 309 308 307 311 313 312 312 314 315 317 318 316 314 313 312 314 317 318 319 320 320 321 320 320 322 322 323 324 325 328 328 328 328 328 327 326 326 326 325 326 327 326 326 327 326 325 325 325 325 325 325 325 324 324 324 324 324 324 324
310 307 308 307 306 307 306 308 312 314 313 313 314 314 313 311 308 308 307 308 311 315 319 319 318 320 320 319 320 319 319 320 321 324 327 327 328 327 327 326 326 326 325 326 326 327 327 327 326 325 323 323 324 325 324 323 323 324 324 323 321 321 320
308 308 309 307 306 308 307 306 310 315 315 312 310 309 308 307 307 306 306 306 307 311 316 317 317 316 315 314 312 310 312 316 316 319 323 325 325 325 325 325 324 324 325 326 327 328 328 326 326 325 322 322 323 323 323 321 320 320 320 320 319 318 318
308 309 308 307 307 309 309 309 311 314 314 310 307 307 306 306 307 306 306 306 306 307 311 313 314 313 310 308 308 307 310 313 313 314 316 318 320 320 320 321 321 321 322 323 325 327 327 326 325 323 321 320 320 321 321 319 316 315 316 316 317 317 318
309 309 308 306 308 309 309 309 310 310 310 308 307 307 306 306 307 306 306 306 306 306 307 308 309 309 308 308 309 309 309 310 311 313 312 312 315 315 313 315 317 317 317 318 321 323 324 325 323 321 319 318 317 318 317 315 313 313 313 314 315 315 317
312 310 308 306 308 310 309 307 309 310 310 310 309 307 306 306 306 306 306 306 306 306 305 306 306 306 308 308 306 306 307 307 308 309 309 307 308 309 308 310 312 312 311 311 316 321 322 322 322 320 319 318 317 316 315 314 312 311 311 311 312 314 315
316 313 309 307 307 309 308 307 309 311 311 312 310 307 306 306 306 306 305 305 305 305 305 305 305 305 308 308 305 303 304 304 304 304 304 304 303 304 305 306 307 307 307 306 310 317 320 320 319 319 318 319 318 317 315 314 312 311 310 309 310 312 315
319 316 312 307 306 307 306 306 308 310 311 311 308 306 306 306 306 305 306 305 305 305 305 305 305 305 306 307 305 304 304 303 303 303 303 303 303 303 303 303 304 304 305 306 308 312 317 319 319 318 318 318 317 317 315 314 312 311 309 308 307 309 312
320 319 314 308 306 306 305 306 306 308 309 308 306 306 306 306 306 306 307 307 306 307 307 306 306 306 306 306 306 305 305 304 305 304 303 303 304 304 303 303 304 303 303 305 305 306 310 316 318 318 318 317 316 316 315 313 312 310 309 308 307 307 307
322 320 316 310 306 306 306 306 306 306 306 306 306 306 306 306 307 307 307 307 307 307 307 307 307 307 307 307 307 306 306 306 306 306 305 305 305 305 304 304 304 304 304 304 304 303 304 310 316 317 317 316 315 316 315 315 313 310 309 308 308 307 305
323 322 318 312 308 306 306 306 306 306 306 306 306 306 307 307 307 307 307 307 308 307 308 308 308 308 308 308 308 308 307 307 307 307 306 306 306 306 306 306 306 306 306 306 306 305 303 307 312 314 315 315 315 315 315 314 314 311 309 308 307 307 307
324 322 320 314 309 306 306 306 306 306 306 306 307 307 307 307 307 308 307 308 308 308 309 309 310 310 310 310 310 310 309 309 309 308 307 307 307 307 306 306 306 306 307 307 307 307 306 307 310 311 312 313 314 314 314 314 313 310 309 309 308 308 309
323 322 320 317 311 307 306 306 306 306 307 307 307 307 307 307 307 308 308 309 310 310 311 312 312 313 314 314 315 315 313 313 313 312 310 308 308 308 308 308 307 307 307 307 307 307 307 308 309 310 310 311 312 313 312 312 312 309 309 311 310 310 312
323 323 321 318 313 308 306 306 306 307 307 307 307 307 307 308 309 310 311 312 313 313 314 314 315 315 316 317 317 317 316 316 316 315 314 312 310 310 311 311 309 308 308 308 307 307 307 307 309 310 310 311 311 312 312 312 312 312 312 312 311 311 311
323 323 322 319 314 309 306 306 307 307 307 307 307 308 308 310 312 314 316 316 316 316 317 317 317 318 318 318 317 318 317 317 317 317 315 315 313 312 312 313 312 311 310 310 309 309 308 308 309 310 311 312 313 314 315 315 314 314 313 312 312 311 311
323 323 323 320 316 311 307 306 307 307 307 308 307 309 311 314 316 317 318 318 318 318 318 318 318 318 318 318 318 318 318 318 318 318 317 317 316 314 314 314 314 313 313 312 311 310 309 309 309 310 312 313 314 315 315 315 315 315 314 314 313 312 312
324 323 323 321 318 314 309 306 307 307 307 308 308 311 314 316 318 319 318 319 319 319 319 319 318 318 318 318 318 318 319 319 319 319 318 318 317 316 315 315 315 315 314 314 313 312 311 310 310 310 312 314 315 315 315 315 315 315 315 314 314 313 313
323 323 324 322 319 317 314 308 306 307 307 309 312 314 317 318 318 318 318 319 320 320 320 319 318 318 317 317 318 318 318 318 318 318 319 319 318 318 317 316 316 315 315 315 315 314 312 311 311 311 313 314 314 314 314 315 315 315 315 315 314 313 313
323 322 323 322 319 319 319 314 308 308 310 312 315 316 318 318 318 319 319 319 320 321 320 318 318 318 318 317 317 317 317 318 317 317 317 318 318 318 318 318 317 316 316 316 315 315 314 312 312 312 312 313 313 314 314 314 314 315 315 315 314 313 313
324 322 321 321 319 319 321 319 312 309 312 315 316 317 319 319 319 320 320 320 321 321 319 317 316 317 318 317 317 316 317 317 317 317 317 317 317 317 317 317 317 317 317 317 316 315 315 314 313 313 312 312 312 312 313 314 314 314 314 314 314 314 313
324 323 321 320 319 319 320 319 315 311 312 315 317 317 319 320 320 320 320 320 320 319 318 317 317 317 318 317 317 317 317 317 318 318 318 317 316 316 317 317 317 317 318 318 317 317 316 315 314 313 313 313 312 312 313 313 313 313 314 314 314 313 313
323 323 321 320 319 319 320 320 318 315 314 315 317 318 319 320 320 319 319 319 319 318 318 318 317 317 317 317 317 318 318 318 318 318 318 319 318 318 318 318 318 318 318 318 318 318 317 316 315 315 314 313 312 312 312 312 312 312 313 314 314 313 313
321 321 321 320 319 319 320 320 319 318 318 317 318 319 319 320 320 319 319 319 318 318 318 317 317 316 316 316 317 318 317 317 317 317 318 319 320 320 319 319 319 319 318 318 318 318 318 317 316 316 315 314 313 312 312 312 312 311 312 313 313 312 312
320 320 320 320 320 320 320 320 319 319 320 319 318 319 320 320 319 319 319 318 318 317 316 316 315 315 315 315 315 316 316 315 315 315 315 316 317 318 318 318 319 318 318 318 318 318 318 318 317 316 315 315 315 313 312 311 311 311 311 311 311 310 310
320 320 321 321 321 320 319 319 318 318 318 318 317 317 318 318 319 318 317 317 317 316 315 315 316 316 316 316 314 314 314 313 313 312 312 312 313 314 314 314 316 316 316 317 318 318 317 317 317 316 316 315 315 314 312 310 309 310 311 310 310 309 309
321 321 321 321 320 318 318 318 317 317 317 317 317 316 317 317 318 317 316 315 314 313 313 314 315 316 316 316 315 313 312 312 311 311 311 311 311 313 312 311 313 314 312 312 315 317 317 317 316 316 315 314 314 314 312 311 310 310 310 310 309 309 309
320 319 319 318 316 315 315 315 314 314 315 315 315 316 316 315 315 314 312 312 311 311 310 310 311 312 313 314 314 312 311 311 311 310 309 308 307 308 309 309 312 313 312 311 313 314 316 316 316 315 314 314 314 312 311 310 310 309 309 309 309 309 309
315 314 314 313 312 313 313 313 312 312 313 313 314 314 313 312 311 310 309 308 307 306 305 305 305 306 308 309 310 310 309 309 310 308 305 304 304 304 306 307 308 311 312 312 313 313 315 316 316 315 314 313 312 311 310 309 308 308 308 308 308 308 308
313 313 313 312 312 312 311 311 311 311 311 311 310 310 309 309 308 307 306 306 305 304 303 303 302 302 303 304 305 308 309 309 309 306 303 304 304 304 305 307 308 310 311 312 313 313 314 314 313 312 311 310 309 309 308 308 308 308 308 308 308 308 307
311 312 312 313 312 311 309 309 310 310 310 310 309 309 307 307 307 306 306 307 306 305 304 304 303 302 302 301 303 308 311 310 309 307 306 306 306 305 305 306 307 309 309 309 310 310 311 311 309 308 307 307 307 307 307 307 308 307 307 307 306 306 305
308 309 310 311 310 309 309 309 308 308 310 310 310 309 308 308 308 307 307 306 306 305 304 304 303 303 302 301 302 308 312 311 310 308 307 307 306 305 305 305 306 306 306 305 306 307 308 308 307 306 305 305 306 307 307 307 307 306 306 305 305 304 304
309 308 308 308 308 308 310 309 307 308 310 311 309 308 309 309 308 307 306 305 305 305 304 304 303 303 303 302 302 306 311 312 310 310 309 307 306 305 305 305 305 305 305 305 305 305 306 307 307 306 305 305 306 306 306 306 306 305 305 304 303 302 300
309 309 308 308 307 308 308 308 307 307 309 309 308 308 308 309 308 307 306 305 304 304 303 303 303 302 302 302 302 305 310 311 310 309 309 308 306 305 305 305 305 305 305 305 305 305 305 306 306 306 306 305 305 305 305 305 305 305 304 302 300 298 296
307 308 308 308 306 306 306 306 305 305 306 306 307 306 306 307 307 306 304 303 302 302 301 301 302 302 302 302 302 304 308 310 309 308 308 307 307 306 305 305 305 304 305 305 305 305 305 305 305 305 305 305 304 304 304 304 304 303 302 300 298 296 295
307 307 308 307 306 305 305 305 305 305 305 305 305 305 305 306 306 305 302 301 301 300 300 300 301 301 301 301 301 303 306 308 307 307 307 307 306 306 305 304 304 303 303 304 304 304 304 304 304 304 304 303 303 304 304 303 301 299 297 296 295 295 295
306 306 307 307 307 306 306 305 305 306 306 306 306 306 305 305 305 305 304 303 302 301 300 300 301 301 301 301 301 302 303 303 304 305 307 306 305 305 305 304 303 302 303 303 304 304 303 303 303 303 302 302 302 302 300 298 296 295 294 294 294 295 296
306 306 306 307 308 309 308 308 307 308 308 308 308 308 307 305 305 306 306 306 305 302 301 301 301 301 301 301 301 302 301 301 301 303 305 305 305 304 303 302 302 302 303 303 303 302 302 301 301 301 301 300 299 297 295 294 294 294 294 294 295 295 296

ECMWFFLT1_850_thetae_057.txt.gz
Theta_e
327 327 326 325 324 323 323 322 321 323 323 323 324 324 324 323 323 323 323 323 323 322 322 323 324 325 324 322 322 323 325 326 325 325 326 327 327 327 328 329 328 328 328 325 324 327 327 327 327 326 326 325 325 325 324 324 324 323 323 323 323 324 324
327 325 324 323 322 322 323 322 321 321 322 322 322 322 322 321 320 319 319 320 321 321 322 323 323 323 322 320 320 321 322 323 323 324 325 326 326 327 327 328 327 327 328 327 325 325 325 326 327 325 325 324 324 323 322 321 322 322 321 320 320 321 321
325 324 323 322 322 321 321 321 320 320 320 320 320 320 320 319 319 318 317 319 322 322 322 321 321 319 315 314 314 315 317 320 320 321 323 324 325 325 325 325 325 325 326 326 326 325 324 324 326 325 325 324 323 322 320 319 319 319 319 319 319 320 320
325 323 323 322 321 321 321 321 321 321 319 318 317 317 317 316 315 316 316 318 320 321 320 319 318 316 314 313 314 313 314 318 321 321 321 322 322 321 321 321 321 321 322 323 324 325 325 324 325 325 324 323 321 320 319 317 317 318 318 318 318 318 319
325 322 320 321 321 321 322 322 322 320 317 316 316 315 312 312 312 313 315 316 316 318 318 318 317 317 317 316 316 316 314 314 317 318 316 316 318 318 318 317 316 317 317 320 322 323 325 325 324 323 322 321 320 318 317 316 316 316 317 317 318 317 317
324 320 318 319 320 322 321 321 320 318 317 316 316 314 313 315 315 315 316 314 312 312 315 316 317 316 316 315 314 313 311 308 309 310 308 307 310 314 316 315 314 314 314 317 320 322 323 323 322 321 320 320 319 317 316 315 314 314 315 315 316 317 317
323 321 319 319 320 321 319 319 319 318 317 316 316 316 316 315 313 312 311 309 307 307 308 312 315 316 315 314 312 310 309 307 305 305 305 304 304 307 311 313 313 312 313 315 318 320 321 321 320 319 319 319 318 317 315 314 313 313 313 313 314 315 315
324 323 321 321 321 319 318 319 318 318 317 316 314 313 312 309 307 307 306 305 305 305 306 307 310 312 312 311 309 306 306 305 305 305 304 304 303 303 307 312 312 311 311 313 315 318 319 319 319 318 318 318 317 316 315 313 312 312 311 311 311 312 313
323 323 322 321 319 317 317 318 318 318 317 313 308 307 308 306 306 307 306 305 305 306 307 307 307 308 308 309 307 307 308 308 307 308 307 306 305 304 307 311 312 309 308 310 313 316 318 319 319 318 317 317 316 316 315 314 313 312 311 311 310 310 310
324 324 322 321 318 315 316 317 317 317 314 308 306 305 306 307 307 308 307 307 307 307 308 309 309 308 308 308 308 307 308 308 307 308 308 308 307 308 310 312 313 310 307 307 308 312 316 317 318 318 317 317 316 316 316 315 314 312 312 311 310 310 309
324 323 321 319 317 313 315 316 314 312 309 306 306 307 306 307 308 308 308 307 307 308 309 310 310 310 310 309 308 308 308 308 308 308 308 308 308 309 310 311 312 310 308 308 307 309 313 315 316 316 316 316 317 316 316 316 314 313 313 311 310 310 309
324 324 319 317 317 313 313 314 310 308 307 306 307 307 307 308 308 309 309 308 308 308 309 309 310 311 311 309 310 310 309 309 309 308 308 309 309 308 308 310 311 311 310 311 310 310 312 313 313 314 315 315 316 316 315 316 315 313 313 312 311 310 310
322 322 318 315 318 315 312 312 309 307 307 307 307 308 308 308 309 310 310 309 309 308 308 310 312 313 314 315 316 315 312 313 314 313 311 311 311 311 311 311 310 310 312 312 311 311 312 312 313 313 314 314 315 315 315 315 315 313 312 313 312 312 312
323 322 321 318 318 317 314 311 308 306 308 308 307 309 310 311 310 311 312 313 313 312 311 313 314 316 318 319 319 317 317 318 319 317 315 314 314 315 314 314 311 310 312 312 312 311 311 311 313 313 313 314 314 314 315 314 315 315 313 313 314 313 312
324 322 323 321 319 317 313 311 308 307 308 309 309 312 315 314 313 314 316 317 318 317 316 316 316 319 321 320 319 318 319 320 320 318 318 317 316 316 315 316 315 312 313 313 312 312 312 311 312 313 314 315 315 316 316 316 316 316 316 315 315 314 313
324 322 323 324 321 317 312 311 310 308 309 309 310 315 318 316 316 318 318 319 319 319 320 319 319 321 321 321 320 319 320 321 320 320 320 319 318 317 316 317 317 315 315 314 314 314 313 312 312 313 314 316 316 317 317 317 316 316 316 316 315 315 315
325 324 324 325 323 318 312 312 314 312 312 312 313 316 318 317 318 319 319 320 320 320 321 321 321 322 322 322 322 321 321 321 321 321 321 320 320 319 318 318 319 318 317 317 316 316 314 314 313 313 315 316 317 317 317 317 317 317 317 317 316 315 316
324 325 324 325 325 320 312 310 314 316 316 315 315 317 317 318 319 320 320 320 320 321 321 321 321 321 322 322 322 322 322 322 321 322 322 321 321 320 319 319 319 319 317 317 318 317 316 315 314 314 315 316 317 317 317 317 317 318 317 317 317 316 315
324 324 323 324 323 320 314 309 310 315 315 314 315 318 318 319 320 320 320 321 321 321 321 321 321 321 321 322 322 322 322 321 322 322 321 321 321 321 320 320 320 320 318 318 318 318 317 316 315 315 315 316 316 316 317 317 317 317 317 318 317 316 316
325 324 323 323 322 321 320 315 311 314 315 314 317 319 319 320 321 321 321 320 320 321 321 321 321 321 321 321 321 322 322 321 322 322 321 322 322 322 321 321 321 320 320 319 318 318 317 317 316 316 315 316 316 316 316 317 317 317 317 317 316 316 315
325 324 323 324 323 322 323 320 316 316 316 316 319 320 319 320 321 320 320 320 320 321 321 321 321 321 321 321 322 322 322 321 321 321 320 320 321 321 321 321 321 321 321 320 319 319 318 317 317 316 315 315 315 315 315 316 316 316 316 316 316 315 315
325 325 324 324 324 324 324 323 321 320 319 318 320 321 321 322 321 320 320 321 321 321 322 320 319 319 319 320 321 321 321 320 320 320 320 320 320 321 321 322 321 321 320 320 319 319 318 317 317 316 316 316 315 314 314 314 315 315 315 314 315 315 315
325 326 325 324 323 324 324 324 323 322 320 319 320 320 320 321 321 321 321 321 321 322 321 319 318 317 317 318 318 318 318 319 319 319 320 319 320 320 321 321 321 320 319 319 319 319 318 318 318 318 317 316 315 315 314 314 314 314 314 314 314 314 314
325 325 324 323 322 322 322 323 323 322 320 319 320 320 320 319 318 319 321 321 321 320 319 318 317 317 316 316 316 316 317 319 318 319 319 319 319 318 319 321 321 318 317 318 318 318 319 318 318 318 318 317 316 315 315 314 314 313 313 314 314 313 313
324 323 323 323 322 321 321 321 321 322 320 319 319 319 318 317 316 317 318 320 320 318 317 317 316 316 315 315 315 314 316 318 318 318 319 318 318 317 317 319 319 318 317 315 314 315 317 318 318 317 318 318 316 316 315 314 314 314 313 313 312 312 312
323 322 321 321 321 320 321 321 320 320 320 319 319 319 318 316 317 318 318 319 318 316 315 315 315 315 315 315 315 314 315 318 317 317 318 316 316 316 317 317 317 316 314 312 312 312 312 314 317 317 317 317 316 316 315 315 315 314 313 312 311 311 311
322 322 321 321 320 321 321 320 319 319 318 318 318 318 318 317 318 318 317 317 316 314 313 313 312 312 312 313 313 311 313 316 315 313 312 310 310 311 311 312 314 315 314 312 312 311 308 309 315 317 316 316 316 315 315 315 314 314 312 311 310 310 309
320 320 321 320 319 319 318 317 317 317 317 318 317 318 318 317 316 316 315 316 314 311 309 308 307 308 308 308 307 306 310 315 315 312 307 303 304 305 305 307 311 314 314 311 309 309 307 308 313 315 315 315 315 314 314 314 313 312 311 309 308 308 308
318 318 318 318 318 317 316 316 315 315 316 316 317 317 316 314 314 313 314 314 311 306 304 303 302 303 304 303 302 307 312 314 314 314 310 306 305 304 304 308 312 312 310 308 307 309 310 310 312 313 312 312 312 312 312 312 311 309 309 308 308 308 308
316 315 316 316 316 316 316 316 315 315 315 315 315 315 314 313 312 312 313 312 309 303 303 303 302 302 303 302 302 308 314 314 313 314 313 311 309 304 303 307 310 308 305 305 307 308 310 310 310 310 311 310 309 309 309 309 308 308 307 307 307 307 307
314 314 314 314 315 315 315 315 314 314 314 314 314 313 313 313 312 312 312 312 309 305 304 304 303 303 303 303 302 307 312 314 313 313 312 311 310 307 305 306 307 305 304 305 305 305 307 309 309 309 309 309 308 308 307 306 307 307 307 307 307 307 306
312 312 312 313 313 313 313 313 313 313 313 313 312 312 312 312 312 312 311 309 306 305 304 304 303 303 303 303 302 304 310 314 313 312 311 310 309 307 306 306 306 305 305 305 304 304 305 308 309 308 308 308 307 307 307 306 306 306 305 306 306 305 304
311 311 311 312 312 312 312 312 312 312 312 312 311 310 310 310 311 311 310 306 305 305 305 303 303 303 302 302 302 303 307 311 312 310 310 310 309 308 307 306 305 305 304 304 304 304 304 305 306 307 307 307 306 306 306 306 304 304 304 304 304 303 301
311 311 311 311 311 311 311 311 311 311 311 311 310 310 310 310 311 311 310 309 308 306 304 303 303 301 301 302 301 301 305 310 311 310 309 308 308 308 307 306 306 305 304 304 304 304 304 305 305 305 305 305 306 306 305 304 303 303 303 303 302 301 300
311 311 311 311 311 310 310 310 310 310 310 310 310 310 310 309 310 310 310 310 310 307 303 302 302 301 300 301 300 300 303 307 309 308 309 308 307 307 307 307 306 304 303 303 303 303 304 304 304 304 304 304 304 304 304 304 303 302 301 300 300 300 299
311 311 312 311 311 311 311 310 309 309 310 310 310 310 310 308 308 309 309 309 310 308 303 300 301 301 300 300 300 300 300 301 302 303 305 307 307 306 306 306 306 304 303 302 302 303 303 303 303 303 303 302 302 302 302 302 301 300 299 299 298 298 299
309 310 311 311 311 311 311 311 310 310 310 310 310 310 310 309 308 309 309 308 309 309 306 302 300 300 300 300 300 300 300 300 299 299 303 307 307 306 306 306 304 302 301 301 301 302 302 303 302 301 301 301 300 300 299 299 299 298 298 298 298 298 299

ECMWFFLT1_850_thetae_060.txt.gz
Theta_e
328 327 326 326 325 323 323 322 322 323 323 323 323 323 323 323 324 323 324 323 322 323 323 322 324 324 324 323 323 324 325 326 326 326 326 327 326 326 326 326 325 326 326 326 327 327 327 326 325 324 324 323 323 323 323 323 323 323 323 323 323 323 323
328 326 325 324 323 321 321 323 323 323 323 322 322 322 321 320 319 319 321 322 322 323 323 323 322 321 319 319 320 322 322 322 324 326 326 326 325 324 324 325 325 325 325 325 326 326 327 326 325 324 323 321 321 321 320 320 321 322 321 320 319 321 323
325 325 323 320 320 322 323 323 322 320 319 320 320 320 320 319 319 319 320 323 323 322 321 320 320 319 317 316 317 319 320 321 322 323 323 324 324 323 322 323 323 323 324 325 324 324 326 326 325 324 323 321 320 319 319 319 320 320 320 319 318 320 321
321 321 320 318 319 322 322 321 320 319 317 316 317 317 316 315 316 318 320 322 321 320 318 318 320 321 321 320 319 318 319 319 318 319 320 319 319 319 318 319 320 321 323 324 323 323 325 325 325 324 322 319 318 318 318 319 319 319 318 318 319 319 318
319 319 317 315 317 320 321 322 322 319 315 312 312 311 310 309 311 314 316 318 318 319 319 318 319 319 319 320 318 315 314 313 312 315 317 316 316 316 315 315 316 320 322 322 323 324 324 323 323 322 321 319 317 317 317 318 319 319 318 317 317 317 317
317 315 314 314 317 320 322 323 320 316 314 312 310 308 308 307 308 309 310 311 313 315 316 316 316 315 315 314 312 310 308 307 306 309 312 314 314 314 314 314 315 318 321 320 322 322 322 322 322 321 320 318 317 316 316 316 317 317 318 317 317 317 317
312 312 314 316 320 322 323 321 318 316 315 312 308 308 308 307 306 306 306 306 307 308 312 315 315 315 312 308 306 305 305 304 304 305 307 309 312 313 313 313 314 316 319 319 320 320 320 321 320 319 319 317 316 315 314 314 314 315 315 316 316 316 316
309 313 317 318 322 323 321 319 318 317 315 311 308 307 306 305 305 305 305 305 305 306 309 311 311 310 308 305 304 305 304 304 304 303 304 306 309 311 311 311 312 315 317 318 320 320 320 319 317 318 318 317 315 314 313 312 312 312 312 313 313 313 313
310 315 318 320 322 320 318 319 318 317 314 309 307 305 305 305 305 305 305 304 305 306 306 307 306 306 305 305 306 306 306 306 305 304 304 305 309 312 311 308 309 312 316 318 319 319 318 318 317 318 318 316 315 313 312 312 311 311 311 311 311 311 310
312 317 320 321 321 319 318 319 319 317 313 307 305 305 305 305 305 305 306 306 306 307 307 307 307 307 307 307 307 307 307 307 306 306 306 306 308 311 310 307 306 308 311 316 319 319 318 318 318 317 317 316 315 315 313 312 312 312 311 311 310 310 309
317 321 321 320 319 317 318 320 318 316 312 306 305 306 305 306 307 307 307 308 308 308 309 309 308 309 308 308 308 308 308 308 308 308 308 308 308 309 309 308 308 308 308 312 317 318 317 317 316 316 316 317 316 315 314 313 313 312 311 310 310 310 310
322 323 319 317 317 316 318 319 317 315 309 305 306 306 307 308 307 308 308 308 308 309 309 309 309 309 309 310 310 309 309 309 309 309 309 309 309 309 309 309 310 311 310 310 312 314 314 314 314 314 315 316 316 316 315 314 313 313 312 311 310 310 310
324 324 318 313 313 314 316 317 315 312 307 305 307 307 308 308 308 308 308 308 309 309 309 310 311 311 313 316 315 312 313 314 314 312 312 312 312 312 311 309 309 311 312 310 311 312 313 313 313 314 314 314 315 315 315 314 312 311 312 312 312 312 312
324 325 319 312 311 313 315 314 312 309 306 306 308 308 308 309 308 309 309 308 309 309 310 310 311 312 316 319 318 316 318 319 318 316 315 315 316 315 314 313 311 309 310 311 312 312 311 312 313 314 314 314 315 315 315 315 314 313 313 313 313 314 313
322 324 322 316 312 314 314 313 310 307 307 307 308 308 308 308 309 309 309 309 309 309 310 310 311 316 318 317 317 318 320 321 319 317 317 317 317 316 316 316 314 310 309 312 314 313 311 312 314 315 315 316 316 317 317 316 316 316 315 314 314 314 314
319 322 324 319 314 315 316 313 309 307 308 307 307 309 309 308 309 309 310 312 313 312 312 311 312 318 319 316 318 318 319 321 320 318 319 319 318 317 317 317 317 314 313 312 313 313 312 313 314 314 316 316 316 317 317 317 317 317 316 316 315 315 315
317 320 324 319 313 315 316 313 309 307 308 308 307 312 313 310 310 313 315 317 317 316 317 315 315 319 320 318 320 320 319 321 320 319 320 320 319 319 318 318 319 318 316 315 315 315 313 313 314 314 316 316 316 316 316 316 317 317 317 317 316 316 316
318 321 324 319 314 316 315 312 310 308 309 309 309 314 317 314 314 317 318 319 320 319 321 319 318 321 321 320 322 322 321 321 320 320 321 320 320 320 319 319 320 319 318 317 317 317 316 315 315 315 316 317 317 317 316 316 318 318 317 317 317 317 316
317 322 324 320 318 319 316 311 312 312 312 313 312 316 319 317 318 320 319 320 320 320 321 321 320 320 320 321 322 322 321 321 321 321 320 320 320 321 319 320 320 320 319 318 317 318 317 316 316 316 317 317 317 317 317 317 318 318 318 317 317 317 316
318 320 322 321 321 321 318 315 316 317 317 317 316 317 319 318 319 320 319 320 320 320 320 321 321 320 320 321 321 321 321 320 319 320 319 318 319 320 319 320 320 320 320 319 318 318 318 317 317 316 316 316 316 317 317 317 317 317 317 317 317 316 316
322 321 322 322 321 322 321 319 319 319 319 318 318 318 318 319 319 319 320 319 319 320 320 320 320 321 321 321 320 320 319 317 317 318 317 316 317 318 318 318 319 320 321 321 320 319 318 318 317 317 316 316 316 316 316 317 317 317 317 316 316 316 316
323 323 324 323 322 321 321 320 318 318 318 318 318 318 318 319 319 319 320 320 319 319 319 319 320 320 319 318 318 318 318 317 317 317 317 317 316 317 318 316 316 319 320 321 321 319 319 318 318 318 317 316 316 316 316 316 316 316 315 316 315 315 315
324 325 325 325 323 321 320 319 316 316 318 318 318 319 319 319 319 320 321 321 320 319 318 319 319 318 317 317 317 317 317 317 316 316 316 317 316 316 316 315 316 319 319 320 320 319 319 319 319 318 318 318 317 317 316 316 315 315 314 315 315 314 314
324 324 324 324 322 321 319 319 317 317 318 318 318 319 319 319 320 320 321 320 320 318 317 318 318 318 317 317 317 316 316 316 316 315 316 316 316 316 315 315 317 318 317 317 318 318 318 318 318 318 318 318 318 317 317 316 315 315 314 314 314 314 314
323 323 323 322 321 321 320 319 319 319 319 319 319 319 319 320 321 321 320 319 318 318 317 316 316 316 316 316 315 315 316 317 317 317 317 317 317 317 316 316 316 316 316 316 314 313 313 314 315 317 318 318 318 317 317 316 316 315 315 314 314 314 314
322 321 321 320 319 321 321 320 319 320 320 321 320 320 320 320 320 319 318 317 317 317 316 315 316 316 316 315 314 314 317 318 317 318 317 317 317 317 317 316 316 316 315 314 311 310 310 308 309 312 316 317 317 317 317 316 316 314 314 314 314 313 313
320 320 320 320 320 320 320 320 319 319 320 321 321 320 320 319 319 318 317 316 316 315 315 316 316 316 315 315 314 313 315 317 317 317 315 313 314 314 314 315 316 314 312 311 310 308 307 305 305 309 312 314 315 316 316 316 316 315 314 314 314 313 313
321 320 320 320 321 320 319 319 319 319 320 320 320 319 319 319 318 317 316 316 316 315 315 315 314 313 314 316 313 310 312 316 316 315 311 307 307 306 307 312 314 311 308 310 310 307 305 305 305 306 309 310 312 314 315 315 315 314 314 314 313 313 311
320 319 319 319 320 319 318 319 319 319 319 318 319 319 318 317 317 316 316 315 313 312 312 311 310 310 312 313 309 308 312 316 316 315 311 306 304 303 305 308 309 307 308 310 310 307 307 308 308 307 306 307 307 309 312 314 314 313 313 312 311 310 310
317 318 318 318 318 317 317 317 317 317 317 317 317 317 316 316 315 315 315 313 310 307 306 305 305 305 306 305 305 308 313 315 314 314 311 307 305 305 304 304 304 305 307 306 306 307 308 309 309 309 309 307 305 305 307 310 311 311 310 310 309 308 308
315 315 316 316 316 316 316 316 315 314 315 315 316 315 314 314 315 314 314 310 306 303 302 302 302 302 302 302 303 308 313 314 314 314 312 310 309 307 305 304 303 304 304 304 304 305 306 308 310 310 310 309 307 306 306 306 308 308 307 307 307 307 307
313 314 314 315 315 315 315 315 314 314 314 314 314 314 313 314 314 313 314 311 306 303 303 303 303 303 303 303 303 308 313 314 314 313 311 310 311 309 307 306 305 304 303 303 303 303 304 307 310 310 310 309 308 307 307 306 307 306 306 305 305 305 304
312 312 313 313 313 313 314 314 314 314 313 313 313 313 313 313 312 312 314 312 307 304 304 304 303 303 303 303 303 307 312 314 313 312 310 310 310 309 308 308 307 306 304 303 302 302 302 306 308 309 309 309 308 307 307 307 307 306 305 305 305 304 303
312 311 312 312 312 312 312 312 313 313 312 312 312 311 311 312 311 312 312 310 307 305 304 304 304 303 303 303 302 304 309 312 312 311 310 310 309 309 309 308 307 307 306 304 303 301 300 302 306 307 307 307 306 306 306 306 306 306 306 305 304 303 301
311 311 311 311 312 312 312 312 312 312 311 311 311 311 311 311 311 312 311 310 309 309 307 304 303 303 303 302 302 302 305 309 311 311 309 309 309 308 308 308 307 306 306 306 305 302 299 299 302 303 304 304 304 304 304 304 304 304 304 304 303 301 300
311 311 311 311 311 311 311 311 311 311 311 310 310 311 311 311 311 311 311 311 310 310 310 306 303 302 302 302 302 302 302 304 308 310 308 308 308 307 307 307 306 306 306 305 304 302 299 299 300 300 301 302 302 302 302 301 301 301 301 301 301 300 299
309 309 310 310 311 311 311 311 311 311 310 310 310 310 310 311 311 310 310 310 310 310 310 308 303 301 301 301 301 301 301 301 303 306 305 305 306 307 306 306 306 306 306 305 303 301 299 299 300 300 300 300 300 300 300 299 300 300 300 300 299 299 299

ECMWFFLT1_850_thetae_063.txt.gz
Theta_e
321 324 325 323 320 319 321 321 321 324 324 323 320 317 315 317 322 324 324 324 323 322 320 320 322 324 325 325 326 325 324 325 326 326 325 325 325 325 325 326 326 326 326 326 325 325 325 324 324 324 324 324 324 325 325 325 324 323 323 323 323 323 323
324 325 325 324 320 316 319 320 321 323 324 323 321 317 314 317 322 323 323 324 324 323 321 320 320 321 321 322 324 324 324 325 326 325 324 324 324 324 325 325 326 326 326 327 326 325 325 324 324 324 323 323 323 324 324 323 323 323 322 323 323 323 323
325 325 326 324 319 315 318 319 320 320 321 321 321 318 314 316 322 323 322 324 324 322 319 318 317 317 318 320 321 323 324 324 325 324 323 322 322 323 323 323 325 326 327 327 326 325 324 324 323 322 322 321 321 321 321 321 321 320 321 322 322 323 323
325 324 324 321 316 316 319 320 320 319 320 320 319 317 313 316 321 322 322 323 322 320 317 316 315 315 317 319 319 320 322 323 324 324 322 319 319 320 320 321 323 324 324 325 326 325 324 323 321 320 319 319 319 319 319 319 318 319 320 320 320 321 321
325 321 318 315 313 317 321 322 320 318 319 319 319 318 314 314 319 322 322 321 319 318 318 317 316 315 314 315 315 316 318 321 321 322 321 318 317 318 320 321 322 323 323 323 325 325 323 322 320 318 318 319 319 319 318 318 318 318 319 319 318 318 319
321 315 312 310 312 316 318 319 316 314 317 319 317 316 313 311 315 319 321 319 318 318 317 315 313 312 310 309 309 309 311 316 317 317 317 316 315 317 321 321 321 323 323 323 323 322 321 319 319 318 318 319 319 319 318 318 317 316 317 317 317 317 317
315 313 310 308 311 315 316 317 315 312 313 314 312 311 310 309 310 314 316 317 317 317 316 314 310 308 307 306 306 305 306 310 312 312 313 314 314 316 319 320 321 323 323 322 321 320 319 318 317 317 318 318 319 319 318 318 316 314 315 316 315 314 314
315 314 311 308 310 315 318 318 314 311 310 310 308 307 307 307 307 308 311 313 315 315 315 313 308 305 305 305 305 305 304 306 308 309 311 312 312 314 318 319 320 321 322 322 322 322 321 318 315 315 316 317 318 317 317 317 315 312 313 314 312 311 310
319 315 312 312 314 316 318 316 312 310 309 308 307 307 306 306 305 305 307 309 312 313 312 309 305 304 304 304 304 304 304 304 305 307 308 308 309 313 318 318 318 319 320 320 320 321 321 319 315 314 315 315 315 315 315 314 312 311 311 311 310 309 308
320 317 315 317 319 318 317 314 313 312 310 307 306 306 305 305 305 304 305 306 308 308 307 306 305 305 305 305 305 305 304 304 304 305 305 305 305 309 315 317 318 319 318 319 318 317 318 318 317 315 315 314 313 313 312 312 311 311 310 310 309 309 309
321 320 319 321 322 319 316 316 316 314 310 307 306 305 305 305 305 305 306 306 306 307 307 307 307 307 307 307 307 307 307 306 306 306 305 305 304 304 308 313 317 319 318 318 318 316 316 317 317 316 315 313 312 312 312 311 311 310 310 310 309 309 310
321 321 321 322 322 318 317 318 317 315 311 307 305 304 305 305 305 307 308 308 308 308 308 308 308 308 308 308 308 308 308 308 308 308 307 307 306 305 305 307 312 316 319 318 317 316 316 316 316 316 315 313 312 313 312 311 310 310 310 309 309 310 310
321 322 321 322 321 318 319 319 318 315 311 306 305 305 305 306 307 308 308 309 309 309 309 310 310 311 311 311 312 313 313 312 311 310 310 310 309 309 308 306 308 312 316 317 316 315 314 314 314 315 316 314 313 313 312 312 311 310 310 310 309 310 311
323 322 322 321 320 319 320 320 318 316 310 305 305 306 306 307 307 308 309 309 309 310 310 311 313 315 316 316 317 318 318 317 315 314 315 314 313 312 310 309 308 310 313 313 314 313 312 312 313 314 315 315 314 314 314 313 311 311 310 310 311 311 312
324 323 322 321 319 320 320 319 319 315 309 305 306 307 307 308 308 308 309 308 309 310 310 311 313 317 318 318 320 320 320 319 317 317 317 317 316 315 314 313 310 310 312 311 312 313 313 314 315 315 315 315 315 315 316 315 314 314 312 312 313 313 312
324 323 322 321 320 320 321 320 319 315 309 305 306 308 308 308 308 308 308 309 309 309 310 312 317 319 318 319 320 321 321 321 319 318 319 318 317 317 317 316 313 311 312 312 311 313 314 315 316 316 316 316 316 316 317 316 316 316 314 314 315 314 314
325 324 322 321 320 320 321 321 319 315 310 306 306 308 309 309 309 309 310 310 310 311 312 315 320 322 319 319 320 319 319 320 319 319 320 319 319 318 318 318 317 314 313 313 312 312 314 315 316 316 315 315 316 317 317 317 317 316 315 315 315 315 315
325 325 323 320 320 321 322 321 320 318 313 309 308 310 310 310 311 313 313 314 315 316 317 318 320 323 321 319 319 319 320 320 319 320 320 320 320 319 319 318 318 316 316 315 314 313 314 314 315 316 316 316 316 316 316 317 317 317 316 315 315 315 315
323 324 324 322 320 320 319 318 319 319 317 312 310 313 314 312 313 316 317 318 319 319 320 320 321 322 322 321 320 320 320 320 320 320 320 320 320 320 320 319 318 318 317 317 317 315 314 314 315 316 317 317 317 316 316 317 317 317 317 316 316 316 316
321 321 322 322 319 317 315 314 318 320 319 316 313 315 318 315 315 318 319 319 320 320 321 321 321 320 321 321 321 320 320 319 319 318 319 319 319 319 320 320 319 319 318 318 317 317 316 315 315 316 316 316 317 317 316 317 317 317 317 317 317 316 316
320 319 320 320 318 316 315 315 318 318 318 318 316 316 319 317 317 319 319 319 320 320 320 320 320 320 320 319 319 320 320 318 317 317 317 318 318 318 319 319 319 318 318 318 318 318 317 317 317 317 316 316 316 316 316 317 317 317 317 317 317 316 316
321 319 318 318 317 317 317 319 319 318 318 319 317 316 318 318 318 319 319 319 319 319 319 320 320 320 320 317 317 318 318 317 316 316 316 317 317 316 317 318 317 317 318 319 320 320 319 318 318 317 317 316 316 316 316 316 316 317 316 316 316 316 315
320 319 318 318 319 319 319 320 320 319 319 319 318 317 318 318 318 318 319 319 319 319 319 319 319 320 319 317 316 316 316 315 315 316 316 317 317 316 316 317 316 317 319 320 320 320 320 319 318 318 318 317 317 317 316 316 316 316 316 315 315 315 314
320 319 318 318 318 317 317 319 319 318 318 319 319 318 317 318 318 318 318 319 319 320 320 319 319 319 318 317 316 316 316 315 315 315 316 316 316 315 316 316 316 317 318 318 318 318 318 318 318 318 318 318 318 318 317 317 317 316 316 315 315 314 314
321 320 320 319 318 318 319 319 319 318 317 318 319 318 318 318 318 318 319 319 319 319 320 320 319 318 317 317 316 315 315 314 315 316 315 316 316 316 315 316 316 317 316 316 315 314 313 313 313 313 315 316 317 317 317 317 317 317 317 316 315 314 314
321 320 320 319 318 320 321 320 319 318 316 316 317 318 318 318 319 319 319 318 319 320 320 319 318 317 316 316 316 314 314 315 316 316 316 316 316 316 316 315 316 315 315 314 313 311 309 307 306 305 307 311 314 316 316 316 317 316 316 316 315 315 314
320 320 320 318 317 319 320 320 319 317 317 317 318 319 320 319 319 319 319 319 320 320 319 318 316 316 316 315 315 314 315 316 317 316 316 316 315 315 314 314 314 313 311 310 308 308 307 304 302 302 303 306 310 313 315 315 316 316 316 315 315 314 314
320 319 319 320 320 320 321 321 318 317 319 320 320 319 319 319 319 319 319 320 319 318 318 316 315 315 315 315 314 315 316 317 316 315 314 315 316 315 311 309 310 310 308 306 305 304 304 303 302 302 302 303 306 308 311 313 314 315 315 314 314 314 313
319 319 319 320 320 320 321 321 319 319 319 320 321 320 318 318 319 319 319 318 318 317 316 315 315 316 315 314 315 315 315 316 316 315 311 309 310 311 308 305 305 305 305 304 303 303 303 303 303 303 303 303 304 305 305 307 310 312 313 313 313 312 312
318 318 318 318 318 318 319 320 319 318 318 319 321 320 319 318 318 319 318 317 317 316 315 316 316 315 314 314 313 313 314 314 314 313 309 306 305 306 306 305 305 305 305 304 303 303 303 303 303 303 303 303 304 304 303 303 305 307 309 310 309 309 308
317 317 317 317 317 317 317 318 318 318 318 319 319 319 319 318 317 317 316 315 314 313 313 314 313 312 311 312 312 313 314 313 312 312 311 309 307 306 305 305 305 305 305 304 303 303 303 303 302 303 303 304 304 304 303 302 302 303 304 305 305 305 305
315 316 316 316 315 316 316 317 317 317 317 317 317 317 317 316 316 315 314 312 310 307 306 307 306 306 307 308 310 313 315 314 313 313 313 311 309 307 307 306 305 305 304 303 302 302 302 302 302 302 302 303 303 304 303 302 302 302 302 303 303 304 304
312 314 315 315 315 315 315 315 315 315 315 314 314 314 314 314 313 312 311 310 307 304 303 302 301 302 303 304 309 314 315 313 313 314 313 312 309 308 308 307 306 306 305 304 303 302 301 301 302 304 304 304 304 305 304 303 302 302 302 303 303 304 304
311 312 313 313 314 314 314 314 313 314 314 315 313 313 313 314 313 311 310 308 304 302 303 303 302 303 302 302 308 314 314 313 313 313 312 311 309 309 309 308 307 306 306 306 305 304 302 301 301 304 306 307 307 307 306 305 303 302 302 303 304 305 304
311 311 312 312 312 312 312 313 313 313 313 314 313 312 313 314 313 312 311 309 305 303 304 304 303 303 303 302 306 312 314 313 313 313 312 310 310 309 309 308 307 306 306 306 306 305 304 302 300 301 303 305 306 307 306 305 303 301 301 302 302 302 302
309 310 310 311 311 311 311 312 312 312 312 312 312 312 312 313 313 312 312 311 309 306 304 304 303 303 303 303 303 308 312 313 313 313 312 310 310 309 307 307 307 306 306 306 305 305 305 303 301 300 299 301 302 302 302 301 300 300 300 300 300 300 300
308 308 308 309 309 310 310 311 311 311 311 311 311 311 311 311 312 312 312 312 311 310 308 306 305 304 303 303 302 303 308 311 312 312 311 309 309 308 307 307 306 306 305 305 305 305 304 302 300 300 299 299 299 299 299 299 299 299 300 300 300 299 299

ECMWFFLT1_850_thetae_066.txt.gz
Theta_e
322 320 318 320 323 324 325 325 325 325 325 324 323 320 321 321 321 322 322 321 321 320 319 318 319 321 322 323 323 324 324 324 325 324 324 324 325 326 326 325 324 325 325 324 325 324 325 326 326 326 326 326 326 326 326 325 325 324 324 324 324 324 324
321 318 317 320 325 325 325 325 325 325 325 324 321 320 322 321 320 323 323 323 322 320 320 320 321 322 323 322 323 324 324 325 325 324 324 324 324 325 324 324 324 324 325 325 324 324 324 325 325 325 325 325 325 325 324 324 323 323 323 323 323 323 323
319 318 319 321 325 325 324 324 325 324 324 324 321 320 323 321 320 322 323 323 322 320 320 321 321 321 321 320 322 324 325 325 324 324 324 324 324 324 324 324 324 324 325 325 324 324 323 324 324 324 324 324 324 323 322 321 321 321 322 323 323 323 323
319 320 320 320 322 323 322 322 324 323 323 323 319 318 322 322 320 322 323 322 321 318 318 318 319 319 318 319 321 324 325 324 324 323 323 323 323 323 324 324 324 323 324 324 324 324 324 323 323 323 323 323 322 320 320 320 321 321 321 322 322 323 323
319 320 319 318 320 321 320 320 322 321 320 319 316 316 321 322 321 322 322 321 320 317 315 315 316 317 317 318 320 323 324 324 322 322 322 322 322 322 323 324 324 324 323 323 324 324 324 323 323 322 321 320 319 318 318 319 320 320 320 320 321 321 321
320 321 321 321 319 320 319 317 317 317 316 315 312 314 321 322 321 322 321 320 320 314 310 312 313 314 316 318 320 322 323 323 321 319 320 321 321 321 322 323 323 324 323 324 324 324 323 322 321 320 319 318 318 317 317 317 318 318 318 318 318 319 319
322 323 324 322 318 317 317 315 314 314 313 313 311 314 319 321 320 321 320 319 317 311 307 308 309 309 311 315 320 322 322 322 320 317 318 319 320 321 322 322 323 323 324 324 324 322 321 321 319 318 318 318 318 317 317 316 316 316 315 314 314 315 315
324 325 325 321 316 317 320 319 316 314 313 313 311 311 316 319 319 319 319 316 313 309 307 306 306 306 307 309 313 316 316 317 318 317 316 319 320 320 322 323 322 323 323 322 321 320 320 319 319 319 318 318 318 318 317 315 315 315 314 311 310 310 310
326 325 322 319 319 320 321 320 316 314 315 312 309 308 311 316 317 317 315 312 308 307 305 305 305 305 305 305 307 308 308 310 313 315 315 317 319 319 321 322 322 322 322 320 319 319 319 319 318 318 316 315 316 317 317 315 314 313 312 311 309 308 307
326 322 318 319 321 320 320 318 314 312 312 309 307 307 308 312 314 312 311 308 306 305 304 304 304 304 304 304 304 305 305 306 309 311 312 315 318 318 319 320 320 321 321 320 320 319 318 317 316 315 314 313 313 315 316 315 313 311 310 310 309 308 308
323 320 317 319 321 320 321 318 312 309 309 307 307 306 306 309 310 309 308 306 305 304 304 305 304 304 304 304 304 304 305 305 306 308 310 313 316 317 317 318 317 317 318 319 320 320 318 316 315 314 313 314 313 313 313 312 311 310 310 309 308 309 309
322 319 317 320 322 322 321 317 312 311 309 308 307 305 305 306 307 307 306 306 306 306 306 306 306 306 306 306 306 306 306 305 304 305 307 311 316 318 318 317 315 315 315 315 317 318 319 317 315 314 313 313 313 313 312 311 310 309 309 309 308 309 310
322 319 319 322 323 322 319 316 315 314 311 308 306 304 304 304 305 306 306 306 307 307 308 308 308 308 307 307 308 307 307 307 307 306 305 307 312 316 318 317 315 314 314 315 315 315 316 316 315 315 314 314 313 312 312 313 311 309 309 309 309 309 311
321 321 322 323 322 321 318 318 318 316 311 307 305 304 305 306 307 307 307 307 308 308 308 308 308 309 309 311 312 311 310 309 308 308 307 306 308 311 315 317 316 314 314 315 315 314 314 315 315 315 315 315 313 311 311 313 312 309 309 309 309 310 312
322 322 322 322 321 319 318 319 318 315 310 305 304 305 307 310 311 310 310 310 310 310 312 312 312 313 315 316 317 316 314 312 312 311 310 309 308 308 310 313 315 315 314 314 313 313 313 313 314 315 315 314 312 311 312 313 312 310 309 310 311 312 313
322 322 322 322 321 319 319 319 318 316 310 304 304 306 308 311 313 312 313 312 313 315 316 316 317 318 318 319 318 318 317 316 316 315 314 313 312 310 309 310 313 314 314 313 312 313 313 313 314 314 313 312 312 312 314 314 313 312 310 311 312 313 313
323 322 322 321 320 320 320 319 319 318 313 306 305 307 308 311 312 312 312 313 314 317 317 317 319 320 319 319 319 318 319 318 317 317 317 317 316 314 310 309 310 311 312 312 312 313 314 315 315 314 313 313 314 315 316 316 315 314 313 313 313 313 314
322 322 321 321 320 320 320 320 320 320 314 307 306 308 308 310 312 311 312 312 313 316 317 318 320 320 319 320 319 318 319 319 318 317 317 318 317 317 314 310 310 310 311 312 312 314 315 316 316 315 314 315 316 316 316 316 316 316 315 315 314 314 315
322 322 322 321 320 321 322 321 320 319 315 308 306 308 310 312 314 314 314 314 314 315 318 320 320 320 319 319 319 319 319 319 319 318 319 319 318 318 317 315 312 311 311 312 312 314 316 316 316 316 315 315 316 316 316 316 316 316 315 315 315 315 315
322 322 322 321 320 321 322 322 321 320 315 309 307 310 312 314 315 316 318 317 316 317 318 318 317 317 318 318 319 320 320 319 319 320 320 320 320 319 319 318 316 315 314 313 313 313 315 315 315 316 315 316 316 316 316 316 317 316 316 315 315 315 315
322 321 321 321 321 322 322 321 320 317 312 309 309 311 314 314 315 317 318 318 318 319 319 318 318 317 317 319 319 320 321 320 320 319 319 319 320 320 320 320 319 317 317 316 315 314 314 314 315 316 316 316 317 317 316 316 317 317 317 316 315 315 316
323 322 322 322 320 319 318 317 317 313 311 310 310 311 315 316 315 316 317 318 319 319 319 320 320 319 319 319 319 319 319 318 318 318 317 317 318 319 319 319 320 319 318 318 317 316 316 315 315 316 316 316 316 316 316 317 317 317 317 316 316 316 316
321 322 322 322 320 318 316 316 315 314 314 312 310 313 317 318 317 316 317 319 319 319 320 320 320 320 319 320 319 318 317 316 316 316 316 316 316 317 318 318 318 319 319 318 318 318 317 317 316 317 317 316 316 316 316 316 317 317 317 317 316 316 316
320 320 320 320 320 319 318 317 316 316 316 312 311 315 318 318 318 316 315 318 319 319 319 319 319 319 319 320 320 318 316 315 315 315 315 315 316 317 317 317 318 318 318 317 318 319 318 318 317 317 317 317 316 316 316 316 316 316 316 316 316 315 315
319 319 319 318 319 318 317 316 315 315 315 313 314 318 318 318 318 316 315 318 319 319 319 319 319 319 319 319 319 318 316 315 315 315 315 316 317 317 317 317 317 317 318 318 319 319 318 318 317 317 317 317 317 317 317 317 317 316 316 316 316 315 315
320 320 320 320 319 319 317 316 316 316 316 316 317 319 319 318 318 318 318 318 319 319 319 319 319 319 319 319 318 318 317 315 315 315 315 316 316 316 317 317 317 317 318 318 318 317 315 314 314 313 314 315 316 316 316 316 317 317 317 316 316 316 315
321 321 321 321 320 319 318 318 318 318 319 319 319 319 319 318 318 318 318 318 318 319 319 319 319 319 319 319 318 317 316 315 315 315 315 315 315 315 316 316 317 317 316 316 315 314 312 309 307 306 306 308 310 312 313 314 315 316 316 316 316 315 315
321 321 321 320 320 319 318 318 318 318 318 319 318 318 318 319 319 318 318 318 318 318 319 319 319 319 319 318 317 316 316 315 315 315 315 316 315 315 315 316 316 315 314 313 312 310 309 306 303 302 302 303 305 307 310 312 313 315 315 315 315 315 314
320 320 320 320 320 319 318 318 319 319 319 319 318 317 318 318 319 319 319 319 319 319 319 319 319 319 318 317 316 316 315 315 315 316 316 316 315 315 315 314 314 313 311 309 307 306 305 303 302 302 303 303 304 305 306 307 309 311 313 314 314 314 313
318 318 319 319 319 319 318 318 320 320 320 319 318 318 319 319 319 319 320 320 320 319 319 319 319 318 317 316 315 315 315 316 316 316 315 313 313 314 314 313 312 311 309 307 306 304 303 302 302 303 303 303 303 303 303 303 303 304 306 309 310 310 309
317 317 318 319 318 319 319 319 320 320 319 318 318 318 319 319 319 319 319 319 319 319 319 318 318 317 316 315 316 315 315 315 315 315 314 312 310 311 313 313 312 310 307 306 305 304 303 302 302 302 302 303 303 303 303 303 302 302 302 303 304 305 304
317 317 317 317 317 317 318 319 320 320 319 318 318 318 319 319 319 319 319 318 318 318 318 317 316 316 316 316 316 316 315 315 314 315 316 312 307 306 308 309 309 307 304 304 304 303 302 302 302 301 301 302 302 303 304 304 303 303 303 303 303 303 302
315 316 316 316 316 316 316 316 317 317 318 318 318 318 318 318 319 318 318 318 317 316 315 315 316 316 315 316 316 316 315 314 313 314 314 311 307 306 306 306 306 305 304 303 303 302 302 301 300 300 300 301 302 304 305 305 305 305 305 304 304 303 302
312 314 314 314 315 316 316 316 316 316 316 316 315 315 315 315 316 316 317 316 314 312 311 312 315 317 315 314 315 315 314 312 311 312 313 312 311 309 307 306 306 306 305 304 303 303 303 302 301 300 300 300 301 303 304 305 306 306 306 305 305 303 302
310 311 312 312 313 314 315 315 316 315 315 314 314 313 313 312 312 314 314 313 312 310 307 306 309 311 311 312 314 315 313 311 312 313 313 314 313 310 308 308 308 306 306 305 305 305 305 304 302 302 301 300 300 301 302 303 305 306 306 305 303 302 300
309 309 310 311 311 312 312 313 313 313 313 313 313 313 314 313 312 312 312 312 310 308 304 302 303 304 304 308 312 313 312 311 313 314 313 313 313 311 309 308 308 307 306 306 306 305 305 304 304 303 301 300 300 299 300 301 303 303 303 301 300 299 299
307 307 308 309 310 310 311 311 311 311 311 311 311 311 312 312 313 313 313 312 312 308 304 302 303 303 302 303 306 309 310 311 312 312 312 313 312 310 309 309 308 307 306 306 306 305 305 304 303 302 301 300 299 299 299 299 299 299 299 298 298 298 299

ECMWFFLT1_850_thetae_069.txt.gz
Theta_e
328 328 327 326 324 323 322 322 322 323 323 322 321 319 318 318 316 317 318 318 318 319 319 320 321 322 322 324 325 325 326 326 326 325 324 323 325 326 327 326 325 325 325 324 324 323 324 325 325 325 325 325 325 325 325 325 325 325 325 324 324 324 324
325 324 324 323 322 322 322 322 323 322 322 322 321 319 319 318 317 318 318 318 318 317 316 317 319 321 322 324 324 324 325 325 325 324 324 323 324 326 326 325 325 325 325 324 324 324 323 324 324 325 325 326 325 324 324 323 323 323 323 323 323 323 323
323 321 320 321 321 322 322 323 322 321 322 323 320 319 320 319 319 320 320 319 319 317 316 316 319 321 322 323 323 324 325 325 324 323 323 323 324 325 325 325 324 324 324 324 324 324 323 323 324 324 325 325 324 322 321 322 322 323 323 323 323 323 324
323 320 318 318 321 322 323 323 323 323 324 324 320 318 320 320 320 320 319 319 319 317 317 318 320 321 321 321 322 324 324 324 323 323 323 323 323 324 324 324 323 323 323 324 324 324 323 323 324 324 323 323 322 321 321 321 322 322 323 323 323 323 324
323 319 316 318 321 323 323 323 324 325 324 323 320 317 318 319 319 319 318 318 318 316 317 319 320 319 318 319 322 323 324 324 323 323 323 323 323 323 323 324 324 323 324 324 323 323 323 323 323 323 322 321 321 320 321 321 321 322 322 323 322 323 323
323 319 317 319 323 324 323 323 323 323 323 323 320 316 318 320 319 319 318 318 318 315 315 317 317 316 317 319 322 323 324 323 322 322 322 322 322 322 322 323 323 324 325 325 323 323 323 323 323 322 320 319 319 318 318 318 318 318 319 320 320 321 321
324 319 318 319 322 324 323 322 322 322 322 321 318 316 319 320 320 320 319 318 317 312 312 315 315 316 318 320 322 323 323 322 321 321 321 321 321 321 321 322 322 324 324 325 324 324 323 323 323 321 319 318 317 317 316 316 315 314 314 315 316 316 316
324 320 319 318 320 321 322 322 321 320 320 318 315 317 320 320 320 320 318 318 314 308 308 311 312 314 318 320 322 323 321 319 319 319 319 320 320 320 321 322 322 323 324 324 324 324 323 323 322 320 319 318 317 316 316 315 313 311 311 311 311 311 310
323 321 321 321 322 321 321 321 319 317 316 315 315 318 320 319 320 318 318 317 311 306 306 307 307 310 313 317 320 322 320 317 316 318 319 319 318 319 321 321 321 322 322 323 322 322 323 322 321 319 319 317 317 316 315 314 312 310 310 310 309 308 308
322 323 323 324 324 321 319 320 319 316 316 316 315 317 319 319 319 318 317 313 308 305 305 305 305 306 308 311 315 318 317 316 315 316 318 317 317 319 320 318 318 318 319 321 321 321 321 320 319 318 316 314 313 314 313 313 312 310 309 309 309 308 308
324 325 325 325 322 318 318 321 320 316 315 316 314 314 317 318 318 317 313 309 305 304 304 304 304 304 305 306 308 310 311 313 314 315 316 317 317 320 320 318 317 317 316 318 319 320 320 319 318 316 314 312 312 312 310 310 311 310 309 308 309 309 309
326 326 325 323 319 316 318 320 318 313 313 313 311 310 313 315 315 313 309 306 304 303 304 303 304 304 304 305 305 305 306 309 312 313 315 317 317 318 319 319 319 318 317 318 318 318 318 317 316 314 313 313 312 312 311 309 309 309 309 308 308 310 310
326 325 322 319 316 316 318 319 314 309 309 309 309 308 309 310 310 309 307 305 304 304 304 304 304 305 305 305 305 305 304 306 309 311 314 316 316 316 317 317 317 317 318 318 318 318 317 316 315 314 314 313 312 312 311 310 309 308 308 308 309 311 312
325 323 321 318 317 318 319 317 311 308 308 307 307 306 305 306 306 307 306 305 305 305 305 306 306 306 307 307 307 306 305 305 306 308 312 315 316 315 315 315 315 316 316 317 318 319 318 316 315 314 314 314 313 312 311 311 310 308 308 308 309 311 312
323 322 320 317 318 320 320 317 313 311 308 306 305 304 304 305 306 307 306 306 306 307 307 307 307 307 308 308 308 308 307 306 306 306 309 313 315 315 315 314 314 314 315 315 315 316 317 317 315 315 315 314 314 313 311 311 311 310 309 308 309 311 312
323 321 318 317 320 322 320 317 316 314 309 305 305 304 304 305 306 306 307 307 308 308 308 308 308 310 311 311 311 310 310 309 308 307 307 309 311 313 314 315 314 314 314 314 314 314 314 315 315 315 315 315 315 314 312 311 312 311 310 309 310 311 312
323 321 319 320 322 322 319 317 318 317 311 305 304 304 305 305 306 307 307 308 308 310 312 311 311 314 315 315 315 314 314 313 312 311 310 310 309 310 312 313 314 314 313 314 314 314 313 313 314 315 315 315 315 314 312 312 313 313 311 310 311 312 312
323 320 320 322 322 321 319 318 319 318 313 306 303 305 306 307 308 308 308 309 310 313 315 315 315 316 317 316 316 316 316 316 315 314 314 314 313 312 311 311 313 313 313 313 313 313 313 313 313 314 314 314 314 313 313 314 315 313 311 311 312 313 313
323 321 320 322 321 320 320 319 318 320 316 308 304 306 307 308 309 309 309 310 311 312 314 315 316 317 317 317 317 316 316 316 316 316 316 316 317 316 314 311 311 312 312 312 312 312 313 314 314 314 313 312 313 313 314 315 315 313 312 312 313 314 314
323 322 322 321 319 319 320 320 319 320 318 311 306 307 309 309 309 309 308 309 310 310 310 311 314 316 317 317 317 316 317 317 317 317 317 317 317 317 317 315 313 311 311 312 312 312 314 315 316 315 314 314 314 314 315 316 316 314 313 314 314 314 314
322 322 321 319 317 316 317 320 320 320 319 314 309 309 309 308 309 309 309 310 311 311 310 311 314 316 317 317 317 317 317 318 318 318 318 318 318 318 318 318 317 315 313 313 312 312 314 315 316 316 315 315 315 316 316 316 316 315 314 314 315 315 315
322 321 320 319 318 315 315 319 321 320 318 314 311 311 310 308 308 309 310 312 312 312 312 314 315 316 316 316 317 317 318 319 319 318 318 318 318 318 318 319 319 318 317 315 314 314 314 314 315 315 316 316 315 316 316 316 316 316 315 315 315 315 315
321 320 319 320 321 318 318 320 322 320 316 313 313 314 311 308 308 310 311 312 311 311 314 317 318 317 317 317 317 318 318 319 319 318 318 317 317 317 317 318 319 319 319 318 317 316 316 315 315 315 316 316 316 316 316 316 316 316 316 316 315 315 315
321 320 319 320 321 320 320 321 322 319 315 313 315 315 310 309 310 310 310 311 310 309 312 318 319 319 319 319 319 319 319 319 319 318 316 316 315 315 315 316 318 319 319 319 319 318 318 317 316 316 316 316 316 316 316 316 316 316 316 317 316 315 315
322 321 320 319 319 320 320 320 321 319 313 312 313 312 310 311 312 311 310 310 309 309 312 317 319 319 320 321 320 320 320 319 319 318 316 315 315 315 315 315 316 318 318 318 319 319 318 318 317 317 317 317 317 316 316 316 316 316 316 316 316 316 315
321 321 321 320 320 320 319 319 319 317 314 312 311 310 311 314 313 310 310 309 310 312 314 317 319 319 319 321 321 320 319 319 319 318 317 316 315 315 315 316 316 317 317 317 318 318 318 318 318 318 318 317 317 317 316 316 316 316 316 316 316 316 315
322 322 322 322 321 321 320 319 318 317 317 316 314 313 315 315 312 310 309 310 313 315 316 317 319 319 319 320 319 319 319 319 319 318 318 317 315 314 315 316 316 317 317 317 317 317 317 318 319 318 317 317 316 316 317 317 317 317 317 317 316 316 316
322 322 323 322 321 321 320 319 318 318 318 317 315 315 315 313 311 311 312 315 317 317 317 317 318 319 319 319 319 319 319 319 319 318 317 316 315 315 315 316 316 317 317 317 317 318 318 318 317 315 313 311 311 311 313 314 315 315 315 316 316 315 315
322 322 322 322 321 321 321 320 320 319 319 318 317 317 317 316 315 316 317 318 318 317 317 318 318 319 319 319 319 319 319 319 318 317 317 316 315 315 315 315 316 317 317 317 317 317 317 315 312 308 306 304 304 304 306 308 309 311 312 313 314 314 314
320 320 321 321 321 321 321 321 320 319 319 320 319 318 319 318 317 318 319 318 318 318 318 318 319 319 319 319 319 319 319 318 317 316 316 315 315 315 316 315 316 317 317 316 315 314 312 310 307 305 303 302 302 302 303 304 305 306 307 309 310 311 311
319 319 319 320 320 320 320 320 320 319 319 319 319 319 319 318 317 317 318 318 318 318 318 317 318 319 319 319 319 318 318 317 316 316 316 316 316 316 316 316 316 315 315 314 311 309 307 305 304 303 302 302 303 303 303 303 303 303 303 303 303 304 304
317 318 318 318 318 318 319 319 319 319 319 319 320 319 319 318 317 317 317 317 316 316 317 317 317 317 318 318 318 318 317 316 316 315 316 316 316 315 316 316 315 314 314 312 309 306 304 303 302 302 302 302 302 302 303 303 303 302 302 302 302 302 302
315 316 317 317 317 317 318 318 319 319 319 319 319 319 319 318 317 317 317 316 315 316 317 317 317 317 317 317 318 317 316 316 315 315 316 316 315 314 315 315 315 314 314 311 307 304 303 302 302 302 301 301 301 301 302 302 302 302 302 302 303 303 303
312 313 314 315 316 316 316 316 317 318 318 318 318 319 318 318 318 318 318 318 317 317 317 317 317 317 317 317 317 316 316 316 315 316 316 315 314 314 313 312 312 313 312 308 305 303 302 302 301 301 300 300 300 300 301 301 301 301 302 302 303 304 303
309 309 310 311 313 314 315 315 315 316 316 317 316 317 317 317 318 317 317 317 317 316 316 316 316 316 316 316 316 316 316 316 316 316 316 314 314 314 311 308 308 309 308 306 304 303 303 303 302 302 301 301 301 301 300 300 300 300 301 302 303 302 301
308 308 308 309 310 311 312 313 314 315 315 316 315 315 315 316 316 316 316 315 315 313 313 312 311 313 315 316 316 316 316 316 316 316 315 314 313 313 311 308 307 306 306 305 303 303 304 304 304 303 302 302 301 301 300 299 299 300 300 301 300 300 299
308 308 308 308 309 309 310 310 311 313 314 314 315 314 314 314 314 314 315 315 314 313 311 309 307 309 313 316 316 316 316 315 316 315 314 313 313 313 313 311 308 307 306 305 304 304 305 305 304 303 303 302 301 300 299 299 299 299 299 299 298 298 298

ECMWFFLT1_850_thetae_072.txt.gz
Theta_e
326 326 327 328 327 326 325 325 325 326 325 325 325 324 324 324 323 322 321 321 321 321 322 322 322 323 323 324 325 324 325 325 326 326 326 326 326 326 326 327 326 326 326 325 324 323 324 326 325 324 324 325 325 325 325 325 324 324 324 324 324 323 323
327 328 328 328 327 326 325 325 325 324 323 323 321 319 319 319 318 317 317 318 318 318 319 320 321 321 322 323 324 323 323 325 326 325 325 325 325 326 326 327 326 326 326 325 324 323 323 324 325 325 325 325 324 324 324 323 323 323 323 322 323 323 323
328 329 329 327 326 324 323 322 322 322 320 320 318 316 316 316 316 316 317 317 317 317 317 318 320 321 322 322 323 323 322 323 325 325 324 324 324 325 326 327 326 325 325 324 324 324 323 323 325 325 325 324 323 322 322 322 322 321 322 322 323 323 323
328 328 328 326 324 322 321 320 320 320 319 319 318 316 317 317 317 317 317 317 317 317 317 318 320 322 322 322 323 323 323 323 324 324 323 323 324 325 326 326 325 324 324 324 324 324 323 322 323 324 324 323 322 321 322 322 322 322 323 323 324 323 323
326 325 325 324 322 321 320 320 320 319 320 320 319 317 318 319 319 319 319 319 318 317 318 320 321 322 322 322 322 323 323 323 323 323 323 323 323 324 325 325 324 324 324 324 324 324 324 322 322 323 322 321 321 320 321 322 322 323 323 323 323 323 323
324 322 322 321 321 321 320 320 320 320 321 321 319 317 319 320 320 319 319 319 318 316 317 320 321 320 320 321 323 323 324 323 323 323 323 323 323 323 324 324 324 324 324 324 324 323 323 323 322 322 321 321 320 320 321 321 322 322 322 323 322 322 322
325 322 319 319 320 320 320 320 320 321 321 321 320 318 318 319 318 319 318 318 317 314 315 319 319 319 320 321 323 324 323 323 322 322 322 322 322 323 323 324 324 324 325 324 323 323 323 323 322 322 321 320 319 319 320 320 320 320 320 320 320 320 319
327 324 319 318 317 317 318 320 321 321 321 321 319 317 317 317 317 318 318 318 314 310 313 317 318 318 319 320 322 323 323 322 321 320 320 320 321 321 322 323 324 324 324 324 324 323 323 323 323 322 320 319 317 316 316 316 316 317 317 316 315 313 312
328 325 321 317 316 317 318 320 321 321 319 317 314 314 315 316 317 317 316 316 312 307 310 314 315 317 319 319 320 321 321 321 319 319 319 319 319 320 322 323 323 324 324 324 324 323 323 323 322 321 318 317 316 314 312 311 312 312 311 310 309 307 307
328 326 321 318 318 320 320 321 321 319 316 313 310 312 315 316 317 317 315 313 309 306 307 309 311 314 316 319 320 319 319 318 317 317 317 316 316 319 321 322 323 323 323 323 323 323 323 322 321 319 315 314 315 315 312 309 309 309 309 308 308 307 308
328 325 322 320 321 322 321 321 321 318 314 312 311 313 315 316 317 317 315 311 307 305 306 305 306 308 310 314 317 318 318 317 316 316 314 314 316 319 320 320 321 322 321 321 321 321 322 321 319 316 313 312 312 313 314 312 310 309 309 309 309 309 309
327 324 323 323 323 323 320 319 320 319 315 313 312 313 315 317 316 316 314 309 304 304 305 304 305 305 306 309 312 315 316 315 314 314 313 313 317 320 319 317 317 318 318 319 319 320 320 320 317 314 312 312 311 310 312 312 311 309 308 309 309 309 310
326 324 324 324 324 324 320 318 320 319 315 314 312 311 312 315 315 315 313 307 303 303 304 304 304 304 305 306 306 308 311 313 313 314 313 314 317 319 319 317 316 316 316 316 317 318 319 318 317 314 313 313 311 309 309 310 309 309 308 309 310 310 310
325 325 326 325 324 323 319 318 319 317 313 311 309 307 308 311 313 313 310 306 303 304 304 304 304 304 305 305 304 305 307 310 312 313 314 315 316 318 318 317 316 316 316 316 315 316 317 317 316 314 314 314 312 310 309 308 308 308 308 310 310 311 310
326 327 326 324 323 320 318 318 318 314 310 308 307 306 306 308 310 311 308 305 304 304 305 305 305 306 306 305 305 304 305 307 310 312 314 315 315 316 317 316 315 316 317 317 316 316 316 316 315 314 314 314 313 312 310 309 308 307 309 311 311 311 310
327 326 325 322 320 318 318 319 317 312 308 308 307 306 305 307 309 309 307 305 305 305 306 306 307 307 307 307 307 307 306 307 308 310 313 315 315 315 315 315 315 316 316 316 316 316 316 316 315 315 315 314 314 313 312 310 309 308 309 310 311 311 311
326 325 323 321 318 318 319 319 317 312 309 308 307 305 305 306 308 309 307 306 306 307 307 307 308 308 309 311 311 310 310 309 309 309 310 312 314 314 314 314 315 315 315 315 315 315 315 315 315 315 315 315 315 314 314 312 311 310 309 309 311 311 311
325 323 322 320 317 319 321 319 317 315 311 307 305 304 304 306 307 308 307 307 307 308 308 308 309 310 312 314 315 314 314 314 313 312 310 310 311 311 312 313 314 314 314 313 313 314 314 314 314 315 315 316 315 315 315 313 311 311 310 309 310 311 311
324 323 322 319 318 321 322 319 318 317 314 308 305 304 304 305 306 307 307 308 308 309 310 310 311 313 314 316 316 316 317 317 316 315 314 314 313 312 312 311 312 312 313 313 312 312 313 313 313 313 314 315 316 316 316 313 312 312 312 310 310 311 312
324 323 321 320 320 321 320 319 318 318 316 311 306 304 304 305 306 307 307 308 309 310 311 312 312 314 315 316 317 317 317 317 317 317 316 317 317 317 316 314 312 312 312 312 312 312 313 313 313 313 313 313 315 315 314 313 313 314 314 311 311 312 313
323 322 321 321 321 320 319 319 319 318 319 315 308 304 305 306 307 307 308 309 309 310 310 310 311 312 313 315 316 317 317 316 317 318 317 317 318 318 318 317 316 315 314 313 312 312 314 314 315 314 314 313 313 313 313 313 315 316 315 313 312 313 314
323 322 322 321 321 321 319 319 319 319 320 318 312 306 305 306 308 309 309 309 309 309 309 309 309 310 311 313 315 317 317 317 318 318 318 318 318 318 318 318 318 318 318 317 315 314 313 314 315 315 315 314 314 314 314 315 316 316 315 314 314 314 314
321 320 321 321 320 319 317 317 319 319 319 319 315 309 306 307 309 310 309 309 309 309 309 310 310 310 311 313 315 317 317 317 318 319 319 318 318 317 317 317 316 316 317 318 318 317 315 314 315 315 316 316 315 315 316 316 316 316 316 315 314 314 315
318 318 318 318 318 317 315 315 318 319 319 319 316 312 308 307 308 310 311 311 311 309 309 310 310 310 311 314 316 318 318 318 319 319 319 319 318 317 316 315 315 315 315 316 318 319 318 316 315 315 315 315 316 316 316 316 316 316 316 315 315 315 315
320 320 320 319 318 318 317 317 318 319 319 319 316 313 311 309 309 311 314 315 313 310 309 310 310 310 311 314 317 319 319 320 320 320 320 319 319 317 316 315 315 315 314 315 317 319 319 318 318 316 316 315 315 316 316 316 316 316 316 316 316 315 315
320 320 321 320 319 319 320 320 320 319 319 319 317 314 312 313 313 315 317 318 315 311 310 310 309 310 310 313 317 319 319 319 320 320 320 320 319 318 317 316 316 315 315 315 316 318 319 319 319 318 317 316 316 315 316 316 316 316 316 316 316 316 315
320 320 320 320 319 319 319 320 321 320 319 319 318 316 314 315 316 317 317 316 313 312 312 311 310 310 311 314 317 318 319 319 320 320 319 319 319 318 317 317 316 315 315 315 316 317 318 318 318 318 318 318 317 317 317 317 316 316 316 316 316 316 315
321 320 320 320 320 320 319 319 320 320 319 319 319 317 316 315 315 314 313 311 310 311 312 311 309 310 313 316 317 318 319 319 319 319 319 319 319 318 318 317 315 315 315 316 317 317 317 317 318 318 318 317 317 318 318 317 317 317 317 316 316 316 316
322 322 321 321 321 320 319 319 320 320 319 320 319 317 316 316 316 314 311 310 311 312 311 309 309 311 315 317 317 318 319 319 319 318 319 319 318 318 317 316 315 315 315 316 317 317 317 318 318 318 318 316 316 316 315 315 315 315 316 316 316 316 315
321 321 321 321 321 320 320 320 320 320 320 319 319 317 317 318 317 315 314 313 314 313 311 311 313 315 317 317 317 318 319 319 319 319 319 319 318 318 317 316 315 315 315 316 317 317 318 318 318 317 316 312 309 309 308 309 309 310 311 312 312 313 313
320 320 320 320 320 320 320 320 321 321 320 320 319 319 319 319 318 318 317 317 316 315 313 315 317 318 318 318 318 318 319 319 319 319 319 319 318 318 317 316 315 315 315 315 317 317 318 318 317 315 311 306 303 303 304 305 305 305 306 306 307 307 307
318 318 319 319 319 319 319 319 320 320 320 320 320 320 319 320 320 319 319 319 318 318 317 317 317 318 318 318 318 318 318 319 319 319 318 318 318 317 316 316 315 315 316 316 317 317 316 314 312 310 306 303 302 302 303 303 303 303 303 302 302 302 302
315 316 317 317 317 318 318 318 318 318 318 318 319 319 319 319 319 319 319 319 318 318 318 317 317 317 317 317 316 316 318 319 318 318 318 318 317 316 316 316 316 316 316 317 316 314 312 309 306 304 303 302 302 302 302 303 303 303 302 302 302 302 302
310 311 313 313 314 316 316 317 317 317 317 318 318 318 319 319 319 318 318 318 317 317 317 317 316 316 315 316 315 316 317 317 316 316 317 317 317 316 316 316 316 316 316 315 314 313 310 307 304 302 302 302 302 302 302 302 302 302 302 302 302 302 301
306 307 308 309 310 312 313 314 315 316 317 317 317 318 318 317 317 317 318 318 317 317 318 318 317 316 316 316 317 316 317 317 316 315 315 315 315 315 315 316 315 315 315 315 315 313 310 305 303 302 302 301 301 301 301 301 300 300 300 301 300 300 299
306 306 307 307 307 308 309 310 311 312 314 315 315 316 316 316 316 316 316 317 317 317 317 317 316 316 316 316 317 317 317 317 316 315 315 315 315 314 314 315 315 314 314 314 315 313 308 304 302 302 301 301 301 301 301 300 300 300 300 300 299 299 298
307 307 308 308 308 308 308 308 309 309 310 311 312 312 313 313 314 314 314 314 315 315 315 314 314 313 313 313 313 314 314 315 315 316 316 316 315 314 313 314 314 313 312 312 313 311 306 302 302 302 302 302 302 301 301 300 299 299 299 299 298 298 298

ECMWFFLT1_850_thetae_075.txt.gz
Theta_e
326 325 325 325 327 326 325 324 324 324 324 324 325 326 326 326 325 325 325 325 324 324 324 324 323 324 325 325 326 326 326 326 326 327 328 327 328 327 327 327 326 326 326 325 325 325 326 325 324 325 325 325 325 325 324 324 324 324 324 324 324 324 323
327 326 325 326 326 325 325 324 324 324 325 324 325 325 326 325 324 324 324 323 323 322 322 322 322 323 323 324 325 325 325 325 326 326 327 327 328 328 327 327 327 327 326 325 324 325 325 324 325 325 325 324 324 324 324 324 324 324 324 323 323 323 323
327 326 326 327 326 325 325 324 324 325 325 324 323 323 323 322 321 321 320 321 320 320 320 321 321 321 321 322 324 324 324 325 325 326 326 326 326 327 327 327 327 327 326 325 325 325 325 324 325 325 324 324 324 323 323 323 323 323 324 323 324 324 324
326 326 327 328 326 326 325 324 324 324 322 321 319 318 318 318 318 318 318 318 318 318 318 318 318 319 319 320 322 323 323 323 324 325 325 324 324 326 327 327 327 327 326 326 325 325 325 324 324 324 323 324 323 322 322 322 323 323 324 324 324 323 322
325 326 328 328 327 326 324 322 322 320 320 319 317 315 316 317 317 316 316 316 316 316 316 316 317 318 320 321 322 323 323 323 323 324 324 324 324 325 326 327 327 326 326 326 325 324 325 324 323 323 323 323 322 321 321 322 323 323 323 323 322 321 320
325 325 326 327 326 324 322 320 319 318 317 316 314 314 316 316 316 316 316 316 316 316 316 317 318 319 321 321 322 324 324 324 323 323 323 323 324 324 325 325 325 324 325 325 324 324 324 324 323 323 323 322 321 321 322 322 323 323 322 322 321 320 319
325 324 324 325 324 322 320 319 318 317 315 315 314 315 317 317 317 318 318 317 315 315 317 318 319 319 319 320 322 323 324 323 323 322 322 322 323 323 324 325 324 324 325 325 324 324 324 323 323 323 322 321 320 321 322 322 322 322 321 321 320 319 318
324 323 323 323 322 321 319 319 318 316 316 317 317 317 318 318 319 319 319 317 312 312 317 319 318 317 317 319 322 323 323 322 321 321 321 321 321 322 324 324 324 324 324 324 323 324 323 323 323 322 321 321 320 320 321 321 320 320 321 320 318 316 315
324 322 321 321 321 320 318 317 318 318 319 320 319 318 318 319 320 320 320 317 310 310 315 317 316 316 316 318 320 321 322 321 319 320 320 319 319 320 323 323 323 324 324 324 323 324 323 323 322 321 320 320 319 319 318 317 317 318 318 316 313 311 309
326 323 320 320 320 319 319 319 320 320 320 321 318 317 318 320 321 320 319 315 309 308 312 314 315 315 316 317 318 320 321 319 318 319 318 316 316 319 322 322 323 323 324 324 324 323 323 323 321 318 318 318 318 318 317 315 315 315 314 311 308 307 307
327 324 321 319 318 319 319 320 321 320 319 318 315 317 319 320 320 319 317 313 308 307 308 310 311 313 314 316 317 318 318 317 317 315 314 315 316 319 321 322 322 323 323 323 323 322 322 322 319 315 315 316 316 316 316 315 313 311 310 308 307 307 307
328 326 322 320 319 320 320 320 321 319 317 314 314 317 319 319 319 318 315 309 305 305 306 306 307 309 311 314 316 317 316 315 314 313 314 318 318 319 320 321 322 322 322 322 321 321 321 321 317 313 313 313 313 315 315 315 313 310 308 308 307 308 308
329 326 323 322 322 322 321 320 320 319 316 313 313 317 318 318 318 316 311 306 304 305 305 305 305 305 307 309 312 314 314 314 314 312 315 320 319 318 318 318 319 319 319 320 320 320 320 319 316 313 311 310 311 313 314 314 312 309 309 308 308 309 309
328 326 323 323 324 324 321 319 319 317 314 313 312 315 317 318 317 313 307 303 303 304 304 304 304 304 305 305 307 310 312 313 314 313 315 318 319 318 317 316 316 316 316 317 317 318 318 318 315 313 312 310 310 311 312 312 311 309 309 309 309 309 309
328 325 324 324 324 324 321 319 319 316 313 313 312 312 315 316 315 311 306 303 303 304 303 304 303 303 304 304 304 306 308 311 312 313 315 317 317 317 317 316 316 316 315 315 316 316 317 317 315 314 313 312 310 309 310 310 309 308 308 309 309 310 309
326 325 324 325 324 324 321 319 319 315 312 313 312 310 311 313 312 309 305 304 304 304 304 304 304 305 305 305 304 305 305 308 310 312 314 315 316 316 316 315 315 316 316 316 315 315 316 316 316 315 315 314 312 310 309 309 308 308 308 308 310 310 309
325 325 326 325 324 322 320 319 318 315 312 311 310 308 309 311 311 308 305 304 304 305 306 306 306 307 307 307 307 306 306 307 309 311 313 315 315 315 315 315 315 315 316 316 316 316 316 316 316 316 316 316 314 313 311 309 308 308 309 309 310 311 310
326 326 326 325 322 320 319 319 318 315 311 310 309 308 308 309 310 308 305 305 305 306 307 307 308 309 309 310 310 310 309 309 309 309 311 313 314 315 315 315 315 315 315 315 315 315 316 316 316 316 316 317 317 316 314 312 310 309 309 309 310 311 311
326 327 325 323 321 319 319 319 318 315 311 309 309 308 306 308 308 307 306 306 307 308 308 308 309 311 313 314 314 314 314 313 313 311 311 311 312 313 313 313 314 314 315 315 314 314 314 314 315 315 316 316 317 317 317 316 314 311 309 309 310 311 311
326 325 325 323 320 320 320 319 317 316 314 311 310 307 305 306 307 307 306 307 307 308 309 310 311 313 315 316 316 317 316 316 316 315 315 314 315 315 314 313 312 312 312 313 313 313 313 313 313 314 314 315 315 317 317 317 317 314 310 309 310 310 311
325 324 324 322 320 321 321 319 318 318 317 314 310 306 304 305 306 307 307 307 308 309 310 312 312 314 316 317 317 318 317 317 317 316 317 317 317 318 317 317 316 314 314 313 313 312 312 312 313 313 313 313 313 314 316 317 318 314 311 310 309 310 311
323 323 323 322 321 322 322 320 318 318 318 317 311 305 304 305 306 307 307 307 308 310 312 313 313 314 315 316 316 317 317 316 316 317 318 318 318 318 318 318 317 317 316 316 315 315 313 312 313 314 314 314 313 313 314 316 316 313 312 311 310 309 310
323 323 323 322 321 322 322 321 319 318 318 319 315 307 304 305 306 307 307 308 309 311 312 313 314 314 314 314 314 315 315 316 316 318 318 318 318 318 318 317 316 315 315 315 315 316 316 315 314 314 314 315 314 313 313 314 313 313 314 314 312 311 311
323 322 322 322 321 321 321 320 319 319 318 319 318 312 307 306 307 307 308 309 311 312 313 314 315 316 316 316 316 316 315 315 317 318 319 319 319 319 319 318 317 315 315 315 315 314 315 317 317 315 314 314 315 315 314 314 314 315 316 315 315 314 313
322 321 321 320 319 319 319 317 317 318 318 318 318 316 312 309 308 308 310 311 312 313 314 314 316 317 317 317 318 318 318 317 318 319 319 320 319 319 319 319 318 316 316 316 315 314 315 316 318 318 316 315 315 315 315 315 315 316 316 316 316 315 314
321 321 319 318 317 316 317 316 316 317 318 318 318 317 315 313 311 310 310 312 312 313 315 316 317 318 318 318 318 319 319 319 319 319 319 320 320 319 319 319 319 318 317 316 315 315 315 316 318 319 318 317 315 315 315 316 316 316 316 316 316 316 315
321 320 320 319 318 318 318 317 317 318 318 319 319 318 317 316 315 314 313 314 314 315 317 318 318 318 318 318 318 318 318 318 318 319 319 319 319 319 319 319 319 318 318 316 315 315 315 316 318 319 319 318 317 316 315 315 316 316 316 316 316 316 316
320 320 320 320 320 320 320 320 320 320 319 319 319 318 318 317 317 317 316 317 317 317 318 318 318 318 317 316 317 317 317 317 318 318 318 319 319 319 319 319 319 318 318 316 315 315 315 316 317 318 318 318 318 318 317 316 316 316 316 315 316 316 315
321 320 319 320 320 320 321 320 320 320 320 320 319 318 318 318 318 318 317 317 317 317 317 316 315 314 314 314 314 315 317 317 317 317 318 318 319 319 319 319 318 318 318 316 315 315 315 316 317 318 318 318 318 318 318 317 317 317 317 316 316 316 315
320 320 320 320 320 320 321 320 320 320 320 320 320 319 319 319 318 318 317 316 316 316 316 314 312 312 312 313 312 313 315 317 317 318 318 318 318 319 319 319 318 318 318 317 316 315 314 316 317 317 318 318 318 318 318 317 316 317 317 317 316 316 316
319 319 319 319 319 320 320 320 320 319 320 320 320 320 320 319 319 318 317 317 317 317 316 315 314 314 314 314 313 313 315 317 318 318 318 318 319 319 319 318 318 318 318 317 316 315 315 316 317 317 318 318 318 318 317 315 314 315 316 316 316 316 315
318 318 318 319 319 319 319 320 320 320 320 320 320 320 320 319 319 319 318 318 318 317 317 316 317 317 317 316 315 314 315 317 318 318 318 318 318 318 318 318 318 317 317 317 316 315 315 316 317 317 317 317 316 314 311 309 309 311 313 314 314 314 313
315 315 315 316 317 317 317 317 318 318 319 319 320 320 319 319 319 319 319 319 319 318 318 318 318 318 318 318 317 316 316 317 317 318 318 318 318 318 318 318 317 317 317 316 316 316 316 316 317 317 317 316 314 310 305 304 305 309 310 310 310 309 308
310 311 311 311 312 314 315 315 315 316 316 317 317 317 318 318 318 319 319 318 317 318 318 318 318 317 317 317 317 316 316 316 316 316 316 316 317 317 316 315 316 316 316 316 316 316 316 317 317 315 313 311 309 306 304 304 305 307 307 306 305 304 303
307 308 308 308 309 310 311 311 312 313 314 314 315 316 316 316 316 317 317 316 316 317 317 317 317 317 317 318 317 317 316 316 316 316 316 316 317 316 316 315 315 315 314 315 316 316 316 316 314 311 308 305 304 304 305 305 305 304 304 304 303 302 302
307 307 307 308 308 308 309 309 309 310 311 311 312 313 313 314 314 314 314 314 314 314 315 315 316 316 316 317 317 317 316 317 317 317 317 317 317 317 316 315 314 313 313 315 317 316 315 314 312 308 305 303 303 303 304 304 304 304 304 304 303 302 301
306 306 306 307 307 307 307 308 308 308 309 309 310 310 311 311 312 312 313 313 313 313 313 313 313 314 314 314 315 315 314 314 314 314 315 316 316 316 315 315 314 313 313 315 317 315 314 313 311 307 304 303 303 304 304 305 305 304 304 304 303 301 300

ECMWFFLT1_850_thetae_078.txt.gz
Theta_e
331 330 328 328 328 328 328 328 327 327 327 328 327 326 326 327 327 326 325 326 327 326 325 326 325 327 330 330 330 330 331 331 330 331 330 329 330 328 327 328 327 328 328 329 329 328 328 328 327 327 326 326 327 326 326 325 325 325 325 326 326 325 325
332 331 329 328 329 329 328 327 327 327 328 328 327 327 327 327 327 326 326 326 326 325 325 326 325 325 327 328 328 329 329 329 329 330 329 328 329 328 327 328 328 328 328 328 328 328 328 328 327 326 325 326 325 325 325 325 325 325 325 325 325 325 324
331 330 328 327 328 328 327 327 328 328 328 328 327 327 327 327 326 325 325 324 324 322 323 325 323 322 324 325 326 327 327 327 328 329 329 328 328 328 327 329 329 328 329 328 328 328 327 327 327 326 325 325 324 324 324 324 324 324 324 324 324 324 321
330 329 328 327 327 327 328 329 329 328 327 326 326 327 326 325 324 322 321 320 320 319 319 320 320 321 322 322 324 325 325 328 330 329 328 327 328 328 328 329 329 328 328 327 327 328 327 327 327 326 325 325 324 323 323 323 324 324 324 324 324 322 318
329 328 328 327 327 328 329 330 328 326 324 322 324 326 324 321 320 319 319 319 319 317 317 317 319 321 320 319 322 324 324 326 328 328 328 327 328 329 329 329 328 327 328 328 327 327 327 327 327 326 325 325 324 323 323 323 322 323 323 323 322 318 315
328 327 326 327 328 329 329 328 325 322 320 320 321 322 320 318 319 319 320 321 320 318 317 317 318 319 319 319 321 324 325 325 324 326 328 326 326 329 330 329 327 327 328 328 327 327 327 327 326 326 325 324 323 323 323 322 321 321 321 320 317 314 313
328 327 325 327 328 327 326 324 321 321 321 321 321 321 318 319 321 320 320 321 319 317 317 318 317 318 321 323 323 324 325 325 323 324 326 324 324 327 329 330 329 328 328 328 327 327 326 326 326 325 324 323 322 322 322 321 319 318 318 316 314 312 312
326 327 325 326 328 326 323 320 320 323 324 324 324 322 319 319 321 319 318 318 316 316 317 318 319 320 321 323 323 324 324 324 323 323 323 322 322 325 327 328 329 328 328 328 327 327 326 326 326 325 324 323 322 322 322 321 320 317 315 313 312 312 311
324 325 324 325 326 324 319 319 322 325 325 324 323 321 318 318 318 317 317 314 312 316 318 319 320 319 319 321 323 323 322 322 322 322 322 321 321 323 324 326 328 328 327 327 327 326 326 326 325 324 323 323 323 323 322 321 320 317 314 312 311 311 311
321 322 324 326 325 321 320 321 322 324 323 320 318 318 317 317 316 317 316 311 309 315 318 318 318 316 316 320 322 322 320 320 320 321 322 321 320 322 323 325 327 327 326 327 327 326 326 326 325 323 322 322 322 322 322 320 319 318 315 313 311 311 310
320 320 322 323 323 320 321 322 321 321 320 318 316 316 316 318 317 316 314 308 307 314 317 317 316 315 316 319 320 321 319 319 320 319 318 318 318 320 322 324 326 326 326 326 327 325 325 324 323 321 321 321 320 321 320 319 319 317 314 312 310 310 310
323 321 320 320 321 321 321 321 321 320 318 316 315 315 317 319 317 314 312 307 306 310 313 314 314 315 317 318 318 319 318 318 319 317 316 316 318 319 321 323 325 325 325 325 323 322 323 322 320 319 319 320 319 319 319 319 318 316 313 311 310 310 310
324 322 320 319 320 320 320 321 320 318 315 314 315 316 319 319 317 315 311 307 306 307 308 310 313 315 316 317 317 317 316 316 317 318 317 316 317 319 321 322 323 323 323 323 321 320 320 319 319 318 318 318 319 319 318 318 317 315 313 312 310 309 310
325 323 321 320 319 319 320 321 321 317 314 313 316 319 321 319 318 317 313 308 306 305 305 306 311 315 316 316 316 316 316 316 317 319 319 317 317 319 320 321 321 321 322 321 320 319 318 318 318 317 316 316 317 318 317 317 317 316 314 313 311 310 310
326 324 321 321 321 319 319 321 321 318 314 314 318 322 322 320 320 318 312 308 306 306 306 305 309 315 314 312 313 315 316 316 317 319 320 319 318 318 319 320 318 318 319 319 319 319 319 318 318 317 316 315 315 316 316 315 316 315 314 313 311 310 310
327 325 323 322 322 321 319 319 320 319 316 317 320 323 322 320 320 317 310 307 307 308 308 306 307 311 309 308 311 314 316 316 317 319 319 319 319 316 317 318 316 315 316 316 318 320 319 319 318 317 316 315 315 315 315 314 314 314 314 313 312 311 311
327 325 324 324 323 321 319 319 320 320 319 319 320 322 321 320 320 316 308 306 308 308 307 305 307 309 308 309 311 312 314 316 317 318 318 318 319 317 316 316 316 316 315 315 318 320 320 319 318 317 317 317 316 315 315 315 314 314 313 313 313 312 311
327 325 324 324 324 322 319 319 321 321 321 320 319 320 321 320 319 314 309 308 308 307 307 307 309 310 309 310 311 311 313 314 315 317 317 317 318 318 317 316 315 315 315 316 317 319 320 320 319 318 318 317 316 315 314 314 314 314 314 314 314 313 312
327 326 324 324 324 323 320 320 320 319 319 320 318 317 319 320 318 314 311 311 310 309 310 311 311 312 311 312 313 313 313 313 314 315 315 316 317 317 318 317 316 314 314 316 317 317 318 318 319 319 319 318 317 317 315 314 314 315 315 315 314 314 314
326 325 323 324 324 323 321 320 320 317 317 317 316 315 318 318 317 316 313 313 313 312 312 313 314 315 315 316 316 316 315 315 315 315 315 317 317 316 317 317 316 315 315 316 316 315 314 315 316 317 318 318 318 318 317 316 315 315 315 315 315 315 315
325 323 323 324 324 323 321 321 319 316 316 317 315 315 317 316 316 316 315 314 315 314 313 314 315 316 318 318 317 317 316 315 316 316 316 317 317 317 318 317 316 316 315 316 316 314 313 314 314 314 315 315 316 317 318 318 317 316 315 315 316 315 315
324 323 324 324 323 322 322 320 318 317 318 319 318 317 316 316 316 316 315 316 315 313 313 315 315 316 318 318 317 316 316 316 318 318 317 318 318 318 318 318 317 317 316 315 315 314 314 313 313 315 315 313 313 314 316 317 318 317 316 316 316 315 315
324 324 324 323 322 322 322 320 318 317 319 320 319 318 318 317 316 316 315 316 313 310 311 313 314 315 317 317 317 317 316 317 319 319 319 318 318 317 318 318 317 316 315 315 315 315 315 314 314 315 314 313 313 314 315 316 318 318 317 316 316 315 316
323 324 323 322 321 321 321 321 320 318 319 320 318 317 318 318 317 316 317 317 313 310 312 314 315 316 317 317 318 318 318 317 318 319 320 319 319 318 319 319 318 317 316 316 316 316 315 315 315 315 314 313 313 315 315 317 319 319 317 316 316 316 316
322 323 322 322 322 321 320 320 320 319 319 319 316 314 316 318 317 316 318 318 314 312 314 316 317 317 317 318 318 318 319 319 318 319 320 320 320 321 321 320 319 318 318 317 317 317 316 315 315 315 315 315 314 315 315 316 318 319 317 316 316 316 316
322 321 321 321 320 319 319 319 319 319 319 319 317 314 314 315 315 314 316 318 316 314 315 316 317 317 317 318 318 318 320 321 320 320 321 321 322 322 322 322 320 319 318 318 318 317 317 316 315 314 315 316 316 316 314 315 316 316 317 317 316 317 316
321 320 320 319 318 318 317 316 317 318 318 318 318 317 314 313 314 314 315 316 316 315 315 315 316 316 317 318 318 318 319 320 320 320 321 321 322 322 323 322 322 321 320 318 318 318 317 316 315 315 315 316 317 317 316 315 315 314 315 316 318 318 318
321 321 321 319 317 316 316 314 314 316 317 318 319 318 317 316 315 315 315 315 316 316 316 316 317 317 318 318 318 318 318 319 318 318 318 318 318 320 321 321 321 322 321 320 318 318 318 316 315 315 315 316 317 318 318 317 315 315 315 316 317 318 318
321 321 321 320 318 317 317 316 316 316 316 317 318 319 318 317 317 317 316 316 316 317 317 317 318 318 318 318 318 317 317 316 317 317 318 317 317 318 319 319 319 320 321 320 318 318 318 317 316 315 315 316 317 318 319 318 316 316 316 316 316 317 317
320 321 321 320 320 320 319 319 320 319 319 319 319 319 319 318 318 317 318 317 317 317 317 318 318 318 318 317 316 314 313 313 314 314 315 316 317 317 318 318 318 319 319 319 319 318 318 317 316 315 315 315 316 317 318 318 318 317 317 316 316 316 316
319 319 319 319 320 320 319 320 320 320 320 320 320 319 319 319 319 318 318 318 318 318 317 317 317 317 316 316 315 313 312 312 313 314 315 316 317 317 317 317 318 318 319 320 319 318 318 317 316 315 316 316 316 317 318 318 318 318 317 317 316 316 316
318 318 318 318 319 319 319 320 320 320 320 320 320 320 320 320 320 319 319 318 319 318 318 318 317 318 317 317 316 316 315 316 316 317 319 319 319 318 318 318 318 318 319 319 319 318 318 318 316 316 316 317 316 317 317 318 317 316 316 316 317 316 316
316 317 317 316 317 317 317 318 318 319 319 319 319 319 320 320 320 319 319 319 319 318 318 318 318 319 318 318 318 318 318 318 318 318 319 320 320 319 319 319 318 318 319 319 318 317 317 317 316 317 318 318 317 317 317 317 316 315 315 316 316 316 316
313 313 314 314 314 314 315 315 315 316 316 316 317 317 318 318 318 318 318 318 317 317 317 317 318 318 318 318 318 318 317 317 317 316 317 318 319 319 319 318 317 316 317 317 316 316 316 316 316 317 317 317 317 317 316 316 315 315 315 315 315 315 315
309 310 310 310 311 312 312 312 313 313 313 314 314 315 315 315 316 316 316 316 315 315 315 315 316 316 317 316 316 316 316 316 317 316 316 317 318 318 318 317 317 316 316 316 315 315 315 316 316 316 315 315 316 315 313 313 313 313 313 313 313 313 312
308 309 309 309 309 310 310 311 311 311 311 311 312 312 312 313 313 313 313 313 313 313 313 313 314 314 314 314 314 314 314 314 315 315 315 315 316 316 317 317 316 316 316 315 315 315 315 314 315 315 315 315 314 313 311 308 309 310 312 312 312 312 311
307 307 308 307 308 308 308 308 308 309 309 309 309 310 310 310 310 310 311 311 311 311 311 311 311 312 311 312 312 312 312 312 312 313 313 312 312 312 312 312 312 314 315 315 314 314 313 313 314 315 315 314 312 310 307 305 306 308 311 311 310 309 308

ECMWFFLT1_850_thetae_084.txt.gz
Theta_e
332 332 333 332 329 330 330 329 329 330 329 329 330 330 331 332 330 329 330 330 330 329 328 329 330 331 331 329 329 329 329 331 330 329 330 330 328 328 328 328 328 328 328 329 329 328 327 328 328 328 328 328 328 327 327 327 327 326 326 325 325 326 325
332 332 332 331 329 330 329 328 328 329 328 330 330 331 332 331 329 329 329 329 329 329 329 329 330 330 330 329 329 329 329 330 329 328 330 329 328 328 327 328 328 328 329 329 329 329 328 328 328 328 328 327 328 327 327 327 326 326 326 325 325 324 324
332 331 331 330 329 330 329 328 327 325 325 327 329 330 331 331 329 329 329 329 329 329 329 330 329 329 330 329 329 329 328 329 328 327 328 329 328 328 327 328 329 328 328 329 329 329 329 328 328 327 327 327 327 326 326 326 326 326 325 323 323 322 323
331 330 330 330 329 329 328 328 328 326 325 326 328 330 332 331 329 329 330 330 329 329 329 329 329 329 329 328 328 329 328 328 327 326 327 327 327 329 328 328 329 328 328 328 328 328 328 329 328 328 327 327 326 326 326 326 326 325 323 322 322 321 321
331 329 328 329 328 327 328 328 329 329 329 329 330 331 331 331 330 330 330 330 329 329 328 327 328 328 327 327 327 328 328 327 326 325 326 326 327 328 327 327 328 328 329 328 327 327 328 328 328 328 327 326 325 326 326 326 324 323 321 320 320 321 318
331 329 329 328 325 325 327 328 328 329 330 331 331 331 331 330 329 328 328 328 327 327 328 327 327 327 326 326 327 328 328 326 324 325 325 325 327 327 326 326 327 327 328 329 328 328 328 328 327 327 326 325 325 325 325 325 322 320 318 316 317 317 314
331 329 328 327 324 324 324 325 327 329 330 331 331 331 330 328 328 327 327 327 326 325 326 326 326 326 326 327 327 329 329 326 325 325 324 324 325 325 324 325 326 327 327 328 328 328 327 328 327 326 326 325 324 325 325 324 321 318 316 313 312 313 312
330 328 327 326 324 324 325 325 328 330 330 330 330 329 328 327 327 327 327 327 326 324 322 322 321 322 326 327 325 328 329 327 326 326 325 324 324 324 325 326 326 326 326 326 326 326 326 327 327 327 325 325 324 324 324 323 320 317 315 313 310 312 313
328 327 327 326 324 325 327 328 329 330 329 329 329 327 328 328 326 326 326 324 323 322 319 320 321 322 326 326 323 325 327 327 327 326 325 325 324 324 325 326 326 325 326 326 326 326 326 326 327 326 325 324 324 324 323 322 320 316 315 314 311 313 313
327 327 327 326 325 326 328 329 329 329 329 329 328 327 328 327 324 325 324 320 320 321 321 323 324 323 326 325 323 326 326 325 327 326 324 325 325 326 327 326 326 326 326 326 326 326 326 326 326 326 325 325 324 323 322 321 318 316 316 315 312 313 313
327 327 326 325 326 327 327 328 328 328 328 328 327 327 327 325 323 324 321 317 319 321 322 325 324 323 325 325 325 326 323 322 324 324 324 325 325 327 328 327 327 327 326 326 326 326 326 326 327 326 326 326 324 323 322 319 317 316 316 315 313 314 312
327 326 323 323 324 326 327 328 327 328 328 327 325 325 325 323 321 320 317 315 317 320 323 325 323 323 325 324 324 325 323 323 324 322 321 323 325 327 328 328 328 328 327 326 326 326 326 326 326 325 325 325 324 323 321 319 317 316 316 316 314 315 313
325 324 322 322 322 325 327 327 327 328 327 325 323 324 325 324 320 317 315 315 316 319 322 322 322 323 324 323 323 323 323 323 323 322 321 322 324 326 327 327 328 328 327 327 327 325 324 324 323 323 323 324 324 323 321 319 317 316 316 316 314 314 312
325 323 322 321 321 323 327 326 325 326 325 324 324 326 327 325 321 317 316 319 321 320 319 320 322 322 321 321 322 321 320 320 322 323 323 323 323 324 325 327 328 328 327 327 326 324 322 322 322 322 321 322 322 323 322 319 318 316 316 316 315 313 312
326 324 323 322 322 325 326 325 323 323 324 325 326 327 327 324 321 319 320 321 323 321 320 320 320 320 320 320 320 318 318 320 322 322 323 323 322 322 324 327 328 327 326 326 324 322 321 321 320 320 320 321 320 321 321 319 318 316 315 315 314 313 312
326 326 324 324 325 326 326 326 324 323 324 326 326 327 326 322 320 320 320 320 320 320 321 319 319 320 320 318 318 318 320 321 322 322 323 324 323 323 324 325 326 326 324 323 322 321 320 319 319 318 318 320 319 319 320 319 318 316 315 314 314 313 312
326 326 325 325 326 326 325 326 325 325 325 326 326 326 324 322 321 320 319 318 318 319 319 318 319 320 318 317 318 319 321 321 321 322 322 322 323 323 322 322 324 324 322 321 321 320 318 318 318 317 316 318 318 318 319 319 318 317 315 314 313 313 313
326 326 326 326 326 326 326 326 325 325 326 326 326 325 323 321 321 319 317 317 317 319 318 318 319 318 316 318 319 319 320 320 321 322 322 321 322 322 321 321 323 323 321 321 321 320 318 319 319 316 316 317 316 317 319 318 318 318 316 315 313 313 313
325 324 326 327 326 326 326 325 324 324 325 326 325 324 322 322 320 317 316 317 318 318 318 317 318 316 316 318 318 318 320 320 320 321 321 320 320 321 321 321 322 321 320 321 322 320 319 319 319 317 317 316 315 316 317 316 317 317 316 315 313 313 313
323 322 324 326 326 326 325 323 322 323 324 325 325 323 322 321 319 316 316 317 317 317 316 316 316 316 316 318 318 318 319 320 320 320 319 320 320 320 320 321 321 321 319 320 321 321 321 320 319 318 318 317 317 316 315 315 316 316 315 315 314 312 313
323 323 324 325 325 325 325 323 323 322 322 324 324 324 322 320 317 316 316 317 316 316 316 316 316 316 317 317 318 318 318 319 319 318 319 319 318 319 319 319 320 320 319 320 320 320 321 320 320 320 319 318 318 317 316 315 316 316 316 316 315 314 314
323 324 325 325 325 325 324 324 323 322 322 322 322 323 322 319 317 316 316 316 316 316 317 317 317 318 318 319 319 319 319 320 319 319 320 320 319 319 319 319 319 319 319 320 320 320 320 319 319 320 319 318 319 319 318 317 316 316 316 316 316 316 316
322 325 326 325 324 324 324 323 323 323 323 322 320 321 322 319 317 316 316 316 317 317 318 318 318 320 321 321 321 321 321 322 322 322 322 322 321 321 321 320 320 320 319 319 319 319 319 318 319 319 319 318 318 319 319 318 317 317 317 317 317 317 316
323 324 325 325 324 324 323 323 323 322 322 321 320 321 321 319 318 317 316 317 318 318 319 319 319 320 322 322 322 323 323 322 322 322 322 323 323 322 322 321 321 321 320 319 318 317 317 317 317 318 318 319 319 319 318 319 318 318 318 318 318 318 317
325 325 325 324 324 324 323 323 322 322 321 320 320 320 320 319 318 318 317 318 319 319 319 320 320 320 322 323 323 322 323 323 323 322 322 322 321 322 322 321 321 320 319 318 317 316 316 315 315 315 316 316 317 318 318 318 318 318 318 319 318 318 318
327 326 325 324 324 324 323 322 322 322 321 321 320 320 320 319 318 318 318 319 320 319 319 320 320 320 321 322 323 322 322 323 323 322 322 321 321 321 321 321 321 319 318 318 317 316 316 315 316 317 317 316 315 315 316 317 316 316 316 317 318 318 318
325 325 324 324 324 323 321 321 322 322 321 320 320 319 320 320 319 319 319 320 320 320 319 318 318 319 320 321 322 321 321 321 322 322 322 320 320 320 320 320 320 319 319 318 317 316 316 315 316 317 318 319 318 316 315 316 315 315 315 315 315 316 317
322 322 322 323 323 321 318 319 321 320 320 320 319 319 320 320 319 319 320 320 321 321 320 317 315 316 317 318 318 318 317 318 319 320 321 321 320 320 320 320 319 318 319 318 317 316 316 316 316 316 317 319 320 319 318 317 316 316 315 315 315 314 314
320 320 321 322 322 319 316 317 319 319 318 318 317 318 319 320 320 319 319 320 320 320 321 319 317 316 315 314 314 314 314 315 316 317 318 319 319 318 319 319 319 319 319 319 318 317 316 315 316 316 316 318 320 320 319 318 317 317 316 317 316 316 316
320 319 319 321 321 319 317 319 320 318 317 317 316 314 315 317 318 319 320 320 320 319 318 317 316 316 315 314 314 314 314 315 317 317 318 318 318 318 318 319 319 318 317 317 318 318 316 316 316 316 316 317 319 320 319 318 318 317 316 316 316 316 317
321 321 320 320 320 319 319 320 319 317 317 318 316 313 311 311 312 315 317 317 315 314 313 313 313 313 313 314 314 314 315 316 317 317 317 317 318 318 317 317 317 317 316 317 317 317 316 316 317 317 316 317 319 320 319 319 318 318 317 316 316 316 316
320 321 321 321 320 319 319 319 318 317 317 318 317 315 314 313 313 312 312 310 310 310 310 311 311 311 312 314 315 315 315 315 316 317 317 317 318 318 318 318 318 318 318 317 318 318 317 317 318 318 317 317 319 320 319 319 318 318 318 317 316 316 317
317 318 319 320 320 319 319 319 317 316 317 318 318 317 316 316 316 315 312 311 311 313 314 313 314 314 315 315 316 316 316 316 316 317 317 317 318 319 319 318 318 317 317 316 316 316 316 316 317 317 317 317 318 318 318 318 317 317 317 318 317 316 316
315 315 315 316 317 317 318 318 318 316 317 318 317 317 317 317 316 315 312 312 312 313 315 316 316 316 316 316 317 317 317 318 318 318 318 317 318 318 318 317 317 317 316 315 314 313 313 313 314 314 315 316 316 316 316 316 316 316 316 316 316 316 315
313 314 314 314 314 315 315 317 317 317 317 317 317 317 317 317 317 316 315 314 314 314 315 315 315 316 315 316 316 317 317 317 316 316 315 315 316 317 317 316 317 316 315 314 313 312 311 311 311 311 311 312 313 315 315 315 315 315 315 315 316 316 316
312 312 313 314 314 313 313 314 315 314 315 316 316 316 316 316 317 317 316 316 315 314 314 313 313 312 313 313 313 313 313 312 312 313 312 312 313 314 315 315 316 315 315 314 313 311 310 310 310 310 309 310 311 313 314 315 314 314 314 315 315 316 316
309 309 310 310 311 311 312 312 312 312 313 313 314 314 315 316 316 316 316 315 314 314 313 312 310 310 309 310 309 309 309 309 309 308 308 308 309 309 310 311 312 312 312 311 310 309 308 308 308 308 308 308 309 311 313 314 314 313 313 313 313 314 314

ECMWFFLT1_850_thetae_087.txt.gz
Theta_e
330 332 332 331 331 330 331 331 330 330 329 327 327 328 329 329 329 328 328 329 329 329 328 326 327 328 328 328 329 330 331 331 330 329 328 327 327 329 328 327 327 327 327 327 326 326 327 328 328 328 327 327 327 327 327 327 326 326 326 325 325 325 325
331 332 332 332 331 330 330 331 330 329 327 327 329 329 329 330 329 328 328 329 330 329 328 328 328 328 328 329 329 329 330 331 330 329 328 328 327 328 327 326 327 328 328 328 327 326 326 327 327 328 328 327 327 327 327 327 326 326 325 325 325 325 324
331 332 332 332 331 330 330 330 328 328 327 328 329 329 330 330 328 327 327 328 330 329 329 329 329 330 330 330 330 329 330 330 329 328 328 328 328 328 327 327 327 328 328 328 327 327 326 326 326 327 327 327 327 327 327 326 326 325 325 325 325 324 324
332 332 331 332 331 330 330 329 328 329 328 328 329 330 330 329 326 327 327 328 329 329 329 329 329 329 329 329 329 329 329 330 329 328 328 328 328 328 327 327 327 327 328 328 328 328 326 326 326 327 327 327 326 326 326 325 325 324 324 324 323 322 322
332 331 331 331 330 330 330 328 328 329 328 329 329 328 329 328 326 327 326 327 329 329 329 329 329 328 329 328 329 329 328 329 328 327 327 328 328 328 328 328 328 327 328 328 328 328 327 327 326 326 327 326 326 326 325 324 323 323 323 322 322 321 320
331 330 330 331 330 330 329 328 328 328 327 327 328 327 328 328 327 327 327 328 329 328 327 328 328 327 327 326 327 327 327 328 328 327 327 327 327 328 328 328 328 328 328 328 328 328 328 327 326 326 326 326 325 325 323 323 323 323 322 321 321 320 318
331 330 330 330 329 329 328 328 328 327 327 327 328 329 329 329 328 328 329 328 328 327 326 327 327 326 326 326 326 326 326 326 326 326 326 326 326 328 328 328 328 328 328 327 327 328 328 327 327 326 326 325 325 324 323 323 323 321 319 319 320 319 314
331 330 330 329 328 327 328 328 328 329 329 329 329 330 329 329 328 328 327 327 327 327 327 327 327 325 325 326 327 327 326 325 324 324 325 325 326 327 326 327 327 327 328 327 327 328 328 327 327 326 325 325 325 323 321 321 319 317 317 316 315 315 312
331 330 329 328 326 326 327 327 329 331 330 329 330 330 329 328 327 326 325 325 325 326 326 326 326 325 324 324 325 327 327 325 325 324 324 324 325 325 325 326 327 327 327 327 327 328 327 327 327 326 325 324 324 322 319 319 317 314 314 314 313 312 310
331 330 329 327 325 325 326 327 330 331 330 329 329 328 327 326 326 325 324 322 321 321 320 322 325 326 325 324 324 326 326 326 326 324 324 324 324 324 326 326 327 327 327 326 327 327 327 327 326 326 324 323 324 321 319 318 316 313 312 313 313 313 311
330 330 328 326 325 325 327 329 330 330 329 328 328 327 327 326 324 324 321 319 319 319 319 322 325 326 325 323 323 324 324 325 325 324 324 324 324 325 326 326 326 326 326 326 326 327 327 327 326 325 324 323 323 322 320 318 314 312 312 312 313 315 314
330 329 328 326 326 327 329 329 329 329 329 328 328 328 327 325 324 323 322 320 322 323 323 324 326 325 324 323 322 321 321 321 322 323 324 325 325 326 326 326 326 327 326 326 326 326 326 326 326 325 324 324 323 321 320 317 314 313 314 313 314 316 315
329 329 328 327 327 329 329 329 329 329 329 328 328 327 326 325 325 323 321 322 324 325 324 324 325 325 324 323 323 322 321 320 319 320 324 325 326 327 327 327 327 327 326 326 326 326 326 326 326 325 324 324 323 321 319 318 316 315 314 315 316 316 314
328 328 328 328 328 329 329 328 328 328 328 327 326 325 325 325 324 320 317 321 325 325 323 324 325 324 323 322 321 322 322 321 321 322 323 325 327 327 327 327 327 327 326 326 326 326 326 326 325 325 325 324 323 322 320 317 316 316 315 315 316 316 314
327 327 327 327 328 328 328 328 328 327 326 324 324 325 325 323 320 315 315 321 324 324 323 323 323 322 322 322 321 320 321 323 323 322 322 324 326 327 326 327 327 327 326 326 325 324 323 322 322 322 323 323 323 322 320 318 317 317 316 315 315 316 315
326 325 324 325 327 328 327 328 327 324 322 322 326 327 324 320 318 316 317 320 321 322 322 321 321 320 321 321 319 319 321 322 322 322 322 323 324 326 326 327 327 326 326 324 322 321 322 321 321 321 319 319 321 322 321 319 318 317 316 316 315 315 314
324 323 322 324 325 326 326 325 323 321 319 323 327 327 322 319 319 320 320 319 319 320 320 320 320 319 319 319 319 320 322 321 321 322 323 323 323 324 325 326 326 325 324 322 320 320 321 321 321 321 320 318 318 321 321 320 319 318 316 316 315 314 314
324 323 323 324 325 326 325 322 321 319 319 323 326 326 322 320 320 320 319 318 319 319 318 319 319 318 317 318 320 321 322 321 321 322 323 322 322 321 321 324 324 323 322 321 320 320 320 320 319 319 320 319 317 319 320 320 319 318 316 316 315 314 313
325 325 325 325 326 326 325 324 323 321 320 323 326 325 322 320 319 319 317 318 319 318 319 320 318 316 318 319 319 320 321 321 322 322 322 321 321 321 321 322 322 321 322 321 320 320 319 319 318 318 319 319 317 318 319 319 319 317 316 316 314 313 313
326 325 326 326 326 326 325 325 323 322 322 326 326 323 322 320 318 317 317 318 318 317 318 318 315 316 318 318 318 320 320 321 321 320 320 320 321 321 322 322 321 321 321 321 320 320 319 319 319 318 318 317 316 318 319 319 318 317 317 316 314 313 313
325 325 326 326 326 326 325 324 323 323 325 326 324 322 321 318 316 316 317 317 317 317 317 316 315 317 318 318 319 320 320 320 320 319 319 319 319 321 321 321 320 319 320 320 321 321 320 320 319 318 318 316 316 317 318 317 317 317 317 316 314 313 312
326 326 326 326 326 326 325 324 324 325 325 324 323 322 320 317 316 317 317 316 316 316 316 316 316 317 318 318 319 319 319 319 319 319 318 319 319 320 320 320 320 319 319 320 320 320 320 319 319 319 319 318 316 316 315 316 318 318 316 315 315 314 312
326 326 326 326 326 325 323 323 323 324 324 323 323 321 318 316 316 317 316 316 316 316 316 316 317 317 317 318 318 319 319 318 319 320 319 318 319 319 319 319 320 320 320 320 319 319 319 318 318 318 319 319 318 317 316 316 317 318 317 316 316 315 313
326 326 326 325 325 324 323 322 322 323 323 323 323 320 316 316 316 316 316 315 316 317 317 317 318 318 318 319 319 320 320 320 321 322 321 319 319 320 320 320 320 320 320 320 319 319 318 318 318 317 318 318 318 318 318 317 317 317 318 318 318 318 316
325 325 325 325 324 324 323 323 323 322 320 321 322 320 316 317 317 316 316 316 316 317 318 318 320 320 321 321 321 322 322 322 322 322 322 322 321 320 321 321 320 319 319 319 319 318 317 317 317 316 316 316 317 318 318 318 318 318 318 318 318 319 318
325 325 325 325 324 323 322 323 322 321 320 320 321 319 317 318 318 316 316 317 317 318 319 319 320 321 322 322 322 322 322 322 322 322 322 322 321 320 320 320 319 318 318 318 318 317 317 316 316 316 315 315 316 316 316 316 317 318 318 318 318 318 318
325 324 324 324 324 323 322 322 321 320 320 320 320 320 318 318 319 318 318 318 318 317 319 320 320 321 322 323 322 322 322 322 322 322 321 321 320 319 318 318 318 318 318 318 317 316 316 316 315 316 316 317 317 316 316 315 315 315 316 316 317 316 316
325 324 324 324 323 322 321 322 321 320 320 320 319 320 318 318 319 319 319 319 319 318 319 319 320 320 321 322 322 322 321 320 320 320 320 320 320 319 318 318 317 317 317 317 317 316 316 315 315 315 315 316 317 317 316 316 316 315 315 316 316 316 315
325 324 324 324 323 322 321 322 321 320 320 320 320 320 319 318 319 319 319 320 319 319 319 317 317 318 319 319 320 319 317 316 316 317 317 317 318 318 317 316 315 315 316 316 316 316 315 315 316 316 315 315 316 317 316 316 316 315 316 317 317 317 317
322 323 323 324 323 322 320 320 320 319 319 319 319 319 318 318 319 319 319 320 320 320 319 316 315 315 315 315 315 314 314 314 315 316 317 318 318 318 317 316 315 315 316 316 315 315 315 316 316 316 316 316 316 316 316 316 316 315 316 317 318 318 318
319 321 322 322 322 320 318 317 317 316 317 318 318 318 319 319 319 320 320 320 320 320 319 318 316 315 314 314 313 313 313 313 314 317 318 319 319 318 317 317 317 317 317 317 317 317 317 317 317 317 316 316 317 316 316 316 316 316 316 318 318 319 318
319 320 320 320 321 319 317 318 318 317 317 318 316 317 318 318 317 318 319 319 318 317 316 314 313 312 313 313 313 313 312 312 314 316 318 318 317 317 317 317 318 318 317 317 317 317 317 317 317 316 316 316 316 316 316 316 316 316 316 317 318 318 317
319 319 320 319 319 319 318 318 319 318 318 317 315 313 314 314 314 314 315 315 314 313 313 313 313 313 313 313 313 313 313 314 316 318 318 318 318 317 317 318 318 317 316 316 316 316 315 314 313 313 313 313 314 314 314 315 315 316 316 316 316 316 315
317 317 318 318 318 319 319 318 317 317 318 317 315 314 315 315 315 314 314 314 314 314 314 314 314 314 314 314 315 316 316 317 318 318 318 318 318 318 318 317 317 316 316 315 315 314 313 311 311 310 310 310 310 310 311 311 312 313 314 315 315 315 315
314 314 315 316 317 318 317 317 317 317 317 317 317 317 317 317 317 316 316 315 315 314 314 314 314 314 314 315 316 316 317 317 317 317 316 316 317 317 317 316 316 316 315 315 314 313 312 311 310 309 309 308 309 309 309 309 309 311 312 314 314 314 314
312 312 312 313 314 314 315 316 316 317 317 317 317 318 318 318 317 316 315 314 314 314 314 314 314 314 314 314 314 314 314 314 314 313 313 313 313 313 313 313 313 313 313 312 312 311 310 309 308 308 307 307 307 307 308 308 308 309 310 311 311 311 312
312 312 311 311 311 311 312 313 315 316 316 317 317 317 317 317 316 315 314 313 313 313 312 312 312 312 312 312 311 311 311 311 311 310 310 310 310 309 309 309 309 309 308 307 307 306 306 306 306 306 306 306 306 307 307 307 307 307 307 308 309 310 310

ECMWFFLT1_850_thetae_090.txt.gz
Theta_e
332 331 330 330 331 330 330 331 330 330 329 329 330 329 329 329 327 326 327 328 328 329 329 329 329 328 328 329 328 328 329 329 329 329 328 327 327 328 328 327 327 328 328 327 326 326 327 327 327 327 328 327 327 327 327 327 326 326 326 326 325 325 325
332 332 330 331 330 330 330 331 330 330 329 329 329 329 329 329 326 326 327 328 328 329 329 329 328 328 328 329 328 328 329 329 329 329 328 327 326 327 327 327 327 327 328 327 327 326 326 326 325 326 327 327 327 328 327 327 326 326 326 325 325 325 324
333 333 332 331 331 330 331 331 330 330 329 329 328 328 329 328 327 327 327 328 329 329 329 328 328 328 328 328 328 329 329 329 330 329 328 328 327 326 327 327 326 326 327 327 327 326 326 325 325 325 326 326 327 327 327 327 326 325 325 325 325 324 323
333 333 333 332 331 331 330 330 330 329 329 328 327 328 329 329 329 328 327 328 329 329 328 327 327 328 329 329 328 328 328 328 329 329 329 329 327 327 328 327 326 326 326 327 327 326 326 325 324 325 325 325 326 327 327 327 325 324 325 324 324 323 322
332 333 333 332 331 331 331 330 330 329 329 328 327 328 329 329 329 328 328 329 329 329 327 326 328 328 328 328 328 327 327 328 328 328 328 329 328 328 328 327 326 326 326 327 327 326 326 325 325 325 325 326 326 326 326 326 325 324 324 323 322 321 321
331 331 332 332 331 330 330 330 329 328 328 327 328 329 329 329 329 328 328 329 329 329 327 327 329 329 328 328 327 327 327 327 328 327 327 328 328 328 328 327 327 327 327 327 327 327 326 326 325 325 326 326 326 325 326 325 325 324 323 322 321 320 319
329 329 330 332 331 331 330 330 328 328 328 328 328 329 329 330 328 327 328 327 328 328 328 329 329 328 328 327 326 328 328 328 328 327 327 328 328 328 328 327 327 327 327 328 328 328 327 326 326 326 326 325 325 325 325 324 324 324 322 321 320 319 318
327 327 328 329 331 331 331 329 328 328 328 327 328 328 329 329 328 327 328 327 327 328 328 329 328 327 327 326 326 327 327 327 328 327 326 327 327 327 328 328 328 328 327 328 328 328 327 327 327 326 325 325 325 324 324 324 324 323 322 321 319 318 316
326 326 327 327 328 331 330 329 328 328 326 326 327 328 328 328 327 327 328 327 327 327 326 326 326 325 326 325 326 326 326 326 326 325 326 326 326 327 328 327 327 328 327 327 327 327 327 328 327 326 325 324 324 324 324 324 324 323 321 319 317 316 314
325 327 327 325 327 330 330 329 328 328 326 326 327 328 328 328 328 328 328 327 327 325 324 324 323 324 325 326 326 325 325 324 324 324 325 325 325 326 327 326 326 327 327 327 327 327 327 327 327 327 326 325 324 324 324 324 323 322 320 317 315 315 314
326 327 327 325 327 329 329 329 329 329 328 327 328 329 329 328 328 327 327 327 326 324 324 324 323 323 324 324 325 326 325 324 324 324 324 324 324 326 326 326 325 326 327 327 327 327 327 327 327 327 326 325 324 323 323 323 322 320 318 316 314 315 315
328 328 327 327 328 329 329 328 329 330 330 329 329 329 328 326 325 325 326 327 326 326 325 324 323 323 322 323 325 326 325 324 324 324 324 324 324 324 325 325 326 327 327 327 326 327 327 327 327 326 325 325 324 323 322 322 321 318 316 316 314 314 315
328 328 328 329 328 328 328 328 329 331 330 329 329 327 326 325 324 325 325 324 325 326 325 323 323 323 323 323 324 325 325 324 324 324 324 324 324 324 325 326 326 326 326 326 326 326 327 327 326 326 325 324 323 323 321 321 320 318 316 315 314 314 315
329 329 329 329 329 328 328 329 330 329 329 329 328 327 326 325 325 324 321 319 321 323 323 323 324 324 322 321 322 323 323 323 323 324 324 325 325 326 326 326 325 326 326 326 326 326 326 326 326 325 324 324 323 323 321 320 319 317 316 315 313 314 316
330 330 329 328 327 327 328 330 329 329 329 328 328 327 327 325 324 322 320 319 322 324 325 324 324 324 321 319 319 320 320 321 322 324 325 325 326 326 326 326 326 326 326 326 326 326 326 326 325 324 324 324 323 322 320 320 319 317 316 316 315 315 316
330 330 329 327 327 327 329 329 328 327 327 327 328 327 325 323 322 322 323 324 324 325 325 325 324 323 321 320 320 321 321 321 321 323 326 327 326 326 326 326 326 326 326 326 326 326 325 325 324 324 324 324 323 323 321 320 320 318 317 317 316 315 315
330 330 329 328 327 327 328 329 328 326 325 327 327 326 324 324 323 322 325 326 324 324 324 325 324 322 321 321 322 322 323 322 320 321 324 326 326 326 326 327 327 326 325 326 325 325 324 323 323 324 324 324 323 323 322 322 321 319 318 318 317 316 315
330 329 329 328 328 328 328 328 327 327 326 326 326 325 324 322 319 321 325 325 323 323 323 323 322 321 320 320 320 321 322 322 321 320 322 324 326 326 326 327 326 325 324 324 324 323 323 322 322 322 322 322 322 323 323 322 321 319 318 318 317 316 315
329 328 328 328 328 327 327 326 326 326 325 325 326 325 321 318 318 321 324 324 323 322 322 321 321 320 320 320 320 321 321 321 322 321 321 321 323 325 326 326 326 324 323 323 322 322 322 321 320 320 320 320 321 323 323 322 321 320 319 319 317 316 315
327 328 328 328 327 326 326 326 325 324 325 326 327 324 319 319 320 319 320 321 322 321 321 320 319 319 320 321 321 321 321 322 322 322 322 321 321 323 325 325 324 323 322 321 321 320 320 319 319 318 318 319 320 321 321 321 321 320 319 319 317 316 315
326 327 327 327 326 324 324 325 324 324 326 327 326 322 319 320 320 318 318 319 320 320 320 319 318 319 319 320 321 321 321 322 322 321 321 321 320 322 323 323 323 322 321 321 320 320 320 319 318 317 318 319 320 320 320 320 320 319 319 318 317 316 315
326 327 326 326 325 323 323 323 323 324 326 326 324 321 319 319 318 318 319 318 319 319 319 318 318 318 319 320 320 321 321 321 321 320 319 320 320 320 321 320 321 321 321 321 320 320 321 320 319 318 318 318 319 319 319 320 320 319 319 318 317 315 314
326 327 326 326 325 325 325 323 323 324 325 325 322 320 319 319 317 317 318 318 318 317 317 317 318 318 319 320 320 320 320 320 320 319 318 319 320 320 319 319 319 319 320 320 320 320 320 319 319 319 318 318 318 317 318 319 320 319 318 317 316 315 314
326 326 326 326 325 325 324 323 323 325 325 324 322 320 318 317 316 317 317 317 317 316 316 317 318 318 319 319 319 319 319 319 319 319 319 319 320 319 319 319 319 318 318 318 318 318 318 318 317 317 317 317 318 318 318 318 318 318 317 316 315 315 315
326 326 325 325 324 324 324 324 324 325 324 323 321 319 317 316 316 317 317 316 316 316 316 317 317 318 318 319 319 318 319 319 319 318 319 319 319 319 319 319 320 319 319 319 319 318 318 318 317 317 316 316 316 317 317 318 318 318 317 317 317 317 317
326 325 324 324 323 323 323 324 325 324 323 322 321 319 317 316 316 316 316 316 316 316 316 317 317 317 318 319 319 318 320 321 321 320 320 320 320 320 321 321 320 319 319 319 319 318 318 318 317 316 316 315 315 315 316 316 316 317 317 317 318 318 318
325 324 324 323 323 322 323 323 324 324 323 322 321 318 317 317 316 316 316 316 316 317 317 317 318 318 319 320 321 320 321 322 322 321 322 321 320 320 320 320 320 319 318 318 318 317 316 316 316 316 315 315 315 315 315 316 316 316 316 316 316 317 317
325 325 324 323 323 322 322 323 323 323 322 322 320 318 317 317 317 316 316 316 317 319 320 320 320 320 320 321 321 321 322 322 322 321 321 321 320 319 319 318 318 318 318 317 316 316 316 315 315 314 314 314 315 315 315 316 317 317 316 316 315 316 317
324 324 323 323 322 322 322 322 321 321 321 321 320 318 318 318 318 317 317 317 318 319 320 321 322 322 322 322 322 322 321 321 321 321 320 320 319 319 318 317 317 316 316 315 315 315 314 313 313 312 313 314 315 316 316 316 317 317 317 317 317 317 318
323 323 323 322 321 321 321 320 320 320 320 320 320 319 319 320 319 319 319 319 319 319 320 320 321 322 322 322 322 322 321 320 319 318 316 316 316 316 316 316 315 315 314 313 313 313 313 313 313 314 314 315 316 316 316 316 317 317 317 317 317 317 318
322 322 322 322 320 320 320 320 320 320 320 319 320 319 320 320 320 320 320 319 319 318 318 318 318 319 320 320 320 319 318 317 315 314 312 313 314 315 316 316 315 314 314 314 315 315 315 315 316 317 317 317 317 317 317 317 317 317 317 317 317 317 317
321 321 321 321 320 320 319 319 319 319 319 319 320 320 320 320 320 320 319 319 319 318 317 317 316 316 316 316 315 315 314 314 313 312 312 312 313 314 316 316 316 316 316 317 316 316 316 316 317 317 316 316 315 315 315 315 315 316 315 316 316 316 316
320 320 320 320 320 319 318 317 317 317 317 318 317 317 318 318 319 319 317 316 316 316 315 315 314 313 313 313 313 314 314 314 313 313 313 313 313 314 315 316 317 317 318 317 316 316 316 316 316 314 313 312 311 311 310 310 311 311 311 311 312 312 312
319 320 320 320 319 318 317 317 318 316 316 317 316 316 317 317 317 316 315 313 313 313 313 313 313 313 313 314 314 315 315 314 314 314 315 315 315 315 316 317 318 318 317 317 316 316 316 316 314 312 310 309 309 308 308 308 308 308 308 308 308 308 309
319 319 319 319 319 318 317 318 318 317 317 317 316 316 316 316 315 315 316 316 315 314 314 314 313 314 313 313 314 315 315 315 315 315 316 317 318 318 318 318 318 317 317 317 316 315 314 313 311 310 309 308 308 307 306 306 306 306 306 306 307 307 307
318 319 319 319 319 318 318 318 318 317 316 316 316 316 317 317 316 315 316 315 314 314 314 314 313 313 313 313 313 314 315 315 316 316 316 316 317 317 316 316 315 314 314 313 312 311 310 308 308 307 306 305 304 304 303 303 304 304 304 304 305 304 305
313 315 317 318 318 318 318 319 319 319 318 318 318 318 318 317 316 315 315 314 313 312 312 312 312 312 312 312 313 313 314 314 313 313 312 312 313 313 312 311 310 309 308 307 306 305 304 303 302 301 301 300 300 300 300 300 300 300 301 301 302 302 303

ECMWFFLT1_850_thetae_093.txt.gz
Theta_e
330 332 333 334 333 333 332 332 333 333 332 331 330 330 330 330 330 330 329 329 329 329 328 328 327 327 327 327 327 328 328 327 327 327 327 327 327 328 328 328 327 327 327 327 326 326 326 327 327 327 327 327 326 326 327 327 327 326 325 325 325 325 325
330 332 333 333 332 332 331 331 332 332 331 330 330 330 330 330 330 329 329 329 328 328 328 328 328 328 327 327 327 328 328 327 327 328 328 329 328 327 327 328 327 327 327 327 327 326 325 326 326 327 327 327 326 326 327 327 327 326 325 325 325 325 325
332 332 332 332 332 332 332 332 332 332 331 329 330 330 330 329 329 329 328 328 328 328 328 328 328 328 328 327 327 328 328 327 328 328 329 329 329 328 328 328 327 327 327 327 327 326 326 325 325 326 326 326 326 326 327 327 326 326 325 325 325 325 324
332 331 331 331 331 331 331 331 332 331 330 329 329 330 330 329 329 328 326 326 327 328 328 328 328 328 327 327 328 328 328 328 329 329 329 328 328 328 328 328 327 327 326 326 326 326 326 325 325 325 326 326 325 326 327 327 326 325 325 324 324 323 322
332 331 331 331 331 331 330 331 331 331 330 330 330 329 329 328 328 327 325 325 327 328 328 328 328 328 327 328 329 328 328 329 329 329 329 328 328 328 328 327 328 327 326 325 326 326 326 326 324 325 326 326 326 326 327 326 325 325 324 324 323 322 322
331 331 330 330 331 331 330 329 330 331 330 329 329 329 328 327 327 327 327 326 326 327 328 328 327 328 328 329 329 329 328 328 328 329 329 327 327 327 327 327 327 327 325 326 326 326 326 326 325 325 325 326 326 326 326 325 324 324 324 323 321 320 320
332 331 330 330 331 331 330 329 329 330 329 328 328 327 327 327 327 328 328 327 327 328 329 327 327 328 328 329 329 329 328 327 327 328 328 327 327 327 327 327 327 326 326 326 327 327 327 326 325 325 325 325 325 326 325 324 323 324 324 322 321 319 319
333 332 331 331 331 330 329 329 329 329 329 329 327 326 327 327 328 329 328 328 328 329 329 327 327 328 329 329 329 328 328 327 327 327 327 327 327 327 328 328 327 326 326 326 327 327 327 327 326 326 325 325 325 324 324 324 323 324 323 322 321 319 319
333 333 332 330 331 330 329 328 328 329 329 328 328 327 328 328 329 329 328 328 329 328 328 327 327 327 328 328 328 327 328 327 327 327 326 326 327 327 328 328 327 327 327 326 327 327 327 327 327 326 326 325 325 324 323 323 323 323 323 322 321 318 318
331 332 331 330 330 331 330 328 328 328 328 328 327 328 328 329 330 328 327 327 328 327 328 328 327 326 327 327 326 326 326 326 326 327 326 326 327 327 327 327 327 327 327 327 327 327 327 327 327 327 327 326 325 324 323 323 323 323 322 322 320 317 316
332 331 331 329 329 330 330 329 328 328 328 328 328 328 328 329 329 328 327 327 327 327 328 328 327 326 326 325 325 326 326 326 326 326 325 325 326 326 326 327 328 327 327 327 327 327 326 327 327 328 327 326 325 324 323 323 323 322 322 322 318 315 315
332 332 330 329 329 330 330 329 329 328 328 328 328 327 327 327 328 327 327 327 327 327 327 326 325 325 325 325 325 326 326 325 325 324 324 325 325 325 325 327 327 327 326 327 327 327 327 327 327 327 326 326 325 325 324 323 323 323 322 320 316 314 314
332 332 330 329 330 330 330 330 330 329 328 328 327 326 326 327 327 327 327 327 327 326 325 324 323 323 325 326 325 326 326 325 324 324 324 324 324 324 325 326 326 325 325 326 327 327 327 327 327 327 326 326 325 325 324 324 323 322 321 319 315 314 314
332 332 331 330 330 330 330 330 329 328 328 327 328 328 328 327 327 327 327 327 326 325 323 323 323 324 324 324 325 326 326 325 324 324 324 323 323 323 324 325 325 325 326 326 326 326 326 326 327 326 326 326 325 325 324 324 323 321 319 317 315 314 314
331 331 330 330 330 330 330 329 328 328 327 327 328 329 328 328 327 327 326 325 325 325 324 323 324 323 323 323 325 325 325 325 324 324 324 324 323 323 324 325 326 325 326 326 325 325 325 326 326 326 325 325 324 324 324 323 322 320 318 317 316 315 315
331 331 330 330 331 330 329 328 327 328 328 327 327 328 328 328 326 325 325 325 325 325 324 324 324 323 322 323 324 325 324 323 323 323 323 324 324 324 326 326 326 325 325 325 325 325 325 325 326 325 325 324 324 323 323 323 322 320 319 317 316 316 316
328 330 330 330 330 329 328 328 328 328 328 328 327 326 326 327 327 326 325 324 323 324 323 323 324 323 322 321 321 321 321 320 321 323 323 324 325 326 326 326 326 325 325 325 325 325 325 325 325 325 324 324 323 323 323 323 322 320 320 319 318 317 316
327 328 330 330 329 328 328 329 329 328 328 328 327 325 324 326 326 325 323 322 322 323 323 323 324 323 321 320 320 319 319 319 319 321 324 325 326 326 326 326 326 326 325 325 324 324 323 323 323 323 323 323 323 323 323 323 322 321 321 320 319 318 317
326 328 329 329 328 327 328 328 327 327 327 327 326 324 323 324 323 321 321 323 323 324 324 324 324 322 320 320 320 320 320 320 319 321 324 326 326 325 326 326 325 325 325 324 323 322 322 322 322 322 321 321 321 322 322 322 322 322 322 321 319 318 317
327 327 328 328 327 328 327 326 325 326 326 326 326 324 322 324 323 321 323 325 324 324 324 324 324 322 320 320 320 321 321 321 321 321 322 324 325 325 325 324 324 323 324 322 321 321 321 320 320 320 319 320 320 320 320 321 321 322 322 320 319 318 318
327 327 327 327 327 328 327 326 327 326 324 325 326 324 323 324 323 322 324 325 324 324 324 324 322 321 320 320 319 320 321 321 321 320 320 321 323 323 323 324 323 322 322 322 321 321 320 319 319 318 318 319 318 319 319 319 320 321 321 320 319 319 318
327 327 327 327 327 327 326 326 327 325 323 324 326 324 322 321 320 322 325 324 322 323 323 322 321 320 319 320 319 321 321 321 321 320 320 320 322 323 324 324 323 322 321 320 320 320 320 319 319 318 317 317 318 319 320 319 319 320 321 321 320 319 318
327 327 327 327 326 325 326 325 324 323 323 325 325 323 319 318 320 323 324 323 321 322 322 320 320 319 320 320 320 321 321 322 321 320 320 321 323 324 323 323 322 321 321 320 320 320 320 320 319 318 317 317 317 319 320 319 319 319 320 320 320 319 319
327 327 327 326 325 325 326 325 323 323 324 325 325 321 319 319 319 320 322 322 321 321 321 320 319 319 320 320 320 321 322 322 321 319 319 320 322 322 321 321 321 320 320 320 320 320 320 319 319 318 318 317 317 318 318 318 318 319 319 320 320 319 318
326 326 326 325 325 325 325 324 325 325 325 325 324 321 319 319 319 318 319 321 321 320 320 319 318 318 319 319 320 321 321 321 319 319 319 319 320 320 319 319 319 319 319 319 319 319 319 319 318 317 317 317 317 317 317 317 317 318 319 319 319 318 317
326 326 326 325 325 325 325 324 325 325 325 324 322 320 319 318 317 318 318 319 319 319 318 318 318 318 319 320 320 320 320 320 319 318 319 320 320 320 319 319 318 319 319 319 319 319 319 318 318 317 316 316 316 316 316 316 316 317 317 317 317 317 318
326 327 326 325 324 324 324 324 324 325 325 323 321 320 319 317 317 318 318 318 318 317 317 318 318 318 319 319 319 319 319 319 319 319 320 320 320 320 319 320 320 320 319 319 319 319 318 318 317 316 316 316 315 315 315 315 316 316 316 316 316 316 317
326 326 326 325 324 323 324 324 324 325 324 323 321 320 318 316 316 317 317 317 317 316 317 318 318 318 318 318 319 319 319 319 319 320 320 320 320 320 320 320 320 319 319 318 318 318 317 316 316 316 315 315 314 315 315 315 315 316 317 317 317 316 317
325 325 324 324 324 323 324 324 324 324 324 323 321 320 317 316 316 317 316 316 316 316 317 317 317 318 318 318 319 319 320 320 320 320 320 320 320 320 320 320 319 318 318 317 317 316 316 315 315 314 313 313 313 313 314 315 315 316 316 317 317 318 318
324 324 323 323 322 323 323 323 323 323 323 323 321 319 317 316 316 316 316 316 316 316 317 317 318 318 319 319 320 320 321 321 321 321 320 320 320 319 319 318 317 316 316 315 314 314 314 313 313 312 312 313 313 314 315 316 316 317 317 317 317 318 318
323 323 323 323 322 322 322 323 322 321 322 322 321 319 317 317 317 317 316 316 317 317 317 318 319 320 320 320 321 321 320 320 320 321 320 319 319 318 316 316 315 315 315 314 313 313 313 313 313 313 314 316 316 317 316 316 316 317 317 317 317 317 317
321 321 322 322 322 321 321 322 322 320 320 321 320 318 317 318 318 318 317 318 319 320 320 320 321 321 322 322 321 321 319 318 319 319 318 317 315 314 313 312 313 313 313 313 313 313 313 313 314 315 316 316 316 315 313 313 312 312 313 313 313 313 312
320 320 320 320 320 320 320 321 321 319 318 318 319 318 319 319 320 320 319 319 321 321 321 321 321 321 320 320 319 318 317 317 318 317 317 315 314 312 312 312 313 312 312 312 312 313 313 313 314 316 316 314 312 311 310 309 309 309 308 308 308 308 308
320 319 319 319 319 319 318 318 319 318 318 318 318 318 318 318 319 320 319 319 319 319 319 319 319 318 317 316 316 315 315 315 316 315 315 315 315 314 314 314 313 312 312 312 312 313 314 315 315 316 315 313 311 310 309 308 307 307 306 305 305 305 305
319 319 319 319 318 318 317 316 315 316 318 318 318 318 317 317 317 318 317 316 315 315 315 316 315 315 314 314 314 314 315 315 315 315 315 315 315 315 315 315 315 315 315 315 315 316 317 316 315 314 312 310 308 307 305 304 303 302 301 301 301 301 301
320 319 319 319 318 317 317 316 315 315 315 316 316 317 316 316 316 316 316 315 314 314 314 314 314 314 315 315 316 316 316 316 316 316 316 317 316 316 316 317 317 317 317 316 316 316 314 313 311 310 308 305 303 302 301 300 299 298 298 298 298 298 298
318 319 319 319 318 317 316 316 316 315 315 315 315 315 316 316 315 315 315 314 314 314 314 314 314 314 315 315 316 317 317 317 317 317 317 317 317 317 317 316 316 315 314 313 312 310 309 308 307 305 303 301 300 299 299 298 298 298 298 298 298 298 298

ECMWFFLT1_850_thetae_096.txt.gz
Theta_e
328 326 326 328 330 331 331 332 332 331 332 332 331 330 330 330 330 330 330 330 330 330 329 329 329 328 329 328 329 329 328 329 329 329 329 329 328 327 327 328 329 328 326 326 326 325 325 326 326 326 326 326 326 325 325 325 325 325 325 325 324 325 325
327 326 326 328 330 331 332 332 332 331 331 332 331 330 330 330 330 330 330 330 330 329 328 329 328 328 328 329 329 329 329 329 329 328 328 328 327 327 327 328 329 328 326 327 327 326 325 325 326 325 325 326 326 325 324 325 326 326 325 325 325 325 325
329 328 328 329 330 332 332 331 331 331 331 331 331 330 330 330 330 330 329 330 330 329 328 328 328 328 328 328 328 328 328 328 328 328 328 328 328 328 328 328 328 328 327 326 327 326 325 325 325 324 324 325 325 324 325 325 326 327 326 325 325 325 324
329 329 329 330 331 332 331 330 330 330 330 331 331 330 330 330 330 330 329 330 329 329 328 328 328 328 327 327 328 328 328 328 328 328 327 328 329 329 329 329 328 328 327 327 326 326 326 325 325 324 324 324 324 325 325 325 326 326 325 325 324 324 324
328 328 329 330 332 332 331 330 330 330 330 330 331 330 330 330 330 329 329 329 329 329 328 328 327 327 327 327 328 327 328 328 328 328 327 328 328 329 329 329 328 328 327 327 326 326 326 326 325 324 324 323 323 325 326 325 325 325 324 324 324 323 323
327 327 328 331 332 332 331 330 330 329 329 330 330 330 329 329 329 329 329 328 328 328 328 328 327 327 327 327 327 327 328 328 328 328 328 329 328 328 328 328 328 328 327 327 326 326 326 326 326 324 324 324 324 326 326 325 325 324 324 324 323 322 322
327 328 329 331 332 331 331 331 330 329 329 329 329 330 329 329 328 328 328 327 326 326 327 328 328 328 328 327 327 327 328 328 328 328 329 329 328 327 327 327 327 328 327 326 326 326 327 326 326 325 324 324 324 325 325 325 324 324 324 323 322 321 320
328 329 331 333 332 332 331 331 331 330 329 329 329 329 329 329 328 328 327 327 326 326 327 328 329 328 328 327 328 328 328 328 329 328 329 329 329 327 327 327 327 327 327 326 326 327 327 327 326 326 325 324 325 325 324 324 324 323 323 323 322 320 319
330 331 332 333 333 333 332 331 331 330 330 329 329 329 329 329 328 327 327 328 327 327 328 329 329 328 328 328 328 328 328 329 328 328 328 329 328 327 327 327 327 327 326 326 327 327 327 328 327 327 326 325 325 324 323 323 323 323 323 323 322 319 318
331 332 332 333 333 333 333 332 331 331 330 330 330 329 329 327 327 327 328 328 328 328 328 329 329 328 328 328 328 328 328 328 328 328 328 328 328 327 327 327 327 326 326 326 327 327 327 328 327 327 327 326 325 324 323 323 323 323 323 322 322 319 316
331 332 332 332 332 333 332 332 332 331 330 330 330 329 328 327 327 328 328 329 328 328 328 329 329 328 328 329 328 327 328 328 328 328 328 327 327 327 327 327 326 326 327 327 327 327 327 327 327 327 326 326 325 325 324 323 323 323 322 322 322 318 315
329 330 332 332 332 332 332 332 331 330 329 329 330 330 329 328 328 329 329 329 328 328 328 328 328 328 328 328 327 327 327 328 328 328 328 327 326 327 327 326 326 327 327 327 327 327 327 327 327 327 326 326 325 325 324 324 323 322 322 322 319 315 314
328 330 331 331 331 332 331 329 328 328 328 329 329 329 329 328 328 329 329 328 327 327 327 328 328 328 327 327 326 326 326 327 327 327 327 326 326 326 325 325 327 327 327 326 326 327 327 326 326 326 326 326 325 325 324 324 324 322 321 320 316 314 314
328 328 329 330 330 330 329 326 327 328 328 329 329 328 329 328 328 329 329 327 327 327 327 328 328 326 326 326 326 325 326 325 325 325 324 324 325 325 325 326 326 326 326 325 326 326 326 326 326 326 327 326 325 325 324 324 324 323 320 318 316 315 315
327 328 329 329 328 328 328 327 327 328 328 328 328 327 327 327 327 328 328 327 326 327 327 327 326 324 324 326 326 326 326 325 325 324 323 324 324 324 325 325 325 325 325 325 326 326 325 326 326 326 326 326 325 325 324 324 324 323 320 317 316 315 315
328 328 327 327 326 326 327 328 327 328 327 327 327 326 325 326 326 327 327 327 327 326 326 326 324 323 324 325 325 325 326 326 325 325 324 324 324 323 323 324 324 324 325 325 325 325 325 325 326 326 325 325 324 324 323 323 323 323 321 318 317 316 315
329 328 326 326 327 327 327 326 325 327 327 328 326 324 325 327 327 327 327 327 327 326 326 325 324 323 323 323 324 325 326 325 325 325 324 324 323 323 323 323 324 325 325 325 325 325 325 325 325 325 324 324 323 323 323 323 322 322 321 319 319 317 316
328 328 326 327 328 327 325 324 325 327 327 327 326 325 326 327 328 327 327 327 327 326 325 325 324 323 322 322 324 325 324 324 324 324 323 323 323 324 324 324 325 325 325 325 325 324 325 325 323 322 322 322 322 322 322 322 322 322 321 321 321 319 317
327 326 326 327 328 326 324 324 326 327 327 327 326 327 328 328 327 327 326 326 325 325 325 324 323 323 322 321 322 322 322 321 321 323 324 324 325 325 325 325 325 325 325 325 324 324 324 322 321 321 320 320 320 320 320 320 320 321 321 321 321 320 318
327 326 326 328 328 328 326 325 326 327 327 327 327 328 328 328 326 326 326 325 323 322 322 323 323 323 321 320 320 320 320 319 319 322 325 326 326 326 326 326 326 325 325 324 323 322 321 320 319 319 319 319 319 319 319 319 319 319 320 320 321 320 319
328 327 327 328 328 328 328 326 325 325 326 327 328 328 328 327 326 326 326 325 321 319 320 322 323 323 321 320 320 320 321 320 319 321 325 326 327 326 326 326 325 324 324 323 322 321 320 319 319 319 318 318 318 318 318 319 319 319 319 320 320 320 319
328 328 327 327 327 328 328 327 326 326 326 327 327 327 327 326 326 325 324 323 322 321 322 323 324 323 320 320 321 321 321 321 320 322 324 326 326 325 325 325 324 323 323 321 320 320 319 319 318 318 318 317 317 317 317 318 318 318 318 319 319 320 320
327 327 327 327 328 328 328 328 327 326 327 327 326 326 326 326 325 324 322 322 324 324 324 324 324 322 321 320 320 321 321 320 320 322 323 324 324 324 324 324 322 321 321 320 320 320 319 319 319 319 318 318 317 317 318 318 319 319 318 318 319 319 319
327 327 327 328 328 328 328 327 326 326 327 325 324 325 325 325 325 325 323 323 324 324 324 324 323 321 320 319 319 320 320 320 320 320 320 322 323 324 323 323 321 321 320 320 320 320 319 320 319 319 319 318 317 317 317 318 318 318 317 318 319 319 319
327 327 327 328 328 327 327 326 326 327 327 324 324 324 324 323 323 322 322 323 324 323 323 323 322 320 320 320 319 320 320 321 320 319 320 321 323 323 323 322 321 321 320 320 320 320 320 319 319 318 318 318 317 317 317 317 317 317 317 317 318 319 319
326 327 327 327 326 326 326 325 325 326 325 323 323 324 321 320 321 322 323 324 322 322 322 322 320 320 320 320 320 321 321 321 320 319 320 322 322 322 321 321 320 320 320 320 320 319 319 319 318 317 317 317 316 316 316 316 316 316 316 317 317 317 317
326 326 326 326 325 325 324 324 322 322 323 323 323 322 320 319 320 322 323 323 321 321 321 320 319 319 320 320 320 321 321 321 320 319 320 321 321 320 319 319 319 319 319 319 319 319 319 318 318 317 317 316 316 315 315 315 315 315 315 316 316 316 316
325 326 326 325 325 324 325 324 321 320 323 324 322 321 320 320 319 319 320 321 322 321 321 320 319 319 319 319 319 321 321 321 319 319 320 321 320 320 319 319 319 319 319 319 319 319 318 318 317 316 316 315 315 314 314 314 314 314 315 315 316 316 317
324 325 325 325 325 325 325 324 322 322 323 323 322 321 320 319 318 318 318 320 320 320 320 319 318 318 318 319 319 320 321 320 319 319 320 321 321 320 319 319 320 320 319 318 318 318 317 316 315 315 314 313 313 313 313 313 314 314 315 315 316 316 317
323 324 324 324 324 325 325 322 320 322 323 322 321 321 320 318 318 317 318 318 319 319 318 318 318 318 318 318 319 320 320 320 319 319 320 320 320 320 320 320 319 318 318 317 317 316 315 314 313 312 312 312 312 313 314 315 315 316 316 316 317 317 317
322 322 323 322 320 321 323 321 320 321 321 320 321 321 319 318 317 316 317 318 317 317 317 317 318 318 318 318 318 318 319 319 319 319 320 320 320 320 320 319 318 317 316 315 315 314 313 312 311 311 311 312 313 314 314 315 314 314 313 313 313 314 314
321 322 322 321 319 320 321 320 320 320 319 319 321 321 318 317 316 316 317 317 316 316 317 317 318 318 318 319 319 318 319 319 319 320 320 320 320 319 318 317 316 315 314 313 313 313 312 312 311 312 312 312 314 315 314 312 311 310 309 309 309 309 308
320 320 321 321 321 321 320 318 318 319 319 319 321 320 318 317 316 316 317 317 316 316 316 317 318 319 320 320 320 319 319 319 319 320 320 319 318 318 316 315 313 313 313 313 313 312 312 312 312 312 312 313 314 314 312 310 309 308 308 307 307 306 305
319 319 319 319 320 320 320 319 319 319 318 318 318 318 318 317 316 316 317 317 317 317 318 319 320 320 321 321 320 318 318 317 317 318 318 317 316 315 314 313 313 314 314 314 313 313 312 312 313 313 314 315 315 314 312 310 309 308 306 305 303 301 301
319 318 318 318 318 318 318 319 319 317 316 317 317 317 318 319 318 318 318 318 319 319 320 320 321 320 320 320 319 317 316 316 315 316 317 315 315 315 315 315 316 316 315 315 315 314 315 315 315 315 315 314 312 310 309 307 305 303 301 300 299 298 298
319 319 318 318 317 317 317 317 317 316 316 317 317 317 317 317 317 318 319 319 319 318 317 316 317 317 317 318 318 316 316 316 316 316 317 316 316 317 317 317 317 317 316 316 316 316 316 315 314 312 311 309 306 304 303 301 300 299 298 298 298 298 298
318 318 318 318 318 317 316 315 316 316 316 317 317 317 316 316 316 316 316 316 317 316 315 315 314 315 315 317 317 317 317 318 318 317 317 317 317 317 317 317 317 316 316 316 315 314 313 311 309 306 304 302 301 300 299 299 298 298 298 298 298 298 297

ECMWFFLT1_850_thetae_099.txt.gz
Theta_e
333 334 333 333 331 328 328 330 331 330 330 331 331 332 332 330 330 330 330 331 331 330 329 329 329 329 328 327 327 327 328 328 328 328 329 330 329 329 329 329 329 328 327 326 327 327 327 327 327 326 327 327 327 326 326 326 326 325 325 325 325 325 325
332 332 332 332 330 326 326 330 331 331 331 331 331 331 332 330 329 330 330 331 330 330 330 329 329 330 328 327 327 327 328 329 328 328 329 329 330 329 329 329 329 328 328 327 327 326 327 328 327 326 327 327 327 326 326 325 325 326 325 325 325 325 325
331 331 331 331 329 327 327 329 331 332 332 331 331 331 331 330 329 330 330 330 330 330 330 329 329 329 328 328 327 328 329 330 329 328 329 329 329 329 328 328 328 328 328 327 327 326 327 327 327 326 327 327 327 327 325 325 326 326 325 325 325 325 324
332 332 331 331 331 330 329 329 331 332 332 331 331 331 331 330 330 329 329 330 330 330 330 329 329 329 329 328 328 328 329 330 329 329 329 329 328 329 329 328 328 329 328 328 327 327 327 327 326 326 326 326 326 326 325 325 326 326 325 325 324 324 324
331 332 332 332 332 331 330 331 332 332 332 331 331 331 331 331 330 329 329 330 330 330 330 329 329 329 329 329 329 329 329 329 329 329 329 329 328 328 329 329 329 329 329 329 328 327 327 327 326 326 326 326 325 325 325 325 325 326 325 325 324 324 323
331 332 332 332 332 331 331 332 332 332 332 331 331 331 331 331 331 330 329 330 330 329 329 329 328 329 329 329 328 328 328 328 329 329 329 329 328 329 329 329 329 329 328 328 328 327 327 327 327 326 326 326 325 325 324 324 325 326 324 324 324 323 322
331 332 332 332 332 331 332 332 332 332 332 331 331 331 331 331 330 329 329 330 330 329 329 328 328 328 328 328 328 328 328 328 328 329 329 328 328 329 329 329 328 328 328 328 327 326 326 326 327 326 326 326 325 325 325 324 324 325 324 324 323 321 321
331 332 332 332 332 331 331 332 332 332 332 331 331 331 331 330 330 329 329 329 329 329 328 328 327 327 327 328 328 328 328 328 328 328 328 328 329 329 329 328 328 327 328 328 327 326 327 327 326 326 326 326 325 325 326 325 324 324 324 323 322 320 319
331 332 332 332 332 331 331 332 332 332 332 331 331 331 331 330 330 330 329 329 329 328 327 327 327 327 328 328 328 327 327 328 328 328 328 328 329 329 328 328 327 327 327 327 327 326 327 327 326 326 326 325 325 325 325 325 324 324 323 323 322 320 318
329 331 332 331 330 330 329 329 330 331 331 330 330 330 330 330 330 330 329 329 328 326 325 325 326 327 328 328 328 327 327 328 328 328 329 329 329 329 328 328 327 327 327 326 326 327 327 327 327 327 326 325 325 326 325 324 324 324 324 323 322 320 317
329 329 330 330 329 329 327 325 327 329 330 329 329 330 329 329 330 329 329 328 328 327 326 326 327 328 329 328 327 327 328 328 328 328 328 328 329 329 328 328 327 327 327 327 327 327 327 327 327 327 326 325 325 326 325 325 324 324 323 323 322 319 316
328 329 329 328 327 326 324 323 325 328 328 329 330 330 329 329 329 329 329 328 328 328 327 327 328 328 329 328 328 328 328 328 328 327 328 328 328 328 327 327 327 327 327 327 327 327 327 327 327 327 327 326 325 325 325 324 323 322 323 323 322 317 315
328 328 328 327 325 324 324 324 326 328 328 328 329 329 329 329 328 328 328 328 328 329 328 327 327 327 328 328 329 329 329 328 328 328 328 328 327 327 327 327 327 327 327 327 327 327 327 327 326 327 327 326 325 325 324 324 323 322 322 322 319 315 314
327 326 326 326 324 324 326 326 327 328 328 328 329 329 328 328 328 327 328 329 329 329 328 328 328 327 327 327 328 329 328 328 328 327 327 327 326 326 326 327 327 327 327 327 326 327 327 326 326 326 326 326 325 325 324 324 323 321 320 318 315 314 315
326 326 326 326 324 324 326 327 327 327 327 327 329 329 329 328 327 326 326 328 328 329 329 328 328 327 327 327 328 329 328 327 327 327 327 327 326 326 326 326 326 327 327 326 326 327 327 326 326 326 326 326 325 325 324 324 323 321 318 316 315 315 315
325 325 325 324 323 324 326 326 327 328 327 328 328 329 329 328 327 326 327 328 328 329 328 328 328 328 328 327 327 327 326 326 326 326 326 325 325 325 325 325 326 327 326 325 326 326 326 326 326 326 326 325 325 324 324 323 323 320 317 316 316 315 315
325 326 325 324 324 325 326 327 328 328 329 329 329 329 329 328 327 327 328 329 329 328 328 328 328 327 326 326 326 326 326 326 325 325 324 324 324 324 324 325 326 326 325 326 326 326 325 326 326 326 325 324 324 324 323 323 322 321 318 317 316 316 315
327 327 327 327 327 327 327 327 327 327 328 329 328 329 328 328 327 327 327 328 329 327 327 327 326 325 324 325 325 325 325 326 326 325 324 324 324 323 324 325 325 325 325 326 325 325 325 325 326 325 324 323 323 323 323 322 322 320 319 319 319 317 316
328 328 328 328 328 328 328 327 327 326 327 328 328 328 328 327 326 326 327 328 328 327 326 326 325 324 323 323 324 324 325 326 325 325 324 324 324 323 324 325 325 325 325 325 325 325 325 325 324 323 322 321 321 321 322 322 322 321 321 321 320 319 318
328 329 328 328 328 329 328 327 327 327 327 327 328 328 327 326 326 327 327 328 328 327 326 326 325 324 323 322 323 325 325 325 324 324 324 324 324 324 325 325 325 325 325 325 325 325 325 324 322 321 320 319 320 320 320 321 321 321 321 321 321 320 319
328 328 328 328 328 329 329 327 327 327 327 328 328 328 327 326 327 328 328 327 327 326 326 326 325 324 323 322 323 324 323 322 322 322 323 324 325 325 325 326 325 325 325 325 324 324 323 321 320 319 319 319 319 319 319 319 320 320 320 320 320 320 320
327 328 328 328 328 329 329 328 327 327 328 329 328 327 327 327 327 327 326 326 326 326 325 325 324 324 323 321 321 321 320 320 321 322 324 325 326 326 326 326 326 325 325 324 323 321 320 319 319 318 318 318 318 318 318 318 319 319 319 319 319 320 320
327 327 328 328 328 328 328 329 329 328 328 329 328 328 328 327 327 326 326 326 326 324 322 323 324 324 322 320 320 321 320 321 322 324 325 326 326 326 326 326 325 324 324 322 321 319 318 318 318 318 318 317 317 317 317 318 318 319 318 319 319 319 319
326 327 327 327 327 327 327 328 329 328 328 328 328 328 328 328 327 326 324 324 325 323 322 323 324 323 321 320 321 322 321 321 322 324 325 326 326 326 326 325 324 323 322 321 320 319 319 319 319 318 318 318 317 317 317 318 318 318 318 318 318 318 319
325 326 326 326 326 327 327 327 327 328 328 328 328 328 327 327 326 324 322 323 324 324 323 324 324 323 321 320 321 322 321 322 322 323 325 325 325 325 324 323 322 321 320 320 320 319 319 319 319 319 318 318 318 317 317 317 318 318 317 317 317 318 318
325 326 325 325 325 326 326 326 326 327 328 328 328 327 326 326 325 323 322 323 324 324 324 325 324 323 321 320 320 321 321 321 321 322 323 324 324 324 323 321 321 320 320 320 320 320 320 319 318 318 317 317 317 317 316 316 316 316 316 316 317 317 317
324 324 324 324 325 325 325 325 326 327 327 327 328 326 325 325 325 324 323 323 323 323 323 324 324 322 320 320 320 319 320 321 320 320 322 323 323 322 321 321 320 320 320 320 320 319 319 319 318 318 317 317 316 316 316 315 315 315 315 315 315 315 315
323 324 323 323 324 324 324 325 326 326 327 327 326 325 324 323 322 323 323 323 322 322 323 323 323 321 320 320 320 320 320 321 320 320 322 323 322 321 321 321 321 320 320 319 319 319 318 318 318 317 317 316 315 315 314 313 313 313 313 313 313 313 314
322 323 323 323 324 324 324 324 324 323 324 325 325 322 321 320 321 322 323 322 321 321 321 322 321 320 320 320 320 320 321 321 320 321 322 322 321 320 320 320 319 319 319 319 318 318 318 317 317 316 315 314 313 313 312 312 312 313 313 314 314 315 315
321 322 321 321 322 323 324 324 322 320 321 324 323 321 320 321 322 323 323 322 321 320 320 320 321 320 319 319 320 320 321 322 321 320 321 321 320 319 319 319 319 319 318 318 318 318 317 316 315 314 313 312 312 312 313 313 314 314 315 315 315 315 315
320 321 321 320 320 321 323 323 321 319 320 322 321 321 321 321 321 321 321 321 321 321 320 320 320 319 318 318 319 319 320 321 320 320 321 321 320 319 319 319 319 318 318 318 317 316 315 314 313 312 312 312 312 312 313 313 313 313 312 311 311 310 310
318 319 320 320 320 320 320 320 319 318 318 320 320 319 320 320 319 320 319 319 320 320 319 319 319 318 318 318 319 319 320 321 320 320 321 321 320 319 319 319 318 318 318 317 316 314 313 312 312 312 312 312 312 312 312 312 311 310 309 308 308 307 307
318 318 318 319 320 320 319 318 318 317 318 319 318 317 318 318 318 318 318 318 319 319 318 318 318 318 318 318 319 319 320 320 320 320 320 321 320 319 319 319 319 318 317 315 314 313 312 312 312 313 313 313 313 313 312 311 310 309 307 306 305 303 302
318 317 317 317 318 319 319 318 318 317 317 318 317 316 317 318 317 317 317 317 318 317 317 317 318 318 319 319 320 320 320 320 320 320 320 320 319 318 317 316 316 315 314 314 313 313 313 313 313 314 314 314 314 314 312 311 310 308 305 303 301 299 299
318 317 317 317 317 317 317 317 317 316 316 317 317 316 317 317 316 316 316 317 317 317 317 318 318 318 319 319 319 320 319 318 317 318 319 317 316 316 315 314 313 313 314 315 315 314 315 315 315 315 314 314 314 312 310 308 306 304 301 299 298 298 298
317 317 317 317 317 316 316 316 316 316 316 317 317 316 317 317 317 317 317 318 318 319 319 319 319 318 318 318 318 318 317 315 315 316 317 316 315 315 315 314 314 315 316 316 316 315 315 315 314 314 313 312 310 307 304 302 301 299 298 298 298 298 298
315 316 316 316 316 316 316 316 316 316 316 317 317 316 317 317 318 318 318 318 317 317 317 316 316 317 317 317 317 316 315 316 316 316 317 316 315 315 315 315 316 317 316 315 315 314 313 312 311 310 308 306 303 301 300 299 298 298 298 298 298 297 297

ECMWFFLT1_850_thetae_102.txt.gz
Theta_e
335 335 335 334 334 333 332 331 331 331 331 331 329 329 329 331 331 331 331 331 331 331 331 331 331 330 328 328 328 328 328 330 332 332 332 331 330 331 331 331 330 329 329 330 329 329 330 329 329 328 327 327 327 327 327 328 328 327 326 325 325 326 326
334 334 335 335 334 333 332 330 329 330 332 332 331 331 330 331 332 332 332 332 331 331 332 331 331 330 328 327 327 327 330 332 331 331 331 331 330 330 331 331 330 330 329 330 329 330 330 329 329 329 328 328 328 327 327 328 328 326 326 326 325 326 326
334 333 334 333 333 332 331 330 329 330 332 333 333 332 332 332 332 332 332 331 331 331 332 331 331 330 329 328 327 327 330 331 331 331 330 332 331 331 331 331 330 330 329 329 330 330 330 329 329 329 329 328 328 328 328 328 327 326 326 326 326 326 326
333 333 333 333 333 333 332 332 332 331 331 332 333 333 333 332 332 332 332 331 332 331 331 331 331 331 329 329 327 327 329 330 331 331 329 331 332 329 330 330 329 328 329 329 329 329 329 329 329 329 328 328 328 328 328 327 327 327 326 326 326 325 325
333 332 333 333 334 334 334 333 334 332 331 332 333 333 332 332 332 332 331 331 332 332 331 331 330 329 329 328 328 328 328 329 331 331 329 330 330 328 329 330 329 328 328 328 329 329 329 329 329 329 329 328 328 328 327 326 327 326 326 326 325 324 324
333 332 333 333 333 333 334 333 332 331 331 332 332 333 332 331 332 332 331 331 332 332 331 330 329 328 329 328 328 328 329 329 330 330 329 329 329 330 331 331 329 328 327 328 328 329 330 330 329 329 329 328 328 328 327 326 326 326 325 325 324 323 323
333 333 333 333 332 333 333 332 330 329 329 330 330 331 330 330 331 331 331 331 331 331 331 330 329 327 328 328 328 327 328 328 329 329 329 329 329 330 330 329 329 328 328 328 329 329 330 330 329 329 329 328 328 327 326 326 326 326 325 324 324 323 323
332 332 332 332 332 332 331 331 330 329 327 328 328 329 329 330 330 330 331 331 331 331 331 330 329 327 327 327 327 327 327 328 329 329 329 330 330 329 329 329 330 329 328 329 329 329 330 329 329 329 329 328 328 327 326 327 327 327 326 324 323 323 323
330 330 331 331 331 331 330 329 328 327 326 326 327 329 329 329 330 331 331 331 331 331 330 329 329 329 328 327 327 328 327 327 329 329 329 331 330 329 329 329 329 329 329 329 329 329 329 329 329 329 329 328 328 328 327 327 327 327 326 324 323 322 322
329 329 329 330 331 331 329 326 325 326 326 326 326 328 329 329 329 331 331 331 331 331 330 329 329 330 329 328 329 330 328 329 330 329 330 332 330 329 329 329 329 329 330 330 330 329 329 329 329 329 329 328 327 327 328 328 327 327 325 325 324 322 321
329 329 329 329 330 330 329 326 325 325 325 327 328 328 328 329 329 331 331 330 330 330 331 330 330 331 330 328 328 330 329 329 330 329 330 331 331 330 329 329 328 329 330 330 330 330 330 330 329 329 328 327 327 327 327 327 326 327 326 325 325 323 320
329 329 329 328 329 330 329 326 324 323 324 327 329 329 328 328 329 331 330 329 330 330 330 330 329 330 330 328 327 329 330 329 329 329 329 330 330 329 329 329 329 329 331 330 330 330 330 330 329 328 328 328 327 327 327 326 326 327 326 325 325 323 320
328 329 329 328 328 328 327 326 324 323 323 325 328 328 327 327 329 330 330 329 329 329 329 329 328 328 329 328 326 328 331 330 329 329 329 328 329 329 329 329 328 329 330 329 329 330 330 330 330 328 328 328 327 327 327 326 326 326 326 325 324 322 319
328 328 328 328 329 327 326 325 324 323 323 325 327 327 326 327 329 330 331 330 328 328 328 328 327 326 328 329 328 329 331 331 329 329 329 328 330 330 329 329 328 329 329 329 329 329 329 330 329 328 328 327 327 327 327 326 326 326 326 325 323 321 318
328 328 328 328 328 327 326 326 325 324 324 326 328 327 326 327 328 330 331 330 329 328 326 325 327 327 327 328 329 328 329 330 329 330 330 329 330 330 329 329 329 329 329 329 329 329 329 329 329 328 328 327 326 327 327 326 325 324 324 322 321 319 316
325 327 327 328 327 327 327 326 326 326 326 327 329 328 327 328 328 329 331 330 329 328 327 326 327 327 327 327 327 327 328 328 328 330 330 330 330 330 330 329 329 329 329 329 329 329 329 329 328 327 327 326 326 326 326 326 324 323 322 321 320 318 316
324 325 327 328 328 327 327 326 326 327 327 328 329 329 328 329 329 329 330 329 328 328 328 328 327 326 327 327 325 326 327 327 327 329 330 329 329 330 330 329 329 330 329 329 329 329 329 329 327 327 326 326 326 326 326 326 324 322 321 320 319 319 317
327 327 328 329 328 327 327 326 326 326 327 329 329 329 329 330 329 329 330 329 328 327 328 329 327 325 326 326 325 326 327 326 327 329 329 329 329 330 330 330 330 330 329 329 329 329 329 328 327 326 326 326 326 327 326 326 325 322 321 320 319 318 317
327 328 328 329 329 329 328 328 327 326 327 329 330 330 330 330 329 329 329 329 329 328 329 329 327 325 326 327 326 326 326 325 326 328 330 330 329 329 330 330 330 330 329 329 329 329 328 328 327 327 327 326 326 327 326 326 325 323 321 320 319 318 317
326 327 328 329 329 329 329 329 328 327 327 329 330 330 330 330 330 330 329 329 329 329 329 329 327 325 326 326 324 324 326 327 328 329 330 330 329 330 330 330 330 329 329 329 329 329 329 328 328 327 327 327 326 326 326 325 324 323 322 321 319 318 318
326 327 327 328 328 328 329 329 329 328 328 329 330 330 330 331 330 329 329 328 328 328 329 329 327 325 324 323 323 325 328 329 330 330 330 330 329 330 329 329 330 329 328 329 329 329 328 328 328 328 327 327 326 326 326 325 324 323 323 322 320 319 319
325 326 327 327 327 327 328 328 328 328 329 329 329 330 329 329 330 330 329 328 327 328 328 327 325 325 325 323 324 327 329 330 330 330 330 330 330 330 329 329 329 327 326 326 326 326 326 327 327 327 326 325 325 325 325 325 324 323 323 322 321 320 319
325 325 326 327 327 327 328 328 328 329 329 329 330 329 328 328 329 329 328 328 327 327 327 326 323 324 325 325 326 327 327 328 328 328 328 328 328 329 329 328 326 325 325 325 325 325 324 323 324 324 324 323 323 324 325 324 324 323 323 322 322 321 320
325 326 326 326 326 327 327 327 327 328 328 329 329 328 328 329 329 328 328 328 327 326 326 326 324 324 324 324 324 326 325 325 324 324 324 325 325 326 326 325 325 325 325 325 324 323 322 320 320 320 320 320 320 321 323 324 324 324 323 322 322 322 321
325 325 325 325 325 326 326 326 326 326 326 327 327 327 328 328 328 328 327 326 326 326 325 324 324 324 323 322 322 322 322 322 322 323 323 323 324 325 325 325 326 325 325 324 322 320 319 318 318 318 318 318 317 318 319 322 324 324 324 322 322 322 321
324 324 324 324 324 325 325 325 325 325 326 326 326 327 328 328 327 327 327 325 325 324 323 324 325 324 323 322 321 321 321 320 320 322 324 324 325 326 326 326 326 325 323 322 320 319 318 318 319 318 318 318 318 317 317 318 320 321 321 322 323 321 320
322 323 324 324 324 324 324 325 325 325 326 326 326 327 328 327 327 327 326 325 324 322 322 324 325 323 322 322 322 322 322 321 319 321 324 325 325 325 325 325 324 323 322 320 319 319 319 319 319 318 318 318 317 317 317 317 317 317 318 319 321 319 317
320 321 322 323 323 323 324 324 324 323 324 325 326 326 326 326 326 325 324 324 324 323 324 325 324 323 322 322 322 322 322 321 320 322 324 325 325 325 325 324 323 321 320 319 319 320 320 319 318 318 317 317 317 316 316 316 316 315 315 315 315 314 313
320 320 320 321 322 323 323 323 321 321 322 323 324 325 325 325 324 323 323 323 323 323 324 324 323 322 321 321 321 321 321 321 321 321 322 324 325 325 323 322 321 320 319 320 320 320 319 319 318 317 317 317 316 315 315 314 313 313 312 312 312 312 312
319 320 320 321 321 321 321 321 320 319 320 321 323 323 323 323 322 322 322 322 322 322 322 323 322 320 320 320 321 320 320 321 321 320 321 323 324 323 321 320 320 320 320 320 319 319 318 317 317 317 316 315 314 313 312 312 311 312 312 312 313 314 314
318 320 320 320 320 319 319 319 318 318 319 321 322 322 322 322 322 321 321 320 320 320 319 320 321 320 320 321 321 320 320 321 321 320 321 322 321 320 320 320 320 320 319 319 319 318 317 317 316 315 313 312 312 312 312 312 312 313 313 313 314 313 312
318 319 320 319 318 318 318 318 318 318 320 321 321 321 321 322 321 322 321 320 319 319 318 319 321 320 320 320 319 319 320 321 322 321 321 321 320 319 320 320 320 319 318 318 318 317 316 316 316 314 312 312 312 312 313 313 312 312 312 311 311 310 310
318 319 319 319 318 318 318 317 318 319 319 318 319 318 319 319 320 320 320 319 319 319 318 319 320 320 319 319 318 319 320 321 321 320 321 321 320 320 319 319 318 318 317 317 317 316 313 313 313 313 313 313 313 313 314 313 312 312 312 311 310 308 307
318 318 319 319 318 318 317 317 317 318 317 317 316 315 315 317 318 319 318 317 318 319 318 318 319 319 318 318 319 319 320 321 321 320 320 321 320 319 319 318 318 318 317 317 315 313 313 312 313 314 313 314 314 313 313 312 310 310 311 310 306 304 302
317 317 317 317 317 317 316 316 317 317 316 315 314 313 313 316 317 318 317 317 318 318 317 317 318 318 318 319 320 320 320 320 320 319 319 320 319 318 317 316 317 316 315 315 314 313 313 314 314 314 314 314 314 313 312 311 308 306 306 303 300 299 299
316 316 316 316 316 316 316 316 316 316 315 314 314 314 315 316 317 317 317 317 318 318 318 318 318 318 319 319 319 319 318 317 318 317 317 317 317 316 315 314 314 314 314 314 314 314 315 315 315 314 313 312 311 310 309 308 305 302 300 299 298 298 298
312 313 314 315 315 315 316 316 316 316 316 316 316 316 317 317 317 317 318 318 318 318 318 318 318 318 318 318 318 317 316 316 316 317 316 315 315 315 314 313 314 314 314 315 315 315 315 314 313 311 309 307 305 304 302 301 300 299 298 298 298 298 297

ECMWFFLT1_850_thetae_108.txt.gz
Theta_e
337 338 338 339 337 335 334 334 333 332 333 333 332 332 331 332 332 331 330 329 329 329 329 328 326 326 327 328 330 331 330 330 330 331 331 331 332 330 330 331 330 330 330 330 331 330 330 331 330 329 330 329 328 328 328 328 328 327 327 327 327 327 327
337 337 338 338 336 333 333 333 334 333 333 333 333 332 332 332 332 332 332 331 331 330 329 329 328 328 328 328 329 330 330 330 330 331 331 331 331 331 330 330 330 329 328 329 331 331 331 331 330 329 330 329 328 328 328 328 328 327 326 327 327 327 327
336 336 337 336 333 331 333 333 334 333 333 332 332 332 332 332 332 332 333 332 332 331 331 331 329 328 329 328 328 329 330 330 329 330 331 332 331 330 330 330 330 329 328 328 329 329 330 331 330 330 329 329 328 328 328 329 328 327 327 328 327 328 327
336 336 336 335 333 331 332 332 333 333 333 332 331 332 333 332 331 332 333 333 333 332 332 332 329 327 329 329 329 329 329 329 329 330 330 331 331 330 331 331 329 329 329 329 328 327 329 330 330 331 330 329 329 328 328 328 327 327 328 328 328 328 328
336 336 336 335 334 333 331 331 332 333 333 333 331 331 332 332 332 332 333 333 333 332 331 331 329 329 330 331 330 330 330 330 330 330 330 330 330 331 331 330 330 329 329 330 330 328 328 329 330 330 330 329 329 328 328 327 328 328 328 328 328 328 328
337 337 336 336 335 334 333 333 333 333 333 333 332 332 332 332 332 332 333 333 333 332 331 331 330 330 331 330 330 330 330 329 329 329 329 329 329 331 330 330 329 328 328 330 330 330 329 329 329 330 330 329 329 329 328 327 328 329 328 328 328 328 327
336 336 336 336 335 335 334 333 333 333 332 333 333 333 332 332 332 331 332 332 333 332 332 332 331 331 331 330 330 330 330 329 328 328 328 327 328 330 330 329 328 327 328 329 330 330 330 329 329 330 330 329 329 330 329 327 328 329 328 328 327 327 326
335 336 336 336 335 334 333 332 332 332 332 332 333 333 333 333 333 332 332 332 332 332 332 332 332 331 330 330 330 330 330 329 328 328 327 327 327 329 329 329 329 328 328 329 329 329 330 330 329 330 329 329 329 329 329 328 329 329 328 327 326 326 325
333 333 333 333 333 332 332 331 331 331 331 331 332 332 332 333 332 332 331 332 332 332 332 333 332 331 330 330 330 330 330 329 328 328 327 327 327 327 327 326 326 328 328 328 329 329 330 329 330 330 330 330 329 329 329 329 328 328 327 327 326 325 324
330 330 329 330 331 331 331 331 330 330 330 330 330 329 331 331 332 331 330 330 332 332 332 332 332 331 331 330 330 330 330 330 329 328 327 327 327 327 325 325 325 326 326 327 328 330 330 329 329 329 330 330 329 329 329 328 328 328 327 326 325 325 324
330 329 330 331 331 331 330 330 330 329 329 329 329 329 329 330 331 331 330 329 331 331 332 332 332 332 331 331 330 330 330 330 329 328 327 327 327 327 326 326 327 327 325 326 327 329 330 330 329 329 329 329 329 328 328 328 328 328 327 326 325 325 324
330 330 331 331 331 330 330 329 328 326 325 326 327 328 329 330 330 331 330 329 330 332 332 332 332 332 331 331 331 330 330 330 329 327 326 325 326 326 327 327 328 327 325 325 326 327 328 330 329 329 329 328 328 328 328 328 328 328 327 326 325 324 324
329 330 331 330 330 330 330 329 327 324 323 324 325 327 328 329 329 330 330 329 330 332 332 333 332 332 331 331 331 331 330 329 329 327 326 326 326 325 327 328 328 327 326 326 326 325 326 329 329 329 329 329 328 328 328 328 327 327 327 326 325 324 324
328 329 329 329 329 329 329 328 327 325 325 324 325 326 327 328 329 330 330 330 330 331 332 332 331 331 331 331 331 331 330 329 329 328 327 326 325 324 326 327 327 326 327 326 326 326 327 329 329 329 329 329 329 328 328 327 327 327 327 326 325 324 324
327 327 327 327 328 328 328 328 328 327 327 326 325 326 327 328 328 328 329 329 330 331 332 331 331 331 331 330 331 330 329 329 329 328 328 327 326 325 326 327 326 326 325 326 326 327 328 329 329 329 329 329 328 328 327 327 327 327 326 326 324 324 324
325 326 326 326 326 327 328 328 328 328 328 327 326 326 327 327 326 325 325 326 327 330 331 331 331 330 329 330 330 330 329 329 329 328 328 328 327 327 327 327 327 327 325 325 326 327 328 329 329 329 329 328 327 327 327 326 327 326 326 326 325 324 323
324 324 325 325 326 326 327 328 328 328 328 327 327 327 326 325 324 324 324 325 327 328 329 329 331 330 330 330 329 329 329 329 328 328 327 328 327 327 327 326 327 326 326 326 327 328 329 329 328 329 329 329 328 328 327 326 327 326 326 326 324 323 323
323 324 325 325 326 326 327 328 328 328 327 327 327 326 325 325 325 324 324 326 327 327 326 327 331 331 330 329 327 328 329 328 328 327 327 328 327 327 327 326 326 327 326 326 326 327 329 329 328 328 329 328 328 327 327 326 327 327 326 325 324 323 322
323 324 325 326 326 327 327 328 328 328 328 327 327 326 325 326 326 324 324 325 325 325 325 327 330 330 330 329 327 328 328 327 326 326 326 328 327 327 328 328 328 328 326 326 326 327 329 329 329 328 328 327 327 326 325 325 327 328 326 325 323 322 320
324 325 326 327 327 327 327 327 327 327 327 328 328 327 326 327 327 326 326 326 326 326 326 327 327 328 328 328 327 328 328 327 327 325 326 328 328 327 329 329 329 328 326 326 327 327 328 329 329 328 328 327 327 326 324 325 326 326 325 323 322 321 320
323 325 326 326 326 326 326 327 327 327 327 328 328 328 327 327 327 328 327 327 326 327 327 328 328 327 327 328 328 327 327 327 326 326 326 328 329 328 329 329 329 328 327 327 328 326 326 328 328 328 327 327 326 325 325 324 324 324 323 322 321 320 320
323 324 325 325 325 324 324 325 326 326 327 327 327 328 328 327 327 328 327 327 326 327 328 329 328 327 326 326 327 327 326 325 325 326 327 328 329 329 328 328 328 328 326 326 326 325 326 327 327 326 326 326 325 324 325 325 324 323 322 322 321 320 319
321 322 323 323 323 323 323 324 325 325 326 326 326 327 327 327 327 328 328 327 327 327 328 329 329 328 326 325 326 326 325 324 324 325 327 328 328 328 327 327 328 328 327 326 325 326 327 328 327 326 326 326 325 325 326 325 323 323 322 321 320 320 319
320 320 321 321 322 323 323 323 324 324 325 325 325 326 327 327 327 327 327 328 328 327 328 329 329 328 327 326 326 325 325 325 323 324 325 326 327 327 327 327 328 328 328 327 327 327 328 328 327 326 326 326 325 326 326 325 323 323 322 321 320 320 319
319 319 320 320 320 321 321 321 322 323 324 324 324 325 326 327 327 326 326 327 327 326 326 327 328 328 327 326 326 325 325 325 325 326 327 326 326 327 327 327 327 327 327 327 327 327 327 327 326 324 325 325 325 325 325 324 324 323 323 322 320 320 320
318 318 319 319 320 320 320 320 320 321 322 323 323 324 325 326 326 326 326 327 328 327 327 326 327 328 326 324 324 323 323 323 325 326 327 327 327 327 326 326 326 325 326 327 325 324 325 326 324 323 325 324 324 325 325 324 324 323 323 322 322 320 320
317 317 318 318 319 319 319 319 319 319 320 321 322 323 323 324 324 324 325 326 327 328 328 327 327 327 325 324 324 324 323 324 324 325 327 326 326 327 326 326 326 325 326 327 325 323 324 325 323 323 325 324 323 324 325 324 323 323 322 322 321 321 321
316 316 317 318 319 319 319 319 319 318 319 320 321 321 321 322 322 323 323 325 326 327 327 327 327 325 323 324 325 324 324 324 325 325 326 326 326 326 326 327 327 326 326 327 325 324 325 325 323 322 324 325 324 324 325 324 323 323 322 321 321 321 321
317 317 317 318 318 318 319 319 319 318 318 319 319 319 319 319 320 320 321 323 324 325 327 327 326 324 322 323 324 324 323 324 324 324 325 326 326 326 326 327 327 326 325 326 325 325 325 325 323 322 323 324 323 322 324 324 324 323 323 322 321 321 321
318 317 317 318 318 318 319 319 319 319 319 318 318 318 318 318 318 319 320 321 321 323 324 325 325 323 323 323 324 323 323 323 323 324 325 325 325 326 325 325 325 324 324 324 324 324 324 323 321 320 319 319 319 319 321 323 324 323 322 322 321 321 320
318 318 317 318 318 318 318 318 318 318 318 318 318 317 317 317 317 318 319 319 321 322 323 324 324 323 323 323 323 322 322 323 323 323 324 325 325 325 325 324 324 323 322 322 323 323 322 321 320 319 318 318 318 317 318 320 321 320 319 318 318 317 316
317 317 317 317 318 318 317 317 317 317 317 317 317 317 317 317 316 317 318 319 320 321 322 322 322 322 323 322 322 321 321 322 321 320 321 323 324 324 323 324 323 322 321 322 323 323 322 321 320 318 317 317 316 316 316 316 316 315 315 315 314 314 313
317 317 316 317 317 317 316 316 316 316 317 317 316 315 315 315 315 316 317 317 318 318 318 319 319 320 321 321 321 321 321 321 320 318 320 322 323 322 321 322 322 322 321 322 322 322 322 322 321 319 317 316 315 315 315 315 314 314 314 314 313 313 313
316 316 316 316 316 316 315 315 315 315 316 317 315 313 313 314 314 314 315 316 316 316 316 317 317 318 319 320 320 320 319 319 318 318 319 320 321 320 319 320 320 321 321 321 322 322 321 320 320 320 318 315 314 314 315 315 315 314 314 314 314 313 312
315 315 314 314 315 315 314 314 314 315 316 316 316 314 313 313 314 314 314 315 316 316 316 316 317 317 318 318 318 318 317 317 317 316 317 318 318 318 317 317 318 318 319 320 319 319 319 318 319 319 317 314 314 314 315 315 315 315 314 314 312 309 307
313 313 313 313 314 314 314 313 313 314 314 315 315 315 315 314 314 314 313 314 315 316 316 316 316 316 316 316 316 315 315 315 316 315 315 316 317 317 317 317 316 316 317 317 316 316 316 317 317 317 315 314 314 314 314 314 314 313 311 308 306 305 304
310 310 311 312 312 313 313 313 313 313 313 314 314 314 314 314 313 313 313 313 313 313 314 313 314 314 314 314 314 314 314 315 315 315 315 315 316 317 317 316 316 316 315 315 314 314 314 314 314 314 314 313 313 313 312 310 309 307 304 304 305 306 306

ECMWFFLT1_850_thetae_111.txt.gz
Theta_e
337 337 338 338 338 338 337 337 336 335 334 334 333 332 332 333 331 329 329 329 329 329 328 327 328 328 328 328 328 329 329 330 331 331 330 329 330 330 330 330 330 331 331 329 329 329 330 330 330 331 330 329 329 329 329 328 327 327 327 327 327 327 326
336 337 338 337 338 338 337 337 336 336 335 335 334 334 334 333 328 325 326 327 326 328 330 329 328 328 328 328 328 329 330 331 331 331 330 328 329 329 329 330 330 331 331 330 330 330 329 330 330 330 330 329 330 329 329 328 327 327 327 327 327 327 326
335 336 337 337 337 337 337 336 336 336 335 335 335 334 333 330 327 325 325 325 325 328 331 331 331 330 329 329 327 327 329 330 331 330 330 329 329 329 330 330 330 331 331 330 330 330 329 329 330 329 329 329 329 329 329 328 328 327 327 327 327 327 327
335 335 336 336 336 336 336 336 336 335 335 335 334 333 331 330 330 329 327 326 327 330 331 331 331 331 330 330 330 329 329 329 330 330 330 330 330 330 330 330 330 331 331 329 329 329 328 328 329 329 329 329 329 328 328 328 328 328 327 327 327 327 327
335 335 335 336 336 336 336 335 335 334 334 334 334 333 332 332 331 331 330 329 328 330 331 330 330 331 331 331 331 330 330 329 330 331 331 330 329 329 330 330 330 330 330 329 329 329 327 327 328 329 329 329 329 328 327 327 328 328 327 327 327 327 327
336 336 335 336 336 336 335 335 335 334 334 333 333 332 332 332 331 331 331 330 330 331 331 330 329 330 331 331 330 330 330 330 330 331 331 329 327 327 328 329 329 329 329 329 329 328 327 328 329 329 329 329 329 328 327 328 328 328 327 327 328 328 328
335 335 335 335 335 335 334 334 333 332 332 332 332 331 331 330 330 330 331 332 332 331 331 330 329 329 330 331 331 330 330 329 330 331 332 330 328 327 328 328 329 329 330 329 329 328 328 328 329 329 330 330 329 328 328 328 327 327 327 328 328 328 328
333 333 333 332 332 332 332 332 331 331 331 331 331 329 328 328 328 329 330 331 331 331 331 330 330 331 330 330 331 331 330 330 330 331 331 331 330 329 328 328 329 330 330 329 329 329 328 328 328 328 329 330 329 329 328 328 327 328 328 328 328 328 327
330 330 329 329 330 330 330 331 330 330 330 330 328 326 324 323 323 325 327 328 330 331 331 331 331 331 331 331 331 331 330 329 330 331 331 331 330 329 328 328 329 329 329 329 329 329 328 329 330 329 329 330 329 329 328 328 327 328 328 328 328 327 327
329 329 329 329 330 330 330 330 330 330 329 328 326 324 323 322 321 322 325 327 328 330 331 331 331 331 331 331 331 331 330 329 329 330 331 330 330 329 328 328 329 329 328 328 329 329 328 329 330 329 329 330 329 328 329 328 327 328 328 328 327 327 326
329 329 330 330 330 330 330 330 329 329 328 327 326 325 325 324 322 323 325 326 327 329 330 330 329 329 330 331 331 331 331 329 329 330 330 329 329 329 328 329 329 329 328 329 329 329 329 329 330 329 329 330 329 328 328 328 327 328 328 327 327 326 326
328 329 329 330 330 329 329 329 329 328 328 327 327 327 326 324 323 325 327 327 327 328 329 328 328 328 330 330 330 331 331 330 329 329 330 330 329 328 329 329 329 328 327 328 329 328 329 329 329 329 329 329 329 329 328 327 327 328 328 326 326 326 325
325 325 325 326 327 327 327 327 328 328 328 328 327 327 326 324 325 326 327 328 329 329 328 328 327 328 328 329 329 331 331 330 329 329 331 330 329 329 330 330 327 326 326 327 327 327 328 329 329 329 329 329 329 329 328 328 328 328 327 326 326 325 325
323 323 323 324 324 325 326 326 327 327 328 328 327 327 326 325 325 326 326 327 328 328 328 328 327 327 328 329 331 331 329 330 330 330 330 330 329 329 329 329 327 327 327 327 327 326 327 329 330 329 329 329 329 329 329 328 328 328 327 326 326 325 325
322 323 323 324 324 325 326 326 327 327 328 327 327 327 326 325 325 325 325 325 326 326 326 327 328 329 328 330 331 330 329 329 330 330 329 329 329 328 328 328 327 328 328 328 328 326 326 328 329 330 329 329 329 329 328 328 328 327 326 326 325 325 325
323 323 324 325 325 326 326 327 327 327 328 327 327 327 326 326 326 325 324 324 326 326 326 326 328 329 329 329 330 329 328 328 328 329 329 328 328 327 327 327 327 328 329 329 328 327 327 328 330 330 329 328 328 328 327 328 327 327 326 326 325 325 324
323 324 325 325 326 326 326 327 327 327 327 327 327 327 326 326 326 326 325 325 327 327 327 327 328 329 329 328 328 327 326 327 328 328 328 328 328 327 327 327 327 328 328 328 329 329 328 329 330 330 328 328 328 328 327 327 327 326 326 325 325 325 324
323 325 325 325 326 326 326 326 326 326 327 327 327 327 327 326 326 326 326 327 327 326 327 328 329 330 329 328 328 326 325 326 327 327 327 328 328 329 328 328 327 327 328 328 328 328 328 328 328 329 328 328 328 328 327 327 326 326 326 325 325 324 324
323 324 325 325 325 324 324 324 325 325 326 327 327 327 327 327 326 327 327 328 328 327 327 328 328 329 330 329 328 327 325 326 327 327 327 328 329 330 330 328 327 327 328 328 328 327 327 327 328 328 328 328 328 327 327 325 325 326 325 325 324 324 324
321 323 323 323 323 323 323 324 324 325 325 326 326 326 327 327 327 327 328 328 328 328 328 327 327 328 329 329 328 327 327 327 328 328 327 327 327 328 328 327 327 328 328 328 328 327 327 328 328 328 328 328 328 327 326 326 326 326 325 324 324 323 323
319 320 320 321 322 322 323 323 324 324 325 325 325 325 326 327 327 327 328 328 328 328 328 327 327 328 329 329 329 328 328 328 329 328 328 327 328 327 327 327 328 328 327 327 327 327 327 328 328 328 328 328 327 327 326 326 327 327 325 324 323 323 322
317 318 319 321 322 322 321 321 322 323 324 324 324 325 326 326 327 327 327 327 327 327 328 328 328 328 327 328 328 328 329 328 328 328 328 328 328 327 327 327 328 327 327 328 328 327 326 327 327 327 327 327 326 326 326 325 326 326 325 323 323 323 322
317 317 318 319 320 320 320 320 320 321 322 323 323 325 326 326 326 326 326 327 327 327 327 328 329 327 327 327 327 327 328 328 328 328 327 327 328 328 327 327 327 327 328 329 329 328 327 327 327 327 326 326 325 325 324 324 325 326 325 324 323 323 321
316 316 317 318 319 319 319 319 319 320 321 322 323 324 325 325 325 325 326 327 327 327 326 327 328 328 327 327 326 326 327 327 327 327 326 326 327 328 328 328 327 328 328 328 328 328 328 327 327 327 326 325 324 324 324 324 325 325 324 323 322 321 320
315 315 316 318 318 318 318 318 318 319 320 321 322 323 323 323 323 323 324 325 326 327 326 326 327 328 327 326 325 325 326 327 328 327 326 326 327 327 327 327 327 327 328 327 327 327 328 327 327 326 325 324 324 324 324 324 324 324 323 323 322 320 320
315 315 316 318 318 317 317 318 318 319 320 320 321 321 321 322 322 322 323 324 325 326 326 326 326 327 326 325 325 325 326 326 325 326 326 327 327 327 327 326 326 327 327 328 327 327 327 328 327 326 326 326 325 325 325 325 324 324 323 322 321 320 319
315 316 317 318 318 317 318 318 318 318 319 319 320 320 320 320 321 321 322 323 324 325 326 327 326 325 324 324 324 323 323 323 323 324 325 326 326 326 327 326 326 327 327 327 328 327 327 327 327 326 326 326 325 325 325 325 324 323 322 321 320 319 319
316 317 318 319 319 319 319 318 318 318 318 318 318 319 319 319 319 320 321 322 323 324 326 327 326 325 324 323 323 323 323 323 323 324 325 325 325 326 326 326 326 326 326 326 327 326 324 325 325 325 325 325 324 324 324 324 323 322 322 321 320 320 319
317 317 318 319 319 319 318 318 317 317 317 317 317 318 318 319 319 320 322 322 323 323 324 325 325 324 324 323 323 323 323 324 324 325 325 325 325 326 326 326 326 325 325 326 326 324 323 324 324 324 325 325 324 324 324 324 323 323 323 322 320 320 320
317 317 318 319 319 318 317 317 317 317 316 316 316 317 318 318 319 320 321 322 322 322 322 322 323 322 321 321 322 322 321 322 323 325 325 325 325 325 325 324 325 325 325 325 325 324 324 324 324 324 325 325 324 324 324 323 323 322 323 322 321 320 320
317 317 317 317 317 317 317 316 316 316 316 315 315 316 317 317 317 318 319 320 320 321 321 321 322 321 320 321 321 320 318 318 320 322 322 323 324 324 323 323 324 324 324 323 324 324 323 322 322 323 324 325 325 325 324 323 323 323 322 322 321 320 320
316 316 316 316 315 316 316 316 315 315 314 314 314 315 315 316 316 316 317 318 318 319 319 320 321 320 319 320 319 318 316 317 318 320 320 321 322 322 322 322 323 323 323 323 323 322 321 319 319 320 322 323 323 323 323 323 323 323 322 322 322 321 321
315 315 315 315 314 314 314 315 315 314 313 313 313 314 314 315 315 315 316 316 317 317 318 319 319 319 318 318 317 316 315 314 316 318 319 319 320 321 321 322 321 322 322 322 322 321 319 317 318 318 318 319 319 319 319 319 320 320 320 321 320 320 319
312 313 313 314 313 313 313 314 314 314 313 313 313 313 314 314 315 315 315 315 316 316 317 317 317 317 316 316 316 315 314 313 314 315 316 316 317 318 319 319 319 320 321 321 321 321 319 317 316 316 315 316 317 316 316 316 316 316 316 316 316 315 315
311 312 312 313 312 312 312 312 313 313 313 313 313 313 313 313 314 314 314 314 314 314 314 315 315 315 315 315 315 315 314 314 314 314 314 315 315 315 316 316 316 318 319 320 321 320 319 317 316 315 315 315 316 315 315 314 314 314 314 314 314 313 312
311 312 312 313 312 312 312 311 312 312 312 312 312 312 312 312 312 312 312 313 312 312 312 313 313 313 313 314 314 314 314 314 314 314 314 314 314 314 314 314 314 315 316 317 318 318 317 316 315 315 315 315 315 315 314 314 313 313 312 311 310 309 308
310 310 311 311 311 311 311 311 311 311 311 311 311 311 310 310 311 310 310 310 310 310 310 310 310 311 311 312 312 312 312 312 312 312 312 312 312 312 312 312 313 313 314 314 315 315 315 315 315 315 314 314 314 313 313 311 310 309 308 307 307 306 304

ECMWFFLT1_850_thetae_114.txt.gz
Theta_e
334 334 335 336 337 337 337 338 337 337 336 333 331 331 330 329 329 328 327 326 325 324 325 326 327 328 328 328 327 328 329 330 330 330 329 329 329 330 331 331 331 331 330 329 330 330 330 330 330 331 330 330 330 330 330 329 329 329 328 327 327 328 327
334 335 336 336 336 337 336 337 337 336 336 334 332 331 330 330 330 329 329 329 327 325 325 326 327 327 328 328 328 327 328 330 331 331 330 329 328 329 331 331 331 331 331 330 330 330 330 329 329 330 330 330 330 330 329 329 329 329 328 327 327 328 327
334 334 335 336 336 336 336 336 336 335 335 335 333 332 331 331 331 331 331 331 329 328 326 325 326 326 328 329 329 329 328 330 331 332 331 330 329 330 330 331 331 331 331 330 330 330 330 329 329 329 329 329 329 330 329 329 329 329 328 328 328 328 327
333 333 334 334 335 335 335 335 335 335 335 335 334 334 333 332 332 332 332 331 330 330 328 327 327 328 328 329 330 330 330 330 330 331 331 330 329 330 331 331 331 330 330 330 330 330 330 329 329 328 328 328 329 329 329 329 329 329 328 327 327 327 327
334 334 334 334 334 334 335 335 335 335 335 334 334 333 332 331 330 330 330 331 331 330 330 330 330 329 328 329 330 331 331 330 330 330 330 329 329 330 331 331 331 330 330 329 329 329 329 329 329 328 328 329 329 329 328 329 329 329 328 327 327 327 327
335 335 334 333 333 334 334 334 334 334 334 333 332 331 330 330 329 328 327 327 328 328 329 330 331 330 329 330 330 330 331 330 330 330 330 330 329 329 330 331 331 331 331 330 330 329 329 329 329 328 328 328 329 329 328 328 329 329 328 328 327 327 327
334 334 333 332 332 332 332 332 332 331 331 331 330 329 329 329 327 325 323 323 323 323 325 328 330 331 331 330 330 329 329 330 330 331 330 330 329 328 330 331 331 331 331 331 330 330 329 329 329 328 328 329 329 329 328 328 328 328 328 328 327 327 327
332 332 332 331 331 331 331 331 330 330 330 329 329 328 328 327 325 324 323 323 323 322 323 325 327 329 330 330 330 329 328 327 327 330 331 330 329 327 329 331 331 331 331 331 331 331 330 330 329 328 328 329 329 329 329 328 328 328 327 328 328 327 327
331 330 330 330 330 329 329 329 329 329 329 329 329 328 327 326 325 325 325 324 323 323 324 325 326 328 330 330 330 330 328 326 327 329 330 330 329 327 328 329 330 330 331 331 331 331 331 330 330 328 327 328 329 329 329 328 327 327 328 328 327 327 328
329 328 328 328 328 328 328 328 328 328 329 329 328 328 327 326 326 326 325 324 324 325 326 326 327 328 329 330 330 330 329 328 329 329 329 329 329 328 328 328 329 329 330 331 331 331 331 331 330 328 327 327 328 328 328 328 327 327 328 327 327 328 328
328 328 328 327 327 328 328 328 328 327 327 328 328 327 327 327 327 325 324 325 326 327 328 328 328 329 329 330 330 330 329 329 329 330 329 329 328 328 327 327 328 329 329 330 331 331 331 330 329 329 328 328 328 328 328 328 327 327 327 327 327 328 328
326 326 326 326 326 327 327 327 326 325 326 326 327 327 327 327 326 325 324 325 326 327 329 329 328 329 329 330 330 329 329 329 329 329 330 329 327 327 326 326 327 328 329 329 330 330 330 330 330 329 329 330 329 329 329 328 327 327 326 327 328 328 327
324 323 323 324 324 324 324 324 325 325 326 326 327 327 327 326 326 325 325 326 326 326 327 328 329 329 329 330 330 329 329 330 329 329 330 330 328 327 326 325 326 327 328 329 330 330 330 330 329 329 330 330 330 329 330 329 327 326 326 327 327 328 327
322 322 323 324 324 325 325 325 326 326 327 327 327 327 327 326 326 325 326 325 325 325 326 326 327 328 328 329 329 330 330 329 330 330 330 330 329 328 327 327 327 327 327 329 330 330 330 330 330 330 330 330 330 330 329 328 327 327 326 327 327 328 327
322 324 325 325 325 325 325 326 326 326 326 326 327 327 326 326 326 325 326 326 325 325 325 326 326 327 327 328 329 330 330 330 330 330 330 330 329 329 328 328 328 327 327 329 330 330 329 330 330 330 330 330 329 330 329 328 328 327 326 327 327 327 326
322 323 324 325 325 325 325 325 325 325 325 326 326 326 327 327 326 325 325 325 325 324 324 325 326 327 327 328 328 329 330 330 330 330 329 329 329 329 329 329 328 327 328 329 330 330 329 329 329 330 329 329 329 329 329 328 328 327 327 327 327 327 326
322 322 322 322 323 323 324 323 323 323 324 325 325 326 326 327 326 325 325 325 325 325 324 325 326 328 329 328 328 329 329 330 330 329 329 329 330 329 328 328 327 328 329 329 329 330 329 328 328 329 329 329 330 329 329 329 328 328 327 327 327 326 326
321 320 320 320 321 322 323 323 323 323 323 324 324 324 325 326 326 326 325 326 326 326 325 325 326 328 329 329 328 328 329 330 329 329 329 329 329 329 327 327 326 327 328 328 328 329 329 327 328 328 328 328 329 329 329 328 328 327 327 327 327 326 325
320 319 319 321 321 322 322 322 322 322 323 324 324 323 324 326 326 326 326 327 327 326 326 326 326 328 329 329 329 329 329 329 329 329 329 329 328 328 327 326 326 327 328 327 327 328 328 328 328 327 327 328 328 328 328 328 327 327 326 326 326 325 325
319 320 321 321 321 321 321 320 320 321 322 323 324 323 323 325 326 326 326 326 326 326 325 326 326 328 328 328 328 329 329 328 328 328 328 328 327 327 328 327 328 328 328 328 327 328 328 328 328 327 327 327 328 328 328 327 327 327 326 326 326 325 325
319 320 321 320 319 319 319 319 319 319 321 322 323 322 322 324 326 326 326 326 326 326 325 326 327 328 329 328 328 328 328 328 327 328 328 328 327 327 328 328 328 329 329 328 328 327 327 328 328 327 327 327 328 328 328 328 327 327 326 326 325 325 324
318 319 319 318 318 318 318 318 318 319 319 320 321 321 321 322 324 325 325 325 326 326 326 326 327 328 328 328 328 328 328 328 328 328 328 328 327 327 327 327 327 328 329 328 328 326 326 328 328 327 327 327 327 328 328 327 327 327 326 325 325 324 324
317 317 317 317 317 318 318 318 318 318 319 319 320 320 320 320 322 323 324 324 325 325 325 326 328 328 327 327 327 327 328 328 328 328 327 328 328 327 326 326 327 328 328 328 328 327 325 327 328 328 328 327 327 328 327 327 326 327 326 325 324 324 324
317 317 317 318 318 319 319 319 319 319 320 320 320 320 320 320 321 322 323 324 325 325 324 326 327 327 327 327 326 326 326 326 327 326 326 327 328 327 327 327 327 328 327 328 328 327 326 326 326 327 328 328 328 327 327 326 326 326 326 325 324 324 324
317 318 318 318 318 318 319 319 319 319 320 320 320 320 320 321 321 322 323 324 326 326 325 326 327 327 327 327 326 326 326 326 327 326 325 327 327 327 327 327 328 327 327 327 328 328 327 327 326 327 328 328 327 327 327 326 326 326 326 325 324 324 323
317 318 318 318 318 317 318 318 318 319 319 319 319 320 320 321 322 323 323 324 325 326 326 326 327 326 326 326 325 325 325 325 326 326 326 326 326 327 327 326 326 326 326 327 327 327 327 327 327 328 327 326 326 326 326 326 326 326 326 325 324 324 323
317 318 318 318 317 316 316 316 317 318 318 318 319 320 321 321 321 322 323 324 324 325 325 326 325 325 324 324 323 324 324 324 324 324 325 325 326 326 326 326 326 326 326 327 327 327 327 327 327 328 327 326 326 326 326 325 324 325 325 324 324 323 323
317 318 319 318 317 316 316 315 316 316 317 318 319 320 321 321 321 322 323 323 323 323 324 324 323 322 322 322 322 322 323 323 324 324 324 325 325 326 326 326 326 326 326 327 327 327 327 327 327 327 327 325 324 324 325 325 324 324 324 324 323 322 321
317 318 318 317 317 316 315 315 315 316 316 317 318 319 320 320 321 322 322 322 321 321 322 321 320 319 319 320 319 318 319 319 321 322 323 324 324 325 325 325 325 326 326 326 326 326 326 327 327 326 326 325 324 324 324 324 324 323 322 322 322 320 320
316 316 316 316 316 315 315 314 314 315 315 316 317 318 319 319 320 321 321 321 320 321 320 318 317 317 317 317 316 316 316 317 319 320 321 323 324 324 324 323 323 324 324 325 325 325 324 325 325 325 325 325 324 324 324 323 323 322 321 321 320 319 319
315 314 314 314 314 314 314 314 314 314 314 315 316 317 317 318 319 319 320 320 320 320 319 317 316 316 315 315 315 315 315 316 317 318 320 321 322 322 323 323 323 323 323 323 323 323 323 323 324 324 323 323 323 323 321 321 322 321 321 321 320 318 319
314 313 313 313 313 313 313 313 313 313 314 315 315 316 317 317 318 318 318 318 318 318 318 316 316 315 315 314 314 315 315 315 315 315 317 319 319 319 321 322 321 321 321 321 321 321 321 322 322 321 320 321 321 320 318 318 319 319 319 320 319 318 318
314 313 312 311 312 312 312 313 313 313 313 314 314 315 316 316 316 316 316 316 316 316 316 316 315 315 315 314 314 314 314 314 314 314 315 317 318 318 318 318 318 318 318 318 318 318 319 320 320 320 320 320 320 318 317 317 318 318 319 319 319 319 319
312 311 311 311 311 312 312 312 312 312 313 313 313 314 314 314 315 314 314 314 314 314 314 314 314 314 314 314 314 314 314 314 314 315 314 314 315 315 316 316 316 316 316 317 317 317 317 318 319 318 319 319 318 316 316 317 317 317 317 317 317 318 318
312 311 310 310 310 311 311 311 312 312 312 312 312 312 312 312 313 313 312 312 312 312 312 312 312 312 312 313 313 313 313 313 313 313 313 313 314 314 314 315 315 315 314 314 315 316 316 315 316 316 316 316 315 314 315 315 315 315 315 314 314 314 314
311 311 310 310 310 310 310 311 311 311 311 311 311 310 310 310 310 310 310 310 310 310 310 310 310 310 310 311 311 311 311 310 311 311 311 311 311 311 312 313 314 314 314 313 314 315 315 313 313 313 314 314 314 314 314 313 313 313 312 312 311 311 309
311 310 310 310 310 310 310 310 310 309 309 309 309 308 308 308 308 308 308 307 307 307 307 308 308 308 308 309 309 309 309 309 309 310 310 309 308 309 309 310 311 312 313 314 314 314 314 313 313 313 314 313 313 313 312 312 312 311 311 310 309 308 307

ECMWFFLT1_850_thetae_117.txt.gz
Theta_e
333 332 333 333 334 334 334 334 334 334 334 334 333 333 333 331 329 329 329 330 330 329 328 327 327 326 326 326 326 327 328 329 330 329 329 328 329 330 331 331 330 330 329 330 330 330 329 329 330 330 331 331 330 330 330 330 330 329 329 328 328 327 327
331 331 332 333 334 334 334 333 333 334 334 333 333 333 333 332 331 330 330 330 330 330 330 329 329 329 328 327 327 327 328 329 330 330 329 328 328 329 330 331 331 330 330 330 330 330 329 329 330 330 330 331 330 330 330 330 330 329 329 328 328 327 327
332 332 333 333 333 333 333 333 333 333 333 333 333 333 333 333 333 333 332 332 331 330 330 330 330 330 329 329 328 328 329 329 330 330 330 329 328 328 330 331 331 330 330 329 329 330 330 330 330 330 330 330 330 330 330 330 329 329 329 329 329 328 327
332 333 333 333 333 333 334 334 334 333 333 333 333 333 333 333 333 333 332 331 329 329 329 329 329 330 330 330 330 329 329 329 329 330 331 331 329 329 330 331 331 331 330 330 329 330 330 330 330 330 330 330 330 329 329 329 329 329 329 329 329 328 327
333 333 334 334 334 333 333 333 333 333 333 333 333 332 332 332 332 332 330 329 328 328 327 326 325 326 327 328 329 330 330 330 329 330 331 331 330 330 330 330 330 330 330 330 330 330 330 330 330 329 329 329 330 329 329 329 329 329 329 329 329 328 327
334 333 334 334 333 333 332 332 331 331 332 332 331 331 331 331 330 329 328 328 327 326 324 323 323 323 323 323 325 327 329 330 330 330 330 330 330 330 330 330 330 330 330 330 330 330 331 330 330 330 329 329 329 329 329 329 328 329 329 329 329 328 327
334 333 333 333 332 331 331 330 330 330 330 330 330 329 328 328 328 327 327 327 326 325 325 324 324 324 323 322 323 325 327 329 330 330 330 330 330 330 330 329 329 330 330 330 330 330 330 330 330 330 329 329 328 328 328 328 328 329 329 329 329 328 327
332 332 332 331 330 330 330 330 330 330 330 330 329 328 327 327 327 327 326 326 326 326 326 325 324 324 323 323 324 324 326 328 330 331 330 330 330 330 329 329 329 329 329 330 330 330 330 331 330 330 330 329 328 328 328 328 328 328 329 328 328 328 327
331 330 329 329 329 329 329 329 329 329 329 329 328 328 327 327 327 326 326 326 326 326 325 324 324 325 325 325 325 325 326 328 329 330 330 330 330 329 329 330 330 330 330 330 330 330 331 331 331 330 330 330 329 328 328 328 328 328 328 328 328 328 327
329 328 328 328 329 329 328 328 327 327 327 327 327 326 326 326 326 327 326 326 326 325 324 324 325 326 326 326 326 326 327 328 329 330 330 329 329 329 330 330 328 328 329 330 330 330 330 331 331 330 330 330 329 328 328 328 328 328 328 328 328 328 328
327 327 328 328 327 327 326 326 326 325 325 325 325 324 325 325 326 326 326 326 325 324 324 325 325 326 327 326 326 327 328 329 329 330 329 329 329 330 330 330 328 326 326 329 329 329 329 330 331 330 330 330 329 328 328 328 327 328 328 328 327 327 327
326 326 325 324 323 323 323 324 324 323 324 324 324 325 325 326 326 326 326 325 324 324 324 324 325 326 327 327 328 327 328 329 329 329 329 328 329 330 330 330 330 327 325 326 327 328 329 329 330 331 330 330 329 329 328 328 327 327 327 327 327 326 327
324 324 323 322 322 322 322 322 323 324 324 325 325 326 326 326 326 326 326 325 324 324 324 323 324 325 326 326 327 328 328 329 329 329 329 329 329 330 330 330 331 329 325 324 325 328 329 329 329 331 331 331 330 328 328 328 328 327 327 327 326 326 327
323 322 322 322 322 322 322 323 324 324 324 325 325 324 325 325 326 326 326 325 324 324 324 324 324 325 326 326 326 327 328 329 329 328 329 329 329 330 330 330 330 330 328 327 327 328 329 329 329 330 331 331 330 329 329 329 328 328 327 327 326 327 327
322 322 322 322 322 322 323 324 324 324 323 323 323 322 323 325 325 326 326 325 325 325 325 325 324 325 326 327 326 326 327 328 329 329 329 329 328 329 330 330 329 329 330 329 329 329 329 329 329 329 330 330 330 330 329 329 329 329 328 327 327 327 326
321 321 321 321 321 322 323 323 323 322 321 321 322 322 323 323 324 325 326 326 325 326 326 325 325 325 326 327 327 327 327 328 329 329 329 329 329 329 329 330 329 329 330 330 329 329 328 328 329 329 329 329 330 330 330 329 329 329 328 327 326 326 326
321 320 320 320 321 321 321 322 321 321 320 321 322 322 323 323 324 326 326 326 326 326 327 326 326 326 325 327 328 328 327 327 328 328 329 328 329 329 329 329 329 329 330 330 330 329 328 329 329 329 328 329 329 330 329 329 329 329 329 327 326 327 327
320 319 319 320 321 321 320 320 320 320 320 320 321 322 323 323 324 326 325 326 326 326 326 326 325 325 325 327 328 328 327 327 327 328 328 328 328 329 329 329 329 329 330 330 329 329 329 328 328 328 327 327 329 329 329 329 329 329 329 328 327 326 327
319 319 320 320 320 320 319 319 319 319 319 320 320 322 322 322 323 325 325 325 325 326 326 325 325 326 326 327 328 328 328 327 327 327 327 328 329 329 329 329 329 329 329 329 328 328 328 328 326 326 326 326 327 328 328 329 329 329 329 328 327 326 327
319 320 320 319 319 318 318 318 317 318 318 319 319 320 320 321 322 324 324 325 325 325 325 325 325 326 327 328 328 328 327 327 327 327 327 328 329 329 329 329 329 329 329 328 328 328 328 327 326 326 326 327 327 327 328 329 329 329 328 328 327 327 327
320 319 318 318 317 317 318 318 318 318 319 319 319 320 320 320 321 322 323 324 324 325 325 325 326 327 327 327 327 327 327 326 326 326 327 328 328 328 328 329 329 329 328 328 328 328 328 327 327 327 327 328 328 328 328 328 329 329 327 327 327 327 327
318 317 317 317 318 319 319 319 319 319 320 320 320 320 320 320 320 321 322 323 324 324 325 325 326 327 326 326 326 326 326 326 326 327 327 328 328 328 328 328 328 328 328 328 328 328 328 328 327 327 328 328 328 328 328 328 329 328 327 327 327 327 327
317 317 318 318 319 319 319 319 319 319 320 320 320 320 320 321 321 321 322 324 324 324 324 325 326 327 326 325 325 325 325 325 326 326 326 327 327 328 328 328 327 327 327 327 328 328 327 327 327 328 328 329 328 328 328 328 329 328 328 327 327 326 326
317 318 318 318 318 318 318 318 318 319 320 320 321 321 320 321 322 322 323 323 324 324 325 325 325 325 325 324 324 324 325 325 326 326 325 325 326 327 327 327 327 327 327 327 327 328 327 327 327 327 328 329 328 328 328 328 328 328 327 327 327 326 326
318 318 317 317 317 317 317 317 317 318 319 320 321 320 320 321 322 322 323 324 324 325 324 324 323 324 324 323 323 324 323 324 325 325 325 325 326 326 327 327 327 327 327 327 327 328 327 327 327 326 327 328 328 328 328 328 328 328 328 327 327 327 326
318 317 316 315 316 316 316 316 317 318 319 320 320 320 320 321 322 322 323 324 324 323 323 322 322 322 322 322 323 323 323 323 323 323 324 324 325 326 326 326 326 326 326 326 327 327 327 328 328 327 327 327 327 327 327 327 327 327 327 327 327 327 326
317 316 315 315 315 315 315 317 318 319 319 320 320 320 320 321 322 322 322 322 321 321 320 319 318 318 319 319 320 320 321 322 322 323 323 324 324 325 325 325 326 326 326 326 327 327 327 327 328 327 327 327 327 327 327 326 326 326 326 326 326 327 326
317 316 315 315 314 314 315 316 318 319 319 320 320 319 319 320 320 320 319 318 318 317 317 316 316 316 316 316 317 317 318 318 319 320 322 323 324 324 324 324 325 325 325 326 327 327 327 326 327 327 327 326 326 326 326 325 325 326 325 325 326 326 326
317 316 315 314 314 314 314 316 317 318 319 320 320 319 319 320 319 318 316 316 316 316 316 315 315 315 315 315 315 316 316 316 316 317 319 321 322 322 322 323 323 324 324 324 325 325 325 325 325 325 326 326 325 325 325 324 325 325 324 324 324 325 325
315 315 314 314 313 313 314 315 316 317 318 319 319 318 318 318 318 316 316 315 315 315 316 316 315 315 315 315 315 315 315 316 316 316 317 319 320 320 320 320 321 322 322 322 323 322 322 323 323 323 324 324 324 324 322 322 322 322 322 323 323 323 323
314 314 313 313 313 313 313 314 315 316 317 317 317 317 316 317 317 316 316 315 315 315 315 315 315 314 314 314 314 315 315 316 317 316 316 316 316 316 316 316 316 318 319 320 321 320 320 321 320 320 321 321 322 321 319 319 320 320 320 321 321 321 321
314 314 313 312 313 313 313 314 315 315 316 316 316 315 316 316 316 315 314 314 314 314 314 314 314 314 314 314 315 315 315 315 316 316 315 314 314 315 315 315 315 316 318 319 319 318 318 319 318 318 318 319 319 318 316 317 318 318 319 319 319 319 319
313 313 313 312 312 313 313 314 314 315 315 315 315 315 315 315 314 313 312 312 312 312 312 312 313 313 314 314 314 314 313 313 315 315 315 314 314 314 315 316 316 316 317 317 317 316 316 317 316 316 316 317 316 315 315 316 316 317 317 317 317 318 318
311 312 312 312 312 312 313 313 313 314 314 314 314 314 313 313 312 312 311 311 311 311 311 311 312 312 312 312 312 312 312 312 313 314 314 313 313 314 314 314 315 316 316 315 314 313 313 314 314 314 314 314 313 313 314 314 314 315 315 315 315 316 316
310 310 311 311 311 311 312 312 312 312 312 312 313 313 312 312 311 311 311 311 311 310 310 310 310 310 310 310 310 310 310 311 311 312 312 313 312 312 312 312 312 313 314 314 312 312 312 312 312 312 313 313 312 312 312 312 312 312 312 312 313 313 313
310 310 310 310 311 311 310 310 311 310 311 311 311 311 310 310 310 310 309 309 309 309 308 308 308 308 308 308 309 309 309 309 310 310 311 311 310 310 310 310 310 311 312 312 312 311 311 311 311 311 310 310 310 310 310 310 310 310 310 310 310 310 310
310 310 310 310 310 309 309 309 309 309 309 309 309 308 308 307 307 307 306 306 306 305 305 305 304 304 304 304 305 306 306 307 308 308 309 308 308 308 308 308 309 310 311 311 311 310 310 310 309 308 308 308 308 308 308 308 308 309 309 309 308 308 307

ECMWFFLT1_850_thetae_120.txt.gz
Theta_e
332 332 331 330 329 328 327 327 328 330 331 331 332 333 333 333 333 333 333 332 332 332 332 331 331 331 330 330 330 330 330 330 330 329 328 329 329 329 329 329 328 328 329 329 329 329 329 329 329 329 329 329 329 330 330 330 330 330 330 329 328 328 327
330 330 330 330 330 329 329 329 329 330 330 331 332 332 333 333 332 332 332 332 332 332 332 332 331 330 330 330 330 330 331 331 331 330 329 329 329 328 328 329 328 328 328 329 330 330 329 329 329 329 329 329 329 329 330 330 330 330 330 329 329 328 327
330 330 331 331 331 332 332 331 331 331 331 331 331 331 332 332 331 331 331 331 331 332 332 330 329 329 329 328 328 328 329 330 331 331 330 330 329 328 328 327 328 329 329 329 329 330 330 329 329 329 329 329 329 328 329 330 330 330 329 329 329 328 328
332 332 332 332 332 332 332 333 332 332 332 331 330 331 331 330 330 330 330 330 330 330 330 329 328 328 327 326 325 324 325 326 327 329 330 330 330 329 329 327 327 328 329 329 329 330 331 330 329 329 329 329 329 329 329 329 330 330 329 329 329 328 328
332 332 332 333 332 332 331 331 331 331 330 329 328 328 329 329 328 328 327 327 327 327 327 327 327 326 325 325 324 324 324 324 324 324 326 328 330 331 330 329 328 328 328 328 329 330 331 330 329 329 328 329 329 329 329 329 330 330 330 329 329 328 328
333 332 332 333 332 331 330 329 329 328 327 325 325 325 325 325 325 325 325 325 325 326 326 326 326 325 325 325 325 324 324 324 324 323 322 323 327 329 330 330 329 329 329 329 329 330 330 329 329 328 328 329 329 329 329 329 330 330 330 329 329 329 328
332 332 332 331 330 330 329 329 327 326 325 325 325 325 324 324 324 325 325 325 325 325 325 325 325 325 325 324 324 324 324 324 324 323 322 322 323 325 329 329 329 329 329 329 329 329 329 329 329 327 328 329 329 329 329 329 330 330 329 329 329 329 328
331 331 331 330 329 328 327 326 325 325 325 326 325 325 324 324 324 324 325 324 324 324 325 325 325 325 324 323 324 325 325 325 325 325 325 324 323 325 328 329 329 329 329 329 329 329 329 330 329 327 328 328 328 328 329 329 329 329 329 329 329 329 328
332 331 330 329 328 327 325 325 325 325 326 326 325 324 324 323 323 323 323 324 324 325 325 325 325 324 323 323 324 325 325 325 325 325 325 325 326 326 327 328 328 328 329 329 329 329 330 329 329 327 327 328 328 328 329 328 328 328 328 329 329 329 328
331 329 328 327 326 324 324 324 324 324 324 324 323 323 322 323 323 324 325 325 325 325 326 325 324 324 323 323 324 324 325 325 325 325 325 326 327 326 327 328 328 328 328 329 329 329 329 329 328 328 327 328 329 329 329 328 328 327 327 328 328 328 328
329 327 326 325 324 323 323 323 322 322 322 322 322 323 323 324 324 324 325 325 325 325 325 325 324 323 324 323 324 324 325 326 326 326 326 327 327 327 328 328 328 328 328 329 328 327 328 328 328 328 328 327 328 329 329 328 327 327 327 327 327 328 328
328 326 325 324 323 322 321 321 321 321 322 322 323 323 323 323 323 323 324 324 325 325 325 325 323 324 324 324 324 324 325 326 326 327 327 327 327 327 328 328 328 329 329 329 327 326 327 328 328 329 329 328 327 328 329 329 327 327 327 327 327 328 328
326 324 324 323 322 321 321 321 321 322 323 323 323 322 321 321 321 322 322 323 324 325 325 325 324 324 325 324 324 325 325 325 326 327 328 328 328 328 328 329 329 329 329 329 328 327 326 326 328 329 329 329 328 328 329 329 328 327 327 327 327 327 327
324 323 322 322 321 321 321 321 321 322 323 322 321 320 320 321 321 322 322 322 324 325 325 325 325 325 325 325 325 325 326 326 326 326 327 327 328 328 329 329 329 329 329 329 329 328 325 324 327 329 329 329 328 328 329 330 329 328 328 327 327 327 327
322 321 321 321 321 321 320 321 321 322 321 320 320 319 320 321 322 322 322 323 324 325 325 325 326 326 325 325 326 326 325 326 327 327 327 327 328 328 329 329 329 329 329 329 329 328 327 326 328 329 329 329 329 329 330 330 330 329 328 327 327 327 327
321 320 320 320 320 320 320 320 320 320 319 319 319 319 320 321 321 321 322 323 325 325 325 325 325 325 325 325 326 326 327 327 327 328 328 328 328 328 328 328 328 328 329 329 329 328 328 328 329 329 329 329 329 330 330 330 329 329 328 328 328 328 327
320 319 319 319 320 320 320 320 319 319 318 318 318 319 319 320 321 321 322 324 324 324 325 325 325 325 326 326 327 327 328 328 328 328 328 328 328 328 328 328 328 328 328 328 328 328 328 329 329 329 329 329 329 330 330 330 329 328 329 329 329 328 328
319 319 319 320 319 319 318 318 317 317 317 317 318 319 319 320 320 321 322 323 324 324 325 325 325 325 326 327 327 327 328 328 328 327 327 328 328 328 328 328 329 329 328 328 328 328 329 329 329 329 329 330 329 329 329 329 329 328 328 329 329 329 328
319 319 319 319 318 317 317 317 317 317 317 318 318 319 320 320 320 321 322 322 323 324 324 325 326 326 327 326 326 327 327 327 327 327 327 327 328 328 328 328 328 328 328 328 328 328 329 329 329 329 329 329 329 329 329 329 329 328 328 329 329 329 328
319 319 318 317 317 317 318 318 318 318 319 319 319 319 320 320 320 320 321 322 323 324 325 325 326 327 326 325 326 326 326 327 327 327 327 327 328 328 328 328 328 328 328 328 328 328 328 328 329 329 329 329 329 329 328 328 329 328 329 329 329 329 328
318 317 317 317 318 318 318 318 319 319 319 320 320 320 320 320 320 320 321 323 324 324 325 326 326 326 325 325 325 325 325 326 326 327 327 327 327 327 327 327 328 328 328 328 328 328 328 328 328 328 328 329 329 329 328 328 327 328 328 328 329 329 328
317 317 318 318 318 318 318 318 318 319 320 320 321 321 320 320 321 321 322 323 323 322 323 324 324 324 323 323 324 324 325 325 326 326 326 326 327 327 327 327 327 327 327 327 327 327 327 328 328 328 328 328 329 329 328 328 328 328 328 328 328 328 327
318 318 318 318 318 317 317 318 318 319 319 320 320 320 320 321 321 322 323 323 322 321 322 323 323 322 322 322 323 323 323 324 325 325 325 325 326 326 326 327 327 327 327 326 326 327 327 327 328 328 328 328 328 328 329 329 328 328 328 328 328 327 327
318 317 317 317 317 316 317 317 318 318 319 319 319 319 319 321 322 323 324 323 321 321 321 321 321 321 321 322 322 323 323 323 324 324 324 325 325 325 326 326 326 327 327 327 327 327 327 327 328 328 327 327 327 327 328 328 328 328 328 328 328 328 327
317 316 316 315 315 316 317 318 319 319 319 319 319 319 321 322 323 323 323 321 320 319 318 317 317 318 318 319 320 321 322 322 323 324 324 324 324 325 325 325 326 326 327 327 327 327 327 327 327 327 327 327 327 326 327 327 327 328 328 328 328 327 327
316 315 314 314 315 316 317 318 319 319 318 319 319 320 321 321 321 320 319 318 317 316 315 315 315 315 316 316 317 318 319 321 322 323 323 323 323 323 324 324 325 325 325 326 326 327 327 327 326 326 326 326 326 326 326 326 326 327 327 327 327 327 327
315 314 314 313 314 316 317 318 319 318 318 318 318 318 318 318 317 317 316 315 315 315 314 314 314 314 314 315 315 316 317 318 320 321 321 321 321 322 322 322 323 324 324 324 324 325 325 325 325 325 325 325 325 325 325 325 325 325 325 325 325 325 325
315 314 313 313 314 315 317 318 318 317 317 318 317 317 316 316 315 315 315 315 314 314 314 314 314 314 315 315 316 316 317 318 319 319 319 319 319 320 320 321 321 321 320 320 320 321 322 322 323 323 324 323 324 324 324 324 324 324 324 324 324 324 324
314 313 313 313 313 314 316 316 316 316 316 316 316 315 315 315 315 315 315 314 314 313 314 314 314 314 315 316 316 315 316 316 317 317 317 317 317 318 318 319 319 318 317 317 317 318 319 320 321 322 322 322 322 322 322 322 322 323 323 323 323 323 323
314 313 313 312 312 313 315 315 315 315 315 315 315 314 315 314 314 314 314 313 313 313 314 314 314 314 314 315 315 314 314 315 315 315 316 316 316 316 317 317 317 317 316 316 316 317 317 318 319 319 319 319 319 319 318 317 318 320 320 320 320 321 321
313 313 312 312 312 313 314 314 314 314 314 314 314 314 313 313 313 312 312 312 313 313 313 313 313 312 313 313 313 313 313 313 313 314 315 315 315 315 315 315 315 315 315 315 315 315 316 316 316 316 316 317 317 316 315 315 316 317 317 317 318 319 319
313 312 312 312 312 313 314 314 313 313 313 313 313 313 312 312 311 311 311 311 312 312 312 311 311 311 311 312 312 312 312 312 312 313 314 314 314 314 313 313 313 313 314 314 314 314 314 314 314 313 314 314 314 314 314 314 315 315 315 316 316 317 317
313 312 312 313 313 313 314 313 313 312 312 312 312 312 311 311 311 310 310 311 311 311 311 310 310 310 310 310 311 311 312 312 312 312 313 313 313 313 313 312 312 312 312 312 312 312 312 312 312 311 311 311 311 311 312 312 312 313 313 314 314 314 314
312 312 312 312 313 313 313 313 313 312 312 311 311 311 311 311 310 310 310 310 310 309 309 309 309 309 309 310 310 311 311 311 312 312 312 312 312 311 311 311 310 311 311 311 311 311 310 310 310 310 310 309 309 309 309 310 310 310 310 311 311 311 311
312 312 312 312 312 312 312 312 312 311 311 311 311 311 310 310 310 310 309 309 309 308 308 308 308 308 308 308 309 309 309 310 310 311 311 311 310 310 309 309 309 310 311 311 310 310 310 309 309 309 308 308 308 308 309 309 309 309 309 309 309 309 309
311 311 311 311 311 311 311 310 310 310 310 310 310 309 309 309 308 308 308 307 307 306 305 305 305 305 305 305 306 306 307 307 308 309 309 308 307 307 307 307 307 308 309 309 309 309 309 308 307 307 306 306 307 307 307 308 308 308 308 308 308 308 307
310 310 310 310 310 310 309 309 309 309 308 309 308 308 307 307 307 306 305 304 303 302 301 301 301 300 301 301 302 302 303 304 305 306 306 305 304 304 304 304 305 305 306 306 306 306 306 305 305 304 304 305 305 305 305 305 305 306 306 306 306 306 305

ECMWFFLT1_850_thetae_123.txt.gz
Theta_e
333 333 333 332 331 332 332 332 332 332 332 332 332 332 331 332 332 331 331 331 330 330 330 330 331 331 331 330 330 329 330 330 330 330 330 330 330 330 329 329 329 329 329 329 329 329 329 329 329 328 328 328 328 329 330 329 329 330 329 329 329 329 327
332 332 332 332 332 332 332 333 332 332 332 332 332 332 331 331 331 330 330 330 330 329 329 328 329 329 329 329 328 327 327 327 327 328 328 329 329 330 330 330 329 328 329 329 329 329 328 329 329 329 328 328 328 328 328 328 329 329 329 329 329 329 328
332 332 332 332 332 333 332 332 332 331 331 330 330 329 329 328 328 329 328 328 328 328 327 327 327 327 328 327 327 326 326 325 326 326 326 326 326 327 328 330 330 329 329 329 328 328 328 329 329 328 329 328 328 328 327 327 328 329 330 330 329 329 329
332 333 332 333 333 332 332 332 331 330 329 327 326 326 325 325 326 326 326 326 326 326 326 326 326 326 326 326 326 325 325 325 325 325 326 325 325 325 325 328 330 329 329 329 329 328 328 329 328 328 329 328 328 328 327 328 329 329 330 330 330 330 329
333 333 333 332 332 332 331 331 330 328 326 324 324 324 324 324 324 324 325 325 325 325 325 324 324 324 325 325 325 325 325 324 324 325 325 325 325 325 325 326 327 328 330 330 330 330 329 329 329 329 328 328 329 329 329 328 329 329 329 329 330 330 330
333 332 332 332 331 331 330 330 328 325 323 322 322 322 322 322 322 322 322 323 323 323 323 323 324 324 325 325 325 324 324 324 325 326 326 326 325 326 325 325 325 326 328 329 330 329 329 329 329 329 329 329 329 329 329 329 328 328 329 329 329 330 330
332 332 331 331 330 330 328 326 324 322 322 321 321 320 321 320 321 321 321 322 322 323 324 324 324 325 325 325 324 323 323 324 325 326 327 327 326 326 326 325 325 324 324 326 328 328 329 329 329 329 329 329 329 329 329 328 329 329 329 329 329 330 330
332 332 331 330 330 329 326 323 322 322 321 320 320 320 320 320 320 321 321 322 323 323 324 324 324 325 325 325 323 323 323 324 324 325 326 327 326 326 326 325 325 325 324 325 327 328 329 329 329 328 328 329 329 329 328 328 329 329 329 329 329 330 330
331 331 330 330 329 328 325 323 322 321 320 319 319 319 320 321 321 321 321 322 322 322 322 323 324 325 325 324 323 323 323 324 324 324 326 327 327 326 326 326 326 326 326 326 327 328 328 328 329 328 328 328 328 328 328 328 328 329 329 329 329 330 330
331 330 330 329 329 326 324 322 321 320 319 319 320 320 321 321 321 320 320 320 320 320 321 323 325 325 325 323 323 323 323 324 325 325 325 326 327 326 326 327 327 326 326 327 327 328 328 328 328 328 328 328 328 328 328 328 328 329 329 329 329 329 330
331 330 330 330 328 326 323 321 320 319 319 320 320 321 321 321 320 319 319 320 320 321 322 324 325 325 324 324 324 325 325 325 326 326 325 326 327 327 327 327 327 327 327 327 327 328 328 328 328 328 328 328 327 326 327 327 328 329 329 329 329 329 329
330 329 330 328 326 323 321 319 320 319 320 321 321 321 320 319 319 319 320 320 320 321 322 324 325 324 325 325 325 326 326 325 326 327 326 326 326 327 327 327 327 327 327 327 328 328 328 328 328 328 328 327 327 326 326 327 328 329 329 329 328 329 329
328 328 328 326 323 321 320 320 320 319 320 321 321 320 319 318 319 319 320 320 319 321 323 324 325 325 325 325 325 326 327 326 326 326 326 327 327 327 327 328 327 327 328 328 329 329 329 329 328 327 326 326 327 327 327 327 327 328 329 328 328 328 328
326 327 326 323 321 320 320 319 320 320 320 320 319 318 318 318 319 319 320 320 320 322 324 324 325 325 325 325 325 326 327 327 327 327 327 327 327 327 327 328 328 328 328 329 329 329 329 330 329 327 325 324 326 327 327 327 327 327 328 328 328 328 328
325 324 322 320 319 319 320 320 319 319 318 318 317 317 318 318 319 320 320 321 322 323 324 324 324 324 324 325 326 326 327 327 328 327 327 327 327 327 328 327 328 328 328 328 329 329 329 329 329 327 324 324 325 327 328 327 326 327 328 328 327 328 328
323 321 320 319 319 319 319 319 318 317 317 317 317 317 318 319 319 320 321 321 323 324 324 324 324 325 325 326 326 326 327 327 327 327 327 327 327 328 327 327 328 328 328 328 328 329 329 329 329 328 326 325 325 327 328 328 327 327 328 328 327 328 328
320 319 319 319 319 319 318 318 317 317 318 318 318 318 319 319 320 320 321 321 322 323 323 324 325 326 326 326 325 326 327 327 327 327 327 327 327 327 327 327 328 328 329 328 328 328 329 329 329 329 328 328 327 327 328 328 327 327 328 327 327 327 327
319 319 319 319 318 318 317 318 318 318 319 319 319 319 319 320 320 320 321 322 322 322 323 324 326 326 325 325 325 325 326 326 327 327 327 327 327 328 328 328 328 328 329 328 328 328 328 329 329 329 329 329 329 328 328 327 326 327 327 327 328 328 327
318 319 318 317 317 318 318 318 319 319 319 319 320 319 320 320 320 321 321 322 322 322 323 325 326 325 324 324 324 324 325 325 326 326 326 327 327 327 328 327 328 328 328 328 328 328 328 328 328 329 328 328 328 328 329 328 327 327 327 327 328 328 328
318 318 317 317 318 318 318 318 319 319 319 320 320 320 320 320 321 321 321 321 321 322 324 325 324 323 323 323 323 324 324 325 326 325 326 326 326 327 327 327 327 328 328 328 328 328 328 328 328 328 328 328 328 327 328 328 327 326 327 327 327 328 328
318 317 318 318 318 318 318 318 318 319 319 319 320 320 320 321 322 322 321 321 322 322 323 323 322 322 322 322 323 323 323 324 325 325 325 325 325 326 326 326 326 327 327 327 328 328 328 328 328 328 327 327 327 326 326 326 326 326 326 326 326 326 328
317 318 318 318 318 318 318 318 318 319 319 319 319 319 321 322 322 321 321 321 321 320 319 319 319 319 320 321 322 322 322 323 324 324 324 324 325 325 325 325 326 326 326 327 327 328 327 328 328 328 327 327 326 326 326 326 327 326 326 325 325 325 326
318 318 317 317 317 318 318 318 318 318 318 319 319 320 321 322 321 320 319 318 317 316 316 316 316 316 317 317 319 320 322 323 323 324 324 324 324 324 325 325 325 325 326 326 326 327 327 327 327 327 327 327 326 326 326 326 326 327 326 326 326 326 327
317 316 316 317 317 317 318 318 318 318 318 319 321 322 322 321 320 318 316 315 315 315 315 314 314 315 315 316 317 318 320 322 322 323 323 323 323 324 324 324 325 325 325 325 325 326 326 326 326 326 327 327 326 326 326 326 325 325 326 325 326 327 327
316 316 316 317 317 318 317 317 317 318 319 320 321 321 320 319 317 315 314 314 314 314 314 315 315 315 315 316 317 318 319 321 321 321 321 322 322 323 323 323 323 323 323 323 323 324 324 324 325 325 326 326 326 326 326 326 325 325 325 325 325 325 325
315 315 316 317 317 317 317 317 317 318 318 319 319 318 317 316 315 314 314 314 314 314 315 315 316 316 315 316 317 318 319 319 319 320 320 320 320 320 320 320 320 320 320 320 321 321 321 322 322 323 323 324 324 324 325 325 324 324 324 324 325 324 324
314 314 315 316 316 316 316 316 317 317 317 317 316 316 315 315 314 313 313 314 314 314 315 315 315 315 315 316 317 317 318 318 318 318 317 317 317 317 317 317 317 317 318 318 318 318 318 319 320 321 321 322 322 322 323 323 322 323 323 323 324 324 324
313 313 315 315 316 316 315 315 316 316 316 315 315 315 315 314 313 313 313 313 313 313 314 314 314 314 315 315 316 316 316 316 316 316 315 315 315 315 315 316 316 316 316 316 316 317 317 318 318 319 319 319 319 320 320 320 320 321 321 322 322 322 322
313 313 314 314 315 315 315 314 314 315 315 315 315 314 314 313 313 313 313 313 312 312 312 313 313 313 313 314 314 315 315 314 314 314 314 314 314 314 314 314 314 314 314 315 314 315 315 315 316 317 316 316 316 317 317 317 317 318 319 320 321 321 321
313 312 313 313 314 314 314 313 313 313 313 313 314 313 313 313 313 313 312 312 312 312 311 311 311 312 312 312 312 313 314 313 313 313 313 313 313 313 313 313 313 312 312 312 312 313 313 313 313 314 314 313 314 314 314 315 316 316 317 318 318 319 319
312 312 312 313 313 313 312 312 312 312 312 312 313 312 311 312 312 312 312 311 311 311 311 310 311 311 312 312 311 312 313 313 312 312 312 312 312 311 311 311 311 311 311 310 310 310 311 311 311 311 311 311 311 312 312 313 313 314 315 316 316 316 317
312 312 313 313 313 312 312 311 311 311 311 311 311 311 311 311 311 311 311 311 310 310 310 310 310 311 311 311 311 311 312 312 311 311 311 311 311 311 310 310 310 310 310 310 310 310 310 310 310 309 309 309 309 309 310 310 311 311 312 313 313 314 315
312 313 313 313 312 312 311 311 311 310 310 311 311 311 311 311 311 310 310 310 310 309 309 309 309 309 310 310 311 311 311 311 311 311 311 311 311 310 310 310 309 309 309 310 310 309 309 309 309 308 308 308 308 307 307 308 308 309 310 310 310 311 312
313 313 313 312 312 311 311 311 311 311 310 310 311 310 310 310 309 309 308 308 308 308 307 307 307 307 308 309 309 310 310 310 310 310 310 309 309 309 309 308 307 307 308 308 308 308 308 308 308 307 307 306 306 306 306 307 307 308 308 308 308 308 309
312 312 312 312 311 311 311 311 310 310 310 310 310 309 309 308 308 307 306 305 305 304 304 304 304 304 305 306 307 307 308 308 308 308 308 307 306 306 305 305 304 305 305 306 306 306 306 306 306 305 305 304 305 305 305 305 305 306 306 306 307 307 307
311 311 311 311 310 310 310 310 310 310 309 309 309 308 307 306 306 305 303 301 301 300 299 300 300 300 301 301 302 303 303 304 304 304 304 304 303 303 303 302 302 302 303 303 302 303 303 303 303 303 303 303 303 303 303 303 303 303 303 304 304 304 304
310 310 310 310 309 309 309 309 308 308 308 307 307 306 305 304 303 301 300 298 298 297 297 297 297 297 297 298 298 299 299 299 300 300 300 300 300 300 300 300 300 300 299 299 299 300 301 302 302 302 302 302 301 301 301 301 301 301 301 301 301 301 301

ECMWFFLT1_850_thetae_126.txt.gz
Theta_e
336 335 334 334 334 334 334 333 334 334 334 334 334 333 334 334 333 332 332 331 331 331 331 330 330 330 330 330 329 329 330 330 330 330 329 329 330 330 330 330 331 331 330 329 330 331 331 331 330 330 331 331 330 329 330 331 330 330 330 330 331 330 330
335 335 334 334 334 334 334 334 334 334 334 333 333 333 333 333 332 331 331 331 331 331 330 330 330 329 329 329 328 328 328 328 328 328 328 328 329 329 328 328 330 331 331 330 329 330 331 331 329 329 330 331 332 330 329 330 330 330 330 330 330 330 330
335 335 334 335 335 334 335 334 334 334 333 333 332 331 332 331 330 330 330 330 330 329 329 329 329 328 328 328 328 328 328 328 328 327 327 328 329 329 328 329 329 329 331 331 329 330 331 330 329 328 329 330 332 332 330 328 329 329 330 330 331 330 330
335 334 334 335 334 334 334 334 333 333 333 332 331 331 331 329 328 328 328 328 328 328 328 328 328 328 328 328 328 328 327 327 328 328 328 328 328 329 328 329 328 328 329 329 329 330 329 330 329 327 328 329 330 332 332 329 328 329 329 329 330 330 329
335 334 335 335 334 334 334 333 332 332 331 330 330 330 329 326 325 325 326 326 327 327 328 328 328 328 328 328 328 328 328 328 327 328 328 328 328 329 328 329 329 329 329 328 329 330 328 329 329 328 328 329 329 331 332 330 328 328 329 328 329 329 329
335 334 334 334 333 333 332 331 331 330 329 329 329 328 326 322 321 322 323 324 325 326 326 325 325 326 327 328 328 328 328 328 327 327 327 328 328 328 328 329 329 329 329 328 329 329 327 327 328 328 328 328 328 330 331 331 328 328 329 329 328 329 329
333 334 333 332 332 331 331 330 329 328 328 328 327 325 323 321 320 320 321 322 322 324 325 323 323 325 326 327 328 328 328 327 327 327 327 328 328 328 328 328 329 329 328 327 328 328 328 328 328 328 327 327 328 329 330 331 330 329 329 329 328 328 329
332 332 332 331 331 330 330 329 328 327 326 325 324 322 321 321 321 321 321 320 320 323 324 323 324 325 327 328 328 327 327 327 327 328 328 328 328 328 328 328 329 329 328 326 327 327 327 328 327 326 327 327 329 329 329 330 330 330 329 329 329 328 329
332 332 331 330 330 330 329 327 326 325 323 322 321 320 321 321 321 321 320 319 320 322 324 324 325 326 327 327 327 327 327 327 327 327 328 328 328 328 328 328 328 329 328 327 327 327 327 328 327 327 327 328 328 329 329 329 330 331 329 329 330 329 329
332 331 330 330 330 330 328 326 323 322 320 320 320 320 321 321 320 319 319 319 320 321 322 322 324 326 327 327 327 327 327 328 328 327 327 328 329 328 328 328 329 330 329 327 328 328 327 327 327 328 328 328 328 329 329 328 330 331 329 329 330 330 329
331 330 330 329 329 328 327 324 321 320 320 319 320 320 320 319 319 318 318 319 320 320 320 322 324 325 326 327 327 327 327 329 329 328 328 329 329 329 328 328 329 329 329 328 328 329 329 328 328 328 328 328 328 329 329 328 329 330 329 329 329 330 330
330 329 329 328 328 327 324 322 320 320 320 320 320 319 319 318 318 318 319 320 320 319 321 323 324 325 325 326 327 327 328 328 329 329 329 329 329 329 329 329 329 329 329 328 328 328 329 329 329 328 327 328 328 328 328 328 328 329 328 328 328 329 329
329 328 328 328 327 325 321 320 320 319 319 319 318 318 317 317 317 318 319 320 320 321 323 324 324 325 325 325 326 327 327 328 328 329 329 329 328 328 328 329 329 329 329 328 328 328 329 329 329 329 328 328 328 327 327 328 328 327 327 327 327 328 329
328 327 328 327 325 322 320 319 319 319 319 318 317 316 317 317 318 319 319 320 321 322 324 324 324 325 324 325 326 326 327 327 327 328 329 329 329 328 328 328 328 329 329 329 328 328 329 329 329 329 329 329 328 327 326 327 327 327 327 327 327 328 329
327 327 326 324 322 320 319 319 319 318 317 317 316 317 318 318 319 320 320 321 322 322 323 324 324 325 325 326 326 326 326 327 327 327 328 328 328 328 328 328 329 330 329 329 328 328 328 328 328 329 329 328 328 327 325 324 325 327 327 327 326 327 328
326 325 323 320 319 319 319 318 317 317 317 317 318 318 319 319 320 320 321 321 321 322 323 324 325 326 326 326 325 325 326 327 327 327 327 328 328 328 328 328 329 329 329 329 328 328 328 328 328 329 329 328 328 327 325 324 326 327 326 326 325 325 327
323 322 320 319 319 318 318 317 317 317 317 318 319 319 319 320 320 321 320 320 321 322 323 325 326 325 325 325 325 325 325 326 326 326 327 327 327 327 327 328 328 328 329 328 328 328 328 328 328 328 328 328 328 328 327 327 327 327 326 327 326 325 326
320 319 319 319 318 318 317 318 318 317 318 319 320 320 320 320 320 320 321 321 321 322 324 325 324 324 324 324 324 325 325 326 326 325 325 326 325 325 326 326 326 327 327 328 328 327 327 327 328 328 328 328 328 328 328 328 327 326 326 326 326 326 327
319 319 319 318 318 317 317 318 317 318 319 320 320 320 320 320 320 321 322 322 323 323 323 323 323 323 323 323 323 324 324 325 325 325 325 324 324 325 325 325 325 326 326 327 328 328 327 327 328 328 328 328 328 328 328 328 327 326 326 326 326 327 327
318 318 318 318 318 317 317 318 318 319 320 321 321 320 320 320 321 322 322 321 321 321 320 320 320 320 320 321 321 322 323 324 324 324 324 324 324 324 324 325 325 325 326 326 327 327 327 327 328 328 328 327 328 328 328 328 327 327 326 326 326 326 326
318 318 318 318 317 317 317 318 318 320 321 321 320 320 321 321 321 320 319 318 318 317 317 317 317 317 317 318 319 320 322 323 323 323 323 323 323 323 323 324 324 325 325 326 326 326 326 327 327 327 327 327 327 327 327 327 327 327 327 326 326 326 326
318 318 318 317 317 317 317 318 319 320 320 320 320 321 321 320 319 317 316 316 316 316 316 316 316 316 316 317 318 319 321 322 323 323 323 322 323 323 323 324 324 324 325 325 325 325 325 326 326 326 327 327 326 326 326 326 326 327 326 326 326 326 326
318 317 317 317 317 317 317 318 319 320 320 321 322 321 319 317 316 315 315 315 315 315 315 315 316 316 316 317 319 319 320 321 322 322 322 322 322 323 323 323 323 323 323 323 323 324 324 325 325 326 326 326 326 326 325 326 326 326 326 326 326 325 325
317 316 316 316 317 317 317 318 319 319 321 322 321 318 316 315 315 314 315 315 315 315 315 316 316 316 317 318 319 319 320 320 321 321 321 321 321 321 320 320 320 320 320 320 320 321 322 323 323 324 324 324 325 325 325 325 325 325 325 325 325 325 325
316 315 316 317 317 317 317 318 319 320 321 320 318 315 314 314 314 314 314 314 314 315 315 316 316 317 318 318 319 319 319 319 319 319 318 318 318 318 317 317 317 318 318 318 318 318 319 320 320 321 322 322 323 323 324 324 323 323 324 324 324 325 325
315 315 316 317 317 317 318 318 319 319 318 317 315 314 314 314 314 314 314 313 313 314 315 315 316 317 317 318 318 317 317 316 316 316 316 316 316 315 316 316 316 316 316 317 317 317 318 318 318 318 319 320 320 320 321 321 321 322 322 323 323 323 323
315 315 316 316 317 318 318 318 317 316 316 315 314 314 314 314 313 313 313 312 313 313 314 315 315 316 316 316 316 316 315 314 315 315 315 315 314 314 313 313 314 315 315 316 316 316 316 316 316 317 317 318 318 318 318 319 320 320 321 321 322 322 322
315 315 316 316 316 317 317 316 314 314 314 314 314 314 313 313 313 312 312 312 312 312 312 313 313 314 315 314 314 314 314 313 313 313 313 313 313 312 312 312 312 312 313 314 315 314 314 314 315 315 315 316 316 316 317 317 318 319 319 319 319 319 320
314 315 315 315 315 315 316 315 314 314 314 313 313 313 313 312 312 312 312 311 311 311 312 312 312 312 313 313 312 312 312 312 312 312 311 311 311 311 311 310 310 310 310 311 312 312 312 312 312 312 313 313 314 314 315 316 316 317 317 317 317 316 316
314 314 314 314 313 313 314 315 314 313 312 312 313 312 312 312 312 312 312 311 311 311 311 311 311 311 312 312 312 311 312 311 311 311 310 310 310 309 309 310 309 309 309 309 310 311 311 310 310 310 310 311 311 313 313 314 315 315 315 315 315 315 315
313 313 313 313 312 312 312 313 313 312 312 312 312 311 311 312 311 311 311 311 311 311 311 311 311 311 311 312 312 311 311 311 311 310 310 310 309 309 308 308 308 309 309 308 309 310 310 310 309 309 309 309 309 310 311 312 313 313 314 314 314 314 314
312 312 312 312 312 312 311 311 311 311 311 311 311 311 311 310 310 310 310 310 310 310 309 310 310 311 311 311 311 311 311 310 310 309 308 308 308 307 307 306 306 307 307 307 308 309 309 309 308 308 308 308 308 308 309 310 311 311 312 312 312 312 313
312 312 312 312 311 311 311 311 311 311 311 310 310 310 310 309 309 308 308 308 308 308 308 308 308 309 310 310 311 310 310 309 308 307 307 306 305 305 304 304 304 305 305 306 306 307 308 308 308 307 307 307 307 306 307 308 308 309 310 310 310 310 310
312 311 311 311 311 311 311 311 310 310 310 310 309 309 308 307 307 307 306 305 305 305 305 306 306 306 307 307 308 308 308 307 305 304 304 303 302 302 302 302 303 303 304 304 305 305 305 305 305 305 305 305 305 305 305 306 306 306 307 307 308 308 308
311 311 310 310 310 310 310 310 310 310 309 309 308 307 306 305 304 303 302 301 301 300 301 301 301 301 301 302 302 303 303 303 302 301 301 300 300 300 301 301 302 302 303 303 303 303 303 303 303 303 303 303 303 304 305 304 304 304 305 305 305 305 305
311 310 310 310 310 310 310 310 309 308 307 307 306 305 304 302 301 300 299 298 298 297 297 297 297 297 297 298 298 298 298 298 298 298 298 298 298 299 299 300 300 300 301 301 301 301 301 301 301 301 301 301 302 303 304 304 304 303 304 304 303 303 303
309 309 309 310 309 309 309 308 307 306 305 305 304 303 302 301 300 299 298 297 296 296 296 296 296 296 296 296 296 296 296 296 296 296 297 297 297 297 298 298 298 298 298 298 298 298 298 298 299 299 299 300 301 302 303 303 304 304 303 303 303 303 303

ECMWFFLT1_850_thetae_129.txt.gz
Theta_e
338 337 337 336 337 337 336 336 336 335 335 334 334 336 335 335 335 334 333 332 332 332 332 332 331 331 331 331 331 331 330 330 331 331 331 331 331 332 332 332 332 331 331 332 331 331 331 331 332 331 330 330 330 329 329 329 329 329 330 331 331 331 331
338 339 338 336 335 335 335 336 336 337 336 336 335 334 334 334 333 332 332 331 331 332 332 332 331 331 331 331 330 330 330 330 330 330 331 331 330 331 331 331 331 331 332 333 331 330 330 331 331 330 330 330 330 331 330 328 327 327 329 330 331 331 331
336 337 338 337 336 336 337 337 338 337 336 336 335 334 333 332 332 332 331 331 331 331 331 331 330 330 330 330 330 330 330 330 330 330 330 331 331 331 331 331 331 331 331 332 332 331 330 330 330 330 330 330 330 331 329 328 327 327 327 329 330 332 331
335 336 337 338 338 338 338 337 337 336 335 334 333 332 331 331 331 330 330 330 330 330 329 329 329 330 329 329 330 329 330 330 329 330 331 331 330 330 331 331 331 331 331 331 331 331 331 330 330 329 329 329 329 329 329 329 329 328 327 328 330 332 331
337 337 338 338 338 337 337 336 335 334 333 332 331 331 331 330 329 328 328 329 329 329 329 329 329 329 328 329 329 328 329 329 329 330 331 330 330 330 331 331 331 330 330 331 331 332 331 329 329 329 329 330 330 328 329 330 329 328 329 329 331 332 330
339 338 338 337 336 336 335 334 334 332 331 331 330 331 330 329 327 327 328 329 329 328 328 328 328 327 327 328 328 328 328 328 329 330 330 330 330 330 331 331 330 330 330 330 330 331 331 329 328 329 328 330 329 327 329 330 328 329 331 330 331 333 331
338 337 337 336 334 334 333 333 332 331 331 330 329 329 328 327 326 327 327 327 328 327 327 327 327 327 327 327 327 328 328 328 329 330 330 330 330 330 331 331 330 331 330 329 329 329 331 330 329 328 328 329 328 328 329 329 328 328 329 329 329 331 331
336 335 335 333 333 333 332 331 330 330 329 327 327 327 326 326 327 327 327 326 326 326 326 328 327 327 327 327 327 328 328 328 329 330 330 330 331 331 331 331 331 331 331 330 329 329 330 331 329 328 328 329 329 329 329 328 328 327 327 329 330 329 329
334 334 333 332 332 331 330 329 328 327 325 323 324 326 325 326 326 324 324 324 324 324 324 325 326 326 327 327 328 328 329 329 329 330 330 331 332 331 331 331 331 331 330 330 329 329 330 330 328 328 328 328 328 329 329 328 328 328 328 329 330 329 329
333 333 332 331 330 330 329 328 326 324 323 320 321 324 324 325 324 321 318 320 322 322 322 322 323 325 326 326 328 328 328 329 330 330 331 331 332 331 331 331 331 332 331 330 329 329 329 329 328 328 328 328 329 328 328 329 329 329 328 328 329 330 330
332 331 331 330 329 329 328 326 325 324 323 319 320 322 322 323 322 319 318 319 321 321 321 321 323 324 325 325 327 328 329 330 330 330 331 332 331 330 330 330 331 331 330 330 330 329 329 328 328 328 328 328 329 329 329 329 328 328 328 327 328 330 331
330 329 329 329 328 328 326 325 324 323 320 319 320 320 321 321 320 320 321 321 321 322 322 323 324 324 324 325 326 327 328 329 330 330 331 331 330 330 330 330 331 331 330 330 330 329 329 329 328 328 328 328 328 328 329 328 327 327 327 327 327 328 329
329 328 327 327 327 327 325 322 321 320 319 319 318 317 319 319 319 320 321 321 321 322 322 323 324 324 325 325 326 326 326 327 328 329 330 330 330 330 330 330 331 330 330 329 329 328 328 328 328 328 328 327 327 328 328 328 328 327 327 327 327 325 326
327 327 326 326 326 325 322 320 320 319 318 317 316 317 318 319 319 320 321 321 321 321 321 322 323 324 325 326 326 326 326 326 327 328 329 330 330 330 330 330 330 329 330 329 328 328 328 328 328 327 327 327 327 327 328 328 328 328 327 326 326 325 326
326 325 325 325 324 322 320 319 319 318 317 316 317 318 318 319 319 320 321 321 321 321 322 323 324 325 326 325 325 325 325 326 326 327 328 328 329 329 329 329 328 328 328 328 328 328 328 327 327 327 327 327 328 328 328 328 328 328 327 325 325 326 327
324 324 323 322 321 320 319 319 318 316 316 317 318 318 319 319 320 320 320 321 321 322 324 324 325 325 325 324 324 324 324 325 325 325 325 326 326 326 326 326 326 326 327 327 327 327 327 327 326 327 327 327 327 328 328 328 328 328 327 325 326 328 327
322 322 321 320 319 319 318 317 316 316 317 318 319 319 319 320 320 321 321 322 323 323 324 324 323 323 323 323 324 324 324 325 324 324 324 324 324 324 324 324 324 325 325 326 326 327 327 327 327 327 327 327 327 327 327 328 328 328 327 327 327 328 327
321 320 319 319 319 318 318 317 316 316 318 319 320 320 320 320 321 322 322 323 322 322 322 321 321 321 321 322 322 322 323 323 323 323 323 323 323 323 323 323 323 323 324 325 325 326 327 327 327 327 327 327 327 327 327 327 327 328 328 328 328 327 326
320 319 319 319 318 317 317 317 317 318 319 320 320 320 321 322 322 322 322 321 321 320 319 319 319 319 319 319 320 320 321 322 322 322 322 322 323 323 322 323 323 322 323 324 324 325 326 326 326 327 327 327 327 327 327 327 327 328 328 328 327 327 326
319 319 318 318 317 318 317 317 318 319 320 320 320 321 322 322 321 321 320 319 318 318 318 317 317 317 317 318 318 319 320 322 321 321 321 322 322 322 322 322 322 322 323 323 323 324 324 325 326 326 326 327 327 327 327 327 327 327 327 327 327 327 327
318 318 318 318 317 317 317 318 320 320 321 321 321 322 321 320 319 318 317 317 317 316 316 316 316 316 317 317 318 319 320 321 321 320 321 321 321 321 322 321 321 321 321 321 321 322 323 324 325 325 325 326 326 326 326 326 326 326 326 326 326 326 327
318 318 318 317 317 318 318 320 320 320 320 321 321 320 318 317 317 316 316 316 316 316 316 316 316 316 317 318 319 320 320 320 320 319 320 320 319 319 319 319 319 319 319 318 318 319 320 321 323 323 323 324 325 325 326 325 325 326 326 326 326 326 326
318 318 318 317 317 318 319 320 320 320 320 319 318 317 316 316 316 315 315 315 315 315 316 316 316 317 318 319 319 319 319 319 319 318 317 317 317 317 317 317 316 317 317 316 316 317 318 318 320 320 321 322 323 324 325 324 324 324 324 324 325 326 325
318 318 317 317 317 318 319 320 320 320 319 318 316 316 315 315 315 315 315 315 315 315 315 316 317 317 318 318 318 317 317 317 317 316 315 315 315 315 315 315 315 316 316 315 315 316 316 317 318 318 319 320 321 321 322 322 322 323 323 322 323 324 325
317 317 316 316 317 317 318 319 318 318 317 316 315 315 315 315 314 314 314 314 314 314 315 316 317 317 317 317 316 315 315 315 315 314 314 314 314 314 314 314 315 316 315 314 314 314 315 316 316 317 318 318 319 319 320 320 321 321 321 321 322 323 323
316 316 315 316 316 317 317 317 317 316 316 315 315 314 314 314 313 313 313 312 313 314 315 316 316 316 316 315 315 314 313 313 313 313 313 313 313 313 313 313 314 314 314 313 313 313 313 314 315 316 316 317 317 318 318 319 319 319 319 320 320 320 321
316 315 315 316 316 316 316 316 316 316 315 315 314 314 314 313 313 313 312 312 312 313 313 314 314 314 314 314 313 313 312 311 311 311 311 311 311 311 311 311 311 312 312 312 312 312 312 312 313 313 314 315 316 316 316 316 316 316 317 317 317 317 317
315 314 315 316 316 316 316 316 315 315 315 314 314 313 313 313 313 313 312 312 312 312 312 312 313 313 313 313 313 313 312 311 310 310 310 310 310 310 310 310 310 310 310 311 311 311 312 312 312 312 312 313 313 314 314 314 314 314 315 315 315 315 315
314 314 315 315 315 315 315 315 315 315 314 314 313 313 313 313 313 312 312 312 311 312 311 312 312 312 312 312 312 312 312 311 310 310 310 309 309 309 309 309 309 309 310 310 310 311 311 311 311 311 311 311 310 311 312 312 313 314 314 314 314 314 315
314 314 314 315 315 314 315 315 314 314 314 313 313 312 312 312 312 312 312 311 311 311 311 311 312 312 312 312 312 312 311 310 310 309 308 308 308 307 307 307 308 308 309 309 309 310 311 311 311 311 310 310 309 309 310 310 311 312 313 313 313 313 315
313 313 314 314 314 314 314 314 314 313 313 313 312 311 311 311 311 311 311 311 311 311 311 311 311 311 311 311 311 311 311 310 309 308 307 305 305 305 305 305 306 307 307 307 308 309 310 310 310 310 310 309 308 308 309 309 309 310 311 312 313 313 313
313 313 313 313 313 313 313 313 313 312 312 311 311 310 310 310 310 310 310 310 310 310 310 310 311 311 311 311 310 310 310 309 308 307 306 304 303 303 303 304 304 304 305 305 306 307 308 308 308 309 309 309 308 308 307 307 308 309 309 310 311 311 312
313 313 312 312 312 312 312 312 312 311 311 311 310 309 309 308 308 308 308 308 308 308 309 309 309 309 309 309 309 309 308 308 307 305 304 303 302 302 302 302 302 302 302 303 304 305 306 306 307 307 307 307 307 307 307 307 307 308 308 308 308 309 309
312 312 312 312 312 312 312 311 311 311 310 310 309 308 307 307 307 306 306 305 305 305 305 306 306 305 305 306 307 307 306 306 305 304 303 301 301 301 301 301 301 300 301 301 302 303 303 304 305 305 305 305 305 306 307 306 306 307 307 307 306 307 307
312 312 312 312 312 311 311 311 311 310 309 309 308 307 306 305 304 303 302 301 301 300 300 300 300 300 300 300 301 301 300 301 303 303 303 301 301 300 300 299 299 298 299 299 300 301 301 302 303 304 304 305 305 305 306 306 306 306 305 306 306 305 305
312 311 311 311 311 311 311 310 310 309 309 308 307 306 305 304 303 301 299 298 297 297 297 297 297 297 297 297 297 297 296 297 299 300 301 300 300 299 298 297 297 297 297 298 299 299 300 301 302 303 304 304 305 305 305 305 305 305 304 305 305 304 304
311 311 311 311 310 310 310 309 309 309 308 307 307 306 305 304 303 302 301 299 297 296 295 295 296 295 295 295 295 296 296 295 296 297 297 297 297 296 296 296 296 296 297 297 297 298 299 300 302 303 304 304 305 305 305 305 304 304 304 304 304 304 304